<?xml version="1.0" encoding="UTF-8" standalone="no" ?>
<gpx xmlns="http://www.topografix.com/GPX/1/1" xmlns:xsi="http://www.w3.org/2001/XMLSchema-instance" xsi:schemaLocation="http://www.topografix.com/GPX/1/1 http://www.topografix.com/GPX/1/1/gpx.xsd" version="1.1" creator="VisuGPX - https://www.visugpx.com">
  <metadata>
    <name>Trans-Andaines-2012</name>
    <desc><![CDATA[Circuit 45kms]]></desc>
  </metadata>
  <trk>
    <name><![CDATA[Trans-Andaines-2012_1]]></name>
    <trkseg>
      <trkpt lat="48.56114" lon="-0.41634">
        <ele>191.3</ele>
        <time>2012-09-23T06:40:52Z</time>
      </trkpt>
      <trkpt lat="48.56114" lon="-0.41634">
        <ele>191.3</ele>
        <time>2012-09-23T06:41:03Z</time>
      </trkpt>
      <trkpt lat="48.56114" lon="-0.41634">
        <ele>191.3</ele>
        <time>2012-09-23T06:42:46Z</time>
      </trkpt>
      <trkpt lat="48.56114" lon="-0.41634">
        <ele>254.8</ele>
        <time>2012-09-23T06:42:49Z</time>
      </trkpt>
      <trkpt lat="48.56128" lon="-0.4163">
        <ele>250.4</ele>
        <time>2012-09-23T06:42:55Z</time>
      </trkpt>
      <trkpt lat="48.56133" lon="-0.41615">
        <ele>250.6</ele>
        <time>2012-09-23T06:43:03Z</time>
      </trkpt>
      <trkpt lat="48.56126" lon="-0.41615">
        <ele>248.8</ele>
        <time>2012-09-23T06:43:06Z</time>
      </trkpt>
      <trkpt lat="48.56118" lon="-0.41612">
        <ele>247.8</ele>
        <time>2012-09-23T06:43:09Z</time>
      </trkpt>
      <trkpt lat="48.56104" lon="-0.4161">
        <ele>248.1</ele>
        <time>2012-09-23T06:43:12Z</time>
      </trkpt>
      <trkpt lat="48.56078" lon="-0.41607">
        <ele>246.7</ele>
        <time>2012-09-23T06:43:18Z</time>
      </trkpt>
      <trkpt lat="48.56069" lon="-0.41604">
        <ele>246.9</ele>
        <time>2012-09-23T06:43:20Z</time>
      </trkpt>
      <trkpt lat="48.56051" lon="-0.41601">
        <ele>244.8</ele>
        <time>2012-09-23T06:43:24Z</time>
      </trkpt>
      <trkpt lat="48.56008" lon="-0.41588">
        <ele>243.6</ele>
        <time>2012-09-23T06:43:31Z</time>
      </trkpt>
      <trkpt lat="48.55986" lon="-0.416">
        <ele>243.2</ele>
        <time>2012-09-23T06:43:35Z</time>
      </trkpt>
      <trkpt lat="48.55973" lon="-0.41625">
        <ele>240.7</ele>
        <time>2012-09-23T06:43:38Z</time>
      </trkpt>
      <trkpt lat="48.55957" lon="-0.4166">
        <ele>240</ele>
        <time>2012-09-23T06:43:42Z</time>
      </trkpt>
      <trkpt lat="48.5592" lon="-0.41656">
        <ele>238.7</ele>
        <time>2012-09-23T06:43:47Z</time>
      </trkpt>
      <trkpt lat="48.55896" lon="-0.41621">
        <ele>238</ele>
        <time>2012-09-23T06:43:51Z</time>
      </trkpt>
      <trkpt lat="48.55874" lon="-0.41597">
        <ele>239</ele>
        <time>2012-09-23T06:43:55Z</time>
      </trkpt>
      <trkpt lat="48.55854" lon="-0.41572">
        <ele>238.1</ele>
        <time>2012-09-23T06:43:59Z</time>
      </trkpt>
      <trkpt lat="48.55812" lon="-0.41536">
        <ele>235.9</ele>
        <time>2012-09-23T06:44:07Z</time>
      </trkpt>
      <trkpt lat="48.55786" lon="-0.41524">
        <ele>233.8</ele>
        <time>2012-09-23T06:44:11Z</time>
      </trkpt>
      <trkpt lat="48.55764" lon="-0.41519">
        <ele>232.2</ele>
        <time>2012-09-23T06:44:15Z</time>
      </trkpt>
      <trkpt lat="48.55745" lon="-0.41527">
        <ele>232.4</ele>
        <time>2012-09-23T06:44:19Z</time>
      </trkpt>
      <trkpt lat="48.55732" lon="-0.41543">
        <ele>233.1</ele>
        <time>2012-09-23T06:44:23Z</time>
      </trkpt>
      <trkpt lat="48.55718" lon="-0.41559">
        <ele>233</ele>
        <time>2012-09-23T06:44:26Z</time>
      </trkpt>
      <trkpt lat="48.55703" lon="-0.41587">
        <ele>233.2</ele>
        <time>2012-09-23T06:44:30Z</time>
      </trkpt>
      <trkpt lat="48.55691" lon="-0.41621">
        <ele>234.4</ele>
        <time>2012-09-23T06:44:34Z</time>
      </trkpt>
      <trkpt lat="48.55685" lon="-0.4167">
        <ele>232.1</ele>
        <time>2012-09-23T06:44:39Z</time>
      </trkpt>
      <trkpt lat="48.55691" lon="-0.41709">
        <ele>231.1</ele>
        <time>2012-09-23T06:44:43Z</time>
      </trkpt>
      <trkpt lat="48.55702" lon="-0.41741">
        <ele>230.4</ele>
        <time>2012-09-23T06:44:47Z</time>
      </trkpt>
      <trkpt lat="48.5572" lon="-0.41768">
        <ele>230.7</ele>
        <time>2012-09-23T06:44:51Z</time>
      </trkpt>
      <trkpt lat="48.55737" lon="-0.41792">
        <ele>230.8</ele>
        <time>2012-09-23T06:44:55Z</time>
      </trkpt>
      <trkpt lat="48.55751" lon="-0.41821">
        <ele>231.1</ele>
        <time>2012-09-23T06:44:59Z</time>
      </trkpt>
      <trkpt lat="48.55761" lon="-0.41843">
        <ele>231.7</ele>
        <time>2012-09-23T06:45:02Z</time>
      </trkpt>
      <trkpt lat="48.55773" lon="-0.4187">
        <ele>233.6</ele>
        <time>2012-09-23T06:45:06Z</time>
      </trkpt>
      <trkpt lat="48.55784" lon="-0.41896">
        <ele>234.7</ele>
        <time>2012-09-23T06:45:10Z</time>
      </trkpt>
      <trkpt lat="48.55797" lon="-0.41924">
        <ele>235.5</ele>
        <time>2012-09-23T06:45:14Z</time>
      </trkpt>
      <trkpt lat="48.55811" lon="-0.4195">
        <ele>236.9</ele>
        <time>2012-09-23T06:45:18Z</time>
      </trkpt>
      <trkpt lat="48.55829" lon="-0.41957">
        <ele>237.1</ele>
        <time>2012-09-23T06:45:22Z</time>
      </trkpt>
      <trkpt lat="48.55845" lon="-0.41963">
        <ele>238.2</ele>
        <time>2012-09-23T06:45:25Z</time>
      </trkpt>
      <trkpt lat="48.55875" lon="-0.41984">
        <ele>238.5</ele>
        <time>2012-09-23T06:45:30Z</time>
      </trkpt>
      <trkpt lat="48.55897" lon="-0.41999">
        <ele>239</ele>
        <time>2012-09-23T06:45:34Z</time>
      </trkpt>
      <trkpt lat="48.55924" lon="-0.42016">
        <ele>238.8</ele>
        <time>2012-09-23T06:45:39Z</time>
      </trkpt>
      <trkpt lat="48.55948" lon="-0.42036">
        <ele>237.8</ele>
        <time>2012-09-23T06:45:43Z</time>
      </trkpt>
      <trkpt lat="48.55973" lon="-0.42053">
        <ele>237.3</ele>
        <time>2012-09-23T06:45:47Z</time>
      </trkpt>
      <trkpt lat="48.5599" lon="-0.42066">
        <ele>237.5</ele>
        <time>2012-09-23T06:45:50Z</time>
      </trkpt>
      <trkpt lat="48.56013" lon="-0.42082">
        <ele>238.4</ele>
        <time>2012-09-23T06:45:54Z</time>
      </trkpt>
      <trkpt lat="48.56034" lon="-0.42095">
        <ele>238.6</ele>
        <time>2012-09-23T06:45:58Z</time>
      </trkpt>
      <trkpt lat="48.56056" lon="-0.42107">
        <ele>239.3</ele>
        <time>2012-09-23T06:46:02Z</time>
      </trkpt>
      <trkpt lat="48.56077" lon="-0.42121">
        <ele>240.3</ele>
        <time>2012-09-23T06:46:06Z</time>
      </trkpt>
      <trkpt lat="48.56102" lon="-0.42144">
        <ele>241.5</ele>
        <time>2012-09-23T06:46:11Z</time>
      </trkpt>
      <trkpt lat="48.56132" lon="-0.42163">
        <ele>241.8</ele>
        <time>2012-09-23T06:46:15Z</time>
      </trkpt>
      <trkpt lat="48.56156" lon="-0.42175">
        <ele>241.8</ele>
        <time>2012-09-23T06:46:19Z</time>
      </trkpt>
      <trkpt lat="48.56178" lon="-0.4219">
        <ele>242.2</ele>
        <time>2012-09-23T06:46:23Z</time>
      </trkpt>
      <trkpt lat="48.56192" lon="-0.42209">
        <ele>243.4</ele>
        <time>2012-09-23T06:46:27Z</time>
      </trkpt>
      <trkpt lat="48.56208" lon="-0.42219">
        <ele>243.6</ele>
        <time>2012-09-23T06:46:30Z</time>
      </trkpt>
      <trkpt lat="48.56223" lon="-0.4223">
        <ele>243.2</ele>
        <time>2012-09-23T06:46:34Z</time>
      </trkpt>
      <trkpt lat="48.56237" lon="-0.42239">
        <ele>243.3</ele>
        <time>2012-09-23T06:46:38Z</time>
      </trkpt>
      <trkpt lat="48.56252" lon="-0.42249">
        <ele>243.6</ele>
        <time>2012-09-23T06:46:43Z</time>
      </trkpt>
      <trkpt lat="48.5626" lon="-0.42253">
        <ele>244.3</ele>
        <time>2012-09-23T06:46:46Z</time>
      </trkpt>
      <trkpt lat="48.56269" lon="-0.42259">
        <ele>246</ele>
        <time>2012-09-23T06:46:49Z</time>
      </trkpt>
      <trkpt lat="48.56288" lon="-0.42265">
        <ele>248.6</ele>
        <time>2012-09-23T06:46:55Z</time>
      </trkpt>
      <trkpt lat="48.56293" lon="-0.42275">
        <ele>250</ele>
        <time>2012-09-23T06:46:58Z</time>
      </trkpt>
      <trkpt lat="48.56298" lon="-0.4228">
        <ele>252.3</ele>
        <time>2012-09-23T06:47:03Z</time>
      </trkpt>
      <trkpt lat="48.56311" lon="-0.42285">
        <ele>253.7</ele>
        <time>2012-09-23T06:47:07Z</time>
      </trkpt>
      <trkpt lat="48.56318" lon="-0.42291">
        <ele>255.1</ele>
        <time>2012-09-23T06:47:10Z</time>
      </trkpt>
      <trkpt lat="48.56324" lon="-0.42296">
        <ele>255.4</ele>
        <time>2012-09-23T06:47:13Z</time>
      </trkpt>
      <trkpt lat="48.56337" lon="-0.42307">
        <ele>257.5</ele>
        <time>2012-09-23T06:47:19Z</time>
      </trkpt>
      <trkpt lat="48.56344" lon="-0.42316">
        <ele>261.3</ele>
        <time>2012-09-23T06:47:22Z</time>
      </trkpt>
      <trkpt lat="48.56359" lon="-0.42325">
        <ele>261.4</ele>
        <time>2012-09-23T06:47:27Z</time>
      </trkpt>
      <trkpt lat="48.56366" lon="-0.42328">
        <ele>260.9</ele>
        <time>2012-09-23T06:47:30Z</time>
      </trkpt>
      <trkpt lat="48.56373" lon="-0.42331">
        <ele>262.5</ele>
        <time>2012-09-23T06:47:33Z</time>
      </trkpt>
      <trkpt lat="48.56389" lon="-0.4234">
        <ele>264.1</ele>
        <time>2012-09-23T06:47:40Z</time>
      </trkpt>
      <trkpt lat="48.564" lon="-0.42351">
        <ele>264.5</ele>
        <time>2012-09-23T06:47:45Z</time>
      </trkpt>
      <trkpt lat="48.56406" lon="-0.42355">
        <ele>265.8</ele>
        <time>2012-09-23T06:47:48Z</time>
      </trkpt>
      <trkpt lat="48.56431" lon="-0.42368">
        <ele>264.7</ele>
        <time>2012-09-23T06:47:55Z</time>
      </trkpt>
      <trkpt lat="48.5644" lon="-0.42373">
        <ele>265.7</ele>
        <time>2012-09-23T06:47:58Z</time>
      </trkpt>
      <trkpt lat="48.56448" lon="-0.42376">
        <ele>267</ele>
        <time>2012-09-23T06:48:03Z</time>
      </trkpt>
      <trkpt lat="48.56455" lon="-0.42382">
        <ele>268</ele>
        <time>2012-09-23T06:48:07Z</time>
      </trkpt>
      <trkpt lat="48.56464" lon="-0.42384">
        <ele>268.6</ele>
        <time>2012-09-23T06:48:10Z</time>
      </trkpt>
      <trkpt lat="48.56478" lon="-0.42391">
        <ele>270</ele>
        <time>2012-09-23T06:48:15Z</time>
      </trkpt>
      <trkpt lat="48.56498" lon="-0.42408">
        <ele>270.4</ele>
        <time>2012-09-23T06:48:23Z</time>
      </trkpt>
      <trkpt lat="48.56505" lon="-0.42411">
        <ele>270.5</ele>
        <time>2012-09-23T06:48:26Z</time>
      </trkpt>
      <trkpt lat="48.56512" lon="-0.42416">
        <ele>270.2</ele>
        <time>2012-09-23T06:48:29Z</time>
      </trkpt>
      <trkpt lat="48.56518" lon="-0.42424">
        <ele>270.6</ele>
        <time>2012-09-23T06:48:33Z</time>
      </trkpt>
      <trkpt lat="48.56525" lon="-0.4243">
        <ele>270.9</ele>
        <time>2012-09-23T06:48:37Z</time>
      </trkpt>
      <trkpt lat="48.56539" lon="-0.42437">
        <ele>271.5</ele>
        <time>2012-09-23T06:48:42Z</time>
      </trkpt>
      <trkpt lat="48.56547" lon="-0.42439">
        <ele>271.6</ele>
        <time>2012-09-23T06:48:45Z</time>
      </trkpt>
      <trkpt lat="48.5656" lon="-0.42447">
        <ele>276</ele>
        <time>2012-09-23T06:48:51Z</time>
      </trkpt>
      <trkpt lat="48.56566" lon="-0.42453">
        <ele>276.3</ele>
        <time>2012-09-23T06:48:54Z</time>
      </trkpt>
      <trkpt lat="48.56574" lon="-0.42458">
        <ele>277</ele>
        <time>2012-09-23T06:48:58Z</time>
      </trkpt>
      <trkpt lat="48.5658" lon="-0.42462">
        <ele>276.9</ele>
        <time>2012-09-23T06:49:00Z</time>
      </trkpt>
      <trkpt lat="48.56594" lon="-0.4247">
        <ele>278.2</ele>
        <time>2012-09-23T06:49:07Z</time>
      </trkpt>
      <trkpt lat="48.566" lon="-0.42473">
        <ele>278.1</ele>
        <time>2012-09-23T06:49:09Z</time>
      </trkpt>
      <trkpt lat="48.56615" lon="-0.4248">
        <ele>277.6</ele>
        <time>2012-09-23T06:49:15Z</time>
      </trkpt>
      <trkpt lat="48.56623" lon="-0.42485">
        <ele>275.6</ele>
        <time>2012-09-23T06:49:17Z</time>
      </trkpt>
      <trkpt lat="48.56639" lon="-0.42494">
        <ele>273.9</ele>
        <time>2012-09-23T06:49:23Z</time>
      </trkpt>
      <trkpt lat="48.56646" lon="-0.42499">
        <ele>274</ele>
        <time>2012-09-23T06:49:26Z</time>
      </trkpt>
      <trkpt lat="48.5666" lon="-0.42506">
        <ele>276.3</ele>
        <time>2012-09-23T06:49:30Z</time>
      </trkpt>
      <trkpt lat="48.56676" lon="-0.42516">
        <ele>277</ele>
        <time>2012-09-23T06:49:35Z</time>
      </trkpt>
      <trkpt lat="48.5669" lon="-0.42529">
        <ele>277.8</ele>
        <time>2012-09-23T06:49:39Z</time>
      </trkpt>
      <trkpt lat="48.56696" lon="-0.42534">
        <ele>278.6</ele>
        <time>2012-09-23T06:49:41Z</time>
      </trkpt>
      <trkpt lat="48.56716" lon="-0.42546">
        <ele>277</ele>
        <time>2012-09-23T06:49:46Z</time>
      </trkpt>
      <trkpt lat="48.56733" lon="-0.42557">
        <ele>277.5</ele>
        <time>2012-09-23T06:49:50Z</time>
      </trkpt>
      <trkpt lat="48.56753" lon="-0.42572">
        <ele>278.6</ele>
        <time>2012-09-23T06:49:54Z</time>
      </trkpt>
      <trkpt lat="48.56781" lon="-0.42586">
        <ele>275</ele>
        <time>2012-09-23T06:49:59Z</time>
      </trkpt>
      <trkpt lat="48.56806" lon="-0.42606">
        <ele>273</ele>
        <time>2012-09-23T06:50:03Z</time>
      </trkpt>
      <trkpt lat="48.56831" lon="-0.42626">
        <ele>272.6</ele>
        <time>2012-09-23T06:50:07Z</time>
      </trkpt>
      <trkpt lat="48.56855" lon="-0.42642">
        <ele>271.8</ele>
        <time>2012-09-23T06:50:11Z</time>
      </trkpt>
      <trkpt lat="48.56874" lon="-0.42653">
        <ele>268.9</ele>
        <time>2012-09-23T06:50:14Z</time>
      </trkpt>
      <trkpt lat="48.56902" lon="-0.42671">
        <ele>269</ele>
        <time>2012-09-23T06:50:19Z</time>
      </trkpt>
      <trkpt lat="48.56926" lon="-0.42689">
        <ele>269.9</ele>
        <time>2012-09-23T06:50:23Z</time>
      </trkpt>
      <trkpt lat="48.56945" lon="-0.42703">
        <ele>270.9</ele>
        <time>2012-09-23T06:50:26Z</time>
      </trkpt>
      <trkpt lat="48.56968" lon="-0.42718">
        <ele>270.4</ele>
        <time>2012-09-23T06:50:30Z</time>
      </trkpt>
      <trkpt lat="48.56991" lon="-0.42735">
        <ele>268.9</ele>
        <time>2012-09-23T06:50:34Z</time>
      </trkpt>
      <trkpt lat="48.57016" lon="-0.42753">
        <ele>269.3</ele>
        <time>2012-09-23T06:50:38Z</time>
      </trkpt>
      <trkpt lat="48.57047" lon="-0.42771">
        <ele>269.4</ele>
        <time>2012-09-23T06:50:43Z</time>
      </trkpt>
      <trkpt lat="48.57074" lon="-0.4278">
        <ele>268.1</ele>
        <time>2012-09-23T06:50:47Z</time>
      </trkpt>
      <trkpt lat="48.57092" lon="-0.42783">
        <ele>269.4</ele>
        <time>2012-09-23T06:50:50Z</time>
      </trkpt>
      <trkpt lat="48.57124" lon="-0.42792">
        <ele>271.1</ele>
        <time>2012-09-23T06:50:55Z</time>
      </trkpt>
      <trkpt lat="48.5715" lon="-0.42795">
        <ele>269.4</ele>
        <time>2012-09-23T06:50:59Z</time>
      </trkpt>
      <trkpt lat="48.57168" lon="-0.42796">
        <ele>268.1</ele>
        <time>2012-09-23T06:51:02Z</time>
      </trkpt>
      <trkpt lat="48.5719" lon="-0.42799">
        <ele>268.6</ele>
        <time>2012-09-23T06:51:06Z</time>
      </trkpt>
      <trkpt lat="48.57212" lon="-0.42803">
        <ele>270.2</ele>
        <time>2012-09-23T06:51:10Z</time>
      </trkpt>
      <trkpt lat="48.57232" lon="-0.42812">
        <ele>270.5</ele>
        <time>2012-09-23T06:51:14Z</time>
      </trkpt>
      <trkpt lat="48.57249" lon="-0.4283">
        <ele>270</ele>
        <time>2012-09-23T06:51:18Z</time>
      </trkpt>
      <trkpt lat="48.57266" lon="-0.42848">
        <ele>269.1</ele>
        <time>2012-09-23T06:51:22Z</time>
      </trkpt>
      <trkpt lat="48.57282" lon="-0.4287">
        <ele>268.9</ele>
        <time>2012-09-23T06:51:26Z</time>
      </trkpt>
      <trkpt lat="48.57295" lon="-0.42886">
        <ele>268.6</ele>
        <time>2012-09-23T06:51:30Z</time>
      </trkpt>
      <trkpt lat="48.57307" lon="-0.42908">
        <ele>268.5</ele>
        <time>2012-09-23T06:51:34Z</time>
      </trkpt>
      <trkpt lat="48.57323" lon="-0.42934">
        <ele>268.9</ele>
        <time>2012-09-23T06:51:38Z</time>
      </trkpt>
      <trkpt lat="48.57345" lon="-0.42967">
        <ele>269.3</ele>
        <time>2012-09-23T06:51:43Z</time>
      </trkpt>
      <trkpt lat="48.57361" lon="-0.42992">
        <ele>269</ele>
        <time>2012-09-23T06:51:47Z</time>
      </trkpt>
      <trkpt lat="48.57378" lon="-0.43016">
        <ele>269.4</ele>
        <time>2012-09-23T06:51:51Z</time>
      </trkpt>
      <trkpt lat="48.57394" lon="-0.4304">
        <ele>268.9</ele>
        <time>2012-09-23T06:51:55Z</time>
      </trkpt>
      <trkpt lat="48.57406" lon="-0.4306">
        <ele>268.2</ele>
        <time>2012-09-23T06:51:58Z</time>
      </trkpt>
      <trkpt lat="48.57421" lon="-0.43086">
        <ele>267.8</ele>
        <time>2012-09-23T06:52:02Z</time>
      </trkpt>
      <trkpt lat="48.57442" lon="-0.43114">
        <ele>268</ele>
        <time>2012-09-23T06:52:07Z</time>
      </trkpt>
      <trkpt lat="48.57456" lon="-0.43138">
        <ele>270.1</ele>
        <time>2012-09-23T06:52:11Z</time>
      </trkpt>
      <trkpt lat="48.57472" lon="-0.43161">
        <ele>271</ele>
        <time>2012-09-23T06:52:15Z</time>
      </trkpt>
      <trkpt lat="48.57488" lon="-0.43186">
        <ele>271.4</ele>
        <time>2012-09-23T06:52:19Z</time>
      </trkpt>
      <trkpt lat="48.57504" lon="-0.43208">
        <ele>270.4</ele>
        <time>2012-09-23T06:52:23Z</time>
      </trkpt>
      <trkpt lat="48.57521" lon="-0.4323">
        <ele>269.7</ele>
        <time>2012-09-23T06:52:27Z</time>
      </trkpt>
      <trkpt lat="48.5753" lon="-0.43261">
        <ele>270.7</ele>
        <time>2012-09-23T06:52:31Z</time>
      </trkpt>
      <trkpt lat="48.57544" lon="-0.43277">
        <ele>270.7</ele>
        <time>2012-09-23T06:52:34Z</time>
      </trkpt>
      <trkpt lat="48.57556" lon="-0.43297">
        <ele>272.8</ele>
        <time>2012-09-23T06:52:37Z</time>
      </trkpt>
      <trkpt lat="48.57577" lon="-0.43333">
        <ele>275.1</ele>
        <time>2012-09-23T06:52:43Z</time>
      </trkpt>
      <trkpt lat="48.57594" lon="-0.4336">
        <ele>274</ele>
        <time>2012-09-23T06:52:47Z</time>
      </trkpt>
      <trkpt lat="48.57612" lon="-0.43385">
        <ele>274</ele>
        <time>2012-09-23T06:52:51Z</time>
      </trkpt>
      <trkpt lat="48.57625" lon="-0.43403">
        <ele>273</ele>
        <time>2012-09-23T06:52:54Z</time>
      </trkpt>
      <trkpt lat="48.57644" lon="-0.43433">
        <ele>273.1</ele>
        <time>2012-09-23T06:52:59Z</time>
      </trkpt>
      <trkpt lat="48.5766" lon="-0.43461">
        <ele>272.3</ele>
        <time>2012-09-23T06:53:03Z</time>
      </trkpt>
      <trkpt lat="48.57677" lon="-0.43486">
        <ele>272.6</ele>
        <time>2012-09-23T06:53:07Z</time>
      </trkpt>
      <trkpt lat="48.57694" lon="-0.43506">
        <ele>273.2</ele>
        <time>2012-09-23T06:53:11Z</time>
      </trkpt>
      <trkpt lat="48.57706" lon="-0.43527">
        <ele>272.1</ele>
        <time>2012-09-23T06:53:14Z</time>
      </trkpt>
      <trkpt lat="48.57723" lon="-0.43552">
        <ele>271</ele>
        <time>2012-09-23T06:53:18Z</time>
      </trkpt>
      <trkpt lat="48.57736" lon="-0.43575">
        <ele>269.6</ele>
        <time>2012-09-23T06:53:22Z</time>
      </trkpt>
      <trkpt lat="48.57753" lon="-0.436">
        <ele>270.8</ele>
        <time>2012-09-23T06:53:26Z</time>
      </trkpt>
      <trkpt lat="48.57769" lon="-0.43623">
        <ele>270.4</ele>
        <time>2012-09-23T06:53:30Z</time>
      </trkpt>
      <trkpt lat="48.57782" lon="-0.43648">
        <ele>270.7</ele>
        <time>2012-09-23T06:53:34Z</time>
      </trkpt>
      <trkpt lat="48.57801" lon="-0.43681">
        <ele>270.2</ele>
        <time>2012-09-23T06:53:39Z</time>
      </trkpt>
      <trkpt lat="48.57816" lon="-0.43695">
        <ele>270.9</ele>
        <time>2012-09-23T06:53:42Z</time>
      </trkpt>
      <trkpt lat="48.57838" lon="-0.43726">
        <ele>272.2</ele>
        <time>2012-09-23T06:53:47Z</time>
      </trkpt>
      <trkpt lat="48.57853" lon="-0.43755">
        <ele>273.3</ele>
        <time>2012-09-23T06:53:51Z</time>
      </trkpt>
      <trkpt lat="48.57869" lon="-0.43782">
        <ele>274.2</ele>
        <time>2012-09-23T06:53:55Z</time>
      </trkpt>
      <trkpt lat="48.57884" lon="-0.438">
        <ele>274.1</ele>
        <time>2012-09-23T06:53:58Z</time>
      </trkpt>
      <trkpt lat="48.57904" lon="-0.43841">
        <ele>276.1</ele>
        <time>2012-09-23T06:54:04Z</time>
      </trkpt>
      <trkpt lat="48.57929" lon="-0.43875">
        <ele>276.6</ele>
        <time>2012-09-23T06:54:10Z</time>
      </trkpt>
      <trkpt lat="48.57949" lon="-0.43901">
        <ele>276.7</ele>
        <time>2012-09-23T06:54:15Z</time>
      </trkpt>
      <trkpt lat="48.57963" lon="-0.43927">
        <ele>278</ele>
        <time>2012-09-23T06:54:19Z</time>
      </trkpt>
      <trkpt lat="48.5798" lon="-0.43945">
        <ele>278.3</ele>
        <time>2012-09-23T06:54:23Z</time>
      </trkpt>
      <trkpt lat="48.57991" lon="-0.4397">
        <ele>279.5</ele>
        <time>2012-09-23T06:54:27Z</time>
      </trkpt>
      <trkpt lat="48.58005" lon="-0.43981">
        <ele>278.1</ele>
        <time>2012-09-23T06:54:30Z</time>
      </trkpt>
      <trkpt lat="48.58016" lon="-0.44003">
        <ele>278.8</ele>
        <time>2012-09-23T06:54:33Z</time>
      </trkpt>
      <trkpt lat="48.58035" lon="-0.44037">
        <ele>278.2</ele>
        <time>2012-09-23T06:54:39Z</time>
      </trkpt>
      <trkpt lat="48.58049" lon="-0.44058">
        <ele>278.2</ele>
        <time>2012-09-23T06:54:43Z</time>
      </trkpt>
      <trkpt lat="48.58063" lon="-0.44079">
        <ele>278.7</ele>
        <time>2012-09-23T06:54:47Z</time>
      </trkpt>
      <trkpt lat="48.58076" lon="-0.44102">
        <ele>279</ele>
        <time>2012-09-23T06:54:51Z</time>
      </trkpt>
      <trkpt lat="48.58091" lon="-0.44122">
        <ele>277.2</ele>
        <time>2012-09-23T06:54:55Z</time>
      </trkpt>
      <trkpt lat="48.5811" lon="-0.44158">
        <ele>278.9</ele>
        <time>2012-09-23T06:55:01Z</time>
      </trkpt>
      <trkpt lat="48.5813" lon="-0.44185">
        <ele>279.8</ele>
        <time>2012-09-23T06:55:07Z</time>
      </trkpt>
      <trkpt lat="48.58143" lon="-0.44204">
        <ele>279.6</ele>
        <time>2012-09-23T06:55:11Z</time>
      </trkpt>
      <trkpt lat="48.58169" lon="-0.44213">
        <ele>280.3</ele>
        <time>2012-09-23T06:55:17Z</time>
      </trkpt>
      <trkpt lat="48.58191" lon="-0.442">
        <ele>279.3</ele>
        <time>2012-09-23T06:55:23Z</time>
      </trkpt>
      <trkpt lat="48.58204" lon="-0.44186">
        <ele>280.1</ele>
        <time>2012-09-23T06:55:27Z</time>
      </trkpt>
      <trkpt lat="48.58222" lon="-0.44173">
        <ele>280.9</ele>
        <time>2012-09-23T06:55:31Z</time>
      </trkpt>
      <trkpt lat="48.58242" lon="-0.44158">
        <ele>281.7</ele>
        <time>2012-09-23T06:55:35Z</time>
      </trkpt>
      <trkpt lat="48.58256" lon="-0.44144">
        <ele>280.4</ele>
        <time>2012-09-23T06:55:38Z</time>
      </trkpt>
      <trkpt lat="48.58283" lon="-0.44127">
        <ele>279.7</ele>
        <time>2012-09-23T06:55:43Z</time>
      </trkpt>
      <trkpt lat="48.58298" lon="-0.4411">
        <ele>280.3</ele>
        <time>2012-09-23T06:55:47Z</time>
      </trkpt>
      <trkpt lat="48.58314" lon="-0.44101">
        <ele>279</ele>
        <time>2012-09-23T06:55:51Z</time>
      </trkpt>
      <trkpt lat="48.58338" lon="-0.44113">
        <ele>279.6</ele>
        <time>2012-09-23T06:55:57Z</time>
      </trkpt>
      <trkpt lat="48.58353" lon="-0.44117">
        <ele>279.3</ele>
        <time>2012-09-23T06:56:02Z</time>
      </trkpt>
      <trkpt lat="48.58371" lon="-0.44119">
        <ele>280.8</ele>
        <time>2012-09-23T06:56:07Z</time>
      </trkpt>
      <trkpt lat="48.5838" lon="-0.44121">
        <ele>280.9</ele>
        <time>2012-09-23T06:56:09Z</time>
      </trkpt>
      <trkpt lat="48.58395" lon="-0.44112">
        <ele>280.2</ele>
        <time>2012-09-23T06:56:15Z</time>
      </trkpt>
      <trkpt lat="48.58403" lon="-0.44113">
        <ele>279.3</ele>
        <time>2012-09-23T06:56:18Z</time>
      </trkpt>
      <trkpt lat="48.58433" lon="-0.44112">
        <ele>276.7</ele>
        <time>2012-09-23T06:56:27Z</time>
      </trkpt>
      <trkpt lat="48.58439" lon="-0.44109">
        <ele>277.4</ele>
        <time>2012-09-23T06:56:28Z</time>
      </trkpt>
      <trkpt lat="48.58465" lon="-0.44107">
        <ele>277.2</ele>
        <time>2012-09-23T06:56:36Z</time>
      </trkpt>
      <trkpt lat="48.58478" lon="-0.44109">
        <ele>276.3</ele>
        <time>2012-09-23T06:56:40Z</time>
      </trkpt>
      <trkpt lat="48.58491" lon="-0.44107">
        <ele>274.5</ele>
        <time>2012-09-23T06:56:47Z</time>
      </trkpt>
      <trkpt lat="48.58496" lon="-0.44099">
        <ele>275.3</ele>
        <time>2012-09-23T06:56:55Z</time>
      </trkpt>
      <trkpt lat="48.58495" lon="-0.44108">
        <ele>274.1</ele>
        <time>2012-09-23T06:57:05Z</time>
      </trkpt>
      <trkpt lat="48.58495" lon="-0.44108">
        <ele>206</ele>
        <time>2012-09-23T06:57:16Z</time>
      </trkpt>
      <trkpt lat="48.58495" lon="-0.44108">
        <ele>206</ele>
        <time>2012-09-23T06:57:25Z</time>
      </trkpt>
      <trkpt lat="48.58521" lon="-0.44095">
        <ele>272.7</ele>
        <time>2012-09-23T06:57:34Z</time>
      </trkpt>
      <trkpt lat="48.58528" lon="-0.44076">
        <ele>272.9</ele>
        <time>2012-09-23T06:57:39Z</time>
      </trkpt>
      <trkpt lat="48.58528" lon="-0.44064">
        <ele>271.4</ele>
        <time>2012-09-23T06:57:43Z</time>
      </trkpt>
      <trkpt lat="48.58529" lon="-0.44037">
        <ele>265.4</ele>
        <time>2012-09-23T06:57:47Z</time>
      </trkpt>
      <trkpt lat="48.58529" lon="-0.44014">
        <ele>266.5</ele>
        <time>2012-09-23T06:57:52Z</time>
      </trkpt>
      <trkpt lat="48.58528" lon="-0.43992">
        <ele>264.5</ele>
        <time>2012-09-23T06:57:56Z</time>
      </trkpt>
      <trkpt lat="48.58527" lon="-0.43978">
        <ele>264.4</ele>
        <time>2012-09-23T06:57:59Z</time>
      </trkpt>
      <trkpt lat="48.58525" lon="-0.43953">
        <ele>263.9</ele>
        <time>2012-09-23T06:58:04Z</time>
      </trkpt>
      <trkpt lat="48.58525" lon="-0.43933">
        <ele>263.9</ele>
        <time>2012-09-23T06:58:08Z</time>
      </trkpt>
      <trkpt lat="48.58524" lon="-0.43923">
        <ele>264.8</ele>
        <time>2012-09-23T06:58:10Z</time>
      </trkpt>
      <trkpt lat="48.58522" lon="-0.43898">
        <ele>264.5</ele>
        <time>2012-09-23T06:58:15Z</time>
      </trkpt>
      <trkpt lat="48.58522" lon="-0.43877">
        <ele>263.8</ele>
        <time>2012-09-23T06:58:19Z</time>
      </trkpt>
      <trkpt lat="48.58521" lon="-0.4385">
        <ele>265.6</ele>
        <time>2012-09-23T06:58:24Z</time>
      </trkpt>
      <trkpt lat="48.58522" lon="-0.43827">
        <ele>266.1</ele>
        <time>2012-09-23T06:58:28Z</time>
      </trkpt>
      <trkpt lat="48.58522" lon="-0.43803">
        <ele>267.2</ele>
        <time>2012-09-23T06:58:32Z</time>
      </trkpt>
      <trkpt lat="48.5852" lon="-0.4377">
        <ele>264.6</ele>
        <time>2012-09-23T06:58:36Z</time>
      </trkpt>
      <trkpt lat="48.58512" lon="-0.43728">
        <ele>262.9</ele>
        <time>2012-09-23T06:58:40Z</time>
      </trkpt>
      <trkpt lat="48.58509" lon="-0.43686">
        <ele>263.3</ele>
        <time>2012-09-23T06:58:44Z</time>
      </trkpt>
      <trkpt lat="48.58508" lon="-0.43668">
        <ele>263.2</ele>
        <time>2012-09-23T06:58:46Z</time>
      </trkpt>
      <trkpt lat="48.58504" lon="-0.43617">
        <ele>263.7</ele>
        <time>2012-09-23T06:58:52Z</time>
      </trkpt>
      <trkpt lat="48.58502" lon="-0.43592">
        <ele>262.4</ele>
        <time>2012-09-23T06:58:56Z</time>
      </trkpt>
      <trkpt lat="48.58502" lon="-0.43571">
        <ele>262.8</ele>
        <time>2012-09-23T06:59:00Z</time>
      </trkpt>
      <trkpt lat="48.58503" lon="-0.4355">
        <ele>262.6</ele>
        <time>2012-09-23T06:59:06Z</time>
      </trkpt>
      <trkpt lat="48.58507" lon="-0.43558">
        <ele>263.8</ele>
        <time>2012-09-23T06:59:13Z</time>
      </trkpt>
      <trkpt lat="48.58527" lon="-0.4356">
        <ele>264.7</ele>
        <time>2012-09-23T06:59:20Z</time>
      </trkpt>
      <trkpt lat="48.58534" lon="-0.43562">
        <ele>266.2</ele>
        <time>2012-09-23T06:59:22Z</time>
      </trkpt>
      <trkpt lat="48.58548" lon="-0.43573">
        <ele>269.2</ele>
        <time>2012-09-23T06:59:28Z</time>
      </trkpt>
      <trkpt lat="48.58555" lon="-0.4358">
        <ele>270.7</ele>
        <time>2012-09-23T06:59:31Z</time>
      </trkpt>
      <trkpt lat="48.58561" lon="-0.43585">
        <ele>271.4</ele>
        <time>2012-09-23T06:59:34Z</time>
      </trkpt>
      <trkpt lat="48.58575" lon="-0.43586">
        <ele>272.7</ele>
        <time>2012-09-23T06:59:38Z</time>
      </trkpt>
      <trkpt lat="48.58583" lon="-0.43587">
        <ele>274.2</ele>
        <time>2012-09-23T06:59:41Z</time>
      </trkpt>
      <trkpt lat="48.58591" lon="-0.43606">
        <ele>275</ele>
        <time>2012-09-23T06:59:48Z</time>
      </trkpt>
      <trkpt lat="48.5859" lon="-0.43618">
        <ele>276.8</ele>
        <time>2012-09-23T06:59:52Z</time>
      </trkpt>
      <trkpt lat="48.58589" lon="-0.43629">
        <ele>277.7</ele>
        <time>2012-09-23T06:59:55Z</time>
      </trkpt>
      <trkpt lat="48.58588" lon="-0.43641">
        <ele>278.3</ele>
        <time>2012-09-23T06:59:58Z</time>
      </trkpt>
      <trkpt lat="48.58585" lon="-0.43665">
        <ele>278.6</ele>
        <time>2012-09-23T07:00:04Z</time>
      </trkpt>
      <trkpt lat="48.58586" lon="-0.43677">
        <ele>281</ele>
        <time>2012-09-23T07:00:08Z</time>
      </trkpt>
      <trkpt lat="48.58585" lon="-0.43689">
        <ele>283.3</ele>
        <time>2012-09-23T07:00:11Z</time>
      </trkpt>
      <trkpt lat="48.58584" lon="-0.43699">
        <ele>283.9</ele>
        <time>2012-09-23T07:00:15Z</time>
      </trkpt>
      <trkpt lat="48.58579" lon="-0.43732">
        <ele>284.8</ele>
        <time>2012-09-23T07:00:26Z</time>
      </trkpt>
      <trkpt lat="48.58572" lon="-0.43751">
        <ele>283.1</ele>
        <time>2012-09-23T07:00:32Z</time>
      </trkpt>
      <trkpt lat="48.5857" lon="-0.43764">
        <ele>282.2</ele>
        <time>2012-09-23T07:00:35Z</time>
      </trkpt>
      <trkpt lat="48.58568" lon="-0.43777">
        <ele>281.7</ele>
        <time>2012-09-23T07:00:38Z</time>
      </trkpt>
      <trkpt lat="48.58563" lon="-0.43802">
        <ele>281.5</ele>
        <time>2012-09-23T07:00:44Z</time>
      </trkpt>
      <trkpt lat="48.58561" lon="-0.43812">
        <ele>281.3</ele>
        <time>2012-09-23T07:00:46Z</time>
      </trkpt>
      <trkpt lat="48.58565" lon="-0.4385">
        <ele>280.8</ele>
        <time>2012-09-23T07:00:56Z</time>
      </trkpt>
      <trkpt lat="48.58569" lon="-0.4386">
        <ele>280.6</ele>
        <time>2012-09-23T07:00:59Z</time>
      </trkpt>
      <trkpt lat="48.58572" lon="-0.43872">
        <ele>276.4</ele>
        <time>2012-09-23T07:01:02Z</time>
      </trkpt>
      <trkpt lat="48.58578" lon="-0.43894">
        <ele>274.3</ele>
        <time>2012-09-23T07:01:07Z</time>
      </trkpt>
      <trkpt lat="48.58582" lon="-0.43901">
        <ele>275.3</ele>
        <time>2012-09-23T07:01:10Z</time>
      </trkpt>
      <trkpt lat="48.58595" lon="-0.43915">
        <ele>277.3</ele>
        <time>2012-09-23T07:01:16Z</time>
      </trkpt>
      <trkpt lat="48.586" lon="-0.4392">
        <ele>278.6</ele>
        <time>2012-09-23T07:01:19Z</time>
      </trkpt>
      <trkpt lat="48.58607" lon="-0.43924">
        <ele>279.8</ele>
        <time>2012-09-23T07:01:22Z</time>
      </trkpt>
      <trkpt lat="48.58614" lon="-0.43926">
        <ele>280.2</ele>
        <time>2012-09-23T07:01:26Z</time>
      </trkpt>
      <trkpt lat="48.58621" lon="-0.43927">
        <ele>281.3</ele>
        <time>2012-09-23T07:01:29Z</time>
      </trkpt>
      <trkpt lat="48.58636" lon="-0.43932">
        <ele>283.9</ele>
        <time>2012-09-23T07:01:36Z</time>
      </trkpt>
      <trkpt lat="48.58644" lon="-0.43938">
        <ele>284.5</ele>
        <time>2012-09-23T07:01:40Z</time>
      </trkpt>
      <trkpt lat="48.58649" lon="-0.43946">
        <ele>285.6</ele>
        <time>2012-09-23T07:01:44Z</time>
      </trkpt>
      <trkpt lat="48.58657" lon="-0.43951">
        <ele>286.8</ele>
        <time>2012-09-23T07:01:48Z</time>
      </trkpt>
      <trkpt lat="48.58663" lon="-0.43958">
        <ele>287.3</ele>
        <time>2012-09-23T07:01:52Z</time>
      </trkpt>
      <trkpt lat="48.5867" lon="-0.43964">
        <ele>287.3</ele>
        <time>2012-09-23T07:01:56Z</time>
      </trkpt>
      <trkpt lat="48.58677" lon="-0.43971">
        <ele>288.9</ele>
        <time>2012-09-23T07:02:00Z</time>
      </trkpt>
      <trkpt lat="48.58683" lon="-0.43977">
        <ele>289</ele>
        <time>2012-09-23T07:02:03Z</time>
      </trkpt>
      <trkpt lat="48.58688" lon="-0.43982">
        <ele>290.3</ele>
        <time>2012-09-23T07:02:06Z</time>
      </trkpt>
      <trkpt lat="48.58694" lon="-0.44002">
        <ele>290.1</ele>
        <time>2012-09-23T07:02:12Z</time>
      </trkpt>
      <trkpt lat="48.58696" lon="-0.44013">
        <ele>290</ele>
        <time>2012-09-23T07:02:15Z</time>
      </trkpt>
      <trkpt lat="48.58696" lon="-0.44026">
        <ele>289.3</ele>
        <time>2012-09-23T07:02:18Z</time>
      </trkpt>
      <trkpt lat="48.58698" lon="-0.4405">
        <ele>290.9</ele>
        <time>2012-09-23T07:02:23Z</time>
      </trkpt>
      <trkpt lat="48.587" lon="-0.44072">
        <ele>291.4</ele>
        <time>2012-09-23T07:02:28Z</time>
      </trkpt>
      <trkpt lat="48.58706" lon="-0.44097">
        <ele>287.2</ele>
        <time>2012-09-23T07:02:32Z</time>
      </trkpt>
      <trkpt lat="48.58712" lon="-0.44119">
        <ele>285.2</ele>
        <time>2012-09-23T07:02:36Z</time>
      </trkpt>
      <trkpt lat="48.58721" lon="-0.44143">
        <ele>285.4</ele>
        <time>2012-09-23T07:02:40Z</time>
      </trkpt>
      <trkpt lat="48.5873" lon="-0.44167">
        <ele>286.2</ele>
        <time>2012-09-23T07:02:44Z</time>
      </trkpt>
      <trkpt lat="48.58741" lon="-0.44189">
        <ele>285.9</ele>
        <time>2012-09-23T07:02:48Z</time>
      </trkpt>
      <trkpt lat="48.58758" lon="-0.44208">
        <ele>284.8</ele>
        <time>2012-09-23T07:02:52Z</time>
      </trkpt>
      <trkpt lat="48.58778" lon="-0.44224">
        <ele>283</ele>
        <time>2012-09-23T07:02:56Z</time>
      </trkpt>
      <trkpt lat="48.58805" lon="-0.44232">
        <ele>281.3</ele>
        <time>2012-09-23T07:03:00Z</time>
      </trkpt>
      <trkpt lat="48.58828" lon="-0.44234">
        <ele>281.8</ele>
        <time>2012-09-23T07:03:03Z</time>
      </trkpt>
      <trkpt lat="48.58848" lon="-0.44245">
        <ele>280</ele>
        <time>2012-09-23T07:03:06Z</time>
      </trkpt>
      <trkpt lat="48.58881" lon="-0.44266">
        <ele>280.1</ele>
        <time>2012-09-23T07:03:12Z</time>
      </trkpt>
      <trkpt lat="48.58897" lon="-0.44293">
        <ele>279.9</ele>
        <time>2012-09-23T07:03:16Z</time>
      </trkpt>
      <trkpt lat="48.58912" lon="-0.44313">
        <ele>280.2</ele>
        <time>2012-09-23T07:03:20Z</time>
      </trkpt>
      <trkpt lat="48.5892" lon="-0.44328">
        <ele>280.1</ele>
        <time>2012-09-23T07:03:22Z</time>
      </trkpt>
      <trkpt lat="48.58933" lon="-0.44337">
        <ele>279.1</ele>
        <time>2012-09-23T07:03:26Z</time>
      </trkpt>
      <trkpt lat="48.58959" lon="-0.44344">
        <ele>281.3</ele>
        <time>2012-09-23T07:03:31Z</time>
      </trkpt>
      <trkpt lat="48.58974" lon="-0.4435">
        <ele>281.8</ele>
        <time>2012-09-23T07:03:34Z</time>
      </trkpt>
      <trkpt lat="48.5899" lon="-0.44358">
        <ele>281.6</ele>
        <time>2012-09-23T07:03:38Z</time>
      </trkpt>
      <trkpt lat="48.59027" lon="-0.44363">
        <ele>281.7</ele>
        <time>2012-09-23T07:03:48Z</time>
      </trkpt>
      <trkpt lat="48.59033" lon="-0.44368">
        <ele>282</ele>
        <time>2012-09-23T07:03:52Z</time>
      </trkpt>
      <trkpt lat="48.5904" lon="-0.44368">
        <ele>281.8</ele>
        <time>2012-09-23T07:03:55Z</time>
      </trkpt>
      <trkpt lat="48.59055" lon="-0.44366">
        <ele>281.3</ele>
        <time>2012-09-23T07:03:59Z</time>
      </trkpt>
      <trkpt lat="48.59061" lon="-0.44371">
        <ele>281.4</ele>
        <time>2012-09-23T07:04:01Z</time>
      </trkpt>
      <trkpt lat="48.59076" lon="-0.44371">
        <ele>281.6</ele>
        <time>2012-09-23T07:04:05Z</time>
      </trkpt>
      <trkpt lat="48.59099" lon="-0.44372">
        <ele>282.5</ele>
        <time>2012-09-23T07:04:12Z</time>
      </trkpt>
      <trkpt lat="48.59115" lon="-0.44372">
        <ele>282.7</ele>
        <time>2012-09-23T07:04:14Z</time>
      </trkpt>
      <trkpt lat="48.59148" lon="-0.44368">
        <ele>282.8</ele>
        <time>2012-09-23T07:04:24Z</time>
      </trkpt>
      <trkpt lat="48.59155" lon="-0.44366">
        <ele>283.5</ele>
        <time>2012-09-23T07:04:27Z</time>
      </trkpt>
      <trkpt lat="48.59164" lon="-0.44368">
        <ele>283.6</ele>
        <time>2012-09-23T07:04:29Z</time>
      </trkpt>
      <trkpt lat="48.59177" lon="-0.44367">
        <ele>285.2</ele>
        <time>2012-09-23T07:04:35Z</time>
      </trkpt>
      <trkpt lat="48.59191" lon="-0.44374">
        <ele>286.9</ele>
        <time>2012-09-23T07:04:41Z</time>
      </trkpt>
      <trkpt lat="48.59221" lon="-0.44373">
        <ele>289.5</ele>
        <time>2012-09-23T07:04:48Z</time>
      </trkpt>
      <trkpt lat="48.59228" lon="-0.44366">
        <ele>290.3</ele>
        <time>2012-09-23T07:04:51Z</time>
      </trkpt>
      <trkpt lat="48.59239" lon="-0.44356">
        <ele>289.3</ele>
        <time>2012-09-23T07:04:55Z</time>
      </trkpt>
      <trkpt lat="48.59239" lon="-0.44341">
        <ele>288.3</ele>
        <time>2012-09-23T07:04:59Z</time>
      </trkpt>
      <trkpt lat="48.5925" lon="-0.44315">
        <ele>287.1</ele>
        <time>2012-09-23T07:05:08Z</time>
      </trkpt>
      <trkpt lat="48.59249" lon="-0.44305">
        <ele>288</ele>
        <time>2012-09-23T07:05:11Z</time>
      </trkpt>
      <trkpt lat="48.5925" lon="-0.44294">
        <ele>289.1</ele>
        <time>2012-09-23T07:05:14Z</time>
      </trkpt>
      <trkpt lat="48.59252" lon="-0.44283">
        <ele>289</ele>
        <time>2012-09-23T07:05:17Z</time>
      </trkpt>
      <trkpt lat="48.59257" lon="-0.44261">
        <ele>291.8</ele>
        <time>2012-09-23T07:05:26Z</time>
      </trkpt>
      <trkpt lat="48.59256" lon="-0.44238">
        <ele>293</ele>
        <time>2012-09-23T07:05:36Z</time>
      </trkpt>
      <trkpt lat="48.59267" lon="-0.44222">
        <ele>292.4</ele>
        <time>2012-09-23T07:05:44Z</time>
      </trkpt>
      <trkpt lat="48.59272" lon="-0.44205">
        <ele>294</ele>
        <time>2012-09-23T07:05:54Z</time>
      </trkpt>
      <trkpt lat="48.59272" lon="-0.44205">
        <ele>244.5</ele>
        <time>2012-09-23T07:06:05Z</time>
      </trkpt>
      <trkpt lat="48.59272" lon="-0.44205">
        <ele>244.5</ele>
        <time>2012-09-23T07:06:06Z</time>
      </trkpt>
      <trkpt lat="48.59273" lon="-0.44151">
        <ele>296.6</ele>
        <time>2012-09-23T07:06:13Z</time>
      </trkpt>
      <trkpt lat="48.59275" lon="-0.44142">
        <ele>297</ele>
        <time>2012-09-23T07:06:17Z</time>
      </trkpt>
      <trkpt lat="48.59276" lon="-0.4413">
        <ele>297.4</ele>
        <time>2012-09-23T07:06:20Z</time>
      </trkpt>
      <trkpt lat="48.59279" lon="-0.44107">
        <ele>299.3</ele>
        <time>2012-09-23T07:06:25Z</time>
      </trkpt>
      <trkpt lat="48.59287" lon="-0.44089">
        <ele>299.6</ele>
        <time>2012-09-23T07:06:29Z</time>
      </trkpt>
      <trkpt lat="48.59291" lon="-0.4407">
        <ele>299.2</ele>
        <time>2012-09-23T07:06:33Z</time>
      </trkpt>
      <trkpt lat="48.59298" lon="-0.44049">
        <ele>297.9</ele>
        <time>2012-09-23T07:06:37Z</time>
      </trkpt>
      <trkpt lat="48.59301" lon="-0.44022">
        <ele>297.5</ele>
        <time>2012-09-23T07:06:41Z</time>
      </trkpt>
      <trkpt lat="48.59307" lon="-0.43997">
        <ele>297.1</ele>
        <time>2012-09-23T07:06:44Z</time>
      </trkpt>
      <trkpt lat="48.59313" lon="-0.43962">
        <ele>296.3</ele>
        <time>2012-09-23T07:06:48Z</time>
      </trkpt>
      <trkpt lat="48.5932" lon="-0.4394">
        <ele>295.2</ele>
        <time>2012-09-23T07:06:51Z</time>
      </trkpt>
      <trkpt lat="48.59339" lon="-0.43881">
        <ele>294.3</ele>
        <time>2012-09-23T07:06:57Z</time>
      </trkpt>
      <trkpt lat="48.59346" lon="-0.43825">
        <ele>293.7</ele>
        <time>2012-09-23T07:07:01Z</time>
      </trkpt>
      <trkpt lat="48.59351" lon="-0.43766">
        <ele>294.1</ele>
        <time>2012-09-23T07:07:05Z</time>
      </trkpt>
      <trkpt lat="48.59362" lon="-0.43727">
        <ele>293.2</ele>
        <time>2012-09-23T07:07:08Z</time>
      </trkpt>
      <trkpt lat="48.59372" lon="-0.43676">
        <ele>293.6</ele>
        <time>2012-09-23T07:07:12Z</time>
      </trkpt>
      <trkpt lat="48.59387" lon="-0.43612">
        <ele>293.5</ele>
        <time>2012-09-23T07:07:17Z</time>
      </trkpt>
      <trkpt lat="48.59401" lon="-0.4356">
        <ele>294.3</ele>
        <time>2012-09-23T07:07:21Z</time>
      </trkpt>
      <trkpt lat="48.59411" lon="-0.43514">
        <ele>293.2</ele>
        <time>2012-09-23T07:07:25Z</time>
      </trkpt>
      <trkpt lat="48.59421" lon="-0.43461">
        <ele>289.5</ele>
        <time>2012-09-23T07:07:29Z</time>
      </trkpt>
      <trkpt lat="48.59429" lon="-0.43414">
        <ele>289.3</ele>
        <time>2012-09-23T07:07:33Z</time>
      </trkpt>
      <trkpt lat="48.59434" lon="-0.43396">
        <ele>288.5</ele>
        <time>2012-09-23T07:07:35Z</time>
      </trkpt>
      <trkpt lat="48.59437" lon="-0.43373">
        <ele>284.7</ele>
        <time>2012-09-23T07:07:39Z</time>
      </trkpt>
      <trkpt lat="48.59438" lon="-0.43349">
        <ele>283.2</ele>
        <time>2012-09-23T07:07:43Z</time>
      </trkpt>
      <trkpt lat="48.59444" lon="-0.43323">
        <ele>283.5</ele>
        <time>2012-09-23T07:07:48Z</time>
      </trkpt>
      <trkpt lat="48.59454" lon="-0.43285">
        <ele>283.1</ele>
        <time>2012-09-23T07:07:53Z</time>
      </trkpt>
      <trkpt lat="48.59466" lon="-0.43253">
        <ele>282.7</ele>
        <time>2012-09-23T07:07:56Z</time>
      </trkpt>
      <trkpt lat="48.59478" lon="-0.43197">
        <ele>281.9</ele>
        <time>2012-09-23T07:08:01Z</time>
      </trkpt>
      <trkpt lat="48.59485" lon="-0.43155">
        <ele>279.2</ele>
        <time>2012-09-23T07:08:05Z</time>
      </trkpt>
      <trkpt lat="48.59491" lon="-0.43127">
        <ele>279.5</ele>
        <time>2012-09-23T07:08:08Z</time>
      </trkpt>
      <trkpt lat="48.59496" lon="-0.43085">
        <ele>277.3</ele>
        <time>2012-09-23T07:08:13Z</time>
      </trkpt>
      <trkpt lat="48.59503" lon="-0.43052">
        <ele>277</ele>
        <time>2012-09-23T07:08:17Z</time>
      </trkpt>
      <trkpt lat="48.59507" lon="-0.43027">
        <ele>276.5</ele>
        <time>2012-09-23T07:08:20Z</time>
      </trkpt>
      <trkpt lat="48.59514" lon="-0.42999">
        <ele>277</ele>
        <time>2012-09-23T07:08:24Z</time>
      </trkpt>
      <trkpt lat="48.59522" lon="-0.42968">
        <ele>278.6</ele>
        <time>2012-09-23T07:08:28Z</time>
      </trkpt>
      <trkpt lat="48.59528" lon="-0.4294">
        <ele>276</ele>
        <time>2012-09-23T07:08:32Z</time>
      </trkpt>
      <trkpt lat="48.5953" lon="-0.42914">
        <ele>275.8</ele>
        <time>2012-09-23T07:08:36Z</time>
      </trkpt>
      <trkpt lat="48.59536" lon="-0.4289">
        <ele>277.6</ele>
        <time>2012-09-23T07:08:40Z</time>
      </trkpt>
      <trkpt lat="48.59541" lon="-0.42862">
        <ele>275.9</ele>
        <time>2012-09-23T07:08:44Z</time>
      </trkpt>
      <trkpt lat="48.59544" lon="-0.42852">
        <ele>276.3</ele>
        <time>2012-09-23T07:08:46Z</time>
      </trkpt>
      <trkpt lat="48.59548" lon="-0.42832">
        <ele>276.5</ele>
        <time>2012-09-23T07:08:50Z</time>
      </trkpt>
      <trkpt lat="48.59552" lon="-0.428">
        <ele>277.1</ele>
        <time>2012-09-23T07:08:56Z</time>
      </trkpt>
      <trkpt lat="48.59554" lon="-0.4278">
        <ele>278.8</ele>
        <time>2012-09-23T07:09:00Z</time>
      </trkpt>
      <trkpt lat="48.59556" lon="-0.42769">
        <ele>280.3</ele>
        <time>2012-09-23T07:09:02Z</time>
      </trkpt>
      <trkpt lat="48.59561" lon="-0.42745">
        <ele>280.1</ele>
        <time>2012-09-23T07:09:07Z</time>
      </trkpt>
      <trkpt lat="48.59567" lon="-0.42733">
        <ele>280.2</ele>
        <time>2012-09-23T07:09:12Z</time>
      </trkpt>
      <trkpt lat="48.59573" lon="-0.42699">
        <ele>282.9</ele>
        <time>2012-09-23T07:09:21Z</time>
      </trkpt>
      <trkpt lat="48.59576" lon="-0.42678">
        <ele>284.5</ele>
        <time>2012-09-23T07:09:25Z</time>
      </trkpt>
      <trkpt lat="48.59579" lon="-0.42669">
        <ele>285.4</ele>
        <time>2012-09-23T07:09:27Z</time>
      </trkpt>
      <trkpt lat="48.59586" lon="-0.42661">
        <ele>283.6</ele>
        <time>2012-09-23T07:09:30Z</time>
      </trkpt>
      <trkpt lat="48.59593" lon="-0.42665">
        <ele>284</ele>
        <time>2012-09-23T07:09:34Z</time>
      </trkpt>
      <trkpt lat="48.59607" lon="-0.42673">
        <ele>283.6</ele>
        <time>2012-09-23T07:09:41Z</time>
      </trkpt>
      <trkpt lat="48.59614" lon="-0.42677">
        <ele>283.9</ele>
        <time>2012-09-23T07:09:44Z</time>
      </trkpt>
      <trkpt lat="48.59622" lon="-0.42681">
        <ele>285.1</ele>
        <time>2012-09-23T07:09:47Z</time>
      </trkpt>
      <trkpt lat="48.59637" lon="-0.42691">
        <ele>288.2</ele>
        <time>2012-09-23T07:09:53Z</time>
      </trkpt>
      <trkpt lat="48.59643" lon="-0.42694">
        <ele>288.9</ele>
        <time>2012-09-23T07:09:56Z</time>
      </trkpt>
      <trkpt lat="48.59651" lon="-0.42697">
        <ele>287.5</ele>
        <time>2012-09-23T07:09:59Z</time>
      </trkpt>
      <trkpt lat="48.59665" lon="-0.42705">
        <ele>288.7</ele>
        <time>2012-09-23T07:10:05Z</time>
      </trkpt>
      <trkpt lat="48.59673" lon="-0.42709">
        <ele>290.2</ele>
        <time>2012-09-23T07:10:08Z</time>
      </trkpt>
      <trkpt lat="48.5968" lon="-0.42711">
        <ele>289.7</ele>
        <time>2012-09-23T07:10:11Z</time>
      </trkpt>
      <trkpt lat="48.59695" lon="-0.42717">
        <ele>290.1</ele>
        <time>2012-09-23T07:10:17Z</time>
      </trkpt>
      <trkpt lat="48.59703" lon="-0.42719">
        <ele>289</ele>
        <time>2012-09-23T07:10:20Z</time>
      </trkpt>
      <trkpt lat="48.5971" lon="-0.42723">
        <ele>288.7</ele>
        <time>2012-09-23T07:10:23Z</time>
      </trkpt>
      <trkpt lat="48.59723" lon="-0.42731">
        <ele>289.9</ele>
        <time>2012-09-23T07:10:29Z</time>
      </trkpt>
      <trkpt lat="48.5973" lon="-0.42736">
        <ele>289.7</ele>
        <time>2012-09-23T07:10:32Z</time>
      </trkpt>
      <trkpt lat="48.59737" lon="-0.42738">
        <ele>291.4</ele>
        <time>2012-09-23T07:10:35Z</time>
      </trkpt>
      <trkpt lat="48.59751" lon="-0.42743">
        <ele>292.2</ele>
        <time>2012-09-23T07:10:41Z</time>
      </trkpt>
      <trkpt lat="48.59757" lon="-0.42747">
        <ele>292.7</ele>
        <time>2012-09-23T07:10:44Z</time>
      </trkpt>
      <trkpt lat="48.59764" lon="-0.42749">
        <ele>293.4</ele>
        <time>2012-09-23T07:10:47Z</time>
      </trkpt>
      <trkpt lat="48.59779" lon="-0.42756">
        <ele>293.2</ele>
        <time>2012-09-23T07:10:53Z</time>
      </trkpt>
      <trkpt lat="48.59786" lon="-0.42757">
        <ele>294.9</ele>
        <time>2012-09-23T07:10:56Z</time>
      </trkpt>
      <trkpt lat="48.59793" lon="-0.4276">
        <ele>293.9</ele>
        <time>2012-09-23T07:11:00Z</time>
      </trkpt>
      <trkpt lat="48.59802" lon="-0.42762">
        <ele>294.7</ele>
        <time>2012-09-23T07:11:03Z</time>
      </trkpt>
      <trkpt lat="48.59817" lon="-0.42767">
        <ele>296.9</ele>
        <time>2012-09-23T07:11:09Z</time>
      </trkpt>
      <trkpt lat="48.59825" lon="-0.42772">
        <ele>296.9</ele>
        <time>2012-09-23T07:11:13Z</time>
      </trkpt>
      <trkpt lat="48.59834" lon="-0.42774">
        <ele>298</ele>
        <time>2012-09-23T07:11:16Z</time>
      </trkpt>
      <trkpt lat="48.59843" lon="-0.4278">
        <ele>298.1</ele>
        <time>2012-09-23T07:11:19Z</time>
      </trkpt>
      <trkpt lat="48.59857" lon="-0.42788">
        <ele>299.5</ele>
        <time>2012-09-23T07:11:25Z</time>
      </trkpt>
      <trkpt lat="48.59866" lon="-0.42793">
        <ele>299.8</ele>
        <time>2012-09-23T07:11:28Z</time>
      </trkpt>
      <trkpt lat="48.59879" lon="-0.428">
        <ele>300.4</ele>
        <time>2012-09-23T07:11:33Z</time>
      </trkpt>
      <trkpt lat="48.59886" lon="-0.42802">
        <ele>301.3</ele>
        <time>2012-09-23T07:11:35Z</time>
      </trkpt>
      <trkpt lat="48.599" lon="-0.42807">
        <ele>302.1</ele>
        <time>2012-09-23T07:11:40Z</time>
      </trkpt>
      <trkpt lat="48.59908" lon="-0.42812">
        <ele>302.2</ele>
        <time>2012-09-23T07:11:43Z</time>
      </trkpt>
      <trkpt lat="48.59924" lon="-0.42819">
        <ele>299.7</ele>
        <time>2012-09-23T07:11:49Z</time>
      </trkpt>
      <trkpt lat="48.59938" lon="-0.42828">
        <ele>300.1</ele>
        <time>2012-09-23T07:11:53Z</time>
      </trkpt>
      <trkpt lat="48.59953" lon="-0.42835">
        <ele>298.9</ele>
        <time>2012-09-23T07:11:57Z</time>
      </trkpt>
      <trkpt lat="48.59966" lon="-0.42841">
        <ele>297.8</ele>
        <time>2012-09-23T07:12:01Z</time>
      </trkpt>
      <trkpt lat="48.5998" lon="-0.4285">
        <ele>296</ele>
        <time>2012-09-23T07:12:05Z</time>
      </trkpt>
      <trkpt lat="48.59989" lon="-0.42857">
        <ele>296.1</ele>
        <time>2012-09-23T07:12:08Z</time>
      </trkpt>
      <trkpt lat="48.59997" lon="-0.42874">
        <ele>296.3</ele>
        <time>2012-09-23T07:12:12Z</time>
      </trkpt>
      <trkpt lat="48.59997" lon="-0.42886">
        <ele>297.8</ele>
        <time>2012-09-23T07:12:15Z</time>
      </trkpt>
      <trkpt lat="48.59996" lon="-0.42907">
        <ele>302</ele>
        <time>2012-09-23T07:12:21Z</time>
      </trkpt>
      <trkpt lat="48.59993" lon="-0.4292">
        <ele>304.2</ele>
        <time>2012-09-23T07:12:24Z</time>
      </trkpt>
      <trkpt lat="48.59991" lon="-0.42931">
        <ele>304.5</ele>
        <time>2012-09-23T07:12:27Z</time>
      </trkpt>
      <trkpt lat="48.59985" lon="-0.42952">
        <ele>305</ele>
        <time>2012-09-23T07:12:33Z</time>
      </trkpt>
      <trkpt lat="48.59982" lon="-0.42962">
        <ele>305.3</ele>
        <time>2012-09-23T07:12:36Z</time>
      </trkpt>
      <trkpt lat="48.59978" lon="-0.42986">
        <ele>305.8</ele>
        <time>2012-09-23T07:12:41Z</time>
      </trkpt>
      <trkpt lat="48.59984" lon="-0.42992">
        <ele>305.8</ele>
        <time>2012-09-23T07:12:44Z</time>
      </trkpt>
      <trkpt lat="48.5999" lon="-0.42994">
        <ele>306.3</ele>
        <time>2012-09-23T07:12:47Z</time>
      </trkpt>
      <trkpt lat="48.60005" lon="-0.43001">
        <ele>306.4</ele>
        <time>2012-09-23T07:12:52Z</time>
      </trkpt>
      <trkpt lat="48.60018" lon="-0.43007">
        <ele>305.6</ele>
        <time>2012-09-23T07:12:57Z</time>
      </trkpt>
      <trkpt lat="48.60027" lon="-0.43011">
        <ele>304.9</ele>
        <time>2012-09-23T07:13:00Z</time>
      </trkpt>
      <trkpt lat="48.60035" lon="-0.43016">
        <ele>304.3</ele>
        <time>2012-09-23T07:13:03Z</time>
      </trkpt>
      <trkpt lat="48.60052" lon="-0.43026">
        <ele>301.2</ele>
        <time>2012-09-23T07:13:08Z</time>
      </trkpt>
      <trkpt lat="48.60066" lon="-0.43031">
        <ele>299.8</ele>
        <time>2012-09-23T07:13:12Z</time>
      </trkpt>
      <trkpt lat="48.60074" lon="-0.43036">
        <ele>299.5</ele>
        <time>2012-09-23T07:13:15Z</time>
      </trkpt>
      <trkpt lat="48.60091" lon="-0.43043">
        <ele>298.6</ele>
        <time>2012-09-23T07:13:21Z</time>
      </trkpt>
      <trkpt lat="48.60097" lon="-0.43048">
        <ele>297.2</ele>
        <time>2012-09-23T07:13:23Z</time>
      </trkpt>
      <trkpt lat="48.60114" lon="-0.43058">
        <ele>297.4</ele>
        <time>2012-09-23T07:13:28Z</time>
      </trkpt>
      <trkpt lat="48.60121" lon="-0.43063">
        <ele>297.7</ele>
        <time>2012-09-23T07:13:31Z</time>
      </trkpt>
      <trkpt lat="48.60128" lon="-0.43067">
        <ele>297.7</ele>
        <time>2012-09-23T07:13:35Z</time>
      </trkpt>
      <trkpt lat="48.60137" lon="-0.43064">
        <ele>294.5</ele>
        <time>2012-09-23T07:13:39Z</time>
      </trkpt>
      <trkpt lat="48.6015" lon="-0.4307">
        <ele>292.8</ele>
        <time>2012-09-23T07:13:44Z</time>
      </trkpt>
      <trkpt lat="48.60186" lon="-0.43096">
        <ele>291.9</ele>
        <time>2012-09-23T07:13:53Z</time>
      </trkpt>
      <trkpt lat="48.60213" lon="-0.43109">
        <ele>291.9</ele>
        <time>2012-09-23T07:13:57Z</time>
      </trkpt>
      <trkpt lat="48.60228" lon="-0.43115">
        <ele>291.7</ele>
        <time>2012-09-23T07:13:59Z</time>
      </trkpt>
      <trkpt lat="48.60244" lon="-0.43121">
        <ele>292.8</ele>
        <time>2012-09-23T07:14:02Z</time>
      </trkpt>
      <trkpt lat="48.60263" lon="-0.43135">
        <ele>292.5</ele>
        <time>2012-09-23T07:14:09Z</time>
      </trkpt>
      <trkpt lat="48.60272" lon="-0.4314">
        <ele>292.8</ele>
        <time>2012-09-23T07:14:12Z</time>
      </trkpt>
      <trkpt lat="48.60291" lon="-0.43145">
        <ele>292.5</ele>
        <time>2012-09-23T07:14:17Z</time>
      </trkpt>
      <trkpt lat="48.60297" lon="-0.43151">
        <ele>292.5</ele>
        <time>2012-09-23T07:14:19Z</time>
      </trkpt>
      <trkpt lat="48.60319" lon="-0.43158">
        <ele>292.5</ele>
        <time>2012-09-23T07:14:23Z</time>
      </trkpt>
      <trkpt lat="48.60324" lon="-0.43165">
        <ele>291.8</ele>
        <time>2012-09-23T07:14:26Z</time>
      </trkpt>
      <trkpt lat="48.60323" lon="-0.43176">
        <ele>288.5</ele>
        <time>2012-09-23T07:14:32Z</time>
      </trkpt>
      <trkpt lat="48.60322" lon="-0.43185">
        <ele>288.5</ele>
        <time>2012-09-23T07:14:35Z</time>
      </trkpt>
      <trkpt lat="48.60312" lon="-0.432">
        <ele>288.8</ele>
        <time>2012-09-23T07:14:40Z</time>
      </trkpt>
      <trkpt lat="48.60308" lon="-0.43208">
        <ele>288.2</ele>
        <time>2012-09-23T07:14:42Z</time>
      </trkpt>
      <trkpt lat="48.60299" lon="-0.43227">
        <ele>290.2</ele>
        <time>2012-09-23T07:14:49Z</time>
      </trkpt>
      <trkpt lat="48.60299" lon="-0.43227">
        <ele>235.3</ele>
        <time>2012-09-23T07:15:00Z</time>
      </trkpt>
      <trkpt lat="48.60299" lon="-0.43227">
        <ele>235.3</ele>
        <time>2012-09-23T07:15:09Z</time>
      </trkpt>
      <trkpt lat="48.60296" lon="-0.43259">
        <ele>291.8</ele>
        <time>2012-09-23T07:15:13Z</time>
      </trkpt>
      <trkpt lat="48.60296" lon="-0.43271">
        <ele>292.3</ele>
        <time>2012-09-23T07:15:18Z</time>
      </trkpt>
      <trkpt lat="48.60292" lon="-0.43283">
        <ele>291.4</ele>
        <time>2012-09-23T07:15:21Z</time>
      </trkpt>
      <trkpt lat="48.60295" lon="-0.43293">
        <ele>291.9</ele>
        <time>2012-09-23T07:15:26Z</time>
      </trkpt>
      <trkpt lat="48.60295" lon="-0.43293">
        <ele>241.9</ele>
        <time>2012-09-23T07:15:37Z</time>
      </trkpt>
      <trkpt lat="48.60295" lon="-0.43293">
        <ele>241.9</ele>
        <time>2012-09-23T07:15:50Z</time>
      </trkpt>
      <trkpt lat="48.60295" lon="-0.43293">
        <ele>241.9</ele>
        <time>2012-09-23T07:16:01Z</time>
      </trkpt>
      <trkpt lat="48.60295" lon="-0.43293">
        <ele>241.9</ele>
        <time>2012-09-23T07:16:15Z</time>
      </trkpt>
      <trkpt lat="48.60288" lon="-0.43334">
        <ele>297.6</ele>
        <time>2012-09-23T07:16:23Z</time>
      </trkpt>
      <trkpt lat="48.60292" lon="-0.43342">
        <ele>301.5</ele>
        <time>2012-09-23T07:16:32Z</time>
      </trkpt>
      <trkpt lat="48.60288" lon="-0.43353">
        <ele>305.2</ele>
        <time>2012-09-23T07:16:40Z</time>
      </trkpt>
      <trkpt lat="48.60284" lon="-0.43361">
        <ele>305.3</ele>
        <time>2012-09-23T07:16:46Z</time>
      </trkpt>
      <trkpt lat="48.60282" lon="-0.43372">
        <ele>308</ele>
        <time>2012-09-23T07:16:53Z</time>
      </trkpt>
      <trkpt lat="48.60282" lon="-0.43384">
        <ele>308.1</ele>
        <time>2012-09-23T07:16:59Z</time>
      </trkpt>
      <trkpt lat="48.6028" lon="-0.43394">
        <ele>308.5</ele>
        <time>2012-09-23T07:17:03Z</time>
      </trkpt>
      <trkpt lat="48.60278" lon="-0.43406">
        <ele>309.1</ele>
        <time>2012-09-23T07:17:07Z</time>
      </trkpt>
      <trkpt lat="48.60275" lon="-0.43434">
        <ele>309.3</ele>
        <time>2012-09-23T07:17:12Z</time>
      </trkpt>
      <trkpt lat="48.60268" lon="-0.43459">
        <ele>308.2</ele>
        <time>2012-09-23T07:17:16Z</time>
      </trkpt>
      <trkpt lat="48.60261" lon="-0.43482">
        <ele>308.7</ele>
        <time>2012-09-23T07:17:20Z</time>
      </trkpt>
      <trkpt lat="48.60251" lon="-0.435">
        <ele>308.8</ele>
        <time>2012-09-23T07:17:25Z</time>
      </trkpt>
      <trkpt lat="48.60236" lon="-0.43499">
        <ele>309.8</ele>
        <time>2012-09-23T07:17:29Z</time>
      </trkpt>
      <trkpt lat="48.60216" lon="-0.4349">
        <ele>309.4</ele>
        <time>2012-09-23T07:17:33Z</time>
      </trkpt>
      <trkpt lat="48.60193" lon="-0.43482">
        <ele>310</ele>
        <time>2012-09-23T07:17:37Z</time>
      </trkpt>
      <trkpt lat="48.60165" lon="-0.43475">
        <ele>309.7</ele>
        <time>2012-09-23T07:17:41Z</time>
      </trkpt>
      <trkpt lat="48.60138" lon="-0.43463">
        <ele>308.1</ele>
        <time>2012-09-23T07:17:45Z</time>
      </trkpt>
      <trkpt lat="48.60119" lon="-0.43452">
        <ele>307.6</ele>
        <time>2012-09-23T07:17:48Z</time>
      </trkpt>
      <trkpt lat="48.60097" lon="-0.43441">
        <ele>307</ele>
        <time>2012-09-23T07:17:51Z</time>
      </trkpt>
      <trkpt lat="48.60059" lon="-0.43419">
        <ele>306</ele>
        <time>2012-09-23T07:17:57Z</time>
      </trkpt>
      <trkpt lat="48.60041" lon="-0.43411">
        <ele>304.9</ele>
        <time>2012-09-23T07:18:00Z</time>
      </trkpt>
      <trkpt lat="48.60026" lon="-0.43399">
        <ele>304.7</ele>
        <time>2012-09-23T07:18:04Z</time>
      </trkpt>
      <trkpt lat="48.60001" lon="-0.43383">
        <ele>303.8</ele>
        <time>2012-09-23T07:18:08Z</time>
      </trkpt>
      <trkpt lat="48.59975" lon="-0.4337">
        <ele>303</ele>
        <time>2012-09-23T07:18:12Z</time>
      </trkpt>
      <trkpt lat="48.59948" lon="-0.43359">
        <ele>300.4</ele>
        <time>2012-09-23T07:18:16Z</time>
      </trkpt>
      <trkpt lat="48.59918" lon="-0.43352">
        <ele>298.5</ele>
        <time>2012-09-23T07:18:20Z</time>
      </trkpt>
      <trkpt lat="48.599" lon="-0.43387">
        <ele>297.4</ele>
        <time>2012-09-23T07:18:25Z</time>
      </trkpt>
      <trkpt lat="48.59892" lon="-0.43428">
        <ele>296.2</ele>
        <time>2012-09-23T07:18:29Z</time>
      </trkpt>
      <trkpt lat="48.59883" lon="-0.43467">
        <ele>294.1</ele>
        <time>2012-09-23T07:18:33Z</time>
      </trkpt>
      <trkpt lat="48.59878" lon="-0.43502">
        <ele>293</ele>
        <time>2012-09-23T07:18:37Z</time>
      </trkpt>
      <trkpt lat="48.59871" lon="-0.4353">
        <ele>291.2</ele>
        <time>2012-09-23T07:18:41Z</time>
      </trkpt>
      <trkpt lat="48.59866" lon="-0.43542">
        <ele>291</ele>
        <time>2012-09-23T07:18:43Z</time>
      </trkpt>
      <trkpt lat="48.59857" lon="-0.43581">
        <ele>288.8</ele>
        <time>2012-09-23T07:18:48Z</time>
      </trkpt>
      <trkpt lat="48.59852" lon="-0.43623">
        <ele>286.6</ele>
        <time>2012-09-23T07:18:53Z</time>
      </trkpt>
      <trkpt lat="48.5985" lon="-0.43632">
        <ele>285.9</ele>
        <time>2012-09-23T07:18:54Z</time>
      </trkpt>
      <trkpt lat="48.59839" lon="-0.43674">
        <ele>283</ele>
        <time>2012-09-23T07:18:59Z</time>
      </trkpt>
      <trkpt lat="48.59831" lon="-0.43702">
        <ele>282.1</ele>
        <time>2012-09-23T07:19:03Z</time>
      </trkpt>
      <trkpt lat="48.59824" lon="-0.43737">
        <ele>281.4</ele>
        <time>2012-09-23T07:19:07Z</time>
      </trkpt>
      <trkpt lat="48.59819" lon="-0.43766">
        <ele>281.7</ele>
        <time>2012-09-23T07:19:12Z</time>
      </trkpt>
      <trkpt lat="48.59814" lon="-0.43803">
        <ele>283.8</ele>
        <time>2012-09-23T07:19:20Z</time>
      </trkpt>
      <trkpt lat="48.59808" lon="-0.43828">
        <ele>283.3</ele>
        <time>2012-09-23T07:19:24Z</time>
      </trkpt>
      <trkpt lat="48.59805" lon="-0.43852">
        <ele>283.4</ele>
        <time>2012-09-23T07:19:28Z</time>
      </trkpt>
      <trkpt lat="48.598" lon="-0.43875">
        <ele>283.1</ele>
        <time>2012-09-23T07:19:32Z</time>
      </trkpt>
      <trkpt lat="48.598" lon="-0.43887">
        <ele>281.9</ele>
        <time>2012-09-23T07:19:34Z</time>
      </trkpt>
      <trkpt lat="48.59795" lon="-0.43907">
        <ele>282.5</ele>
        <time>2012-09-23T07:19:38Z</time>
      </trkpt>
      <trkpt lat="48.59795" lon="-0.43928">
        <ele>283.8</ele>
        <time>2012-09-23T07:19:44Z</time>
      </trkpt>
      <trkpt lat="48.59787" lon="-0.4395">
        <ele>283.3</ele>
        <time>2012-09-23T07:19:48Z</time>
      </trkpt>
      <trkpt lat="48.59781" lon="-0.43972">
        <ele>284.6</ele>
        <time>2012-09-23T07:19:53Z</time>
      </trkpt>
      <trkpt lat="48.59776" lon="-0.43992">
        <ele>287.6</ele>
        <time>2012-09-23T07:19:58Z</time>
      </trkpt>
      <trkpt lat="48.59773" lon="-0.44004">
        <ele>290.2</ele>
        <time>2012-09-23T07:20:02Z</time>
      </trkpt>
      <trkpt lat="48.59769" lon="-0.44027">
        <ele>291.6</ele>
        <time>2012-09-23T07:20:07Z</time>
      </trkpt>
      <trkpt lat="48.59766" lon="-0.44049">
        <ele>292.1</ele>
        <time>2012-09-23T07:20:12Z</time>
      </trkpt>
      <trkpt lat="48.5976" lon="-0.44068">
        <ele>292.3</ele>
        <time>2012-09-23T07:20:17Z</time>
      </trkpt>
      <trkpt lat="48.59755" lon="-0.441">
        <ele>295.1</ele>
        <time>2012-09-23T07:20:24Z</time>
      </trkpt>
      <trkpt lat="48.59754" lon="-0.44113">
        <ele>293.9</ele>
        <time>2012-09-23T07:20:27Z</time>
      </trkpt>
      <trkpt lat="48.5975" lon="-0.44136">
        <ele>295.1</ele>
        <time>2012-09-23T07:20:33Z</time>
      </trkpt>
      <trkpt lat="48.59749" lon="-0.44149">
        <ele>294.1</ele>
        <time>2012-09-23T07:20:36Z</time>
      </trkpt>
      <trkpt lat="48.5975" lon="-0.44162">
        <ele>293.5</ele>
        <time>2012-09-23T07:20:39Z</time>
      </trkpt>
      <trkpt lat="48.5974" lon="-0.44218">
        <ele>293.2</ele>
        <time>2012-09-23T07:20:53Z</time>
      </trkpt>
      <trkpt lat="48.59737" lon="-0.44228">
        <ele>293.7</ele>
        <time>2012-09-23T07:20:57Z</time>
      </trkpt>
      <trkpt lat="48.59736" lon="-0.44237">
        <ele>295.2</ele>
        <time>2012-09-23T07:21:01Z</time>
      </trkpt>
      <trkpt lat="48.59739" lon="-0.44247">
        <ele>295.6</ele>
        <time>2012-09-23T07:21:04Z</time>
      </trkpt>
      <trkpt lat="48.59741" lon="-0.44259">
        <ele>296.6</ele>
        <time>2012-09-23T07:21:07Z</time>
      </trkpt>
      <trkpt lat="48.59747" lon="-0.44279">
        <ele>300.4</ele>
        <time>2012-09-23T07:21:14Z</time>
      </trkpt>
      <trkpt lat="48.59753" lon="-0.443">
        <ele>304.3</ele>
        <time>2012-09-23T07:21:21Z</time>
      </trkpt>
      <trkpt lat="48.59757" lon="-0.44308">
        <ele>305.6</ele>
        <time>2012-09-23T07:21:24Z</time>
      </trkpt>
      <trkpt lat="48.5976" lon="-0.44318">
        <ele>307.5</ele>
        <time>2012-09-23T07:21:29Z</time>
      </trkpt>
      <trkpt lat="48.59771" lon="-0.44335">
        <ele>308.6</ele>
        <time>2012-09-23T07:21:36Z</time>
      </trkpt>
      <trkpt lat="48.59771" lon="-0.44335">
        <ele>251.6</ele>
        <time>2012-09-23T07:21:47Z</time>
      </trkpt>
      <trkpt lat="48.59771" lon="-0.44335">
        <ele>251.6</ele>
        <time>2012-09-23T07:21:55Z</time>
      </trkpt>
      <trkpt lat="48.59798" lon="-0.44369">
        <ele>307.8</ele>
        <time>2012-09-23T07:21:58Z</time>
      </trkpt>
      <trkpt lat="48.59807" lon="-0.4439">
        <ele>310.7</ele>
        <time>2012-09-23T07:22:04Z</time>
      </trkpt>
      <trkpt lat="48.59811" lon="-0.44398">
        <ele>311.6</ele>
        <time>2012-09-23T07:22:08Z</time>
      </trkpt>
      <trkpt lat="48.59813" lon="-0.44409">
        <ele>313</ele>
        <time>2012-09-23T07:22:16Z</time>
      </trkpt>
      <trkpt lat="48.59815" lon="-0.44436">
        <ele>311.4</ele>
        <time>2012-09-23T07:22:20Z</time>
      </trkpt>
      <trkpt lat="48.59817" lon="-0.44454">
        <ele>312.4</ele>
        <time>2012-09-23T07:22:25Z</time>
      </trkpt>
      <trkpt lat="48.59819" lon="-0.44488">
        <ele>312</ele>
        <time>2012-09-23T07:22:32Z</time>
      </trkpt>
      <trkpt lat="48.59818" lon="-0.44501">
        <ele>312.4</ele>
        <time>2012-09-23T07:22:35Z</time>
      </trkpt>
      <trkpt lat="48.5982" lon="-0.4451">
        <ele>312.8</ele>
        <time>2012-09-23T07:22:38Z</time>
      </trkpt>
      <trkpt lat="48.59826" lon="-0.44531">
        <ele>313.8</ele>
        <time>2012-09-23T07:22:47Z</time>
      </trkpt>
      <trkpt lat="48.59826" lon="-0.44531">
        <ele>255</ele>
        <time>2012-09-23T07:22:58Z</time>
      </trkpt>
      <trkpt lat="48.59826" lon="-0.44531">
        <ele>255</ele>
        <time>2012-09-23T07:23:19Z</time>
      </trkpt>
      <trkpt lat="48.59815" lon="-0.44579">
        <ele>311.7</ele>
        <time>2012-09-23T07:23:26Z</time>
      </trkpt>
      <trkpt lat="48.59807" lon="-0.4458">
        <ele>312.3</ele>
        <time>2012-09-23T07:23:29Z</time>
      </trkpt>
      <trkpt lat="48.59782" lon="-0.44577">
        <ele>311.2</ele>
        <time>2012-09-23T07:23:34Z</time>
      </trkpt>
      <trkpt lat="48.59762" lon="-0.44567">
        <ele>310.7</ele>
        <time>2012-09-23T07:23:37Z</time>
      </trkpt>
      <trkpt lat="48.59733" lon="-0.44562">
        <ele>311</ele>
        <time>2012-09-23T07:23:42Z</time>
      </trkpt>
      <trkpt lat="48.59705" lon="-0.44562">
        <ele>308.2</ele>
        <time>2012-09-23T07:23:46Z</time>
      </trkpt>
      <trkpt lat="48.59676" lon="-0.44587">
        <ele>306.4</ele>
        <time>2012-09-23T07:23:50Z</time>
      </trkpt>
      <trkpt lat="48.59652" lon="-0.44622">
        <ele>305.4</ele>
        <time>2012-09-23T07:23:54Z</time>
      </trkpt>
      <trkpt lat="48.59641" lon="-0.44665">
        <ele>303.9</ele>
        <time>2012-09-23T07:23:58Z</time>
      </trkpt>
      <trkpt lat="48.59627" lon="-0.4471">
        <ele>303.8</ele>
        <time>2012-09-23T07:24:02Z</time>
      </trkpt>
      <trkpt lat="48.59624" lon="-0.44762">
        <ele>289.7</ele>
        <time>2012-09-23T07:24:06Z</time>
      </trkpt>
      <trkpt lat="48.59612" lon="-0.44818">
        <ele>288.4</ele>
        <time>2012-09-23T07:24:10Z</time>
      </trkpt>
      <trkpt lat="48.59603" lon="-0.44879">
        <ele>285.9</ele>
        <time>2012-09-23T07:24:14Z</time>
      </trkpt>
      <trkpt lat="48.59592" lon="-0.44935">
        <ele>281</ele>
        <time>2012-09-23T07:24:18Z</time>
      </trkpt>
      <trkpt lat="48.59583" lon="-0.44981">
        <ele>282.9</ele>
        <time>2012-09-23T07:24:22Z</time>
      </trkpt>
      <trkpt lat="48.59576" lon="-0.45017">
        <ele>281.2</ele>
        <time>2012-09-23T07:24:26Z</time>
      </trkpt>
      <trkpt lat="48.59572" lon="-0.45032">
        <ele>280.5</ele>
        <time>2012-09-23T07:24:28Z</time>
      </trkpt>
      <trkpt lat="48.59567" lon="-0.45067">
        <ele>281.8</ele>
        <time>2012-09-23T07:24:34Z</time>
      </trkpt>
      <trkpt lat="48.59562" lon="-0.45087">
        <ele>281.1</ele>
        <time>2012-09-23T07:24:38Z</time>
      </trkpt>
      <trkpt lat="48.59558" lon="-0.45108">
        <ele>281.6</ele>
        <time>2012-09-23T07:24:42Z</time>
      </trkpt>
      <trkpt lat="48.59555" lon="-0.4512">
        <ele>282</ele>
        <time>2012-09-23T07:24:44Z</time>
      </trkpt>
      <trkpt lat="48.59549" lon="-0.45146">
        <ele>282.8</ele>
        <time>2012-09-23T07:24:50Z</time>
      </trkpt>
      <trkpt lat="48.59548" lon="-0.45159">
        <ele>284.5</ele>
        <time>2012-09-23T07:24:53Z</time>
      </trkpt>
      <trkpt lat="48.59545" lon="-0.45173">
        <ele>286.2</ele>
        <time>2012-09-23T07:24:56Z</time>
      </trkpt>
      <trkpt lat="48.59542" lon="-0.45185">
        <ele>289.2</ele>
        <time>2012-09-23T07:25:00Z</time>
      </trkpt>
      <trkpt lat="48.59533" lon="-0.452">
        <ele>290.2</ele>
        <time>2012-09-23T07:25:06Z</time>
      </trkpt>
      <trkpt lat="48.59525" lon="-0.452">
        <ele>291.2</ele>
        <time>2012-09-23T07:25:09Z</time>
      </trkpt>
      <trkpt lat="48.59511" lon="-0.452">
        <ele>292.6</ele>
        <time>2012-09-23T07:25:16Z</time>
      </trkpt>
      <trkpt lat="48.59491" lon="-0.45196">
        <ele>294</ele>
        <time>2012-09-23T07:25:24Z</time>
      </trkpt>
      <trkpt lat="48.59484" lon="-0.45193">
        <ele>295.5</ele>
        <time>2012-09-23T07:25:27Z</time>
      </trkpt>
      <trkpt lat="48.59469" lon="-0.45193">
        <ele>296.1</ele>
        <time>2012-09-23T07:25:32Z</time>
      </trkpt>
      <trkpt lat="48.59455" lon="-0.45196">
        <ele>296.5</ele>
        <time>2012-09-23T07:25:39Z</time>
      </trkpt>
      <trkpt lat="48.59448" lon="-0.45195">
        <ele>296.8</ele>
        <time>2012-09-23T07:25:43Z</time>
      </trkpt>
      <trkpt lat="48.59439" lon="-0.45196">
        <ele>301.1</ele>
        <time>2012-09-23T07:25:50Z</time>
      </trkpt>
      <trkpt lat="48.59423" lon="-0.45191">
        <ele>304.5</ele>
        <time>2012-09-23T07:26:00Z</time>
      </trkpt>
      <trkpt lat="48.59423" lon="-0.45191">
        <ele>244.2</ele>
        <time>2012-09-23T07:26:11Z</time>
      </trkpt>
      <trkpt lat="48.59423" lon="-0.45191">
        <ele>244.2</ele>
        <time>2012-09-23T07:26:18Z</time>
      </trkpt>
      <trkpt lat="48.59382" lon="-0.45199">
        <ele>303.5</ele>
        <time>2012-09-23T07:26:28Z</time>
      </trkpt>
      <trkpt lat="48.59382" lon="-0.45199">
        <ele>247.2</ele>
        <time>2012-09-23T07:26:39Z</time>
      </trkpt>
      <trkpt lat="48.59382" lon="-0.45199">
        <ele>247.2</ele>
        <time>2012-09-23T07:26:44Z</time>
      </trkpt>
      <trkpt lat="48.59353" lon="-0.45204">
        <ele>309.4</ele>
        <time>2012-09-23T07:26:49Z</time>
      </trkpt>
      <trkpt lat="48.59337" lon="-0.45202">
        <ele>313.7</ele>
        <time>2012-09-23T07:26:57Z</time>
      </trkpt>
      <trkpt lat="48.59322" lon="-0.45204">
        <ele>314.8</ele>
        <time>2012-09-23T07:27:05Z</time>
      </trkpt>
      <trkpt lat="48.59316" lon="-0.45204">
        <ele>316.8</ele>
        <time>2012-09-23T07:27:10Z</time>
      </trkpt>
      <trkpt lat="48.59309" lon="-0.45209">
        <ele>314.1</ele>
        <time>2012-09-23T07:27:16Z</time>
      </trkpt>
      <trkpt lat="48.59302" lon="-0.45206">
        <ele>313.6</ele>
        <time>2012-09-23T07:27:19Z</time>
      </trkpt>
      <trkpt lat="48.59288" lon="-0.45209">
        <ele>316.6</ele>
        <time>2012-09-23T07:27:28Z</time>
      </trkpt>
      <trkpt lat="48.59278" lon="-0.4521">
        <ele>320.4</ele>
        <time>2012-09-23T07:27:32Z</time>
      </trkpt>
      <trkpt lat="48.59278" lon="-0.4521">
        <ele>254.6</ele>
        <time>2012-09-23T07:27:43Z</time>
      </trkpt>
      <trkpt lat="48.59278" lon="-0.4521">
        <ele>254.6</ele>
        <time>2012-09-23T07:28:10Z</time>
      </trkpt>
      <trkpt lat="48.59257" lon="-0.45261">
        <ele>323.5</ele>
        <time>2012-09-23T07:28:17Z</time>
      </trkpt>
      <trkpt lat="48.59253" lon="-0.45273">
        <ele>323.3</ele>
        <time>2012-09-23T07:28:19Z</time>
      </trkpt>
      <trkpt lat="48.59251" lon="-0.45298">
        <ele>321.8</ele>
        <time>2012-09-23T07:28:22Z</time>
      </trkpt>
      <trkpt lat="48.59252" lon="-0.45324">
        <ele>321.9</ele>
        <time>2012-09-23T07:28:27Z</time>
      </trkpt>
      <trkpt lat="48.5925" lon="-0.45346">
        <ele>321.8</ele>
        <time>2012-09-23T07:28:32Z</time>
      </trkpt>
      <trkpt lat="48.5925" lon="-0.45358">
        <ele>321.4</ele>
        <time>2012-09-23T07:28:35Z</time>
      </trkpt>
      <trkpt lat="48.59249" lon="-0.4537">
        <ele>320.5</ele>
        <time>2012-09-23T07:28:38Z</time>
      </trkpt>
      <trkpt lat="48.59246" lon="-0.45392">
        <ele>331.6</ele>
        <time>2012-09-23T07:28:46Z</time>
      </trkpt>
      <trkpt lat="48.59246" lon="-0.45402">
        <ele>331.3</ele>
        <time>2012-09-23T07:28:50Z</time>
      </trkpt>
      <trkpt lat="48.59246" lon="-0.45424">
        <ele>332</ele>
        <time>2012-09-23T07:28:57Z</time>
      </trkpt>
      <trkpt lat="48.59266" lon="-0.45443">
        <ele>333.9</ele>
        <time>2012-09-23T07:29:04Z</time>
      </trkpt>
      <trkpt lat="48.59277" lon="-0.45461">
        <ele>332.1</ele>
        <time>2012-09-23T07:29:10Z</time>
      </trkpt>
      <trkpt lat="48.59299" lon="-0.45476">
        <ele>332.5</ele>
        <time>2012-09-23T07:29:17Z</time>
      </trkpt>
      <trkpt lat="48.59303" lon="-0.45488">
        <ele>334.8</ele>
        <time>2012-09-23T07:29:21Z</time>
      </trkpt>
      <trkpt lat="48.59336" lon="-0.45496">
        <ele>328.6</ele>
        <time>2012-09-23T07:29:28Z</time>
      </trkpt>
      <trkpt lat="48.59349" lon="-0.45508">
        <ele>330.1</ele>
        <time>2012-09-23T07:29:33Z</time>
      </trkpt>
      <trkpt lat="48.59355" lon="-0.45508">
        <ele>326</ele>
        <time>2012-09-23T07:29:34Z</time>
      </trkpt>
      <trkpt lat="48.59371" lon="-0.45519">
        <ele>323.5</ele>
        <time>2012-09-23T07:29:38Z</time>
      </trkpt>
      <trkpt lat="48.59384" lon="-0.45534">
        <ele>323.5</ele>
        <time>2012-09-23T07:29:43Z</time>
      </trkpt>
      <trkpt lat="48.59396" lon="-0.45556">
        <ele>324</ele>
        <time>2012-09-23T07:29:49Z</time>
      </trkpt>
      <trkpt lat="48.59427" lon="-0.45574">
        <ele>325.6</ele>
        <time>2012-09-23T07:29:57Z</time>
      </trkpt>
      <trkpt lat="48.59441" lon="-0.45586">
        <ele>325.5</ele>
        <time>2012-09-23T07:30:01Z</time>
      </trkpt>
      <trkpt lat="48.59447" lon="-0.45592">
        <ele>326.3</ele>
        <time>2012-09-23T07:30:03Z</time>
      </trkpt>
      <trkpt lat="48.59458" lon="-0.45606">
        <ele>328.4</ele>
        <time>2012-09-23T07:30:08Z</time>
      </trkpt>
      <trkpt lat="48.59453" lon="-0.45619">
        <ele>329.4</ele>
        <time>2012-09-23T07:30:11Z</time>
      </trkpt>
      <trkpt lat="48.59453" lon="-0.4563">
        <ele>330.3</ele>
        <time>2012-09-23T07:30:14Z</time>
      </trkpt>
      <trkpt lat="48.59451" lon="-0.45643">
        <ele>332</ele>
        <time>2012-09-23T07:30:18Z</time>
      </trkpt>
      <trkpt lat="48.59446" lon="-0.4565">
        <ele>335.6</ele>
        <time>2012-09-23T07:30:22Z</time>
      </trkpt>
      <trkpt lat="48.59441" lon="-0.45673">
        <ele>338.4</ele>
        <time>2012-09-23T07:30:29Z</time>
      </trkpt>
      <trkpt lat="48.59435" lon="-0.45694">
        <ele>344.9</ele>
        <time>2012-09-23T07:30:37Z</time>
      </trkpt>
      <trkpt lat="48.59435" lon="-0.45706">
        <ele>345.6</ele>
        <time>2012-09-23T07:30:39Z</time>
      </trkpt>
      <trkpt lat="48.59429" lon="-0.45731">
        <ele>343.8</ele>
        <time>2012-09-23T07:30:44Z</time>
      </trkpt>
      <trkpt lat="48.59424" lon="-0.45754">
        <ele>344.2</ele>
        <time>2012-09-23T07:30:49Z</time>
      </trkpt>
      <trkpt lat="48.59421" lon="-0.45802">
        <ele>343.5</ele>
        <time>2012-09-23T07:30:57Z</time>
      </trkpt>
      <trkpt lat="48.59412" lon="-0.45824">
        <ele>341.3</ele>
        <time>2012-09-23T07:31:00Z</time>
      </trkpt>
      <trkpt lat="48.594" lon="-0.45843">
        <ele>338.3</ele>
        <time>2012-09-23T07:31:04Z</time>
      </trkpt>
      <trkpt lat="48.59383" lon="-0.45858">
        <ele>338.1</ele>
        <time>2012-09-23T07:31:09Z</time>
      </trkpt>
      <trkpt lat="48.59351" lon="-0.45853">
        <ele>337.2</ele>
        <time>2012-09-23T07:31:17Z</time>
      </trkpt>
      <trkpt lat="48.59292" lon="-0.45857">
        <ele>335.4</ele>
        <time>2012-09-23T07:31:23Z</time>
      </trkpt>
      <trkpt lat="48.5926" lon="-0.45857">
        <ele>334.7</ele>
        <time>2012-09-23T07:31:29Z</time>
      </trkpt>
      <trkpt lat="48.59252" lon="-0.45854">
        <ele>334.7</ele>
        <time>2012-09-23T07:31:32Z</time>
      </trkpt>
      <trkpt lat="48.59242" lon="-0.45857">
        <ele>334.3</ele>
        <time>2012-09-23T07:31:37Z</time>
      </trkpt>
      <trkpt lat="48.59236" lon="-0.4586">
        <ele>334.4</ele>
        <time>2012-09-23T07:31:45Z</time>
      </trkpt>
      <trkpt lat="48.59219" lon="-0.45854">
        <ele>332.8</ele>
        <time>2012-09-23T07:31:49Z</time>
      </trkpt>
      <trkpt lat="48.59202" lon="-0.45851">
        <ele>331.5</ele>
        <time>2012-09-23T07:31:51Z</time>
      </trkpt>
      <trkpt lat="48.59173" lon="-0.45856">
        <ele>331.7</ele>
        <time>2012-09-23T07:31:57Z</time>
      </trkpt>
      <trkpt lat="48.59157" lon="-0.45871">
        <ele>331.2</ele>
        <time>2012-09-23T07:32:01Z</time>
      </trkpt>
      <trkpt lat="48.5915" lon="-0.45873">
        <ele>330.2</ele>
        <time>2012-09-23T07:32:03Z</time>
      </trkpt>
      <trkpt lat="48.59124" lon="-0.45868">
        <ele>331.7</ele>
        <time>2012-09-23T07:32:13Z</time>
      </trkpt>
      <trkpt lat="48.59108" lon="-0.45868">
        <ele>335</ele>
        <time>2012-09-23T07:32:16Z</time>
      </trkpt>
      <trkpt lat="48.59091" lon="-0.4586">
        <ele>333.8</ele>
        <time>2012-09-23T07:32:20Z</time>
      </trkpt>
      <trkpt lat="48.59068" lon="-0.45858">
        <ele>338.5</ele>
        <time>2012-09-23T07:32:23Z</time>
      </trkpt>
      <trkpt lat="48.59031" lon="-0.45851">
        <ele>339.7</ele>
        <time>2012-09-23T07:32:28Z</time>
      </trkpt>
      <trkpt lat="48.59012" lon="-0.45851">
        <ele>343.6</ele>
        <time>2012-09-23T07:32:32Z</time>
      </trkpt>
      <trkpt lat="48.58968" lon="-0.45912">
        <ele>320.7</ele>
        <time>2012-09-23T07:32:37Z</time>
      </trkpt>
      <trkpt lat="48.58965" lon="-0.45942">
        <ele>319.6</ele>
        <time>2012-09-23T07:32:41Z</time>
      </trkpt>
      <trkpt lat="48.58965" lon="-0.45956">
        <ele>319.5</ele>
        <time>2012-09-23T07:32:43Z</time>
      </trkpt>
      <trkpt lat="48.58965" lon="-0.45996">
        <ele>321.7</ele>
        <time>2012-09-23T07:32:49Z</time>
      </trkpt>
      <trkpt lat="48.58966" lon="-0.46019">
        <ele>324.5</ele>
        <time>2012-09-23T07:32:53Z</time>
      </trkpt>
      <trkpt lat="48.5897" lon="-0.46053">
        <ele>318.6</ele>
        <time>2012-09-23T07:32:59Z</time>
      </trkpt>
      <trkpt lat="48.58976" lon="-0.46074">
        <ele>308.6</ele>
        <time>2012-09-23T07:33:04Z</time>
      </trkpt>
      <trkpt lat="48.58978" lon="-0.46087">
        <ele>307</ele>
        <time>2012-09-23T07:33:07Z</time>
      </trkpt>
      <trkpt lat="48.58978" lon="-0.461">
        <ele>305.4</ele>
        <time>2012-09-23T07:33:10Z</time>
      </trkpt>
      <trkpt lat="48.58979" lon="-0.46113">
        <ele>305</ele>
        <time>2012-09-23T07:33:14Z</time>
      </trkpt>
      <trkpt lat="48.58983" lon="-0.46133">
        <ele>304</ele>
        <time>2012-09-23T07:33:21Z</time>
      </trkpt>
      <trkpt lat="48.58982" lon="-0.46143">
        <ele>303.6</ele>
        <time>2012-09-23T07:33:24Z</time>
      </trkpt>
      <trkpt lat="48.58981" lon="-0.46166">
        <ele>304.7</ele>
        <time>2012-09-23T07:33:32Z</time>
      </trkpt>
      <trkpt lat="48.58984" lon="-0.46187">
        <ele>306</ele>
        <time>2012-09-23T07:33:37Z</time>
      </trkpt>
      <trkpt lat="48.58987" lon="-0.46199">
        <ele>305.5</ele>
        <time>2012-09-23T07:33:41Z</time>
      </trkpt>
      <trkpt lat="48.5899" lon="-0.46213">
        <ele>305.1</ele>
        <time>2012-09-23T07:33:44Z</time>
      </trkpt>
      <trkpt lat="48.5899" lon="-0.46247">
        <ele>305.7</ele>
        <time>2012-09-23T07:33:52Z</time>
      </trkpt>
      <trkpt lat="48.58994" lon="-0.46268">
        <ele>304.3</ele>
        <time>2012-09-23T07:33:56Z</time>
      </trkpt>
      <trkpt lat="48.58997" lon="-0.46284">
        <ele>302.8</ele>
        <time>2012-09-23T07:33:59Z</time>
      </trkpt>
      <trkpt lat="48.58997" lon="-0.4631">
        <ele>302.3</ele>
        <time>2012-09-23T07:34:05Z</time>
      </trkpt>
      <trkpt lat="48.59001" lon="-0.46344">
        <ele>302.9</ele>
        <time>2012-09-23T07:34:13Z</time>
      </trkpt>
      <trkpt lat="48.59004" lon="-0.46354">
        <ele>303.3</ele>
        <time>2012-09-23T07:34:15Z</time>
      </trkpt>
      <trkpt lat="48.58999" lon="-0.46377">
        <ele>302.6</ele>
        <time>2012-09-23T07:34:21Z</time>
      </trkpt>
      <trkpt lat="48.59" lon="-0.46401">
        <ele>302.9</ele>
        <time>2012-09-23T07:34:25Z</time>
      </trkpt>
      <trkpt lat="48.58999" lon="-0.46413">
        <ele>303.3</ele>
        <time>2012-09-23T07:34:29Z</time>
      </trkpt>
      <trkpt lat="48.59001" lon="-0.46427">
        <ele>306.3</ele>
        <time>2012-09-23T07:34:31Z</time>
      </trkpt>
      <trkpt lat="48.59001" lon="-0.46449">
        <ele>308.5</ele>
        <time>2012-09-23T07:34:36Z</time>
      </trkpt>
      <trkpt lat="48.58999" lon="-0.46471">
        <ele>310.1</ele>
        <time>2012-09-23T07:34:40Z</time>
      </trkpt>
      <trkpt lat="48.59003" lon="-0.46496">
        <ele>307.5</ele>
        <time>2012-09-23T07:34:45Z</time>
      </trkpt>
      <trkpt lat="48.59009" lon="-0.4653">
        <ele>311.1</ele>
        <time>2012-09-23T07:34:53Z</time>
      </trkpt>
      <trkpt lat="48.59016" lon="-0.46534">
        <ele>308.7</ele>
        <time>2012-09-23T07:34:55Z</time>
      </trkpt>
      <trkpt lat="48.59027" lon="-0.4655">
        <ele>308.5</ele>
        <time>2012-09-23T07:35:00Z</time>
      </trkpt>
      <trkpt lat="48.59039" lon="-0.46565">
        <ele>309.4</ele>
        <time>2012-09-23T07:35:05Z</time>
      </trkpt>
      <trkpt lat="48.59052" lon="-0.46576">
        <ele>308.8</ele>
        <time>2012-09-23T07:35:09Z</time>
      </trkpt>
      <trkpt lat="48.59067" lon="-0.46587">
        <ele>305.8</ele>
        <time>2012-09-23T07:35:13Z</time>
      </trkpt>
      <trkpt lat="48.59082" lon="-0.46605">
        <ele>304.4</ele>
        <time>2012-09-23T07:35:17Z</time>
      </trkpt>
      <trkpt lat="48.59099" lon="-0.46628">
        <ele>305.6</ele>
        <time>2012-09-23T07:35:21Z</time>
      </trkpt>
      <trkpt lat="48.59114" lon="-0.46643">
        <ele>304.5</ele>
        <time>2012-09-23T07:35:24Z</time>
      </trkpt>
      <trkpt lat="48.59131" lon="-0.46659">
        <ele>305.9</ele>
        <time>2012-09-23T07:35:28Z</time>
      </trkpt>
      <trkpt lat="48.5914" lon="-0.46666">
        <ele>307.1</ele>
        <time>2012-09-23T07:35:30Z</time>
      </trkpt>
      <trkpt lat="48.59166" lon="-0.46683">
        <ele>307.9</ele>
        <time>2012-09-23T07:35:36Z</time>
      </trkpt>
      <trkpt lat="48.59185" lon="-0.46692">
        <ele>307.6</ele>
        <time>2012-09-23T07:35:40Z</time>
      </trkpt>
      <trkpt lat="48.59206" lon="-0.46695">
        <ele>306</ele>
        <time>2012-09-23T07:35:44Z</time>
      </trkpt>
      <trkpt lat="48.59222" lon="-0.46701">
        <ele>306.9</ele>
        <time>2012-09-23T07:35:48Z</time>
      </trkpt>
      <trkpt lat="48.59236" lon="-0.46712">
        <ele>306</ele>
        <time>2012-09-23T07:35:52Z</time>
      </trkpt>
      <trkpt lat="48.5924" lon="-0.46732">
        <ele>305</ele>
        <time>2012-09-23T07:35:56Z</time>
      </trkpt>
      <trkpt lat="48.59229" lon="-0.46783">
        <ele>304.1</ele>
        <time>2012-09-23T07:36:05Z</time>
      </trkpt>
      <trkpt lat="48.59226" lon="-0.46807">
        <ele>304.6</ele>
        <time>2012-09-23T07:36:09Z</time>
      </trkpt>
      <trkpt lat="48.59223" lon="-0.46831">
        <ele>305.1</ele>
        <time>2012-09-23T07:36:13Z</time>
      </trkpt>
      <trkpt lat="48.59221" lon="-0.46856">
        <ele>305.5</ele>
        <time>2012-09-23T07:36:17Z</time>
      </trkpt>
      <trkpt lat="48.59218" lon="-0.4687">
        <ele>305.6</ele>
        <time>2012-09-23T07:36:19Z</time>
      </trkpt>
      <trkpt lat="48.59211" lon="-0.46895">
        <ele>308</ele>
        <time>2012-09-23T07:36:24Z</time>
      </trkpt>
      <trkpt lat="48.59204" lon="-0.46922">
        <ele>309.5</ele>
        <time>2012-09-23T07:36:29Z</time>
      </trkpt>
      <trkpt lat="48.59198" lon="-0.46948">
        <ele>310.6</ele>
        <time>2012-09-23T07:36:33Z</time>
      </trkpt>
      <trkpt lat="48.59185" lon="-0.46973">
        <ele>308.8</ele>
        <time>2012-09-23T07:36:37Z</time>
      </trkpt>
      <trkpt lat="48.59177" lon="-0.46996">
        <ele>307.1</ele>
        <time>2012-09-23T07:36:41Z</time>
      </trkpt>
      <trkpt lat="48.59165" lon="-0.47036">
        <ele>311.9</ele>
        <time>2012-09-23T07:36:47Z</time>
      </trkpt>
      <trkpt lat="48.59153" lon="-0.47076">
        <ele>312.3</ele>
        <time>2012-09-23T07:36:53Z</time>
      </trkpt>
      <trkpt lat="48.59154" lon="-0.47091">
        <ele>313.4</ele>
        <time>2012-09-23T07:36:55Z</time>
      </trkpt>
      <trkpt lat="48.59147" lon="-0.47114">
        <ele>315.4</ele>
        <time>2012-09-23T07:36:59Z</time>
      </trkpt>
      <trkpt lat="48.5914" lon="-0.47141">
        <ele>316.4</ele>
        <time>2012-09-23T07:37:03Z</time>
      </trkpt>
      <trkpt lat="48.59133" lon="-0.47174">
        <ele>317.3</ele>
        <time>2012-09-23T07:37:09Z</time>
      </trkpt>
      <trkpt lat="48.59126" lon="-0.47201">
        <ele>317.9</ele>
        <time>2012-09-23T07:37:13Z</time>
      </trkpt>
      <trkpt lat="48.59122" lon="-0.47225">
        <ele>318.7</ele>
        <time>2012-09-23T07:37:17Z</time>
      </trkpt>
      <trkpt lat="48.59121" lon="-0.47237">
        <ele>318.8</ele>
        <time>2012-09-23T07:37:19Z</time>
      </trkpt>
      <trkpt lat="48.59121" lon="-0.47276">
        <ele>318.2</ele>
        <time>2012-09-23T07:37:25Z</time>
      </trkpt>
      <trkpt lat="48.59116" lon="-0.47297">
        <ele>319.7</ele>
        <time>2012-09-23T07:37:29Z</time>
      </trkpt>
      <trkpt lat="48.59117" lon="-0.4731">
        <ele>320.1</ele>
        <time>2012-09-23T07:37:31Z</time>
      </trkpt>
      <trkpt lat="48.59113" lon="-0.47341">
        <ele>320</ele>
        <time>2012-09-23T07:37:37Z</time>
      </trkpt>
      <trkpt lat="48.5911" lon="-0.47362">
        <ele>318.2</ele>
        <time>2012-09-23T07:37:41Z</time>
      </trkpt>
      <trkpt lat="48.59108" lon="-0.47372">
        <ele>319.1</ele>
        <time>2012-09-23T07:37:43Z</time>
      </trkpt>
      <trkpt lat="48.59099" lon="-0.47401">
        <ele>321.8</ele>
        <time>2012-09-23T07:37:49Z</time>
      </trkpt>
      <trkpt lat="48.59096" lon="-0.47423">
        <ele>324.9</ele>
        <time>2012-09-23T07:37:53Z</time>
      </trkpt>
      <trkpt lat="48.59092" lon="-0.47444">
        <ele>324.6</ele>
        <time>2012-09-23T07:37:57Z</time>
      </trkpt>
      <trkpt lat="48.59087" lon="-0.47466">
        <ele>325.2</ele>
        <time>2012-09-23T07:38:01Z</time>
      </trkpt>
      <trkpt lat="48.59086" lon="-0.47478">
        <ele>324.5</ele>
        <time>2012-09-23T07:38:03Z</time>
      </trkpt>
      <trkpt lat="48.59083" lon="-0.47511">
        <ele>326.9</ele>
        <time>2012-09-23T07:38:09Z</time>
      </trkpt>
      <trkpt lat="48.59079" lon="-0.47537">
        <ele>326.8</ele>
        <time>2012-09-23T07:38:13Z</time>
      </trkpt>
      <trkpt lat="48.59073" lon="-0.47556">
        <ele>327.9</ele>
        <time>2012-09-23T07:38:17Z</time>
      </trkpt>
      <trkpt lat="48.59071" lon="-0.47565">
        <ele>327.8</ele>
        <time>2012-09-23T07:38:19Z</time>
      </trkpt>
      <trkpt lat="48.59065" lon="-0.47589">
        <ele>328.6</ele>
        <time>2012-09-23T07:38:25Z</time>
      </trkpt>
      <trkpt lat="48.59065" lon="-0.47589">
        <ele>275</ele>
        <time>2012-09-23T07:38:36Z</time>
      </trkpt>
      <trkpt lat="48.59065" lon="-0.47589">
        <ele>275</ele>
        <time>2012-09-23T07:38:51Z</time>
      </trkpt>
      <trkpt lat="48.59058" lon="-0.47618">
        <ele>329.8</ele>
        <time>2012-09-23T07:38:54Z</time>
      </trkpt>
      <trkpt lat="48.59051" lon="-0.47643">
        <ele>330.2</ele>
        <time>2012-09-23T07:39:01Z</time>
      </trkpt>
      <trkpt lat="48.59044" lon="-0.47666">
        <ele>331.7</ele>
        <time>2012-09-23T07:39:08Z</time>
      </trkpt>
      <trkpt lat="48.59039" lon="-0.47702">
        <ele>331.7</ele>
        <time>2012-09-23T07:39:15Z</time>
      </trkpt>
      <trkpt lat="48.59035" lon="-0.47725">
        <ele>330.6</ele>
        <time>2012-09-23T07:39:19Z</time>
      </trkpt>
      <trkpt lat="48.59034" lon="-0.47735">
        <ele>331.5</ele>
        <time>2012-09-23T07:39:21Z</time>
      </trkpt>
      <trkpt lat="48.59034" lon="-0.47735">
        <ele>275.7</ele>
        <time>2012-09-23T07:39:32Z</time>
      </trkpt>
      <trkpt lat="48.59034" lon="-0.47735">
        <ele>275.7</ele>
        <time>2012-09-23T07:39:37Z</time>
      </trkpt>
      <trkpt lat="48.59045" lon="-0.47752">
        <ele>328.2</ele>
        <time>2012-09-23T07:39:40Z</time>
      </trkpt>
      <trkpt lat="48.59055" lon="-0.47769">
        <ele>327.4</ele>
        <time>2012-09-23T07:39:44Z</time>
      </trkpt>
      <trkpt lat="48.59063" lon="-0.47788">
        <ele>325.8</ele>
        <time>2012-09-23T07:39:48Z</time>
      </trkpt>
      <trkpt lat="48.59075" lon="-0.47803">
        <ele>326.8</ele>
        <time>2012-09-23T07:39:52Z</time>
      </trkpt>
      <trkpt lat="48.59089" lon="-0.47827">
        <ele>324.1</ele>
        <time>2012-09-23T07:39:56Z</time>
      </trkpt>
      <trkpt lat="48.59103" lon="-0.47857">
        <ele>323.9</ele>
        <time>2012-09-23T07:40:00Z</time>
      </trkpt>
      <trkpt lat="48.59115" lon="-0.47881">
        <ele>323.1</ele>
        <time>2012-09-23T07:40:04Z</time>
      </trkpt>
      <trkpt lat="48.59131" lon="-0.47904">
        <ele>323.9</ele>
        <time>2012-09-23T07:40:09Z</time>
      </trkpt>
      <trkpt lat="48.59136" lon="-0.47911">
        <ele>323.7</ele>
        <time>2012-09-23T07:40:11Z</time>
      </trkpt>
      <trkpt lat="48.59141" lon="-0.47919">
        <ele>323.6</ele>
        <time>2012-09-23T07:40:13Z</time>
      </trkpt>
      <trkpt lat="48.59149" lon="-0.47946">
        <ele>325.5</ele>
        <time>2012-09-23T07:40:20Z</time>
      </trkpt>
      <trkpt lat="48.59152" lon="-0.47957">
        <ele>324.9</ele>
        <time>2012-09-23T07:40:24Z</time>
      </trkpt>
      <trkpt lat="48.59156" lon="-0.47965">
        <ele>325.7</ele>
        <time>2012-09-23T07:40:27Z</time>
      </trkpt>
      <trkpt lat="48.59162" lon="-0.47971">
        <ele>328.6</ele>
        <time>2012-09-23T07:40:30Z</time>
      </trkpt>
      <trkpt lat="48.59175" lon="-0.47988">
        <ele>329.8</ele>
        <time>2012-09-23T07:40:36Z</time>
      </trkpt>
      <trkpt lat="48.59191" lon="-0.48001">
        <ele>329.2</ele>
        <time>2012-09-23T07:40:41Z</time>
      </trkpt>
      <trkpt lat="48.59203" lon="-0.48014">
        <ele>326.5</ele>
        <time>2012-09-23T07:40:44Z</time>
      </trkpt>
      <trkpt lat="48.59214" lon="-0.48032">
        <ele>327.3</ele>
        <time>2012-09-23T07:40:49Z</time>
      </trkpt>
      <trkpt lat="48.59221" lon="-0.4805">
        <ele>329.1</ele>
        <time>2012-09-23T07:40:53Z</time>
      </trkpt>
      <trkpt lat="48.59221" lon="-0.48059">
        <ele>331.2</ele>
        <time>2012-09-23T07:40:55Z</time>
      </trkpt>
      <trkpt lat="48.59231" lon="-0.48081">
        <ele>332.4</ele>
        <time>2012-09-23T07:40:59Z</time>
      </trkpt>
      <trkpt lat="48.59259" lon="-0.48106">
        <ele>327.6</ele>
        <time>2012-09-23T07:41:05Z</time>
      </trkpt>
      <trkpt lat="48.59263" lon="-0.48114">
        <ele>327.5</ele>
        <time>2012-09-23T07:41:07Z</time>
      </trkpt>
      <trkpt lat="48.5927" lon="-0.48133">
        <ele>326.6</ele>
        <time>2012-09-23T07:41:12Z</time>
      </trkpt>
      <trkpt lat="48.59279" lon="-0.48149">
        <ele>320.7</ele>
        <time>2012-09-23T07:41:16Z</time>
      </trkpt>
      <trkpt lat="48.59291" lon="-0.48164">
        <ele>317.1</ele>
        <time>2012-09-23T07:41:21Z</time>
      </trkpt>
      <trkpt lat="48.59306" lon="-0.48179">
        <ele>315.5</ele>
        <time>2012-09-23T07:41:25Z</time>
      </trkpt>
      <trkpt lat="48.59321" lon="-0.48209">
        <ele>315.1</ele>
        <time>2012-09-23T07:41:33Z</time>
      </trkpt>
      <trkpt lat="48.59326" lon="-0.48217">
        <ele>313.3</ele>
        <time>2012-09-23T07:41:38Z</time>
      </trkpt>
      <trkpt lat="48.59328" lon="-0.48227">
        <ele>313.6</ele>
        <time>2012-09-23T07:41:44Z</time>
      </trkpt>
      <trkpt lat="48.59328" lon="-0.48227">
        <ele>256.4</ele>
        <time>2012-09-23T07:41:55Z</time>
      </trkpt>
      <trkpt lat="48.59328" lon="-0.48227">
        <ele>256.4</ele>
        <time>2012-09-23T07:42:01Z</time>
      </trkpt>
      <trkpt lat="48.59347" lon="-0.48253">
        <ele>310.2</ele>
        <time>2012-09-23T07:42:06Z</time>
      </trkpt>
      <trkpt lat="48.59357" lon="-0.48268">
        <ele>308.9</ele>
        <time>2012-09-23T07:42:11Z</time>
      </trkpt>
      <trkpt lat="48.59373" lon="-0.48298">
        <ele>304.1</ele>
        <time>2012-09-23T07:42:19Z</time>
      </trkpt>
      <trkpt lat="48.59376" lon="-0.48307">
        <ele>304.7</ele>
        <time>2012-09-23T07:42:22Z</time>
      </trkpt>
      <trkpt lat="48.59389" lon="-0.48323">
        <ele>299.9</ele>
        <time>2012-09-23T07:42:26Z</time>
      </trkpt>
      <trkpt lat="48.59405" lon="-0.48337">
        <ele>296.7</ele>
        <time>2012-09-23T07:42:31Z</time>
      </trkpt>
      <trkpt lat="48.59426" lon="-0.48351">
        <ele>298.1</ele>
        <time>2012-09-23T07:42:38Z</time>
      </trkpt>
      <trkpt lat="48.5944" lon="-0.48363">
        <ele>297.2</ele>
        <time>2012-09-23T07:42:43Z</time>
      </trkpt>
      <trkpt lat="48.59457" lon="-0.484">
        <ele>301</ele>
        <time>2012-09-23T07:42:55Z</time>
      </trkpt>
      <trkpt lat="48.59457" lon="-0.4842">
        <ele>299.7</ele>
        <time>2012-09-23T07:42:59Z</time>
      </trkpt>
      <trkpt lat="48.59463" lon="-0.4844">
        <ele>300.8</ele>
        <time>2012-09-23T07:43:03Z</time>
      </trkpt>
      <trkpt lat="48.59467" lon="-0.48452">
        <ele>302.8</ele>
        <time>2012-09-23T07:43:06Z</time>
      </trkpt>
      <trkpt lat="48.59474" lon="-0.48471">
        <ele>302.2</ele>
        <time>2012-09-23T07:43:11Z</time>
      </trkpt>
      <trkpt lat="48.59475" lon="-0.48482">
        <ele>303</ele>
        <time>2012-09-23T07:43:14Z</time>
      </trkpt>
      <trkpt lat="48.59477" lon="-0.48494">
        <ele>302.4</ele>
        <time>2012-09-23T07:43:17Z</time>
      </trkpt>
      <trkpt lat="48.59478" lon="-0.48515">
        <ele>302</ele>
        <time>2012-09-23T07:43:22Z</time>
      </trkpt>
      <trkpt lat="48.59481" lon="-0.48527">
        <ele>301.6</ele>
        <time>2012-09-23T07:43:25Z</time>
      </trkpt>
      <trkpt lat="48.59482" lon="-0.48537">
        <ele>300.5</ele>
        <time>2012-09-23T07:43:28Z</time>
      </trkpt>
      <trkpt lat="48.59491" lon="-0.48558">
        <ele>300.8</ele>
        <time>2012-09-23T07:43:35Z</time>
      </trkpt>
      <trkpt lat="48.59497" lon="-0.48563">
        <ele>300.7</ele>
        <time>2012-09-23T07:43:37Z</time>
      </trkpt>
      <trkpt lat="48.59507" lon="-0.48585">
        <ele>300.9</ele>
        <time>2012-09-23T07:43:43Z</time>
      </trkpt>
      <trkpt lat="48.59517" lon="-0.48604">
        <ele>296.5</ele>
        <time>2012-09-23T07:43:47Z</time>
      </trkpt>
      <trkpt lat="48.59528" lon="-0.48634">
        <ele>294.8</ele>
        <time>2012-09-23T07:43:54Z</time>
      </trkpt>
      <trkpt lat="48.59532" lon="-0.48658">
        <ele>292.7</ele>
        <time>2012-09-23T07:43:59Z</time>
      </trkpt>
      <trkpt lat="48.59537" lon="-0.48667">
        <ele>290.5</ele>
        <time>2012-09-23T07:44:02Z</time>
      </trkpt>
      <trkpt lat="48.59544" lon="-0.4869">
        <ele>292.4</ele>
        <time>2012-09-23T07:44:07Z</time>
      </trkpt>
      <trkpt lat="48.59552" lon="-0.48709">
        <ele>293.8</ele>
        <time>2012-09-23T07:44:11Z</time>
      </trkpt>
      <trkpt lat="48.59556" lon="-0.48718">
        <ele>294.5</ele>
        <time>2012-09-23T07:44:14Z</time>
      </trkpt>
      <trkpt lat="48.59562" lon="-0.48725">
        <ele>294.3</ele>
        <time>2012-09-23T07:44:17Z</time>
      </trkpt>
      <trkpt lat="48.59569" lon="-0.48743">
        <ele>295</ele>
        <time>2012-09-23T07:44:22Z</time>
      </trkpt>
      <trkpt lat="48.59578" lon="-0.4876">
        <ele>295.8</ele>
        <time>2012-09-23T07:44:26Z</time>
      </trkpt>
      <trkpt lat="48.59581" lon="-0.48768">
        <ele>295.8</ele>
        <time>2012-09-23T07:44:28Z</time>
      </trkpt>
      <trkpt lat="48.59599" lon="-0.48792">
        <ele>292.6</ele>
        <time>2012-09-23T07:44:34Z</time>
      </trkpt>
      <trkpt lat="48.5961" lon="-0.48817">
        <ele>292.5</ele>
        <time>2012-09-23T07:44:38Z</time>
      </trkpt>
      <trkpt lat="48.59623" lon="-0.48838">
        <ele>289</ele>
        <time>2012-09-23T07:44:42Z</time>
      </trkpt>
      <trkpt lat="48.59634" lon="-0.48855">
        <ele>287.9</ele>
        <time>2012-09-23T07:44:46Z</time>
      </trkpt>
      <trkpt lat="48.59652" lon="-0.48879">
        <ele>281.8</ele>
        <time>2012-09-23T07:44:51Z</time>
      </trkpt>
      <trkpt lat="48.59658" lon="-0.48889">
        <ele>281.8</ele>
        <time>2012-09-23T07:44:53Z</time>
      </trkpt>
      <trkpt lat="48.59679" lon="-0.48911">
        <ele>275.3</ele>
        <time>2012-09-23T07:44:59Z</time>
      </trkpt>
      <trkpt lat="48.5969" lon="-0.48929">
        <ele>275.2</ele>
        <time>2012-09-23T07:45:03Z</time>
      </trkpt>
      <trkpt lat="48.59693" lon="-0.48938">
        <ele>276.8</ele>
        <time>2012-09-23T07:45:05Z</time>
      </trkpt>
      <trkpt lat="48.59702" lon="-0.48955">
        <ele>279.5</ele>
        <time>2012-09-23T07:45:09Z</time>
      </trkpt>
      <trkpt lat="48.59711" lon="-0.48978">
        <ele>286.1</ele>
        <time>2012-09-23T07:45:14Z</time>
      </trkpt>
      <trkpt lat="48.59714" lon="-0.48992">
        <ele>286.1</ele>
        <time>2012-09-23T07:45:17Z</time>
      </trkpt>
      <trkpt lat="48.59721" lon="-0.49012">
        <ele>287.2</ele>
        <time>2012-09-23T07:45:23Z</time>
      </trkpt>
      <trkpt lat="48.59736" lon="-0.49015">
        <ele>287.8</ele>
        <time>2012-09-23T07:45:26Z</time>
      </trkpt>
      <trkpt lat="48.59752" lon="-0.49024">
        <ele>289.2</ele>
        <time>2012-09-23T07:45:30Z</time>
      </trkpt>
      <trkpt lat="48.59761" lon="-0.49039">
        <ele>287.8</ele>
        <time>2012-09-23T07:45:34Z</time>
      </trkpt>
      <trkpt lat="48.59765" lon="-0.49048">
        <ele>286.9</ele>
        <time>2012-09-23T07:45:36Z</time>
      </trkpt>
      <trkpt lat="48.59776" lon="-0.49067">
        <ele>287.6</ele>
        <time>2012-09-23T07:45:41Z</time>
      </trkpt>
      <trkpt lat="48.59793" lon="-0.49097">
        <ele>288.6</ele>
        <time>2012-09-23T07:45:47Z</time>
      </trkpt>
      <trkpt lat="48.59805" lon="-0.4912">
        <ele>289.8</ele>
        <time>2012-09-23T07:45:51Z</time>
      </trkpt>
      <trkpt lat="48.59817" lon="-0.49137">
        <ele>286</ele>
        <time>2012-09-23T07:45:55Z</time>
      </trkpt>
      <trkpt lat="48.59825" lon="-0.49159">
        <ele>287.4</ele>
        <time>2012-09-23T07:45:59Z</time>
      </trkpt>
      <trkpt lat="48.5982" lon="-0.49174">
        <ele>288.5</ele>
        <time>2012-09-23T07:46:02Z</time>
      </trkpt>
      <trkpt lat="48.59825" lon="-0.49207">
        <ele>284.7</ele>
        <time>2012-09-23T07:46:10Z</time>
      </trkpt>
      <trkpt lat="48.59846" lon="-0.49222">
        <ele>283.9</ele>
        <time>2012-09-23T07:46:15Z</time>
      </trkpt>
      <trkpt lat="48.59862" lon="-0.49236">
        <ele>284.6</ele>
        <time>2012-09-23T07:46:19Z</time>
      </trkpt>
      <trkpt lat="48.59872" lon="-0.49242">
        <ele>282.9</ele>
        <time>2012-09-23T07:46:21Z</time>
      </trkpt>
      <trkpt lat="48.59899" lon="-0.49259">
        <ele>281.3</ele>
        <time>2012-09-23T07:46:26Z</time>
      </trkpt>
      <trkpt lat="48.59923" lon="-0.49273">
        <ele>281.7</ele>
        <time>2012-09-23T07:46:30Z</time>
      </trkpt>
      <trkpt lat="48.59955" lon="-0.49289">
        <ele>282.7</ele>
        <time>2012-09-23T07:46:35Z</time>
      </trkpt>
      <trkpt lat="48.59974" lon="-0.49302">
        <ele>281.7</ele>
        <time>2012-09-23T07:46:39Z</time>
      </trkpt>
      <trkpt lat="48.59983" lon="-0.4931">
        <ele>281.8</ele>
        <time>2012-09-23T07:46:41Z</time>
      </trkpt>
      <trkpt lat="48.60013" lon="-0.4933">
        <ele>281.4</ele>
        <time>2012-09-23T07:46:47Z</time>
      </trkpt>
      <trkpt lat="48.6003" lon="-0.49335">
        <ele>281.9</ele>
        <time>2012-09-23T07:46:49Z</time>
      </trkpt>
      <trkpt lat="48.6006" lon="-0.4936">
        <ele>280.4</ele>
        <time>2012-09-23T07:46:55Z</time>
      </trkpt>
      <trkpt lat="48.60079" lon="-0.49369">
        <ele>281.2</ele>
        <time>2012-09-23T07:46:58Z</time>
      </trkpt>
      <trkpt lat="48.60102" lon="-0.49384">
        <ele>282.3</ele>
        <time>2012-09-23T07:47:02Z</time>
      </trkpt>
      <trkpt lat="48.60129" lon="-0.49397">
        <ele>282.4</ele>
        <time>2012-09-23T07:47:06Z</time>
      </trkpt>
      <trkpt lat="48.60163" lon="-0.49424">
        <ele>278.3</ele>
        <time>2012-09-23T07:47:11Z</time>
      </trkpt>
      <trkpt lat="48.60178" lon="-0.49437">
        <ele>274.5</ele>
        <time>2012-09-23T07:47:13Z</time>
      </trkpt>
      <trkpt lat="48.60209" lon="-0.49472">
        <ele>274.6</ele>
        <time>2012-09-23T07:47:19Z</time>
      </trkpt>
      <trkpt lat="48.60225" lon="-0.49484">
        <ele>275.9</ele>
        <time>2012-09-23T07:47:22Z</time>
      </trkpt>
      <trkpt lat="48.60243" lon="-0.49492">
        <ele>276</ele>
        <time>2012-09-23T07:47:26Z</time>
      </trkpt>
      <trkpt lat="48.60261" lon="-0.49495">
        <ele>279.5</ele>
        <time>2012-09-23T07:47:30Z</time>
      </trkpt>
      <trkpt lat="48.60291" lon="-0.49507">
        <ele>282.5</ele>
        <time>2012-09-23T07:47:38Z</time>
      </trkpt>
      <trkpt lat="48.60309" lon="-0.49509">
        <ele>282.6</ele>
        <time>2012-09-23T07:47:42Z</time>
      </trkpt>
      <trkpt lat="48.60336" lon="-0.4951">
        <ele>284.2</ele>
        <time>2012-09-23T07:47:50Z</time>
      </trkpt>
      <trkpt lat="48.60343" lon="-0.49511">
        <ele>284.6</ele>
        <time>2012-09-23T07:47:53Z</time>
      </trkpt>
      <trkpt lat="48.60357" lon="-0.49515">
        <ele>287.2</ele>
        <time>2012-09-23T07:47:58Z</time>
      </trkpt>
      <trkpt lat="48.60377" lon="-0.49505">
        <ele>291.1</ele>
        <time>2012-09-23T07:48:03Z</time>
      </trkpt>
      <trkpt lat="48.604" lon="-0.49474">
        <ele>293.3</ele>
        <time>2012-09-23T07:48:09Z</time>
      </trkpt>
      <trkpt lat="48.6041" lon="-0.49456">
        <ele>294.3</ele>
        <time>2012-09-23T07:48:13Z</time>
      </trkpt>
      <trkpt lat="48.60413" lon="-0.49436">
        <ele>295.7</ele>
        <time>2012-09-23T07:48:17Z</time>
      </trkpt>
      <trkpt lat="48.60416" lon="-0.49405">
        <ele>295.9</ele>
        <time>2012-09-23T07:48:22Z</time>
      </trkpt>
      <trkpt lat="48.60412" lon="-0.49383">
        <ele>296</ele>
        <time>2012-09-23T07:48:26Z</time>
      </trkpt>
      <trkpt lat="48.60412" lon="-0.49359">
        <ele>297.2</ele>
        <time>2012-09-23T07:48:30Z</time>
      </trkpt>
      <trkpt lat="48.60413" lon="-0.4933">
        <ele>298.5</ele>
        <time>2012-09-23T07:48:34Z</time>
      </trkpt>
      <trkpt lat="48.60414" lon="-0.49299">
        <ele>299.9</ele>
        <time>2012-09-23T07:48:39Z</time>
      </trkpt>
      <trkpt lat="48.60413" lon="-0.49277">
        <ele>298.9</ele>
        <time>2012-09-23T07:48:42Z</time>
      </trkpt>
      <trkpt lat="48.60409" lon="-0.49246">
        <ele>303.4</ele>
        <time>2012-09-23T07:48:46Z</time>
      </trkpt>
      <trkpt lat="48.60403" lon="-0.49227">
        <ele>302.4</ele>
        <time>2012-09-23T07:48:50Z</time>
      </trkpt>
      <trkpt lat="48.60398" lon="-0.49217">
        <ele>301</ele>
        <time>2012-09-23T07:48:54Z</time>
      </trkpt>
      <trkpt lat="48.60401" lon="-0.49184">
        <ele>305.3</ele>
        <time>2012-09-23T07:49:03Z</time>
      </trkpt>
      <trkpt lat="48.60405" lon="-0.49173">
        <ele>307.7</ele>
        <time>2012-09-23T07:49:06Z</time>
      </trkpt>
      <trkpt lat="48.60405" lon="-0.49173">
        <ele>234.4</ele>
        <time>2012-09-23T07:49:17Z</time>
      </trkpt>
      <trkpt lat="48.60405" lon="-0.49173">
        <ele>234.4</ele>
        <time>2012-09-23T07:49:19Z</time>
      </trkpt>
      <trkpt lat="48.60415" lon="-0.49149">
        <ele>316.2</ele>
        <time>2012-09-23T07:49:21Z</time>
      </trkpt>
      <trkpt lat="48.60425" lon="-0.49127">
        <ele>321.6</ele>
        <time>2012-09-23T07:49:27Z</time>
      </trkpt>
      <trkpt lat="48.60436" lon="-0.49107">
        <ele>322.2</ele>
        <time>2012-09-23T07:49:33Z</time>
      </trkpt>
      <trkpt lat="48.6044" lon="-0.49098">
        <ele>322.9</ele>
        <time>2012-09-23T07:49:35Z</time>
      </trkpt>
      <trkpt lat="48.60443" lon="-0.49086">
        <ele>322.8</ele>
        <time>2012-09-23T07:49:43Z</time>
      </trkpt>
      <trkpt lat="48.60443" lon="-0.49086">
        <ele>240.8</ele>
        <time>2012-09-23T07:49:54Z</time>
      </trkpt>
      <trkpt lat="48.60443" lon="-0.49086">
        <ele>240.8</ele>
        <time>2012-09-23T07:49:56Z</time>
      </trkpt>
      <trkpt lat="48.60464" lon="-0.49049">
        <ele>322.1</ele>
        <time>2012-09-23T07:50:03Z</time>
      </trkpt>
      <trkpt lat="48.60473" lon="-0.49031">
        <ele>325</ele>
        <time>2012-09-23T07:50:08Z</time>
      </trkpt>
      <trkpt lat="48.6048" lon="-0.49009">
        <ele>335.4</ele>
        <time>2012-09-23T07:50:13Z</time>
      </trkpt>
      <trkpt lat="48.60486" lon="-0.48997">
        <ele>338.4</ele>
        <time>2012-09-23T07:50:16Z</time>
      </trkpt>
      <trkpt lat="48.60498" lon="-0.48979">
        <ele>338.8</ele>
        <time>2012-09-23T07:50:22Z</time>
      </trkpt>
      <trkpt lat="48.60515" lon="-0.48953">
        <ele>338.8</ele>
        <time>2012-09-23T07:50:29Z</time>
      </trkpt>
      <trkpt lat="48.60532" lon="-0.48932">
        <ele>334.6</ele>
        <time>2012-09-23T07:50:35Z</time>
      </trkpt>
      <trkpt lat="48.60537" lon="-0.48922">
        <ele>335.7</ele>
        <time>2012-09-23T07:50:37Z</time>
      </trkpt>
      <trkpt lat="48.60543" lon="-0.48912">
        <ele>334.6</ele>
        <time>2012-09-23T07:50:40Z</time>
      </trkpt>
      <trkpt lat="48.60555" lon="-0.48893">
        <ele>332.3</ele>
        <time>2012-09-23T07:50:44Z</time>
      </trkpt>
      <trkpt lat="48.60568" lon="-0.48867">
        <ele>331.4</ele>
        <time>2012-09-23T07:50:50Z</time>
      </trkpt>
      <trkpt lat="48.60591" lon="-0.48833">
        <ele>327.7</ele>
        <time>2012-09-23T07:50:55Z</time>
      </trkpt>
      <trkpt lat="48.606" lon="-0.4882">
        <ele>325.8</ele>
        <time>2012-09-23T07:50:58Z</time>
      </trkpt>
      <trkpt lat="48.60604" lon="-0.48807">
        <ele>327.9</ele>
        <time>2012-09-23T07:51:00Z</time>
      </trkpt>
      <trkpt lat="48.60613" lon="-0.48787">
        <ele>328.6</ele>
        <time>2012-09-23T07:51:04Z</time>
      </trkpt>
      <trkpt lat="48.60623" lon="-0.48766">
        <ele>326.4</ele>
        <time>2012-09-23T07:51:08Z</time>
      </trkpt>
      <trkpt lat="48.60637" lon="-0.48759">
        <ele>323.6</ele>
        <time>2012-09-23T07:51:14Z</time>
      </trkpt>
      <trkpt lat="48.6065" lon="-0.48755">
        <ele>325.2</ele>
        <time>2012-09-23T07:51:18Z</time>
      </trkpt>
      <trkpt lat="48.60658" lon="-0.48749">
        <ele>322.7</ele>
        <time>2012-09-23T07:51:22Z</time>
      </trkpt>
      <trkpt lat="48.60666" lon="-0.48748">
        <ele>316.2</ele>
        <time>2012-09-23T07:51:26Z</time>
      </trkpt>
      <trkpt lat="48.60673" lon="-0.48742">
        <ele>316.4</ele>
        <time>2012-09-23T07:51:30Z</time>
      </trkpt>
      <trkpt lat="48.60684" lon="-0.48726">
        <ele>314.5</ele>
        <time>2012-09-23T07:51:42Z</time>
      </trkpt>
      <trkpt lat="48.60688" lon="-0.48718">
        <ele>313.1</ele>
        <time>2012-09-23T07:51:47Z</time>
      </trkpt>
      <trkpt lat="48.6069" lon="-0.48709">
        <ele>312.4</ele>
        <time>2012-09-23T07:51:49Z</time>
      </trkpt>
      <trkpt lat="48.60696" lon="-0.4869">
        <ele>311.7</ele>
        <time>2012-09-23T07:52:00Z</time>
      </trkpt>
      <trkpt lat="48.607" lon="-0.48669">
        <ele>309.3</ele>
        <time>2012-09-23T07:52:11Z</time>
      </trkpt>
      <trkpt lat="48.60716" lon="-0.48638">
        <ele>307.7</ele>
        <time>2012-09-23T07:52:19Z</time>
      </trkpt>
      <trkpt lat="48.60716" lon="-0.48638">
        <ele>253.3</ele>
        <time>2012-09-23T07:52:30Z</time>
      </trkpt>
      <trkpt lat="48.60716" lon="-0.48638">
        <ele>253.3</ele>
        <time>2012-09-23T07:52:33Z</time>
      </trkpt>
      <trkpt lat="48.60731" lon="-0.48587">
        <ele>320.5</ele>
        <time>2012-09-23T07:52:38Z</time>
      </trkpt>
      <trkpt lat="48.60738" lon="-0.48569">
        <ele>320.6</ele>
        <time>2012-09-23T07:52:44Z</time>
      </trkpt>
      <trkpt lat="48.60747" lon="-0.48551">
        <ele>326.9</ele>
        <time>2012-09-23T07:52:49Z</time>
      </trkpt>
      <trkpt lat="48.60758" lon="-0.48534">
        <ele>328.3</ele>
        <time>2012-09-23T07:52:54Z</time>
      </trkpt>
      <trkpt lat="48.60769" lon="-0.48518">
        <ele>326.4</ele>
        <time>2012-09-23T07:52:59Z</time>
      </trkpt>
      <trkpt lat="48.60783" lon="-0.48495">
        <ele>331.5</ele>
        <time>2012-09-23T07:53:06Z</time>
      </trkpt>
      <trkpt lat="48.60788" lon="-0.48486">
        <ele>330.2</ele>
        <time>2012-09-23T07:53:09Z</time>
      </trkpt>
      <trkpt lat="48.60795" lon="-0.48476">
        <ele>329.7</ele>
        <time>2012-09-23T07:53:12Z</time>
      </trkpt>
      <trkpt lat="48.60801" lon="-0.48466">
        <ele>329.7</ele>
        <time>2012-09-23T07:53:15Z</time>
      </trkpt>
      <trkpt lat="48.6081" lon="-0.4845">
        <ele>331.6</ele>
        <time>2012-09-23T07:53:21Z</time>
      </trkpt>
      <trkpt lat="48.60814" lon="-0.48441">
        <ele>331.5</ele>
        <time>2012-09-23T07:53:23Z</time>
      </trkpt>
      <trkpt lat="48.60827" lon="-0.48427">
        <ele>334.4</ele>
        <time>2012-09-23T07:53:29Z</time>
      </trkpt>
      <trkpt lat="48.60835" lon="-0.48409">
        <ele>337.4</ele>
        <time>2012-09-23T07:53:34Z</time>
      </trkpt>
      <trkpt lat="48.6084" lon="-0.48397">
        <ele>338.8</ele>
        <time>2012-09-23T07:53:37Z</time>
      </trkpt>
      <trkpt lat="48.6085" lon="-0.48379">
        <ele>341.4</ele>
        <time>2012-09-23T07:53:41Z</time>
      </trkpt>
      <trkpt lat="48.60863" lon="-0.48352">
        <ele>343.6</ele>
        <time>2012-09-23T07:53:46Z</time>
      </trkpt>
      <trkpt lat="48.60868" lon="-0.48334">
        <ele>350.3</ele>
        <time>2012-09-23T07:53:50Z</time>
      </trkpt>
      <trkpt lat="48.60866" lon="-0.4832">
        <ele>344.2</ele>
        <time>2012-09-23T07:53:54Z</time>
      </trkpt>
      <trkpt lat="48.60862" lon="-0.48307">
        <ele>336.4</ele>
        <time>2012-09-23T07:53:57Z</time>
      </trkpt>
      <trkpt lat="48.60847" lon="-0.48271">
        <ele>328</ele>
        <time>2012-09-23T07:54:03Z</time>
      </trkpt>
      <trkpt lat="48.60805" lon="-0.48203">
        <ele>323.3</ele>
        <time>2012-09-23T07:54:10Z</time>
      </trkpt>
      <trkpt lat="48.60784" lon="-0.48182">
        <ele>323.9</ele>
        <time>2012-09-23T07:54:13Z</time>
      </trkpt>
      <trkpt lat="48.60775" lon="-0.48175">
        <ele>323.8</ele>
        <time>2012-09-23T07:54:15Z</time>
      </trkpt>
      <trkpt lat="48.60775" lon="-0.48164">
        <ele>323.9</ele>
        <time>2012-09-23T07:54:22Z</time>
      </trkpt>
      <trkpt lat="48.60773" lon="-0.48153">
        <ele>322.7</ele>
        <time>2012-09-23T07:54:26Z</time>
      </trkpt>
      <trkpt lat="48.60768" lon="-0.48145">
        <ele>322.2</ele>
        <time>2012-09-23T07:54:28Z</time>
      </trkpt>
      <trkpt lat="48.60754" lon="-0.48135">
        <ele>322.1</ele>
        <time>2012-09-23T07:54:33Z</time>
      </trkpt>
      <trkpt lat="48.60748" lon="-0.48118">
        <ele>324.6</ele>
        <time>2012-09-23T07:54:40Z</time>
      </trkpt>
      <trkpt lat="48.60739" lon="-0.48101">
        <ele>325</ele>
        <time>2012-09-23T07:54:45Z</time>
      </trkpt>
      <trkpt lat="48.6073" lon="-0.48093">
        <ele>326.9</ele>
        <time>2012-09-23T07:54:48Z</time>
      </trkpt>
      <trkpt lat="48.6073" lon="-0.48093">
        <ele>254</ele>
        <time>2012-09-23T07:54:59Z</time>
      </trkpt>
      <trkpt lat="48.6073" lon="-0.48093">
        <ele>254</ele>
        <time>2012-09-23T07:56:58Z</time>
      </trkpt>
      <trkpt lat="48.6073" lon="-0.48093">
        <ele>254</ele>
        <time>2012-09-23T07:57:09Z</time>
      </trkpt>
      <trkpt lat="48.6073" lon="-0.48093">
        <ele>254</ele>
        <time>2012-09-23T07:57:21Z</time>
      </trkpt>
      <trkpt lat="48.6072" lon="-0.48115">
        <ele>311.2</ele>
        <time>2012-09-23T07:57:24Z</time>
      </trkpt>
      <trkpt lat="48.6072" lon="-0.48115">
        <ele>254.1</ele>
        <time>2012-09-23T07:57:35Z</time>
      </trkpt>
      <trkpt lat="48.6072" lon="-0.48115">
        <ele>254.1</ele>
        <time>2012-09-23T07:57:43Z</time>
      </trkpt>
      <trkpt lat="48.6072" lon="-0.48115">
        <ele>254.1</ele>
        <time>2012-09-23T07:57:54Z</time>
      </trkpt>
      <trkpt lat="48.6072" lon="-0.48115">
        <ele>254.1</ele>
        <time>2012-09-23T07:57:55Z</time>
      </trkpt>
      <trkpt lat="48.60754" lon="-0.48159">
        <ele>308</ele>
        <time>2012-09-23T07:57:59Z</time>
      </trkpt>
      <trkpt lat="48.60754" lon="-0.48159">
        <ele>248.6</ele>
        <time>2012-09-23T07:58:10Z</time>
      </trkpt>
      <trkpt lat="48.60754" lon="-0.48159">
        <ele>248.6</ele>
        <time>2012-09-23T08:05:02Z</time>
      </trkpt>
      <trkpt lat="48.60764" lon="-0.48163">
        <ele>310.9</ele>
        <time>2012-09-23T08:05:08Z</time>
      </trkpt>
      <trkpt lat="48.60759" lon="-0.48155">
        <ele>313</ele>
        <time>2012-09-23T08:05:17Z</time>
      </trkpt>
      <trkpt lat="48.60758" lon="-0.48146">
        <ele>314.7</ele>
        <time>2012-09-23T08:05:27Z</time>
      </trkpt>
      <trkpt lat="48.6077" lon="-0.48159">
        <ele>313.2</ele>
        <time>2012-09-23T08:05:35Z</time>
      </trkpt>
      <trkpt lat="48.60784" lon="-0.48159">
        <ele>309.6</ele>
        <time>2012-09-23T08:05:44Z</time>
      </trkpt>
      <trkpt lat="48.60788" lon="-0.4815">
        <ele>313.3</ele>
        <time>2012-09-23T08:05:52Z</time>
      </trkpt>
      <trkpt lat="48.60782" lon="-0.48156">
        <ele>312.3</ele>
        <time>2012-09-23T08:06:01Z</time>
      </trkpt>
      <trkpt lat="48.60782" lon="-0.48156">
        <ele>249.5</ele>
        <time>2012-09-23T08:06:12Z</time>
      </trkpt>
      <trkpt lat="48.60782" lon="-0.48156">
        <ele>249.5</ele>
        <time>2012-09-23T08:06:25Z</time>
      </trkpt>
      <trkpt lat="48.60782" lon="-0.48156">
        <ele>249.5</ele>
        <time>2012-09-23T08:06:36Z</time>
      </trkpt>
      <trkpt lat="48.60782" lon="-0.48156">
        <ele>249.5</ele>
        <time>2012-09-23T08:08:59Z</time>
      </trkpt>
      <trkpt lat="48.60772" lon="-0.48134">
        <ele>315.2</ele>
        <time>2012-09-23T08:09:01Z</time>
      </trkpt>
      <trkpt lat="48.60765" lon="-0.48128">
        <ele>315.9</ele>
        <time>2012-09-23T08:09:05Z</time>
      </trkpt>
      <trkpt lat="48.60762" lon="-0.4812">
        <ele>318.3</ele>
        <time>2012-09-23T08:09:09Z</time>
      </trkpt>
      <trkpt lat="48.60749" lon="-0.48107">
        <ele>319.4</ele>
        <time>2012-09-23T08:09:14Z</time>
      </trkpt>
      <trkpt lat="48.60746" lon="-0.48095">
        <ele>321.4</ele>
        <time>2012-09-23T08:09:18Z</time>
      </trkpt>
      <trkpt lat="48.6073" lon="-0.48096">
        <ele>321.7</ele>
        <time>2012-09-23T08:09:22Z</time>
      </trkpt>
      <trkpt lat="48.60719" lon="-0.48099">
        <ele>321.9</ele>
        <time>2012-09-23T08:09:24Z</time>
      </trkpt>
      <trkpt lat="48.60729" lon="-0.48084">
        <ele>324.8</ele>
        <time>2012-09-23T08:09:30Z</time>
      </trkpt>
      <trkpt lat="48.60736" lon="-0.48076">
        <ele>326.8</ele>
        <time>2012-09-23T08:09:34Z</time>
      </trkpt>
      <trkpt lat="48.60749" lon="-0.48053">
        <ele>330</ele>
        <time>2012-09-23T08:09:39Z</time>
      </trkpt>
      <trkpt lat="48.60765" lon="-0.48034">
        <ele>332.8</ele>
        <time>2012-09-23T08:09:48Z</time>
      </trkpt>
      <trkpt lat="48.60773" lon="-0.48029">
        <ele>334</ele>
        <time>2012-09-23T08:09:52Z</time>
      </trkpt>
      <trkpt lat="48.60778" lon="-0.48021">
        <ele>334.1</ele>
        <time>2012-09-23T08:09:55Z</time>
      </trkpt>
      <trkpt lat="48.60779" lon="-0.4801">
        <ele>336.4</ele>
        <time>2012-09-23T08:10:00Z</time>
      </trkpt>
      <trkpt lat="48.60791" lon="-0.47995">
        <ele>338</ele>
        <time>2012-09-23T08:10:04Z</time>
      </trkpt>
      <trkpt lat="48.60796" lon="-0.47987">
        <ele>339.5</ele>
        <time>2012-09-23T08:10:07Z</time>
      </trkpt>
      <trkpt lat="48.60801" lon="-0.47981">
        <ele>341.2</ele>
        <time>2012-09-23T08:10:11Z</time>
      </trkpt>
      <trkpt lat="48.60804" lon="-0.47969">
        <ele>343.9</ele>
        <time>2012-09-23T08:10:15Z</time>
      </trkpt>
      <trkpt lat="48.60808" lon="-0.4796">
        <ele>344.1</ele>
        <time>2012-09-23T08:10:19Z</time>
      </trkpt>
      <trkpt lat="48.60811" lon="-0.47949">
        <ele>345.2</ele>
        <time>2012-09-23T08:10:24Z</time>
      </trkpt>
      <trkpt lat="48.60817" lon="-0.47943">
        <ele>344.5</ele>
        <time>2012-09-23T08:10:28Z</time>
      </trkpt>
      <trkpt lat="48.60826" lon="-0.47922">
        <ele>345.6</ele>
        <time>2012-09-23T08:10:37Z</time>
      </trkpt>
      <trkpt lat="48.60841" lon="-0.479">
        <ele>347.5</ele>
        <time>2012-09-23T08:10:42Z</time>
      </trkpt>
      <trkpt lat="48.60848" lon="-0.47891">
        <ele>347.9</ele>
        <time>2012-09-23T08:10:44Z</time>
      </trkpt>
      <trkpt lat="48.60851" lon="-0.47881">
        <ele>347.6</ele>
        <time>2012-09-23T08:10:49Z</time>
      </trkpt>
      <trkpt lat="48.60861" lon="-0.47859">
        <ele>347</ele>
        <time>2012-09-23T08:10:54Z</time>
      </trkpt>
      <trkpt lat="48.60866" lon="-0.47852">
        <ele>348.3</ele>
        <time>2012-09-23T08:10:57Z</time>
      </trkpt>
      <trkpt lat="48.60872" lon="-0.47844">
        <ele>349.7</ele>
        <time>2012-09-23T08:11:01Z</time>
      </trkpt>
      <trkpt lat="48.60877" lon="-0.47837">
        <ele>351.3</ele>
        <time>2012-09-23T08:11:07Z</time>
      </trkpt>
      <trkpt lat="48.60887" lon="-0.47823">
        <ele>354</ele>
        <time>2012-09-23T08:11:15Z</time>
      </trkpt>
      <trkpt lat="48.60895" lon="-0.47806">
        <ele>355.8</ele>
        <time>2012-09-23T08:11:22Z</time>
      </trkpt>
      <trkpt lat="48.60905" lon="-0.47788">
        <ele>358.2</ele>
        <time>2012-09-23T08:11:28Z</time>
      </trkpt>
      <trkpt lat="48.60916" lon="-0.4777">
        <ele>361.2</ele>
        <time>2012-09-23T08:11:34Z</time>
      </trkpt>
      <trkpt lat="48.60922" lon="-0.47761">
        <ele>363.2</ele>
        <time>2012-09-23T08:11:37Z</time>
      </trkpt>
      <trkpt lat="48.60922" lon="-0.4775">
        <ele>363.8</ele>
        <time>2012-09-23T08:11:42Z</time>
      </trkpt>
      <trkpt lat="48.60921" lon="-0.4774">
        <ele>365.9</ele>
        <time>2012-09-23T08:11:47Z</time>
      </trkpt>
      <trkpt lat="48.6093" lon="-0.47724">
        <ele>363.3</ele>
        <time>2012-09-23T08:11:54Z</time>
      </trkpt>
      <trkpt lat="48.60935" lon="-0.47719">
        <ele>357.4</ele>
        <time>2012-09-23T08:11:57Z</time>
      </trkpt>
      <trkpt lat="48.60943" lon="-0.47722">
        <ele>355.6</ele>
        <time>2012-09-23T08:12:01Z</time>
      </trkpt>
      <trkpt lat="48.60956" lon="-0.4773">
        <ele>354.8</ele>
        <time>2012-09-23T08:12:06Z</time>
      </trkpt>
      <trkpt lat="48.60963" lon="-0.47733">
        <ele>353.5</ele>
        <time>2012-09-23T08:12:09Z</time>
      </trkpt>
      <trkpt lat="48.60973" lon="-0.47736">
        <ele>355.7</ele>
        <time>2012-09-23T08:12:12Z</time>
      </trkpt>
      <trkpt lat="48.6099" lon="-0.47732">
        <ele>355.5</ele>
        <time>2012-09-23T08:12:18Z</time>
      </trkpt>
      <trkpt lat="48.61012" lon="-0.47726">
        <ele>353.6</ele>
        <time>2012-09-23T08:12:26Z</time>
      </trkpt>
      <trkpt lat="48.61019" lon="-0.47721">
        <ele>353</ele>
        <time>2012-09-23T08:12:29Z</time>
      </trkpt>
      <trkpt lat="48.61027" lon="-0.47719">
        <ele>353.7</ele>
        <time>2012-09-23T08:12:32Z</time>
      </trkpt>
      <trkpt lat="48.61035" lon="-0.47718">
        <ele>354.1</ele>
        <time>2012-09-23T08:12:35Z</time>
      </trkpt>
      <trkpt lat="48.61042" lon="-0.47716">
        <ele>352.6</ele>
        <time>2012-09-23T08:12:40Z</time>
      </trkpt>
      <trkpt lat="48.61049" lon="-0.47714">
        <ele>353.3</ele>
        <time>2012-09-23T08:12:43Z</time>
      </trkpt>
      <trkpt lat="48.61063" lon="-0.47716">
        <ele>352.3</ele>
        <time>2012-09-23T08:12:50Z</time>
      </trkpt>
      <trkpt lat="48.61076" lon="-0.47717">
        <ele>353.9</ele>
        <time>2012-09-23T08:12:56Z</time>
      </trkpt>
      <trkpt lat="48.61089" lon="-0.4771">
        <ele>353.8</ele>
        <time>2012-09-23T08:13:02Z</time>
      </trkpt>
      <trkpt lat="48.61096" lon="-0.47711">
        <ele>354.1</ele>
        <time>2012-09-23T08:13:05Z</time>
      </trkpt>
      <trkpt lat="48.61101" lon="-0.47706">
        <ele>355.9</ele>
        <time>2012-09-23T08:13:09Z</time>
      </trkpt>
      <trkpt lat="48.61109" lon="-0.47702">
        <ele>357.7</ele>
        <time>2012-09-23T08:13:15Z</time>
      </trkpt>
      <trkpt lat="48.61116" lon="-0.47702">
        <ele>354</ele>
        <time>2012-09-23T08:13:20Z</time>
      </trkpt>
      <trkpt lat="48.61122" lon="-0.47707">
        <ele>351</ele>
        <time>2012-09-23T08:13:24Z</time>
      </trkpt>
      <trkpt lat="48.61135" lon="-0.47718">
        <ele>345.5</ele>
        <time>2012-09-23T08:13:30Z</time>
      </trkpt>
      <trkpt lat="48.61143" lon="-0.47725">
        <ele>343.5</ele>
        <time>2012-09-23T08:13:33Z</time>
      </trkpt>
      <trkpt lat="48.6115" lon="-0.4773">
        <ele>343.3</ele>
        <time>2012-09-23T08:13:36Z</time>
      </trkpt>
      <trkpt lat="48.61156" lon="-0.47735">
        <ele>343.3</ele>
        <time>2012-09-23T08:13:40Z</time>
      </trkpt>
      <trkpt lat="48.61163" lon="-0.47741">
        <ele>342.9</ele>
        <time>2012-09-23T08:13:44Z</time>
      </trkpt>
      <trkpt lat="48.61177" lon="-0.47747">
        <ele>340.5</ele>
        <time>2012-09-23T08:13:50Z</time>
      </trkpt>
      <trkpt lat="48.61177" lon="-0.47747">
        <ele>292.3</ele>
        <time>2012-09-23T08:14:01Z</time>
      </trkpt>
      <trkpt lat="48.61177" lon="-0.47747">
        <ele>292.3</ele>
        <time>2012-09-23T08:14:03Z</time>
      </trkpt>
      <trkpt lat="48.6117" lon="-0.47766">
        <ele>347.3</ele>
        <time>2012-09-23T08:14:06Z</time>
      </trkpt>
      <trkpt lat="48.61156" lon="-0.47782">
        <ele>347.9</ele>
        <time>2012-09-23T08:14:12Z</time>
      </trkpt>
      <trkpt lat="48.61143" lon="-0.47797">
        <ele>349.4</ele>
        <time>2012-09-23T08:14:16Z</time>
      </trkpt>
      <trkpt lat="48.61127" lon="-0.47812">
        <ele>350.3</ele>
        <time>2012-09-23T08:14:20Z</time>
      </trkpt>
      <trkpt lat="48.61121" lon="-0.4782">
        <ele>351.7</ele>
        <time>2012-09-23T08:14:22Z</time>
      </trkpt>
      <trkpt lat="48.61109" lon="-0.47838">
        <ele>352.5</ele>
        <time>2012-09-23T08:14:28Z</time>
      </trkpt>
      <trkpt lat="48.61095" lon="-0.47869">
        <ele>350.8</ele>
        <time>2012-09-23T08:14:36Z</time>
      </trkpt>
      <trkpt lat="48.61084" lon="-0.47887">
        <ele>349.5</ele>
        <time>2012-09-23T08:14:40Z</time>
      </trkpt>
      <trkpt lat="48.61074" lon="-0.47899">
        <ele>347.9</ele>
        <time>2012-09-23T08:14:43Z</time>
      </trkpt>
      <trkpt lat="48.61065" lon="-0.47919">
        <ele>347.6</ele>
        <time>2012-09-23T08:14:47Z</time>
      </trkpt>
      <trkpt lat="48.61058" lon="-0.47931">
        <ele>346.9</ele>
        <time>2012-09-23T08:14:49Z</time>
      </trkpt>
      <trkpt lat="48.61029" lon="-0.47973">
        <ele>344.7</ele>
        <time>2012-09-23T08:14:55Z</time>
      </trkpt>
      <trkpt lat="48.61017" lon="-0.47992">
        <ele>344.2</ele>
        <time>2012-09-23T08:14:59Z</time>
      </trkpt>
      <trkpt lat="48.61013" lon="-0.48012">
        <ele>345.2</ele>
        <time>2012-09-23T08:15:04Z</time>
      </trkpt>
      <trkpt lat="48.61003" lon="-0.48029">
        <ele>343.3</ele>
        <time>2012-09-23T08:15:12Z</time>
      </trkpt>
      <trkpt lat="48.60994" lon="-0.48044">
        <ele>341.4</ele>
        <time>2012-09-23T08:15:16Z</time>
      </trkpt>
      <trkpt lat="48.60981" lon="-0.48059">
        <ele>340.6</ele>
        <time>2012-09-23T08:15:20Z</time>
      </trkpt>
      <trkpt lat="48.60969" lon="-0.48075">
        <ele>339.8</ele>
        <time>2012-09-23T08:15:25Z</time>
      </trkpt>
      <trkpt lat="48.60971" lon="-0.481">
        <ele>337.4</ele>
        <time>2012-09-23T08:15:30Z</time>
      </trkpt>
      <trkpt lat="48.60997" lon="-0.48124">
        <ele>334.6</ele>
        <time>2012-09-23T08:15:39Z</time>
      </trkpt>
      <trkpt lat="48.61005" lon="-0.48127">
        <ele>333.8</ele>
        <time>2012-09-23T08:15:43Z</time>
      </trkpt>
      <trkpt lat="48.61019" lon="-0.48128">
        <ele>332.7</ele>
        <time>2012-09-23T08:15:48Z</time>
      </trkpt>
      <trkpt lat="48.61028" lon="-0.48126">
        <ele>332.1</ele>
        <time>2012-09-23T08:15:51Z</time>
      </trkpt>
      <trkpt lat="48.61036" lon="-0.48126">
        <ele>332.4</ele>
        <time>2012-09-23T08:15:53Z</time>
      </trkpt>
      <trkpt lat="48.61051" lon="-0.48126">
        <ele>332.7</ele>
        <time>2012-09-23T08:16:00Z</time>
      </trkpt>
      <trkpt lat="48.61059" lon="-0.48129">
        <ele>332.8</ele>
        <time>2012-09-23T08:16:03Z</time>
      </trkpt>
      <trkpt lat="48.61066" lon="-0.48129">
        <ele>334.1</ele>
        <time>2012-09-23T08:16:06Z</time>
      </trkpt>
      <trkpt lat="48.61072" lon="-0.48126">
        <ele>335.3</ele>
        <time>2012-09-23T08:16:09Z</time>
      </trkpt>
      <trkpt lat="48.61089" lon="-0.48123">
        <ele>334.4</ele>
        <time>2012-09-23T08:16:16Z</time>
      </trkpt>
      <trkpt lat="48.61096" lon="-0.48125">
        <ele>333.9</ele>
        <time>2012-09-23T08:16:20Z</time>
      </trkpt>
      <trkpt lat="48.61104" lon="-0.48127">
        <ele>334.6</ele>
        <time>2012-09-23T08:16:24Z</time>
      </trkpt>
      <trkpt lat="48.61113" lon="-0.48126">
        <ele>333.8</ele>
        <time>2012-09-23T08:16:27Z</time>
      </trkpt>
      <trkpt lat="48.6113" lon="-0.48126">
        <ele>331.1</ele>
        <time>2012-09-23T08:16:32Z</time>
      </trkpt>
      <trkpt lat="48.61146" lon="-0.4813">
        <ele>328.6</ele>
        <time>2012-09-23T08:16:38Z</time>
      </trkpt>
      <trkpt lat="48.61152" lon="-0.48125">
        <ele>332.2</ele>
        <time>2012-09-23T08:16:43Z</time>
      </trkpt>
      <trkpt lat="48.61166" lon="-0.48125">
        <ele>331.7</ele>
        <time>2012-09-23T08:16:48Z</time>
      </trkpt>
      <trkpt lat="48.61174" lon="-0.48124">
        <ele>331.6</ele>
        <time>2012-09-23T08:16:51Z</time>
      </trkpt>
      <trkpt lat="48.61189" lon="-0.48121">
        <ele>330.6</ele>
        <time>2012-09-23T08:16:56Z</time>
      </trkpt>
      <trkpt lat="48.61205" lon="-0.48118">
        <ele>332</ele>
        <time>2012-09-23T08:17:03Z</time>
      </trkpt>
      <trkpt lat="48.61218" lon="-0.4812">
        <ele>334.4</ele>
        <time>2012-09-23T08:17:08Z</time>
      </trkpt>
      <trkpt lat="48.61225" lon="-0.48116">
        <ele>334.6</ele>
        <time>2012-09-23T08:17:10Z</time>
      </trkpt>
      <trkpt lat="48.61242" lon="-0.48121">
        <ele>332</ele>
        <time>2012-09-23T08:17:16Z</time>
      </trkpt>
      <trkpt lat="48.61249" lon="-0.48119">
        <ele>331.1</ele>
        <time>2012-09-23T08:17:19Z</time>
      </trkpt>
      <trkpt lat="48.61256" lon="-0.48119">
        <ele>330.6</ele>
        <time>2012-09-23T08:17:23Z</time>
      </trkpt>
      <trkpt lat="48.61263" lon="-0.48114">
        <ele>331</ele>
        <time>2012-09-23T08:17:27Z</time>
      </trkpt>
      <trkpt lat="48.61277" lon="-0.48116">
        <ele>331.8</ele>
        <time>2012-09-23T08:17:31Z</time>
      </trkpt>
      <trkpt lat="48.61285" lon="-0.4812">
        <ele>330.5</ele>
        <time>2012-09-23T08:17:34Z</time>
      </trkpt>
      <trkpt lat="48.61307" lon="-0.48122">
        <ele>332.1</ele>
        <time>2012-09-23T08:17:44Z</time>
      </trkpt>
      <trkpt lat="48.61314" lon="-0.48119">
        <ele>332.4</ele>
        <time>2012-09-23T08:17:47Z</time>
      </trkpt>
      <trkpt lat="48.61321" lon="-0.48121">
        <ele>333.7</ele>
        <time>2012-09-23T08:17:51Z</time>
      </trkpt>
      <trkpt lat="48.61336" lon="-0.48123">
        <ele>332.6</ele>
        <time>2012-09-23T08:17:59Z</time>
      </trkpt>
      <trkpt lat="48.61352" lon="-0.48116">
        <ele>336.1</ele>
        <time>2012-09-23T08:18:08Z</time>
      </trkpt>
      <trkpt lat="48.61364" lon="-0.48113">
        <ele>334.5</ele>
        <time>2012-09-23T08:18:11Z</time>
      </trkpt>
      <trkpt lat="48.6137" lon="-0.48114">
        <ele>332.3</ele>
        <time>2012-09-23T08:18:14Z</time>
      </trkpt>
      <trkpt lat="48.61378" lon="-0.48113">
        <ele>335.1</ele>
        <time>2012-09-23T08:18:18Z</time>
      </trkpt>
      <trkpt lat="48.61386" lon="-0.48111">
        <ele>337.8</ele>
        <time>2012-09-23T08:18:22Z</time>
      </trkpt>
      <trkpt lat="48.61394" lon="-0.48109">
        <ele>339</ele>
        <time>2012-09-23T08:18:26Z</time>
      </trkpt>
      <trkpt lat="48.61404" lon="-0.48113">
        <ele>341.1</ele>
        <time>2012-09-23T08:18:29Z</time>
      </trkpt>
      <trkpt lat="48.61422" lon="-0.4811">
        <ele>339.5</ele>
        <time>2012-09-23T08:18:36Z</time>
      </trkpt>
      <trkpt lat="48.61431" lon="-0.4811">
        <ele>338.4</ele>
        <time>2012-09-23T08:18:40Z</time>
      </trkpt>
      <trkpt lat="48.61438" lon="-0.48111">
        <ele>340</ele>
        <time>2012-09-23T08:18:43Z</time>
      </trkpt>
      <trkpt lat="48.61445" lon="-0.48108">
        <ele>341.1</ele>
        <time>2012-09-23T08:18:47Z</time>
      </trkpt>
      <trkpt lat="48.61454" lon="-0.48108">
        <ele>340.6</ele>
        <time>2012-09-23T08:18:50Z</time>
      </trkpt>
      <trkpt lat="48.61461" lon="-0.48109">
        <ele>339.9</ele>
        <time>2012-09-23T08:18:53Z</time>
      </trkpt>
      <trkpt lat="48.61469" lon="-0.48109">
        <ele>341.8</ele>
        <time>2012-09-23T08:18:57Z</time>
      </trkpt>
      <trkpt lat="48.61475" lon="-0.48107">
        <ele>343.3</ele>
        <time>2012-09-23T08:19:01Z</time>
      </trkpt>
      <trkpt lat="48.61489" lon="-0.48106">
        <ele>345.6</ele>
        <time>2012-09-23T08:19:08Z</time>
      </trkpt>
      <trkpt lat="48.61496" lon="-0.48104">
        <ele>345.8</ele>
        <time>2012-09-23T08:19:11Z</time>
      </trkpt>
      <trkpt lat="48.61503" lon="-0.48105">
        <ele>347.3</ele>
        <time>2012-09-23T08:19:15Z</time>
      </trkpt>
      <trkpt lat="48.6151" lon="-0.48106">
        <ele>349.2</ele>
        <time>2012-09-23T08:19:20Z</time>
      </trkpt>
      <trkpt lat="48.61517" lon="-0.48108">
        <ele>349.4</ele>
        <time>2012-09-23T08:19:25Z</time>
      </trkpt>
      <trkpt lat="48.61525" lon="-0.48108">
        <ele>351.5</ele>
        <time>2012-09-23T08:19:29Z</time>
      </trkpt>
      <trkpt lat="48.61532" lon="-0.48108">
        <ele>352.2</ele>
        <time>2012-09-23T08:19:34Z</time>
      </trkpt>
      <trkpt lat="48.61538" lon="-0.48109">
        <ele>353.8</ele>
        <time>2012-09-23T08:19:37Z</time>
      </trkpt>
      <trkpt lat="48.61545" lon="-0.48105">
        <ele>355.6</ele>
        <time>2012-09-23T08:19:41Z</time>
      </trkpt>
      <trkpt lat="48.6155" lon="-0.48099">
        <ele>357.5</ele>
        <time>2012-09-23T08:19:47Z</time>
      </trkpt>
      <trkpt lat="48.61555" lon="-0.48093">
        <ele>355.1</ele>
        <time>2012-09-23T08:19:54Z</time>
      </trkpt>
      <trkpt lat="48.61562" lon="-0.48091">
        <ele>355.7</ele>
        <time>2012-09-23T08:20:01Z</time>
      </trkpt>
      <trkpt lat="48.61562" lon="-0.48091">
        <ele>302.7</ele>
        <time>2012-09-23T08:20:12Z</time>
      </trkpt>
      <trkpt lat="48.61562" lon="-0.48091">
        <ele>302.7</ele>
        <time>2012-09-23T08:20:26Z</time>
      </trkpt>
      <trkpt lat="48.61562" lon="-0.48091">
        <ele>302.7</ele>
        <time>2012-09-23T08:20:37Z</time>
      </trkpt>
      <trkpt lat="48.61562" lon="-0.48091">
        <ele>302.7</ele>
        <time>2012-09-23T08:22:01Z</time>
      </trkpt>
      <trkpt lat="48.61562" lon="-0.48091">
        <ele>302.7</ele>
        <time>2012-09-23T08:22:12Z</time>
      </trkpt>
      <trkpt lat="48.61562" lon="-0.48091">
        <ele>302.7</ele>
        <time>2012-09-23T08:22:39Z</time>
      </trkpt>
      <trkpt lat="48.61562" lon="-0.48091">
        <ele>302.7</ele>
        <time>2012-09-23T08:22:50Z</time>
      </trkpt>
      <trkpt lat="48.61562" lon="-0.48091">
        <ele>302.7</ele>
        <time>2012-09-23T08:26:06Z</time>
      </trkpt>
      <trkpt lat="48.61557" lon="-0.48088">
        <ele>355.6</ele>
        <time>2012-09-23T08:26:11Z</time>
      </trkpt>
      <trkpt lat="48.61557" lon="-0.48088">
        <ele>302.8</ele>
        <time>2012-09-23T08:26:22Z</time>
      </trkpt>
      <trkpt lat="48.61557" lon="-0.48088">
        <ele>302.8</ele>
        <time>2012-09-23T08:26:46Z</time>
      </trkpt>
      <trkpt lat="48.61561" lon="-0.48111">
        <ele>354.5</ele>
        <time>2012-09-23T08:26:49Z</time>
      </trkpt>
      <trkpt lat="48.61574" lon="-0.48132">
        <ele>355.4</ele>
        <time>2012-09-23T08:26:53Z</time>
      </trkpt>
      <trkpt lat="48.61602" lon="-0.4817">
        <ele>354.4</ele>
        <time>2012-09-23T08:27:00Z</time>
      </trkpt>
      <trkpt lat="48.61616" lon="-0.48191">
        <ele>354</ele>
        <time>2012-09-23T08:27:04Z</time>
      </trkpt>
      <trkpt lat="48.61636" lon="-0.48222">
        <ele>353.2</ele>
        <time>2012-09-23T08:27:09Z</time>
      </trkpt>
      <trkpt lat="48.61655" lon="-0.48248">
        <ele>349.6</ele>
        <time>2012-09-23T08:27:13Z</time>
      </trkpt>
      <trkpt lat="48.61675" lon="-0.48274">
        <ele>348.7</ele>
        <time>2012-09-23T08:27:17Z</time>
      </trkpt>
      <trkpt lat="48.61691" lon="-0.48294">
        <ele>348.7</ele>
        <time>2012-09-23T08:27:20Z</time>
      </trkpt>
      <trkpt lat="48.6171" lon="-0.48321">
        <ele>346.3</ele>
        <time>2012-09-23T08:27:24Z</time>
      </trkpt>
      <trkpt lat="48.61728" lon="-0.48349">
        <ele>344.4</ele>
        <time>2012-09-23T08:27:28Z</time>
      </trkpt>
      <trkpt lat="48.61747" lon="-0.48376">
        <ele>341.2</ele>
        <time>2012-09-23T08:27:32Z</time>
      </trkpt>
      <trkpt lat="48.61771" lon="-0.48409">
        <ele>341.3</ele>
        <time>2012-09-23T08:27:37Z</time>
      </trkpt>
      <trkpt lat="48.6179" lon="-0.48436">
        <ele>341.7</ele>
        <time>2012-09-23T08:27:41Z</time>
      </trkpt>
      <trkpt lat="48.61808" lon="-0.48465">
        <ele>342.3</ele>
        <time>2012-09-23T08:27:45Z</time>
      </trkpt>
      <trkpt lat="48.61822" lon="-0.48489">
        <ele>342.7</ele>
        <time>2012-09-23T08:27:48Z</time>
      </trkpt>
      <trkpt lat="48.61831" lon="-0.48502">
        <ele>342.7</ele>
        <time>2012-09-23T08:27:50Z</time>
      </trkpt>
      <trkpt lat="48.6185" lon="-0.48529">
        <ele>343.8</ele>
        <time>2012-09-23T08:27:54Z</time>
      </trkpt>
      <trkpt lat="48.6188" lon="-0.48568">
        <ele>344.9</ele>
        <time>2012-09-23T08:28:00Z</time>
      </trkpt>
      <trkpt lat="48.61904" lon="-0.48599">
        <ele>345.2</ele>
        <time>2012-09-23T08:28:05Z</time>
      </trkpt>
      <trkpt lat="48.61917" lon="-0.48617">
        <ele>344.6</ele>
        <time>2012-09-23T08:28:09Z</time>
      </trkpt>
      <trkpt lat="48.61907" lon="-0.48636">
        <ele>344.5</ele>
        <time>2012-09-23T08:28:13Z</time>
      </trkpt>
      <trkpt lat="48.61892" lon="-0.48661">
        <ele>342.9</ele>
        <time>2012-09-23T08:28:17Z</time>
      </trkpt>
      <trkpt lat="48.61872" lon="-0.48685">
        <ele>341.9</ele>
        <time>2012-09-23T08:28:21Z</time>
      </trkpt>
      <trkpt lat="48.61849" lon="-0.48717">
        <ele>342.5</ele>
        <time>2012-09-23T08:28:25Z</time>
      </trkpt>
      <trkpt lat="48.61827" lon="-0.48754">
        <ele>343.5</ele>
        <time>2012-09-23T08:28:29Z</time>
      </trkpt>
      <trkpt lat="48.61801" lon="-0.4879">
        <ele>343.6</ele>
        <time>2012-09-23T08:28:33Z</time>
      </trkpt>
      <trkpt lat="48.61776" lon="-0.48825">
        <ele>342.5</ele>
        <time>2012-09-23T08:28:37Z</time>
      </trkpt>
      <trkpt lat="48.61751" lon="-0.48863">
        <ele>339.9</ele>
        <time>2012-09-23T08:28:41Z</time>
      </trkpt>
      <trkpt lat="48.61724" lon="-0.48901">
        <ele>337.5</ele>
        <time>2012-09-23T08:28:45Z</time>
      </trkpt>
      <trkpt lat="48.61705" lon="-0.48949">
        <ele>336.4</ele>
        <time>2012-09-23T08:28:49Z</time>
      </trkpt>
      <trkpt lat="48.61683" lon="-0.4899">
        <ele>333.8</ele>
        <time>2012-09-23T08:28:53Z</time>
      </trkpt>
      <trkpt lat="48.61671" lon="-0.49022">
        <ele>332.3</ele>
        <time>2012-09-23T08:28:56Z</time>
      </trkpt>
      <trkpt lat="48.61653" lon="-0.49052">
        <ele>331.2</ele>
        <time>2012-09-23T08:29:00Z</time>
      </trkpt>
      <trkpt lat="48.61634" lon="-0.49093">
        <ele>329.8</ele>
        <time>2012-09-23T08:29:05Z</time>
      </trkpt>
      <trkpt lat="48.6162" lon="-0.49115">
        <ele>328.1</ele>
        <time>2012-09-23T08:29:08Z</time>
      </trkpt>
      <trkpt lat="48.61602" lon="-0.49141">
        <ele>327.8</ele>
        <time>2012-09-23T08:29:12Z</time>
      </trkpt>
      <trkpt lat="48.61583" lon="-0.4917">
        <ele>326.7</ele>
        <time>2012-09-23T08:29:17Z</time>
      </trkpt>
      <trkpt lat="48.6158" lon="-0.4918">
        <ele>326.4</ele>
        <time>2012-09-23T08:29:19Z</time>
      </trkpt>
      <trkpt lat="48.61575" lon="-0.49203">
        <ele>325.7</ele>
        <time>2012-09-23T08:29:24Z</time>
      </trkpt>
      <trkpt lat="48.61585" lon="-0.49224">
        <ele>326.3</ele>
        <time>2012-09-23T08:29:29Z</time>
      </trkpt>
      <trkpt lat="48.61596" lon="-0.4924">
        <ele>325.5</ele>
        <time>2012-09-23T08:29:33Z</time>
      </trkpt>
      <trkpt lat="48.61601" lon="-0.4925">
        <ele>326.2</ele>
        <time>2012-09-23T08:29:35Z</time>
      </trkpt>
      <trkpt lat="48.61623" lon="-0.49273">
        <ele>326.4</ele>
        <time>2012-09-23T08:29:41Z</time>
      </trkpt>
      <trkpt lat="48.61636" lon="-0.49287">
        <ele>325.6</ele>
        <time>2012-09-23T08:29:45Z</time>
      </trkpt>
      <trkpt lat="48.61649" lon="-0.49299">
        <ele>325.2</ele>
        <time>2012-09-23T08:29:49Z</time>
      </trkpt>
      <trkpt lat="48.6166" lon="-0.49313">
        <ele>324.1</ele>
        <time>2012-09-23T08:29:53Z</time>
      </trkpt>
      <trkpt lat="48.6167" lon="-0.49328">
        <ele>323.5</ele>
        <time>2012-09-23T08:29:57Z</time>
      </trkpt>
      <trkpt lat="48.61681" lon="-0.49345">
        <ele>323.3</ele>
        <time>2012-09-23T08:30:01Z</time>
      </trkpt>
      <trkpt lat="48.61688" lon="-0.49352">
        <ele>323.1</ele>
        <time>2012-09-23T08:30:03Z</time>
      </trkpt>
      <trkpt lat="48.617" lon="-0.49371">
        <ele>324.8</ele>
        <time>2012-09-23T08:30:08Z</time>
      </trkpt>
      <trkpt lat="48.61712" lon="-0.49389">
        <ele>325.4</ele>
        <time>2012-09-23T08:30:13Z</time>
      </trkpt>
      <trkpt lat="48.61731" lon="-0.49412">
        <ele>328.5</ele>
        <time>2012-09-23T08:30:20Z</time>
      </trkpt>
      <trkpt lat="48.61742" lon="-0.49425">
        <ele>328.4</ele>
        <time>2012-09-23T08:30:24Z</time>
      </trkpt>
      <trkpt lat="48.61763" lon="-0.49457">
        <ele>326.4</ele>
        <time>2012-09-23T08:30:32Z</time>
      </trkpt>
      <trkpt lat="48.61775" lon="-0.4947">
        <ele>326.2</ele>
        <time>2012-09-23T08:30:36Z</time>
      </trkpt>
      <trkpt lat="48.61787" lon="-0.49484">
        <ele>324.5</ele>
        <time>2012-09-23T08:30:40Z</time>
      </trkpt>
      <trkpt lat="48.61798" lon="-0.49503">
        <ele>324.1</ele>
        <time>2012-09-23T08:30:44Z</time>
      </trkpt>
      <trkpt lat="48.61811" lon="-0.49519">
        <ele>324</ele>
        <time>2012-09-23T08:30:49Z</time>
      </trkpt>
      <trkpt lat="48.61818" lon="-0.49518">
        <ele>322.2</ele>
        <time>2012-09-23T08:30:51Z</time>
      </trkpt>
      <trkpt lat="48.61835" lon="-0.49486">
        <ele>322.2</ele>
        <time>2012-09-23T08:30:56Z</time>
      </trkpt>
      <trkpt lat="48.61847" lon="-0.49468">
        <ele>322.9</ele>
        <time>2012-09-23T08:31:01Z</time>
      </trkpt>
      <trkpt lat="48.6186" lon="-0.49453">
        <ele>325.6</ele>
        <time>2012-09-23T08:31:05Z</time>
      </trkpt>
      <trkpt lat="48.61866" lon="-0.49443">
        <ele>326.8</ele>
        <time>2012-09-23T08:31:07Z</time>
      </trkpt>
      <trkpt lat="48.61884" lon="-0.49406">
        <ele>329.7</ele>
        <time>2012-09-23T08:31:13Z</time>
      </trkpt>
      <trkpt lat="48.61898" lon="-0.49386">
        <ele>331.3</ele>
        <time>2012-09-23T08:31:17Z</time>
      </trkpt>
      <trkpt lat="48.61907" lon="-0.49362">
        <ele>331.9</ele>
        <time>2012-09-23T08:31:20Z</time>
      </trkpt>
      <trkpt lat="48.61909" lon="-0.49348">
        <ele>331.7</ele>
        <time>2012-09-23T08:31:22Z</time>
      </trkpt>
      <trkpt lat="48.6194" lon="-0.4929">
        <ele>330.9</ele>
        <time>2012-09-23T08:31:32Z</time>
      </trkpt>
      <trkpt lat="48.61942" lon="-0.49277">
        <ele>332</ele>
        <time>2012-09-23T08:31:34Z</time>
      </trkpt>
      <trkpt lat="48.61958" lon="-0.49255">
        <ele>331.7</ele>
        <time>2012-09-23T08:31:40Z</time>
      </trkpt>
      <trkpt lat="48.61971" lon="-0.49235">
        <ele>332.3</ele>
        <time>2012-09-23T08:31:44Z</time>
      </trkpt>
      <trkpt lat="48.61982" lon="-0.49216">
        <ele>335.8</ele>
        <time>2012-09-23T08:31:48Z</time>
      </trkpt>
      <trkpt lat="48.61994" lon="-0.49196">
        <ele>335.8</ele>
        <time>2012-09-23T08:31:53Z</time>
      </trkpt>
      <trkpt lat="48.62005" lon="-0.49175">
        <ele>336</ele>
        <time>2012-09-23T08:31:57Z</time>
      </trkpt>
      <trkpt lat="48.62011" lon="-0.4917">
        <ele>337.3</ele>
        <time>2012-09-23T08:32:00Z</time>
      </trkpt>
      <trkpt lat="48.62018" lon="-0.49163">
        <ele>336.1</ele>
        <time>2012-09-23T08:32:05Z</time>
      </trkpt>
      <trkpt lat="48.62029" lon="-0.49168">
        <ele>335</ele>
        <time>2012-09-23T08:32:08Z</time>
      </trkpt>
      <trkpt lat="48.62037" lon="-0.4917">
        <ele>333.4</ele>
        <time>2012-09-23T08:32:11Z</time>
      </trkpt>
      <trkpt lat="48.62053" lon="-0.49169">
        <ele>330.1</ele>
        <time>2012-09-23T08:32:16Z</time>
      </trkpt>
      <trkpt lat="48.62068" lon="-0.49168">
        <ele>326.1</ele>
        <time>2012-09-23T08:32:20Z</time>
      </trkpt>
      <trkpt lat="48.62084" lon="-0.49178">
        <ele>326.5</ele>
        <time>2012-09-23T08:32:25Z</time>
      </trkpt>
      <trkpt lat="48.62098" lon="-0.49186">
        <ele>327.2</ele>
        <time>2012-09-23T08:32:29Z</time>
      </trkpt>
      <trkpt lat="48.62111" lon="-0.49195">
        <ele>327.6</ele>
        <time>2012-09-23T08:32:33Z</time>
      </trkpt>
      <trkpt lat="48.6212" lon="-0.49197">
        <ele>329.5</ele>
        <time>2012-09-23T08:32:35Z</time>
      </trkpt>
      <trkpt lat="48.62136" lon="-0.49206">
        <ele>330.6</ele>
        <time>2012-09-23T08:32:40Z</time>
      </trkpt>
      <trkpt lat="48.62149" lon="-0.49218">
        <ele>329.8</ele>
        <time>2012-09-23T08:32:44Z</time>
      </trkpt>
      <trkpt lat="48.62154" lon="-0.49225">
        <ele>329.6</ele>
        <time>2012-09-23T08:32:46Z</time>
      </trkpt>
      <trkpt lat="48.62181" lon="-0.49236">
        <ele>331.1</ele>
        <time>2012-09-23T08:32:53Z</time>
      </trkpt>
      <trkpt lat="48.62188" lon="-0.4924">
        <ele>330.6</ele>
        <time>2012-09-23T08:32:55Z</time>
      </trkpt>
      <trkpt lat="48.62201" lon="-0.49257">
        <ele>334.2</ele>
        <time>2012-09-23T08:33:00Z</time>
      </trkpt>
      <trkpt lat="48.62209" lon="-0.49264">
        <ele>337.1</ele>
        <time>2012-09-23T08:33:02Z</time>
      </trkpt>
      <trkpt lat="48.62229" lon="-0.49281">
        <ele>336.4</ele>
        <time>2012-09-23T08:33:08Z</time>
      </trkpt>
      <trkpt lat="48.62249" lon="-0.49294">
        <ele>334.8</ele>
        <time>2012-09-23T08:33:13Z</time>
      </trkpt>
      <trkpt lat="48.62269" lon="-0.49323">
        <ele>332.1</ele>
        <time>2012-09-23T08:33:20Z</time>
      </trkpt>
      <trkpt lat="48.62286" lon="-0.49329">
        <ele>331.3</ele>
        <time>2012-09-23T08:33:24Z</time>
      </trkpt>
      <trkpt lat="48.62303" lon="-0.49336">
        <ele>331.2</ele>
        <time>2012-09-23T08:33:28Z</time>
      </trkpt>
      <trkpt lat="48.6232" lon="-0.49337">
        <ele>332.4</ele>
        <time>2012-09-23T08:33:33Z</time>
      </trkpt>
      <trkpt lat="48.62335" lon="-0.49348">
        <ele>332.9</ele>
        <time>2012-09-23T08:33:37Z</time>
      </trkpt>
      <trkpt lat="48.62342" lon="-0.49366">
        <ele>333.7</ele>
        <time>2012-09-23T08:33:40Z</time>
      </trkpt>
      <trkpt lat="48.62354" lon="-0.49383">
        <ele>334.8</ele>
        <time>2012-09-23T08:33:44Z</time>
      </trkpt>
      <trkpt lat="48.62368" lon="-0.49398">
        <ele>333.8</ele>
        <time>2012-09-23T08:33:48Z</time>
      </trkpt>
      <trkpt lat="48.6238" lon="-0.49421">
        <ele>332.6</ele>
        <time>2012-09-23T08:33:52Z</time>
      </trkpt>
      <trkpt lat="48.6239" lon="-0.4944">
        <ele>335.1</ele>
        <time>2012-09-23T08:33:56Z</time>
      </trkpt>
      <trkpt lat="48.62405" lon="-0.49459">
        <ele>334.3</ele>
        <time>2012-09-23T08:34:00Z</time>
      </trkpt>
      <trkpt lat="48.62418" lon="-0.4948">
        <ele>336.6</ele>
        <time>2012-09-23T08:34:04Z</time>
      </trkpt>
      <trkpt lat="48.62429" lon="-0.49507">
        <ele>336.2</ele>
        <time>2012-09-23T08:34:08Z</time>
      </trkpt>
      <trkpt lat="48.62439" lon="-0.49533">
        <ele>336.1</ele>
        <time>2012-09-23T08:34:12Z</time>
      </trkpt>
      <trkpt lat="48.6245" lon="-0.49557">
        <ele>336.4</ele>
        <time>2012-09-23T08:34:16Z</time>
      </trkpt>
      <trkpt lat="48.62457" lon="-0.49581">
        <ele>336.7</ele>
        <time>2012-09-23T08:34:20Z</time>
      </trkpt>
      <trkpt lat="48.62468" lon="-0.49617">
        <ele>335.5</ele>
        <time>2012-09-23T08:34:25Z</time>
      </trkpt>
      <trkpt lat="48.62474" lon="-0.49643">
        <ele>337</ele>
        <time>2012-09-23T08:34:29Z</time>
      </trkpt>
      <trkpt lat="48.62483" lon="-0.49666">
        <ele>337.9</ele>
        <time>2012-09-23T08:34:33Z</time>
      </trkpt>
      <trkpt lat="48.62493" lon="-0.49686">
        <ele>339.3</ele>
        <time>2012-09-23T08:34:37Z</time>
      </trkpt>
      <trkpt lat="48.62502" lon="-0.49709">
        <ele>340.6</ele>
        <time>2012-09-23T08:34:41Z</time>
      </trkpt>
      <trkpt lat="48.62507" lon="-0.49737">
        <ele>339.4</ele>
        <time>2012-09-23T08:34:45Z</time>
      </trkpt>
      <trkpt lat="48.62521" lon="-0.49758">
        <ele>338.6</ele>
        <time>2012-09-23T08:34:49Z</time>
      </trkpt>
      <trkpt lat="48.62532" lon="-0.49774">
        <ele>337</ele>
        <time>2012-09-23T08:34:52Z</time>
      </trkpt>
      <trkpt lat="48.62543" lon="-0.49797">
        <ele>339.3</ele>
        <time>2012-09-23T08:34:56Z</time>
      </trkpt>
      <trkpt lat="48.62554" lon="-0.49816">
        <ele>340.7</ele>
        <time>2012-09-23T08:35:00Z</time>
      </trkpt>
      <trkpt lat="48.6256" lon="-0.49826">
        <ele>341.7</ele>
        <time>2012-09-23T08:35:02Z</time>
      </trkpt>
      <trkpt lat="48.62573" lon="-0.49858">
        <ele>340.3</ele>
        <time>2012-09-23T08:35:08Z</time>
      </trkpt>
      <trkpt lat="48.6258" lon="-0.49879">
        <ele>341.1</ele>
        <time>2012-09-23T08:35:12Z</time>
      </trkpt>
      <trkpt lat="48.62587" lon="-0.49902">
        <ele>342.9</ele>
        <time>2012-09-23T08:35:17Z</time>
      </trkpt>
      <trkpt lat="48.62596" lon="-0.4993">
        <ele>340</ele>
        <time>2012-09-23T08:35:21Z</time>
      </trkpt>
      <trkpt lat="48.62602" lon="-0.49956">
        <ele>339.1</ele>
        <time>2012-09-23T08:35:25Z</time>
      </trkpt>
      <trkpt lat="48.62603" lon="-0.49966">
        <ele>338.8</ele>
        <time>2012-09-23T08:35:27Z</time>
      </trkpt>
      <trkpt lat="48.62622" lon="-0.50007">
        <ele>339.4</ele>
        <time>2012-09-23T08:35:33Z</time>
      </trkpt>
      <trkpt lat="48.6263" lon="-0.50024">
        <ele>341.4</ele>
        <time>2012-09-23T08:35:37Z</time>
      </trkpt>
      <trkpt lat="48.62634" lon="-0.5005">
        <ele>341.2</ele>
        <time>2012-09-23T08:35:41Z</time>
      </trkpt>
      <trkpt lat="48.62642" lon="-0.50081">
        <ele>344</ele>
        <time>2012-09-23T08:35:45Z</time>
      </trkpt>
      <trkpt lat="48.62648" lon="-0.50112">
        <ele>343.1</ele>
        <time>2012-09-23T08:35:49Z</time>
      </trkpt>
      <trkpt lat="48.62656" lon="-0.50136">
        <ele>341.4</ele>
        <time>2012-09-23T08:35:53Z</time>
      </trkpt>
      <trkpt lat="48.62663" lon="-0.50163">
        <ele>343.6</ele>
        <time>2012-09-23T08:35:57Z</time>
      </trkpt>
      <trkpt lat="48.62671" lon="-0.5019">
        <ele>345.8</ele>
        <time>2012-09-23T08:36:01Z</time>
      </trkpt>
      <trkpt lat="48.62677" lon="-0.50213">
        <ele>348</ele>
        <time>2012-09-23T08:36:05Z</time>
      </trkpt>
      <trkpt lat="48.62688" lon="-0.50232">
        <ele>348</ele>
        <time>2012-09-23T08:36:09Z</time>
      </trkpt>
      <trkpt lat="48.62698" lon="-0.50253">
        <ele>345.8</ele>
        <time>2012-09-23T08:36:13Z</time>
      </trkpt>
      <trkpt lat="48.62707" lon="-0.50275">
        <ele>345.5</ele>
        <time>2012-09-23T08:36:17Z</time>
      </trkpt>
      <trkpt lat="48.62714" lon="-0.50298">
        <ele>341.5</ele>
        <time>2012-09-23T08:36:21Z</time>
      </trkpt>
      <trkpt lat="48.62723" lon="-0.50322">
        <ele>338.6</ele>
        <time>2012-09-23T08:36:25Z</time>
      </trkpt>
      <trkpt lat="48.62731" lon="-0.50347">
        <ele>339.2</ele>
        <time>2012-09-23T08:36:29Z</time>
      </trkpt>
      <trkpt lat="48.62742" lon="-0.50363">
        <ele>337.8</ele>
        <time>2012-09-23T08:36:33Z</time>
      </trkpt>
      <trkpt lat="48.6275" lon="-0.50383">
        <ele>336</ele>
        <time>2012-09-23T08:36:37Z</time>
      </trkpt>
      <trkpt lat="48.62761" lon="-0.50406">
        <ele>336.4</ele>
        <time>2012-09-23T08:36:41Z</time>
      </trkpt>
      <trkpt lat="48.62768" lon="-0.50413">
        <ele>336.6</ele>
        <time>2012-09-23T08:36:43Z</time>
      </trkpt>
      <trkpt lat="48.62779" lon="-0.5043">
        <ele>338.5</ele>
        <time>2012-09-23T08:36:48Z</time>
      </trkpt>
      <trkpt lat="48.6279" lon="-0.50448">
        <ele>339.1</ele>
        <time>2012-09-23T08:36:52Z</time>
      </trkpt>
      <trkpt lat="48.628" lon="-0.50469">
        <ele>339.4</ele>
        <time>2012-09-23T08:36:56Z</time>
      </trkpt>
      <trkpt lat="48.62829" lon="-0.50511">
        <ele>337.1</ele>
        <time>2012-09-23T08:37:09Z</time>
      </trkpt>
      <trkpt lat="48.6284" lon="-0.50529">
        <ele>336.4</ele>
        <time>2012-09-23T08:37:13Z</time>
      </trkpt>
      <trkpt lat="48.6285" lon="-0.50551">
        <ele>336.6</ele>
        <time>2012-09-23T08:37:17Z</time>
      </trkpt>
      <trkpt lat="48.62855" lon="-0.50575">
        <ele>332.1</ele>
        <time>2012-09-23T08:37:21Z</time>
      </trkpt>
      <trkpt lat="48.62859" lon="-0.50599">
        <ele>328.2</ele>
        <time>2012-09-23T08:37:25Z</time>
      </trkpt>
      <trkpt lat="48.62861" lon="-0.50611">
        <ele>327.9</ele>
        <time>2012-09-23T08:37:27Z</time>
      </trkpt>
      <trkpt lat="48.62867" lon="-0.50632">
        <ele>327.8</ele>
        <time>2012-09-23T08:37:31Z</time>
      </trkpt>
      <trkpt lat="48.62877" lon="-0.50667">
        <ele>329.1</ele>
        <time>2012-09-23T08:37:37Z</time>
      </trkpt>
      <trkpt lat="48.62878" lon="-0.50692">
        <ele>325</ele>
        <time>2012-09-23T08:37:41Z</time>
      </trkpt>
      <trkpt lat="48.62888" lon="-0.50714">
        <ele>326.9</ele>
        <time>2012-09-23T08:37:44Z</time>
      </trkpt>
      <trkpt lat="48.62898" lon="-0.50738">
        <ele>326.2</ele>
        <time>2012-09-23T08:37:48Z</time>
      </trkpt>
      <trkpt lat="48.62907" lon="-0.50754">
        <ele>327.4</ele>
        <time>2012-09-23T08:37:50Z</time>
      </trkpt>
      <trkpt lat="48.62932" lon="-0.50788">
        <ele>329.3</ele>
        <time>2012-09-23T08:37:56Z</time>
      </trkpt>
      <trkpt lat="48.62957" lon="-0.50799">
        <ele>332.2</ele>
        <time>2012-09-23T08:38:01Z</time>
      </trkpt>
      <trkpt lat="48.62996" lon="-0.50813">
        <ele>333.9</ele>
        <time>2012-09-23T08:38:09Z</time>
      </trkpt>
      <trkpt lat="48.63011" lon="-0.50815">
        <ele>333.3</ele>
        <time>2012-09-23T08:38:12Z</time>
      </trkpt>
      <trkpt lat="48.63026" lon="-0.50816">
        <ele>333.2</ele>
        <time>2012-09-23T08:38:16Z</time>
      </trkpt>
      <trkpt lat="48.63036" lon="-0.50818">
        <ele>332.9</ele>
        <time>2012-09-23T08:38:18Z</time>
      </trkpt>
      <trkpt lat="48.63058" lon="-0.50816">
        <ele>338.3</ele>
        <time>2012-09-23T08:38:24Z</time>
      </trkpt>
      <trkpt lat="48.63071" lon="-0.50813">
        <ele>339.5</ele>
        <time>2012-09-23T08:38:29Z</time>
      </trkpt>
      <trkpt lat="48.63096" lon="-0.50808">
        <ele>335.2</ele>
        <time>2012-09-23T08:38:36Z</time>
      </trkpt>
      <trkpt lat="48.63103" lon="-0.5081">
        <ele>333.7</ele>
        <time>2012-09-23T08:38:39Z</time>
      </trkpt>
      <trkpt lat="48.63111" lon="-0.5081">
        <ele>333.6</ele>
        <time>2012-09-23T08:38:42Z</time>
      </trkpt>
      <trkpt lat="48.63125" lon="-0.50808">
        <ele>334.7</ele>
        <time>2012-09-23T08:38:47Z</time>
      </trkpt>
      <trkpt lat="48.63132" lon="-0.50806">
        <ele>335.9</ele>
        <time>2012-09-23T08:38:51Z</time>
      </trkpt>
      <trkpt lat="48.63139" lon="-0.50803">
        <ele>337.1</ele>
        <time>2012-09-23T08:38:54Z</time>
      </trkpt>
      <trkpt lat="48.63159" lon="-0.50788">
        <ele>336.1</ele>
        <time>2012-09-23T08:39:01Z</time>
      </trkpt>
      <trkpt lat="48.63175" lon="-0.5079">
        <ele>337.7</ele>
        <time>2012-09-23T08:39:07Z</time>
      </trkpt>
      <trkpt lat="48.63193" lon="-0.50795">
        <ele>339.4</ele>
        <time>2012-09-23T08:39:13Z</time>
      </trkpt>
      <trkpt lat="48.63201" lon="-0.50795">
        <ele>339.3</ele>
        <time>2012-09-23T08:39:16Z</time>
      </trkpt>
      <trkpt lat="48.63218" lon="-0.50795">
        <ele>340.8</ele>
        <time>2012-09-23T08:39:20Z</time>
      </trkpt>
      <trkpt lat="48.63231" lon="-0.50792">
        <ele>343.9</ele>
        <time>2012-09-23T08:39:24Z</time>
      </trkpt>
      <trkpt lat="48.63239" lon="-0.50789">
        <ele>348.3</ele>
        <time>2012-09-23T08:39:27Z</time>
      </trkpt>
      <trkpt lat="48.63247" lon="-0.5079">
        <ele>349.6</ele>
        <time>2012-09-23T08:39:31Z</time>
      </trkpt>
      <trkpt lat="48.63262" lon="-0.50794">
        <ele>346.5</ele>
        <time>2012-09-23T08:39:37Z</time>
      </trkpt>
      <trkpt lat="48.63268" lon="-0.50798">
        <ele>349.6</ele>
        <time>2012-09-23T08:39:40Z</time>
      </trkpt>
      <trkpt lat="48.63282" lon="-0.50802">
        <ele>350.1</ele>
        <time>2012-09-23T08:39:48Z</time>
      </trkpt>
      <trkpt lat="48.63304" lon="-0.50806">
        <ele>352.3</ele>
        <time>2012-09-23T08:39:57Z</time>
      </trkpt>
      <trkpt lat="48.63312" lon="-0.50805">
        <ele>352.1</ele>
        <time>2012-09-23T08:40:01Z</time>
      </trkpt>
      <trkpt lat="48.63315" lon="-0.50792">
        <ele>353.2</ele>
        <time>2012-09-23T08:40:04Z</time>
      </trkpt>
      <trkpt lat="48.63316" lon="-0.50781">
        <ele>352.7</ele>
        <time>2012-09-23T08:40:07Z</time>
      </trkpt>
      <trkpt lat="48.63317" lon="-0.50769">
        <ele>353.4</ele>
        <time>2012-09-23T08:40:11Z</time>
      </trkpt>
      <trkpt lat="48.63318" lon="-0.5076">
        <ele>354</ele>
        <time>2012-09-23T08:40:14Z</time>
      </trkpt>
      <trkpt lat="48.63319" lon="-0.5075">
        <ele>355</ele>
        <time>2012-09-23T08:40:18Z</time>
      </trkpt>
      <trkpt lat="48.6332" lon="-0.50739">
        <ele>355.9</ele>
        <time>2012-09-23T08:40:22Z</time>
      </trkpt>
      <trkpt lat="48.6332" lon="-0.50728">
        <ele>358.6</ele>
        <time>2012-09-23T08:40:26Z</time>
      </trkpt>
      <trkpt lat="48.6332" lon="-0.50717">
        <ele>360.4</ele>
        <time>2012-09-23T08:40:31Z</time>
      </trkpt>
      <trkpt lat="48.63321" lon="-0.50706">
        <ele>361.5</ele>
        <time>2012-09-23T08:40:35Z</time>
      </trkpt>
      <trkpt lat="48.63321" lon="-0.50694">
        <ele>361.9</ele>
        <time>2012-09-23T08:40:39Z</time>
      </trkpt>
      <trkpt lat="48.63322" lon="-0.50682">
        <ele>362.4</ele>
        <time>2012-09-23T08:40:43Z</time>
      </trkpt>
      <trkpt lat="48.63323" lon="-0.50661">
        <ele>366.7</ele>
        <time>2012-09-23T08:40:49Z</time>
      </trkpt>
      <trkpt lat="48.63323" lon="-0.50648">
        <ele>367.8</ele>
        <time>2012-09-23T08:40:53Z</time>
      </trkpt>
      <trkpt lat="48.63325" lon="-0.50639">
        <ele>369.3</ele>
        <time>2012-09-23T08:40:56Z</time>
      </trkpt>
      <trkpt lat="48.63331" lon="-0.50616">
        <ele>373.4</ele>
        <time>2012-09-23T08:41:01Z</time>
      </trkpt>
      <trkpt lat="48.63338" lon="-0.50592">
        <ele>375.1</ele>
        <time>2012-09-23T08:41:08Z</time>
      </trkpt>
      <trkpt lat="48.63341" lon="-0.50569">
        <ele>374.8</ele>
        <time>2012-09-23T08:41:12Z</time>
      </trkpt>
      <trkpt lat="48.63343" lon="-0.50557">
        <ele>375.1</ele>
        <time>2012-09-23T08:41:14Z</time>
      </trkpt>
      <trkpt lat="48.6335" lon="-0.50534">
        <ele>378.2</ele>
        <time>2012-09-23T08:41:19Z</time>
      </trkpt>
      <trkpt lat="48.63352" lon="-0.50522">
        <ele>377.2</ele>
        <time>2012-09-23T08:41:22Z</time>
      </trkpt>
      <trkpt lat="48.63363" lon="-0.50522">
        <ele>375.7</ele>
        <time>2012-09-23T08:41:28Z</time>
      </trkpt>
      <trkpt lat="48.63377" lon="-0.50522">
        <ele>374</ele>
        <time>2012-09-23T08:41:33Z</time>
      </trkpt>
      <trkpt lat="48.63396" lon="-0.50536">
        <ele>370.3</ele>
        <time>2012-09-23T08:41:41Z</time>
      </trkpt>
      <trkpt lat="48.6341" lon="-0.50549">
        <ele>368.5</ele>
        <time>2012-09-23T08:41:49Z</time>
      </trkpt>
      <trkpt lat="48.63419" lon="-0.50553">
        <ele>368.6</ele>
        <time>2012-09-23T08:41:52Z</time>
      </trkpt>
      <trkpt lat="48.63437" lon="-0.50551">
        <ele>366</ele>
        <time>2012-09-23T08:41:56Z</time>
      </trkpt>
      <trkpt lat="48.63453" lon="-0.5055">
        <ele>367</ele>
        <time>2012-09-23T08:42:00Z</time>
      </trkpt>
      <trkpt lat="48.63469" lon="-0.50538">
        <ele>369.2</ele>
        <time>2012-09-23T08:42:05Z</time>
      </trkpt>
      <trkpt lat="48.63482" lon="-0.50523">
        <ele>371.8</ele>
        <time>2012-09-23T08:42:09Z</time>
      </trkpt>
      <trkpt lat="48.63492" lon="-0.50507">
        <ele>372.2</ele>
        <time>2012-09-23T08:42:13Z</time>
      </trkpt>
      <trkpt lat="48.63503" lon="-0.50486">
        <ele>374</ele>
        <time>2012-09-23T08:42:17Z</time>
      </trkpt>
      <trkpt lat="48.63522" lon="-0.50461">
        <ele>376.6</ele>
        <time>2012-09-23T08:42:21Z</time>
      </trkpt>
      <trkpt lat="48.6353" lon="-0.50451">
        <ele>376.4</ele>
        <time>2012-09-23T08:42:23Z</time>
      </trkpt>
      <trkpt lat="48.63542" lon="-0.50425">
        <ele>374.6</ele>
        <time>2012-09-23T08:42:27Z</time>
      </trkpt>
      <trkpt lat="48.63553" lon="-0.50402">
        <ele>371.2</ele>
        <time>2012-09-23T08:42:33Z</time>
      </trkpt>
      <trkpt lat="48.63556" lon="-0.50392">
        <ele>371.2</ele>
        <time>2012-09-23T08:42:35Z</time>
      </trkpt>
      <trkpt lat="48.63561" lon="-0.50385">
        <ele>372.5</ele>
        <time>2012-09-23T08:42:38Z</time>
      </trkpt>
      <trkpt lat="48.63576" lon="-0.50361">
        <ele>375</ele>
        <time>2012-09-23T08:42:44Z</time>
      </trkpt>
      <trkpt lat="48.63586" lon="-0.50314">
        <ele>369.8</ele>
        <time>2012-09-23T08:42:49Z</time>
      </trkpt>
      <trkpt lat="48.63593" lon="-0.50307">
        <ele>374.7</ele>
        <time>2012-09-23T08:42:52Z</time>
      </trkpt>
      <trkpt lat="48.63608" lon="-0.5029">
        <ele>373.7</ele>
        <time>2012-09-23T08:42:57Z</time>
      </trkpt>
      <trkpt lat="48.63622" lon="-0.50272">
        <ele>372.7</ele>
        <time>2012-09-23T08:43:01Z</time>
      </trkpt>
      <trkpt lat="48.63628" lon="-0.50263">
        <ele>373.6</ele>
        <time>2012-09-23T08:43:03Z</time>
      </trkpt>
      <trkpt lat="48.63652" lon="-0.50233">
        <ele>374.4</ele>
        <time>2012-09-23T08:43:09Z</time>
      </trkpt>
      <trkpt lat="48.63662" lon="-0.50214">
        <ele>377</ele>
        <time>2012-09-23T08:43:13Z</time>
      </trkpt>
      <trkpt lat="48.63673" lon="-0.5019">
        <ele>375.6</ele>
        <time>2012-09-23T08:43:17Z</time>
      </trkpt>
      <trkpt lat="48.63686" lon="-0.50168">
        <ele>379.2</ele>
        <time>2012-09-23T08:43:21Z</time>
      </trkpt>
      <trkpt lat="48.637" lon="-0.50138">
        <ele>370.2</ele>
        <time>2012-09-23T08:43:25Z</time>
      </trkpt>
      <trkpt lat="48.63704" lon="-0.50109">
        <ele>361</ele>
        <time>2012-09-23T08:43:29Z</time>
      </trkpt>
      <trkpt lat="48.63702" lon="-0.50099">
        <ele>358.1</ele>
        <time>2012-09-23T08:43:32Z</time>
      </trkpt>
      <trkpt lat="48.63706" lon="-0.50079">
        <ele>349.2</ele>
        <time>2012-09-23T08:43:36Z</time>
      </trkpt>
      <trkpt lat="48.63713" lon="-0.50073">
        <ele>347.3</ele>
        <time>2012-09-23T08:43:39Z</time>
      </trkpt>
      <trkpt lat="48.63718" lon="-0.50063">
        <ele>345.3</ele>
        <time>2012-09-23T08:43:42Z</time>
      </trkpt>
      <trkpt lat="48.63726" lon="-0.50047">
        <ele>347.6</ele>
        <time>2012-09-23T08:43:46Z</time>
      </trkpt>
      <trkpt lat="48.63744" lon="-0.50021">
        <ele>349.2</ele>
        <time>2012-09-23T08:43:52Z</time>
      </trkpt>
      <trkpt lat="48.63753" lon="-0.50004">
        <ele>349.1</ele>
        <time>2012-09-23T08:43:59Z</time>
      </trkpt>
      <trkpt lat="48.63757" lon="-0.49986">
        <ele>348.3</ele>
        <time>2012-09-23T08:44:03Z</time>
      </trkpt>
      <trkpt lat="48.63774" lon="-0.49959">
        <ele>347.7</ele>
        <time>2012-09-23T08:44:09Z</time>
      </trkpt>
      <trkpt lat="48.63785" lon="-0.49924">
        <ele>349.1</ele>
        <time>2012-09-23T08:44:16Z</time>
      </trkpt>
      <trkpt lat="48.6379" lon="-0.49917">
        <ele>349.2</ele>
        <time>2012-09-23T08:44:18Z</time>
      </trkpt>
      <trkpt lat="48.63806" lon="-0.49892">
        <ele>349</ele>
        <time>2012-09-23T08:44:25Z</time>
      </trkpt>
      <trkpt lat="48.63811" lon="-0.49885">
        <ele>350.9</ele>
        <time>2012-09-23T08:44:28Z</time>
      </trkpt>
      <trkpt lat="48.63817" lon="-0.49879">
        <ele>352.4</ele>
        <time>2012-09-23T08:44:31Z</time>
      </trkpt>
      <trkpt lat="48.63822" lon="-0.49867">
        <ele>353.4</ele>
        <time>2012-09-23T08:44:35Z</time>
      </trkpt>
      <trkpt lat="48.6383" lon="-0.49841">
        <ele>351.8</ele>
        <time>2012-09-23T08:44:40Z</time>
      </trkpt>
      <trkpt lat="48.63838" lon="-0.4983">
        <ele>354.3</ele>
        <time>2012-09-23T08:44:44Z</time>
      </trkpt>
      <trkpt lat="48.63852" lon="-0.49802">
        <ele>352</ele>
        <time>2012-09-23T08:44:53Z</time>
      </trkpt>
      <trkpt lat="48.63861" lon="-0.49779">
        <ele>351.4</ele>
        <time>2012-09-23T08:44:57Z</time>
      </trkpt>
      <trkpt lat="48.6388" lon="-0.49734">
        <ele>345.4</ele>
        <time>2012-09-23T08:45:09Z</time>
      </trkpt>
      <trkpt lat="48.63891" lon="-0.49712">
        <ele>345</ele>
        <time>2012-09-23T08:45:15Z</time>
      </trkpt>
      <trkpt lat="48.63894" lon="-0.49696">
        <ele>341.8</ele>
        <time>2012-09-23T08:45:18Z</time>
      </trkpt>
      <trkpt lat="48.63904" lon="-0.49676">
        <ele>343.8</ele>
        <time>2012-09-23T08:45:24Z</time>
      </trkpt>
      <trkpt lat="48.63918" lon="-0.49662">
        <ele>342.2</ele>
        <time>2012-09-23T08:45:29Z</time>
      </trkpt>
      <trkpt lat="48.63929" lon="-0.49642">
        <ele>342.6</ele>
        <time>2012-09-23T08:45:33Z</time>
      </trkpt>
      <trkpt lat="48.63935" lon="-0.49634">
        <ele>343.2</ele>
        <time>2012-09-23T08:45:35Z</time>
      </trkpt>
      <trkpt lat="48.63941" lon="-0.49594">
        <ele>345.4</ele>
        <time>2012-09-23T08:45:39Z</time>
      </trkpt>
      <trkpt lat="48.63941" lon="-0.49535">
        <ele>342.1</ele>
        <time>2012-09-23T08:45:45Z</time>
      </trkpt>
      <trkpt lat="48.63928" lon="-0.49496">
        <ele>339.1</ele>
        <time>2012-09-23T08:45:49Z</time>
      </trkpt>
      <trkpt lat="48.63925" lon="-0.49458">
        <ele>337.2</ele>
        <time>2012-09-23T08:45:53Z</time>
      </trkpt>
      <trkpt lat="48.63925" lon="-0.49413">
        <ele>335.6</ele>
        <time>2012-09-23T08:45:57Z</time>
      </trkpt>
      <trkpt lat="48.63929" lon="-0.49372">
        <ele>333.8</ele>
        <time>2012-09-23T08:46:01Z</time>
      </trkpt>
      <trkpt lat="48.63934" lon="-0.49341">
        <ele>333</ele>
        <time>2012-09-23T08:46:05Z</time>
      </trkpt>
      <trkpt lat="48.63939" lon="-0.49314">
        <ele>329.6</ele>
        <time>2012-09-23T08:46:08Z</time>
      </trkpt>
      <trkpt lat="48.63941" lon="-0.49273">
        <ele>329.2</ele>
        <time>2012-09-23T08:46:13Z</time>
      </trkpt>
      <trkpt lat="48.63945" lon="-0.49244">
        <ele>328.2</ele>
        <time>2012-09-23T08:46:17Z</time>
      </trkpt>
      <trkpt lat="48.63946" lon="-0.4922">
        <ele>327</ele>
        <time>2012-09-23T08:46:21Z</time>
      </trkpt>
      <trkpt lat="48.63949" lon="-0.49192">
        <ele>326.3</ele>
        <time>2012-09-23T08:46:25Z</time>
      </trkpt>
      <trkpt lat="48.63953" lon="-0.49163">
        <ele>325.8</ele>
        <time>2012-09-23T08:46:29Z</time>
      </trkpt>
      <trkpt lat="48.63953" lon="-0.49153">
        <ele>325.4</ele>
        <time>2012-09-23T08:46:31Z</time>
      </trkpt>
      <trkpt lat="48.63954" lon="-0.49129">
        <ele>323.9</ele>
        <time>2012-09-23T08:46:36Z</time>
      </trkpt>
      <trkpt lat="48.63959" lon="-0.49108">
        <ele>323.9</ele>
        <time>2012-09-23T08:46:41Z</time>
      </trkpt>
      <trkpt lat="48.63961" lon="-0.49098">
        <ele>323.7</ele>
        <time>2012-09-23T08:46:44Z</time>
      </trkpt>
      <trkpt lat="48.6396" lon="-0.49073">
        <ele>323.8</ele>
        <time>2012-09-23T08:46:49Z</time>
      </trkpt>
      <trkpt lat="48.63962" lon="-0.49064">
        <ele>322.1</ele>
        <time>2012-09-23T08:46:51Z</time>
      </trkpt>
      <trkpt lat="48.63964" lon="-0.49054">
        <ele>321.8</ele>
        <time>2012-09-23T08:46:54Z</time>
      </trkpt>
      <trkpt lat="48.63964" lon="-0.49041">
        <ele>321.9</ele>
        <time>2012-09-23T08:46:58Z</time>
      </trkpt>
      <trkpt lat="48.63967" lon="-0.49031">
        <ele>316.3</ele>
        <time>2012-09-23T08:47:03Z</time>
      </trkpt>
      <trkpt lat="48.63966" lon="-0.4902">
        <ele>317.7</ele>
        <time>2012-09-23T08:47:07Z</time>
      </trkpt>
      <trkpt lat="48.63966" lon="-0.48999">
        <ele>320.2</ele>
        <time>2012-09-23T08:47:13Z</time>
      </trkpt>
      <trkpt lat="48.63966" lon="-0.48989">
        <ele>319</ele>
        <time>2012-09-23T08:47:16Z</time>
      </trkpt>
      <trkpt lat="48.63968" lon="-0.48979">
        <ele>320.2</ele>
        <time>2012-09-23T08:47:20Z</time>
      </trkpt>
      <trkpt lat="48.63969" lon="-0.48954">
        <ele>323.5</ele>
        <time>2012-09-23T08:47:25Z</time>
      </trkpt>
      <trkpt lat="48.63972" lon="-0.48942">
        <ele>324</ele>
        <time>2012-09-23T08:47:28Z</time>
      </trkpt>
      <trkpt lat="48.63976" lon="-0.48934">
        <ele>324.1</ele>
        <time>2012-09-23T08:47:31Z</time>
      </trkpt>
      <trkpt lat="48.6398" lon="-0.48913">
        <ele>322.6</ele>
        <time>2012-09-23T08:47:36Z</time>
      </trkpt>
      <trkpt lat="48.63978" lon="-0.48902">
        <ele>321.7</ele>
        <time>2012-09-23T08:47:38Z</time>
      </trkpt>
      <trkpt lat="48.63977" lon="-0.48892">
        <ele>320.6</ele>
        <time>2012-09-23T08:47:42Z</time>
      </trkpt>
      <trkpt lat="48.63978" lon="-0.4888">
        <ele>320.7</ele>
        <time>2012-09-23T08:47:47Z</time>
      </trkpt>
      <trkpt lat="48.63984" lon="-0.48869">
        <ele>319.7</ele>
        <time>2012-09-23T08:47:52Z</time>
      </trkpt>
      <trkpt lat="48.63989" lon="-0.4886">
        <ele>318.2</ele>
        <time>2012-09-23T08:47:56Z</time>
      </trkpt>
      <trkpt lat="48.64" lon="-0.48843">
        <ele>315.5</ele>
        <time>2012-09-23T08:48:01Z</time>
      </trkpt>
      <trkpt lat="48.64004" lon="-0.48834">
        <ele>315.2</ele>
        <time>2012-09-23T08:48:05Z</time>
      </trkpt>
      <trkpt lat="48.64009" lon="-0.48828">
        <ele>315.7</ele>
        <time>2012-09-23T08:48:09Z</time>
      </trkpt>
      <trkpt lat="48.64015" lon="-0.4882">
        <ele>315.9</ele>
        <time>2012-09-23T08:48:13Z</time>
      </trkpt>
      <trkpt lat="48.64023" lon="-0.48813">
        <ele>315.9</ele>
        <time>2012-09-23T08:48:16Z</time>
      </trkpt>
      <trkpt lat="48.64027" lon="-0.48805">
        <ele>314.5</ele>
        <time>2012-09-23T08:48:19Z</time>
      </trkpt>
      <trkpt lat="48.64039" lon="-0.48791">
        <ele>318.2</ele>
        <time>2012-09-23T08:48:25Z</time>
      </trkpt>
      <trkpt lat="48.64047" lon="-0.48785">
        <ele>318.3</ele>
        <time>2012-09-23T08:48:29Z</time>
      </trkpt>
      <trkpt lat="48.64052" lon="-0.48772">
        <ele>318.3</ele>
        <time>2012-09-23T08:48:33Z</time>
      </trkpt>
      <trkpt lat="48.64058" lon="-0.48764">
        <ele>318.3</ele>
        <time>2012-09-23T08:48:36Z</time>
      </trkpt>
      <trkpt lat="48.64062" lon="-0.48753">
        <ele>314.9</ele>
        <time>2012-09-23T08:48:40Z</time>
      </trkpt>
      <trkpt lat="48.64074" lon="-0.48741">
        <ele>313</ele>
        <time>2012-09-23T08:48:45Z</time>
      </trkpt>
      <trkpt lat="48.64086" lon="-0.48723">
        <ele>313.7</ele>
        <time>2012-09-23T08:48:49Z</time>
      </trkpt>
      <trkpt lat="48.6409" lon="-0.48714">
        <ele>312.8</ele>
        <time>2012-09-23T08:48:51Z</time>
      </trkpt>
      <trkpt lat="48.64097" lon="-0.48708">
        <ele>311.7</ele>
        <time>2012-09-23T08:48:54Z</time>
      </trkpt>
      <trkpt lat="48.641" lon="-0.48699">
        <ele>310.1</ele>
        <time>2012-09-23T08:49:01Z</time>
      </trkpt>
      <trkpt lat="48.64105" lon="-0.48693">
        <ele>307.4</ele>
        <time>2012-09-23T08:49:07Z</time>
      </trkpt>
      <trkpt lat="48.64117" lon="-0.48681">
        <ele>305</ele>
        <time>2012-09-23T08:49:12Z</time>
      </trkpt>
      <trkpt lat="48.64132" lon="-0.48666">
        <ele>301.6</ele>
        <time>2012-09-23T08:49:16Z</time>
      </trkpt>
      <trkpt lat="48.6415" lon="-0.48655">
        <ele>299.3</ele>
        <time>2012-09-23T08:49:20Z</time>
      </trkpt>
      <trkpt lat="48.6417" lon="-0.48643">
        <ele>299.3</ele>
        <time>2012-09-23T08:49:24Z</time>
      </trkpt>
      <trkpt lat="48.64212" lon="-0.48623">
        <ele>298.7</ele>
        <time>2012-09-23T08:49:33Z</time>
      </trkpt>
      <trkpt lat="48.64227" lon="-0.48614">
        <ele>298</ele>
        <time>2012-09-23T08:49:37Z</time>
      </trkpt>
      <trkpt lat="48.64241" lon="-0.48607">
        <ele>298</ele>
        <time>2012-09-23T08:49:41Z</time>
      </trkpt>
      <trkpt lat="48.64249" lon="-0.48603">
        <ele>297.3</ele>
        <time>2012-09-23T08:49:44Z</time>
      </trkpt>
      <trkpt lat="48.64262" lon="-0.48598">
        <ele>296.3</ele>
        <time>2012-09-23T08:49:49Z</time>
      </trkpt>
      <trkpt lat="48.64268" lon="-0.48594">
        <ele>296.3</ele>
        <time>2012-09-23T08:49:51Z</time>
      </trkpt>
      <trkpt lat="48.64281" lon="-0.48588">
        <ele>298.4</ele>
        <time>2012-09-23T08:49:56Z</time>
      </trkpt>
      <trkpt lat="48.64295" lon="-0.48576">
        <ele>299.1</ele>
        <time>2012-09-23T08:50:01Z</time>
      </trkpt>
      <trkpt lat="48.64301" lon="-0.48568">
        <ele>299.5</ele>
        <time>2012-09-23T08:50:04Z</time>
      </trkpt>
      <trkpt lat="48.64314" lon="-0.48555">
        <ele>299.4</ele>
        <time>2012-09-23T08:50:09Z</time>
      </trkpt>
      <trkpt lat="48.64321" lon="-0.48543">
        <ele>299.2</ele>
        <time>2012-09-23T08:50:12Z</time>
      </trkpt>
      <trkpt lat="48.64337" lon="-0.48527">
        <ele>297.2</ele>
        <time>2012-09-23T08:50:17Z</time>
      </trkpt>
      <trkpt lat="48.64349" lon="-0.48518">
        <ele>297.7</ele>
        <time>2012-09-23T08:50:21Z</time>
      </trkpt>
      <trkpt lat="48.6436" lon="-0.48504">
        <ele>298.9</ele>
        <time>2012-09-23T08:50:25Z</time>
      </trkpt>
      <trkpt lat="48.64366" lon="-0.48495">
        <ele>299.6</ele>
        <time>2012-09-23T08:50:27Z</time>
      </trkpt>
      <trkpt lat="48.64379" lon="-0.48477">
        <ele>301.2</ele>
        <time>2012-09-23T08:50:32Z</time>
      </trkpt>
      <trkpt lat="48.64393" lon="-0.48464">
        <ele>304.5</ele>
        <time>2012-09-23T08:50:37Z</time>
      </trkpt>
      <trkpt lat="48.64405" lon="-0.48453">
        <ele>305.3</ele>
        <time>2012-09-23T08:50:41Z</time>
      </trkpt>
      <trkpt lat="48.64426" lon="-0.48425">
        <ele>303.3</ele>
        <time>2012-09-23T08:50:49Z</time>
      </trkpt>
      <trkpt lat="48.64433" lon="-0.4842">
        <ele>302.6</ele>
        <time>2012-09-23T08:50:51Z</time>
      </trkpt>
      <trkpt lat="48.64449" lon="-0.48405">
        <ele>306.7</ele>
        <time>2012-09-23T08:50:57Z</time>
      </trkpt>
      <trkpt lat="48.64465" lon="-0.48384">
        <ele>302</ele>
        <time>2012-09-23T08:51:05Z</time>
      </trkpt>
      <trkpt lat="48.64472" lon="-0.48385">
        <ele>302.4</ele>
        <time>2012-09-23T08:51:08Z</time>
      </trkpt>
      <trkpt lat="48.64477" lon="-0.48396">
        <ele>302.3</ele>
        <time>2012-09-23T08:51:11Z</time>
      </trkpt>
      <trkpt lat="48.64483" lon="-0.48419">
        <ele>302.8</ele>
        <time>2012-09-23T08:51:16Z</time>
      </trkpt>
      <trkpt lat="48.64486" lon="-0.48439">
        <ele>303.2</ele>
        <time>2012-09-23T08:51:20Z</time>
      </trkpt>
      <trkpt lat="48.64489" lon="-0.48461">
        <ele>304.7</ele>
        <time>2012-09-23T08:51:24Z</time>
      </trkpt>
      <trkpt lat="48.64492" lon="-0.48483">
        <ele>305.2</ele>
        <time>2012-09-23T08:51:28Z</time>
      </trkpt>
      <trkpt lat="48.64495" lon="-0.48505">
        <ele>305.9</ele>
        <time>2012-09-23T08:51:32Z</time>
      </trkpt>
      <trkpt lat="48.64498" lon="-0.48525">
        <ele>306.6</ele>
        <time>2012-09-23T08:51:36Z</time>
      </trkpt>
      <trkpt lat="48.645" lon="-0.48546">
        <ele>307</ele>
        <time>2012-09-23T08:51:40Z</time>
      </trkpt>
      <trkpt lat="48.64503" lon="-0.48565">
        <ele>307.6</ele>
        <time>2012-09-23T08:51:44Z</time>
      </trkpt>
      <trkpt lat="48.64505" lon="-0.48584">
        <ele>308.5</ele>
        <time>2012-09-23T08:51:48Z</time>
      </trkpt>
      <trkpt lat="48.64509" lon="-0.48605">
        <ele>309.9</ele>
        <time>2012-09-23T08:51:52Z</time>
      </trkpt>
      <trkpt lat="48.64512" lon="-0.48625">
        <ele>310.8</ele>
        <time>2012-09-23T08:51:56Z</time>
      </trkpt>
      <trkpt lat="48.64515" lon="-0.48645">
        <ele>311.8</ele>
        <time>2012-09-23T08:52:00Z</time>
      </trkpt>
      <trkpt lat="48.64518" lon="-0.48665">
        <ele>312.7</ele>
        <time>2012-09-23T08:52:04Z</time>
      </trkpt>
      <trkpt lat="48.64522" lon="-0.48684">
        <ele>313</ele>
        <time>2012-09-23T08:52:08Z</time>
      </trkpt>
      <trkpt lat="48.64532" lon="-0.48723">
        <ele>315.5</ele>
        <time>2012-09-23T08:52:16Z</time>
      </trkpt>
      <trkpt lat="48.64538" lon="-0.48742">
        <ele>315.5</ele>
        <time>2012-09-23T08:52:20Z</time>
      </trkpt>
      <trkpt lat="48.64546" lon="-0.48776">
        <ele>316</ele>
        <time>2012-09-23T08:52:28Z</time>
      </trkpt>
      <trkpt lat="48.64553" lon="-0.48799">
        <ele>315.9</ele>
        <time>2012-09-23T08:52:33Z</time>
      </trkpt>
      <trkpt lat="48.64557" lon="-0.48808">
        <ele>316.5</ele>
        <time>2012-09-23T08:52:35Z</time>
      </trkpt>
      <trkpt lat="48.64566" lon="-0.48826">
        <ele>317.4</ele>
        <time>2012-09-23T08:52:41Z</time>
      </trkpt>
      <trkpt lat="48.64576" lon="-0.48817">
        <ele>318.2</ele>
        <time>2012-09-23T08:52:44Z</time>
      </trkpt>
      <trkpt lat="48.6459" lon="-0.48806">
        <ele>320.6</ele>
        <time>2012-09-23T08:52:48Z</time>
      </trkpt>
      <trkpt lat="48.64605" lon="-0.48793">
        <ele>321.6</ele>
        <time>2012-09-23T08:52:52Z</time>
      </trkpt>
      <trkpt lat="48.6462" lon="-0.48778">
        <ele>321.1</ele>
        <time>2012-09-23T08:52:56Z</time>
      </trkpt>
      <trkpt lat="48.64634" lon="-0.48763">
        <ele>320.4</ele>
        <time>2012-09-23T08:53:00Z</time>
      </trkpt>
      <trkpt lat="48.64649" lon="-0.48749">
        <ele>319.5</ele>
        <time>2012-09-23T08:53:04Z</time>
      </trkpt>
      <trkpt lat="48.64664" lon="-0.48731">
        <ele>318.5</ele>
        <time>2012-09-23T08:53:08Z</time>
      </trkpt>
      <trkpt lat="48.64671" lon="-0.48724">
        <ele>318.6</ele>
        <time>2012-09-23T08:53:10Z</time>
      </trkpt>
      <trkpt lat="48.64689" lon="-0.48698">
        <ele>319.2</ele>
        <time>2012-09-23T08:53:14Z</time>
      </trkpt>
      <trkpt lat="48.6471" lon="-0.48665">
        <ele>321.1</ele>
        <time>2012-09-23T08:53:19Z</time>
      </trkpt>
      <trkpt lat="48.64736" lon="-0.48635">
        <ele>321.9</ele>
        <time>2012-09-23T08:53:24Z</time>
      </trkpt>
      <trkpt lat="48.64752" lon="-0.48621">
        <ele>322.7</ele>
        <time>2012-09-23T08:53:28Z</time>
      </trkpt>
      <trkpt lat="48.64773" lon="-0.48596">
        <ele>323</ele>
        <time>2012-09-23T08:53:33Z</time>
      </trkpt>
      <trkpt lat="48.64788" lon="-0.48576">
        <ele>319</ele>
        <time>2012-09-23T08:53:35Z</time>
      </trkpt>
      <trkpt lat="48.64823" lon="-0.48552">
        <ele>314.4</ele>
        <time>2012-09-23T08:53:41Z</time>
      </trkpt>
      <trkpt lat="48.64837" lon="-0.48548">
        <ele>313.7</ele>
        <time>2012-09-23T08:53:43Z</time>
      </trkpt>
      <trkpt lat="48.64866" lon="-0.48529">
        <ele>307.3</ele>
        <time>2012-09-23T08:53:49Z</time>
      </trkpt>
      <trkpt lat="48.64886" lon="-0.48499">
        <ele>305.5</ele>
        <time>2012-09-23T08:53:53Z</time>
      </trkpt>
      <trkpt lat="48.64894" lon="-0.48472">
        <ele>304.9</ele>
        <time>2012-09-23T08:53:56Z</time>
      </trkpt>
      <trkpt lat="48.64893" lon="-0.48463">
        <ele>305.5</ele>
        <time>2012-09-23T08:54:00Z</time>
      </trkpt>
      <trkpt lat="48.64909" lon="-0.48488">
        <ele>300.6</ele>
        <time>2012-09-23T08:54:09Z</time>
      </trkpt>
      <trkpt lat="48.64923" lon="-0.4851">
        <ele>299.8</ele>
        <time>2012-09-23T08:54:13Z</time>
      </trkpt>
      <trkpt lat="48.64938" lon="-0.48534">
        <ele>298.7</ele>
        <time>2012-09-23T08:54:17Z</time>
      </trkpt>
      <trkpt lat="48.64947" lon="-0.48549">
        <ele>293</ele>
        <time>2012-09-23T08:54:21Z</time>
      </trkpt>
      <trkpt lat="48.64952" lon="-0.48558">
        <ele>291.7</ele>
        <time>2012-09-23T08:54:24Z</time>
      </trkpt>
      <trkpt lat="48.64962" lon="-0.48594">
        <ele>289.7</ele>
        <time>2012-09-23T08:54:35Z</time>
      </trkpt>
      <trkpt lat="48.64971" lon="-0.4861">
        <ele>294.3</ele>
        <time>2012-09-23T08:54:40Z</time>
      </trkpt>
      <trkpt lat="48.64982" lon="-0.48626">
        <ele>298.4</ele>
        <time>2012-09-23T08:54:45Z</time>
      </trkpt>
      <trkpt lat="48.64987" lon="-0.48648">
        <ele>297.9</ele>
        <time>2012-09-23T08:54:52Z</time>
      </trkpt>
      <trkpt lat="48.6499" lon="-0.48671">
        <ele>298.4</ele>
        <time>2012-09-23T08:54:59Z</time>
      </trkpt>
      <trkpt lat="48.64995" lon="-0.4869">
        <ele>299.8</ele>
        <time>2012-09-23T08:55:05Z</time>
      </trkpt>
      <trkpt lat="48.65" lon="-0.487">
        <ele>300.6</ele>
        <time>2012-09-23T08:55:07Z</time>
      </trkpt>
      <trkpt lat="48.65018" lon="-0.48745">
        <ele>299.7</ele>
        <time>2012-09-23T08:55:17Z</time>
      </trkpt>
      <trkpt lat="48.65025" lon="-0.48756">
        <ele>300.3</ele>
        <time>2012-09-23T08:55:19Z</time>
      </trkpt>
      <trkpt lat="48.65047" lon="-0.4878">
        <ele>300.2</ele>
        <time>2012-09-23T08:55:24Z</time>
      </trkpt>
      <trkpt lat="48.65063" lon="-0.48799">
        <ele>298.4</ele>
        <time>2012-09-23T08:55:29Z</time>
      </trkpt>
      <trkpt lat="48.65073" lon="-0.48816">
        <ele>300.4</ele>
        <time>2012-09-23T08:55:33Z</time>
      </trkpt>
      <trkpt lat="48.6508" lon="-0.48828">
        <ele>298.9</ele>
        <time>2012-09-23T08:55:36Z</time>
      </trkpt>
      <trkpt lat="48.6509" lon="-0.4885">
        <ele>300.1</ele>
        <time>2012-09-23T08:55:41Z</time>
      </trkpt>
      <trkpt lat="48.65093" lon="-0.48858">
        <ele>300</ele>
        <time>2012-09-23T08:55:43Z</time>
      </trkpt>
      <trkpt lat="48.65102" lon="-0.48878">
        <ele>300.5</ele>
        <time>2012-09-23T08:55:49Z</time>
      </trkpt>
      <trkpt lat="48.65108" lon="-0.48881">
        <ele>301.1</ele>
        <time>2012-09-23T08:55:51Z</time>
      </trkpt>
      <trkpt lat="48.65115" lon="-0.48884">
        <ele>307.3</ele>
        <time>2012-09-23T08:55:54Z</time>
      </trkpt>
      <trkpt lat="48.65123" lon="-0.48888">
        <ele>311.5</ele>
        <time>2012-09-23T08:55:58Z</time>
      </trkpt>
      <trkpt lat="48.65123" lon="-0.48888">
        <ele>255.1</ele>
        <time>2012-09-23T08:56:10Z</time>
      </trkpt>
      <trkpt lat="48.65123" lon="-0.48888">
        <ele>255.1</ele>
        <time>2012-09-23T08:56:11Z</time>
      </trkpt>
      <trkpt lat="48.65149" lon="-0.48874">
        <ele>318.6</ele>
        <time>2012-09-23T08:56:17Z</time>
      </trkpt>
      <trkpt lat="48.65156" lon="-0.48867">
        <ele>318.9</ele>
        <time>2012-09-23T08:56:21Z</time>
      </trkpt>
      <trkpt lat="48.65164" lon="-0.4887">
        <ele>318.1</ele>
        <time>2012-09-23T08:56:25Z</time>
      </trkpt>
      <trkpt lat="48.6517" lon="-0.48874">
        <ele>317.7</ele>
        <time>2012-09-23T08:56:29Z</time>
      </trkpt>
      <trkpt lat="48.65188" lon="-0.48893">
        <ele>322.2</ele>
        <time>2012-09-23T08:56:38Z</time>
      </trkpt>
      <trkpt lat="48.65194" lon="-0.48902">
        <ele>319.9</ele>
        <time>2012-09-23T08:56:42Z</time>
      </trkpt>
      <trkpt lat="48.652" lon="-0.4891">
        <ele>320.1</ele>
        <time>2012-09-23T08:56:45Z</time>
      </trkpt>
      <trkpt lat="48.65203" lon="-0.48918">
        <ele>323.6</ele>
        <time>2012-09-23T08:56:51Z</time>
      </trkpt>
      <trkpt lat="48.65211" lon="-0.48937">
        <ele>324.1</ele>
        <time>2012-09-23T08:56:59Z</time>
      </trkpt>
      <trkpt lat="48.65226" lon="-0.48953">
        <ele>328.2</ele>
        <time>2012-09-23T08:57:02Z</time>
      </trkpt>
      <trkpt lat="48.65237" lon="-0.48965">
        <ele>329.7</ele>
        <time>2012-09-23T08:57:07Z</time>
      </trkpt>
      <trkpt lat="48.65241" lon="-0.48974">
        <ele>329.4</ele>
        <time>2012-09-23T08:57:12Z</time>
      </trkpt>
      <trkpt lat="48.65253" lon="-0.48983">
        <ele>327</ele>
        <time>2012-09-23T08:57:18Z</time>
      </trkpt>
      <trkpt lat="48.6526" lon="-0.48987">
        <ele>327.6</ele>
        <time>2012-09-23T08:57:22Z</time>
      </trkpt>
      <trkpt lat="48.65275" lon="-0.49003">
        <ele>326</ele>
        <time>2012-09-23T08:57:33Z</time>
      </trkpt>
      <trkpt lat="48.6528" lon="-0.4901">
        <ele>326.8</ele>
        <time>2012-09-23T08:57:38Z</time>
      </trkpt>
      <trkpt lat="48.65288" lon="-0.49015">
        <ele>327.1</ele>
        <time>2012-09-23T08:57:43Z</time>
      </trkpt>
      <trkpt lat="48.65293" lon="-0.4902">
        <ele>326.9</ele>
        <time>2012-09-23T08:57:47Z</time>
      </trkpt>
      <trkpt lat="48.65304" lon="-0.49033">
        <ele>327.3</ele>
        <time>2012-09-23T08:57:53Z</time>
      </trkpt>
      <trkpt lat="48.65326" lon="-0.49049">
        <ele>328.5</ele>
        <time>2012-09-23T08:58:05Z</time>
      </trkpt>
      <trkpt lat="48.65328" lon="-0.49039">
        <ele>330.7</ele>
        <time>2012-09-23T08:58:09Z</time>
      </trkpt>
      <trkpt lat="48.65331" lon="-0.49027">
        <ele>328.5</ele>
        <time>2012-09-23T08:58:14Z</time>
      </trkpt>
      <trkpt lat="48.65331" lon="-0.49027">
        <ele>278.7</ele>
        <time>2012-09-23T08:58:25Z</time>
      </trkpt>
      <trkpt lat="48.65331" lon="-0.49027">
        <ele>278.7</ele>
        <time>2012-09-23T08:58:29Z</time>
      </trkpt>
      <trkpt lat="48.65328" lon="-0.48964">
        <ele>327.6</ele>
        <time>2012-09-23T08:58:34Z</time>
      </trkpt>
      <trkpt lat="48.65326" lon="-0.48954">
        <ele>330.4</ele>
        <time>2012-09-23T08:58:36Z</time>
      </trkpt>
      <trkpt lat="48.65326" lon="-0.48931">
        <ele>333</ele>
        <time>2012-09-23T08:58:41Z</time>
      </trkpt>
      <trkpt lat="48.65321" lon="-0.48907">
        <ele>335.9</ele>
        <time>2012-09-23T08:58:46Z</time>
      </trkpt>
      <trkpt lat="48.65319" lon="-0.48897">
        <ele>337.3</ele>
        <time>2012-09-23T08:58:48Z</time>
      </trkpt>
      <trkpt lat="48.65318" lon="-0.48871">
        <ele>336.2</ele>
        <time>2012-09-23T08:58:52Z</time>
      </trkpt>
      <trkpt lat="48.65314" lon="-0.48826">
        <ele>338.7</ele>
        <time>2012-09-23T08:58:58Z</time>
      </trkpt>
      <trkpt lat="48.65311" lon="-0.488">
        <ele>337.7</ele>
        <time>2012-09-23T08:59:02Z</time>
      </trkpt>
      <trkpt lat="48.65309" lon="-0.4879">
        <ele>336.2</ele>
        <time>2012-09-23T08:59:04Z</time>
      </trkpt>
      <trkpt lat="48.65307" lon="-0.48756">
        <ele>335.4</ele>
        <time>2012-09-23T08:59:10Z</time>
      </trkpt>
      <trkpt lat="48.65307" lon="-0.48741">
        <ele>337.9</ele>
        <time>2012-09-23T08:59:13Z</time>
      </trkpt>
      <trkpt lat="48.65304" lon="-0.48716">
        <ele>337.5</ele>
        <time>2012-09-23T08:59:18Z</time>
      </trkpt>
      <trkpt lat="48.653" lon="-0.48689">
        <ele>338.2</ele>
        <time>2012-09-23T08:59:23Z</time>
      </trkpt>
      <trkpt lat="48.653" lon="-0.48663">
        <ele>337.9</ele>
        <time>2012-09-23T08:59:27Z</time>
      </trkpt>
      <trkpt lat="48.65299" lon="-0.48637">
        <ele>337.4</ele>
        <time>2012-09-23T08:59:30Z</time>
      </trkpt>
      <trkpt lat="48.65299" lon="-0.48601">
        <ele>338.4</ele>
        <time>2012-09-23T08:59:35Z</time>
      </trkpt>
      <trkpt lat="48.65298" lon="-0.48591">
        <ele>338.9</ele>
        <time>2012-09-23T08:59:36Z</time>
      </trkpt>
      <trkpt lat="48.65289" lon="-0.48549">
        <ele>340.1</ele>
        <time>2012-09-23T08:59:42Z</time>
      </trkpt>
      <trkpt lat="48.65288" lon="-0.48523">
        <ele>338.7</ele>
        <time>2012-09-23T08:59:46Z</time>
      </trkpt>
      <trkpt lat="48.65283" lon="-0.48492">
        <ele>336.1</ele>
        <time>2012-09-23T08:59:50Z</time>
      </trkpt>
      <trkpt lat="48.65281" lon="-0.4847">
        <ele>338.1</ele>
        <time>2012-09-23T08:59:54Z</time>
      </trkpt>
      <trkpt lat="48.65278" lon="-0.48446">
        <ele>337.3</ele>
        <time>2012-09-23T08:59:58Z</time>
      </trkpt>
      <trkpt lat="48.65271" lon="-0.48415">
        <ele>338.2</ele>
        <time>2012-09-23T09:00:02Z</time>
      </trkpt>
      <trkpt lat="48.65266" lon="-0.48388">
        <ele>339.8</ele>
        <time>2012-09-23T09:00:06Z</time>
      </trkpt>
      <trkpt lat="48.65259" lon="-0.48375">
        <ele>339.4</ele>
        <time>2012-09-23T09:00:08Z</time>
      </trkpt>
      <trkpt lat="48.65246" lon="-0.4835">
        <ele>339.7</ele>
        <time>2012-09-23T09:00:12Z</time>
      </trkpt>
      <trkpt lat="48.65232" lon="-0.48317">
        <ele>338.7</ele>
        <time>2012-09-23T09:00:18Z</time>
      </trkpt>
      <trkpt lat="48.65219" lon="-0.48298">
        <ele>337.5</ele>
        <time>2012-09-23T09:00:22Z</time>
      </trkpt>
      <trkpt lat="48.65198" lon="-0.48269">
        <ele>332.6</ele>
        <time>2012-09-23T09:00:27Z</time>
      </trkpt>
      <trkpt lat="48.65179" lon="-0.4824">
        <ele>330.1</ele>
        <time>2012-09-23T09:00:31Z</time>
      </trkpt>
      <trkpt lat="48.65162" lon="-0.48209">
        <ele>330.9</ele>
        <time>2012-09-23T09:00:35Z</time>
      </trkpt>
      <trkpt lat="48.65143" lon="-0.48177">
        <ele>327.8</ele>
        <time>2012-09-23T09:00:39Z</time>
      </trkpt>
      <trkpt lat="48.65126" lon="-0.48143">
        <ele>325.5</ele>
        <time>2012-09-23T09:00:43Z</time>
      </trkpt>
      <trkpt lat="48.65107" lon="-0.4811">
        <ele>324.9</ele>
        <time>2012-09-23T09:00:47Z</time>
      </trkpt>
      <trkpt lat="48.65095" lon="-0.48085">
        <ele>326</ele>
        <time>2012-09-23T09:00:51Z</time>
      </trkpt>
      <trkpt lat="48.65082" lon="-0.48086">
        <ele>327.6</ele>
        <time>2012-09-23T09:00:55Z</time>
      </trkpt>
      <trkpt lat="48.6507" lon="-0.48102">
        <ele>327.9</ele>
        <time>2012-09-23T09:00:58Z</time>
      </trkpt>
      <trkpt lat="48.65051" lon="-0.48119">
        <ele>329.5</ele>
        <time>2012-09-23T09:01:02Z</time>
      </trkpt>
      <trkpt lat="48.65035" lon="-0.48139">
        <ele>331.2</ele>
        <time>2012-09-23T09:01:06Z</time>
      </trkpt>
      <trkpt lat="48.65013" lon="-0.48173">
        <ele>331.2</ele>
        <time>2012-09-23T09:01:11Z</time>
      </trkpt>
      <trkpt lat="48.64996" lon="-0.48194">
        <ele>329.6</ele>
        <time>2012-09-23T09:01:15Z</time>
      </trkpt>
      <trkpt lat="48.64979" lon="-0.48209">
        <ele>328.5</ele>
        <time>2012-09-23T09:01:19Z</time>
      </trkpt>
      <trkpt lat="48.64963" lon="-0.48224">
        <ele>328.6</ele>
        <time>2012-09-23T09:01:22Z</time>
      </trkpt>
      <trkpt lat="48.64936" lon="-0.48239">
        <ele>326.6</ele>
        <time>2012-09-23T09:01:26Z</time>
      </trkpt>
      <trkpt lat="48.64916" lon="-0.48236">
        <ele>324.5</ele>
        <time>2012-09-23T09:01:30Z</time>
      </trkpt>
      <trkpt lat="48.64888" lon="-0.48255">
        <ele>324</ele>
        <time>2012-09-23T09:01:39Z</time>
      </trkpt>
      <trkpt lat="48.64881" lon="-0.48283">
        <ele>324.1</ele>
        <time>2012-09-23T09:01:43Z</time>
      </trkpt>
      <trkpt lat="48.6488" lon="-0.48294">
        <ele>324</ele>
        <time>2012-09-23T09:01:44Z</time>
      </trkpt>
      <trkpt lat="48.64877" lon="-0.48328">
        <ele>322.5</ele>
        <time>2012-09-23T09:01:48Z</time>
      </trkpt>
      <trkpt lat="48.64869" lon="-0.48348">
        <ele>320.8</ele>
        <time>2012-09-23T09:01:53Z</time>
      </trkpt>
      <trkpt lat="48.64865" lon="-0.48339">
        <ele>318.3</ele>
        <time>2012-09-23T09:01:58Z</time>
      </trkpt>
      <trkpt lat="48.64853" lon="-0.48316">
        <ele>315.9</ele>
        <time>2012-09-23T09:02:02Z</time>
      </trkpt>
      <trkpt lat="48.6484" lon="-0.48297">
        <ele>313.3</ele>
        <time>2012-09-23T09:02:06Z</time>
      </trkpt>
      <trkpt lat="48.64828" lon="-0.4828">
        <ele>312.4</ele>
        <time>2012-09-23T09:02:10Z</time>
      </trkpt>
      <trkpt lat="48.64814" lon="-0.48262">
        <ele>310.7</ele>
        <time>2012-09-23T09:02:14Z</time>
      </trkpt>
      <trkpt lat="48.64802" lon="-0.48239">
        <ele>307</ele>
        <time>2012-09-23T09:02:18Z</time>
      </trkpt>
      <trkpt lat="48.64793" lon="-0.48217">
        <ele>303.9</ele>
        <time>2012-09-23T09:02:22Z</time>
      </trkpt>
      <trkpt lat="48.64781" lon="-0.48196">
        <ele>301.9</ele>
        <time>2012-09-23T09:02:26Z</time>
      </trkpt>
      <trkpt lat="48.64775" lon="-0.48184">
        <ele>299.8</ele>
        <time>2012-09-23T09:02:28Z</time>
      </trkpt>
      <trkpt lat="48.64752" lon="-0.48137">
        <ele>297.7</ele>
        <time>2012-09-23T09:02:35Z</time>
      </trkpt>
      <trkpt lat="48.64741" lon="-0.48116">
        <ele>296.5</ele>
        <time>2012-09-23T09:02:38Z</time>
      </trkpt>
      <trkpt lat="48.64736" lon="-0.48105">
        <ele>297.5</ele>
        <time>2012-09-23T09:02:40Z</time>
      </trkpt>
      <trkpt lat="48.64713" lon="-0.48063">
        <ele>296.2</ele>
        <time>2012-09-23T09:02:47Z</time>
      </trkpt>
      <trkpt lat="48.64693" lon="-0.48027">
        <ele>292.3</ele>
        <time>2012-09-23T09:02:51Z</time>
      </trkpt>
      <trkpt lat="48.64668" lon="-0.47991">
        <ele>290.7</ele>
        <time>2012-09-23T09:02:55Z</time>
      </trkpt>
      <trkpt lat="48.64643" lon="-0.47959">
        <ele>289.8</ele>
        <time>2012-09-23T09:02:59Z</time>
      </trkpt>
      <trkpt lat="48.64619" lon="-0.47932">
        <ele>287.1</ele>
        <time>2012-09-23T09:03:03Z</time>
      </trkpt>
      <trkpt lat="48.64608" lon="-0.47912">
        <ele>286</ele>
        <time>2012-09-23T09:03:06Z</time>
      </trkpt>
      <trkpt lat="48.64597" lon="-0.4789">
        <ele>286.6</ele>
        <time>2012-09-23T09:03:10Z</time>
      </trkpt>
      <trkpt lat="48.64584" lon="-0.4787">
        <ele>287.6</ele>
        <time>2012-09-23T09:03:14Z</time>
      </trkpt>
      <trkpt lat="48.6457" lon="-0.47847">
        <ele>291.3</ele>
        <time>2012-09-23T09:03:18Z</time>
      </trkpt>
      <trkpt lat="48.64565" lon="-0.47834">
        <ele>290.3</ele>
        <time>2012-09-23T09:03:20Z</time>
      </trkpt>
      <trkpt lat="48.64548" lon="-0.4779">
        <ele>289</ele>
        <time>2012-09-23T09:03:26Z</time>
      </trkpt>
      <trkpt lat="48.64536" lon="-0.47767">
        <ele>290.1</ele>
        <time>2012-09-23T09:03:30Z</time>
      </trkpt>
      <trkpt lat="48.64522" lon="-0.47741">
        <ele>289.7</ele>
        <time>2012-09-23T09:03:34Z</time>
      </trkpt>
      <trkpt lat="48.64511" lon="-0.47712">
        <ele>288</ele>
        <time>2012-09-23T09:03:38Z</time>
      </trkpt>
      <trkpt lat="48.64506" lon="-0.47681">
        <ele>288.3</ele>
        <time>2012-09-23T09:03:42Z</time>
      </trkpt>
      <trkpt lat="48.64501" lon="-0.47652">
        <ele>288.1</ele>
        <time>2012-09-23T09:03:46Z</time>
      </trkpt>
      <trkpt lat="48.645" lon="-0.47623">
        <ele>287.3</ele>
        <time>2012-09-23T09:03:50Z</time>
      </trkpt>
      <trkpt lat="48.64499" lon="-0.47593">
        <ele>287.6</ele>
        <time>2012-09-23T09:03:54Z</time>
      </trkpt>
      <trkpt lat="48.6449" lon="-0.47571">
        <ele>287.4</ele>
        <time>2012-09-23T09:03:57Z</time>
      </trkpt>
      <trkpt lat="48.64468" lon="-0.47542">
        <ele>285.3</ele>
        <time>2012-09-23T09:04:03Z</time>
      </trkpt>
      <trkpt lat="48.64457" lon="-0.47523">
        <ele>285.9</ele>
        <time>2012-09-23T09:04:07Z</time>
      </trkpt>
      <trkpt lat="48.6445" lon="-0.47512">
        <ele>286</ele>
        <time>2012-09-23T09:04:09Z</time>
      </trkpt>
      <trkpt lat="48.64439" lon="-0.47482">
        <ele>286.8</ele>
        <time>2012-09-23T09:04:15Z</time>
      </trkpt>
      <trkpt lat="48.64429" lon="-0.47459">
        <ele>286.6</ele>
        <time>2012-09-23T09:04:19Z</time>
      </trkpt>
      <trkpt lat="48.64421" lon="-0.47436">
        <ele>286.4</ele>
        <time>2012-09-23T09:04:23Z</time>
      </trkpt>
      <trkpt lat="48.64413" lon="-0.47415">
        <ele>287.1</ele>
        <time>2012-09-23T09:04:27Z</time>
      </trkpt>
      <trkpt lat="48.64408" lon="-0.47394">
        <ele>287.2</ele>
        <time>2012-09-23T09:04:31Z</time>
      </trkpt>
      <trkpt lat="48.64396" lon="-0.47374">
        <ele>288.2</ele>
        <time>2012-09-23T09:04:35Z</time>
      </trkpt>
      <trkpt lat="48.64385" lon="-0.47356">
        <ele>287.9</ele>
        <time>2012-09-23T09:04:39Z</time>
      </trkpt>
      <trkpt lat="48.64375" lon="-0.47336">
        <ele>287.7</ele>
        <time>2012-09-23T09:04:43Z</time>
      </trkpt>
      <trkpt lat="48.64364" lon="-0.47318">
        <ele>288.6</ele>
        <time>2012-09-23T09:04:47Z</time>
      </trkpt>
      <trkpt lat="48.64355" lon="-0.47299">
        <ele>289.1</ele>
        <time>2012-09-23T09:04:51Z</time>
      </trkpt>
      <trkpt lat="48.64347" lon="-0.47281">
        <ele>289.5</ele>
        <time>2012-09-23T09:04:55Z</time>
      </trkpt>
      <trkpt lat="48.64338" lon="-0.47262">
        <ele>289.7</ele>
        <time>2012-09-23T09:04:59Z</time>
      </trkpt>
      <trkpt lat="48.6433" lon="-0.47243">
        <ele>289.5</ele>
        <time>2012-09-23T09:05:03Z</time>
      </trkpt>
      <trkpt lat="48.64323" lon="-0.47224">
        <ele>290.8</ele>
        <time>2012-09-23T09:05:07Z</time>
      </trkpt>
      <trkpt lat="48.64313" lon="-0.47204">
        <ele>292</ele>
        <time>2012-09-23T09:05:11Z</time>
      </trkpt>
      <trkpt lat="48.64306" lon="-0.47186">
        <ele>293.8</ele>
        <time>2012-09-23T09:05:15Z</time>
      </trkpt>
      <trkpt lat="48.64299" lon="-0.47167">
        <ele>295.2</ele>
        <time>2012-09-23T09:05:19Z</time>
      </trkpt>
      <trkpt lat="48.64289" lon="-0.4715">
        <ele>295.5</ele>
        <time>2012-09-23T09:05:23Z</time>
      </trkpt>
      <trkpt lat="48.64277" lon="-0.47132">
        <ele>294.8</ele>
        <time>2012-09-23T09:05:27Z</time>
      </trkpt>
      <trkpt lat="48.64267" lon="-0.47114">
        <ele>294.9</ele>
        <time>2012-09-23T09:05:31Z</time>
      </trkpt>
      <trkpt lat="48.64257" lon="-0.47096">
        <ele>296.1</ele>
        <time>2012-09-23T09:05:35Z</time>
      </trkpt>
      <trkpt lat="48.64252" lon="-0.47086">
        <ele>297</ele>
        <time>2012-09-23T09:05:37Z</time>
      </trkpt>
      <trkpt lat="48.64244" lon="-0.47066">
        <ele>297</ele>
        <time>2012-09-23T09:05:41Z</time>
      </trkpt>
      <trkpt lat="48.64234" lon="-0.47048">
        <ele>296.9</ele>
        <time>2012-09-23T09:05:46Z</time>
      </trkpt>
      <trkpt lat="48.64214" lon="-0.47029">
        <ele>296.4</ele>
        <time>2012-09-23T09:05:50Z</time>
      </trkpt>
      <trkpt lat="48.64205" lon="-0.4702">
        <ele>295</ele>
        <time>2012-09-23T09:05:52Z</time>
      </trkpt>
      <trkpt lat="48.64182" lon="-0.46973">
        <ele>291.6</ele>
        <time>2012-09-23T09:05:59Z</time>
      </trkpt>
      <trkpt lat="48.64165" lon="-0.46942">
        <ele>293.4</ele>
        <time>2012-09-23T09:06:03Z</time>
      </trkpt>
      <trkpt lat="48.64145" lon="-0.46917">
        <ele>290.1</ele>
        <time>2012-09-23T09:06:06Z</time>
      </trkpt>
      <trkpt lat="48.64113" lon="-0.46871">
        <ele>286.8</ele>
        <time>2012-09-23T09:06:11Z</time>
      </trkpt>
      <trkpt lat="48.64089" lon="-0.46837">
        <ele>285.8</ele>
        <time>2012-09-23T09:06:15Z</time>
      </trkpt>
      <trkpt lat="48.64071" lon="-0.46801">
        <ele>285.8</ele>
        <time>2012-09-23T09:06:19Z</time>
      </trkpt>
      <trkpt lat="48.64064" lon="-0.46779">
        <ele>286.4</ele>
        <time>2012-09-23T09:06:22Z</time>
      </trkpt>
      <trkpt lat="48.6406" lon="-0.46766">
        <ele>285.6</ele>
        <time>2012-09-23T09:06:24Z</time>
      </trkpt>
      <trkpt lat="48.64047" lon="-0.46736">
        <ele>287.5</ele>
        <time>2012-09-23T09:06:30Z</time>
      </trkpt>
      <trkpt lat="48.64038" lon="-0.46716">
        <ele>288.3</ele>
        <time>2012-09-23T09:06:34Z</time>
      </trkpt>
      <trkpt lat="48.6403" lon="-0.46695">
        <ele>285.7</ele>
        <time>2012-09-23T09:06:38Z</time>
      </trkpt>
      <trkpt lat="48.64029" lon="-0.46682">
        <ele>286.4</ele>
        <time>2012-09-23T09:06:41Z</time>
      </trkpt>
      <trkpt lat="48.64028" lon="-0.46658">
        <ele>284.7</ele>
        <time>2012-09-23T09:06:47Z</time>
      </trkpt>
      <trkpt lat="48.64027" lon="-0.46646">
        <ele>284.2</ele>
        <time>2012-09-23T09:06:50Z</time>
      </trkpt>
      <trkpt lat="48.64025" lon="-0.46623">
        <ele>284.9</ele>
        <time>2012-09-23T09:06:54Z</time>
      </trkpt>
      <trkpt lat="48.64024" lon="-0.46602">
        <ele>286.7</ele>
        <time>2012-09-23T09:06:58Z</time>
      </trkpt>
      <trkpt lat="48.64024" lon="-0.46582">
        <ele>288</ele>
        <time>2012-09-23T09:07:02Z</time>
      </trkpt>
      <trkpt lat="48.64023" lon="-0.46567">
        <ele>288.3</ele>
        <time>2012-09-23T09:07:05Z</time>
      </trkpt>
      <trkpt lat="48.64022" lon="-0.46541">
        <ele>289.8</ele>
        <time>2012-09-23T09:07:11Z</time>
      </trkpt>
      <trkpt lat="48.64022" lon="-0.46529">
        <ele>290.3</ele>
        <time>2012-09-23T09:07:14Z</time>
      </trkpt>
      <trkpt lat="48.64023" lon="-0.46516">
        <ele>290.8</ele>
        <time>2012-09-23T09:07:17Z</time>
      </trkpt>
      <trkpt lat="48.64027" lon="-0.46491">
        <ele>292.3</ele>
        <time>2012-09-23T09:07:23Z</time>
      </trkpt>
      <trkpt lat="48.6403" lon="-0.46479">
        <ele>293</ele>
        <time>2012-09-23T09:07:26Z</time>
      </trkpt>
      <trkpt lat="48.64035" lon="-0.4647">
        <ele>293.3</ele>
        <time>2012-09-23T09:07:29Z</time>
      </trkpt>
      <trkpt lat="48.64048" lon="-0.46461">
        <ele>293.8</ele>
        <time>2012-09-23T09:07:35Z</time>
      </trkpt>
      <trkpt lat="48.64055" lon="-0.46451">
        <ele>296.6</ele>
        <time>2012-09-23T09:07:38Z</time>
      </trkpt>
      <trkpt lat="48.64061" lon="-0.46444">
        <ele>299</ele>
        <time>2012-09-23T09:07:41Z</time>
      </trkpt>
      <trkpt lat="48.64076" lon="-0.46431">
        <ele>302.6</ele>
        <time>2012-09-23T09:07:47Z</time>
      </trkpt>
      <trkpt lat="48.64082" lon="-0.46426">
        <ele>303.4</ele>
        <time>2012-09-23T09:07:49Z</time>
      </trkpt>
      <trkpt lat="48.64096" lon="-0.46412">
        <ele>305.1</ele>
        <time>2012-09-23T09:07:55Z</time>
      </trkpt>
      <trkpt lat="48.64103" lon="-0.46406">
        <ele>306.1</ele>
        <time>2012-09-23T09:07:58Z</time>
      </trkpt>
      <trkpt lat="48.64109" lon="-0.46402">
        <ele>306.1</ele>
        <time>2012-09-23T09:08:01Z</time>
      </trkpt>
      <trkpt lat="48.64124" lon="-0.4639">
        <ele>306.5</ele>
        <time>2012-09-23T09:08:07Z</time>
      </trkpt>
      <trkpt lat="48.64132" lon="-0.46386">
        <ele>308.5</ele>
        <time>2012-09-23T09:08:10Z</time>
      </trkpt>
      <trkpt lat="48.64138" lon="-0.46381">
        <ele>312.5</ele>
        <time>2012-09-23T09:08:13Z</time>
      </trkpt>
      <trkpt lat="48.64144" lon="-0.46375">
        <ele>316.5</ele>
        <time>2012-09-23T09:08:16Z</time>
      </trkpt>
      <trkpt lat="48.64152" lon="-0.46374">
        <ele>325.2</ele>
        <time>2012-09-23T09:08:20Z</time>
      </trkpt>
      <trkpt lat="48.64174" lon="-0.46359">
        <ele>328.1</ele>
        <time>2012-09-23T09:08:29Z</time>
      </trkpt>
      <trkpt lat="48.64188" lon="-0.46349">
        <ele>327.2</ele>
        <time>2012-09-23T09:08:34Z</time>
      </trkpt>
      <trkpt lat="48.64196" lon="-0.46342">
        <ele>327.4</ele>
        <time>2012-09-23T09:08:37Z</time>
      </trkpt>
      <trkpt lat="48.64213" lon="-0.46329">
        <ele>333.5</ele>
        <time>2012-09-23T09:08:42Z</time>
      </trkpt>
      <trkpt lat="48.64227" lon="-0.46316">
        <ele>332</ele>
        <time>2012-09-23T09:08:47Z</time>
      </trkpt>
      <trkpt lat="48.64241" lon="-0.46308">
        <ele>331.9</ele>
        <time>2012-09-23T09:08:52Z</time>
      </trkpt>
      <trkpt lat="48.64255" lon="-0.46296">
        <ele>328</ele>
        <time>2012-09-23T09:08:57Z</time>
      </trkpt>
      <trkpt lat="48.64263" lon="-0.4629">
        <ele>327.3</ele>
        <time>2012-09-23T09:09:00Z</time>
      </trkpt>
      <trkpt lat="48.64276" lon="-0.4628">
        <ele>326</ele>
        <time>2012-09-23T09:09:05Z</time>
      </trkpt>
      <trkpt lat="48.64296" lon="-0.46295">
        <ele>328.2</ele>
        <time>2012-09-23T09:09:15Z</time>
      </trkpt>
      <trkpt lat="48.64301" lon="-0.46298">
        <ele>328.7</ele>
        <time>2012-09-23T09:09:17Z</time>
      </trkpt>
      <trkpt lat="48.64308" lon="-0.463">
        <ele>329.7</ele>
        <time>2012-09-23T09:09:21Z</time>
      </trkpt>
      <trkpt lat="48.64313" lon="-0.46275">
        <ele>329.6</ele>
        <time>2012-09-23T09:09:26Z</time>
      </trkpt>
      <trkpt lat="48.64305" lon="-0.46258">
        <ele>324.1</ele>
        <time>2012-09-23T09:09:31Z</time>
      </trkpt>
      <trkpt lat="48.643" lon="-0.46251">
        <ele>321.8</ele>
        <time>2012-09-23T09:09:34Z</time>
      </trkpt>
      <trkpt lat="48.64294" lon="-0.46245">
        <ele>320.9</ele>
        <time>2012-09-23T09:09:37Z</time>
      </trkpt>
      <trkpt lat="48.64279" lon="-0.4624">
        <ele>320.2</ele>
        <time>2012-09-23T09:09:43Z</time>
      </trkpt>
      <trkpt lat="48.64271" lon="-0.46238">
        <ele>320.8</ele>
        <time>2012-09-23T09:09:46Z</time>
      </trkpt>
      <trkpt lat="48.64262" lon="-0.46233">
        <ele>320.8</ele>
        <time>2012-09-23T09:09:49Z</time>
      </trkpt>
      <trkpt lat="48.64248" lon="-0.46228">
        <ele>323.1</ele>
        <time>2012-09-23T09:09:55Z</time>
      </trkpt>
      <trkpt lat="48.64242" lon="-0.46222">
        <ele>323.9</ele>
        <time>2012-09-23T09:09:58Z</time>
      </trkpt>
      <trkpt lat="48.64237" lon="-0.46216">
        <ele>323.3</ele>
        <time>2012-09-23T09:10:01Z</time>
      </trkpt>
      <trkpt lat="48.64226" lon="-0.46208">
        <ele>322.1</ele>
        <time>2012-09-23T09:10:07Z</time>
      </trkpt>
      <trkpt lat="48.64218" lon="-0.46202">
        <ele>321.8</ele>
        <time>2012-09-23T09:10:11Z</time>
      </trkpt>
      <trkpt lat="48.64211" lon="-0.46198">
        <ele>322</ele>
        <time>2012-09-23T09:10:14Z</time>
      </trkpt>
      <trkpt lat="48.64202" lon="-0.46194">
        <ele>322.1</ele>
        <time>2012-09-23T09:10:17Z</time>
      </trkpt>
      <trkpt lat="48.64195" lon="-0.46188">
        <ele>321.8</ele>
        <time>2012-09-23T09:10:20Z</time>
      </trkpt>
      <trkpt lat="48.64195" lon="-0.46188">
        <ele>270.7</ele>
        <time>2012-09-23T09:10:31Z</time>
      </trkpt>
      <trkpt lat="48.64195" lon="-0.46188">
        <ele>270.7</ele>
        <time>2012-09-23T09:10:33Z</time>
      </trkpt>
      <trkpt lat="48.64195" lon="-0.46188">
        <ele>270.7</ele>
        <time>2012-09-23T09:10:44Z</time>
      </trkpt>
      <trkpt lat="48.64195" lon="-0.46188">
        <ele>270.7</ele>
        <time>2012-09-23T09:10:45Z</time>
      </trkpt>
      <trkpt lat="48.64136" lon="-0.46244">
        <ele>314.6</ele>
        <time>2012-09-23T09:10:50Z</time>
      </trkpt>
      <trkpt lat="48.6412" lon="-0.46258">
        <ele>311.7</ele>
        <time>2012-09-23T09:10:53Z</time>
      </trkpt>
      <trkpt lat="48.64099" lon="-0.46275">
        <ele>307.1</ele>
        <time>2012-09-23T09:10:57Z</time>
      </trkpt>
      <trkpt lat="48.64088" lon="-0.4628">
        <ele>307</ele>
        <time>2012-09-23T09:10:59Z</time>
      </trkpt>
      <trkpt lat="48.64071" lon="-0.46294">
        <ele>304.6</ele>
        <time>2012-09-23T09:11:03Z</time>
      </trkpt>
      <trkpt lat="48.64058" lon="-0.46309">
        <ele>300.9</ele>
        <time>2012-09-23T09:11:08Z</time>
      </trkpt>
      <trkpt lat="48.64044" lon="-0.46316">
        <ele>301.1</ele>
        <time>2012-09-23T09:11:16Z</time>
      </trkpt>
      <trkpt lat="48.64033" lon="-0.46313">
        <ele>298.4</ele>
        <time>2012-09-23T09:11:19Z</time>
      </trkpt>
      <trkpt lat="48.6401" lon="-0.46307">
        <ele>296.7</ele>
        <time>2012-09-23T09:11:27Z</time>
      </trkpt>
      <trkpt lat="48.63996" lon="-0.46293">
        <ele>296.2</ele>
        <time>2012-09-23T09:11:33Z</time>
      </trkpt>
      <trkpt lat="48.63983" lon="-0.46282">
        <ele>296</ele>
        <time>2012-09-23T09:11:37Z</time>
      </trkpt>
      <trkpt lat="48.63977" lon="-0.46274">
        <ele>292.5</ele>
        <time>2012-09-23T09:11:40Z</time>
      </trkpt>
      <trkpt lat="48.63966" lon="-0.46264">
        <ele>289.3</ele>
        <time>2012-09-23T09:11:43Z</time>
      </trkpt>
      <trkpt lat="48.63948" lon="-0.4624">
        <ele>285.7</ele>
        <time>2012-09-23T09:11:49Z</time>
      </trkpt>
      <trkpt lat="48.63939" lon="-0.46222">
        <ele>282.2</ele>
        <time>2012-09-23T09:11:53Z</time>
      </trkpt>
      <trkpt lat="48.63929" lon="-0.46201">
        <ele>280.3</ele>
        <time>2012-09-23T09:11:57Z</time>
      </trkpt>
      <trkpt lat="48.63928" lon="-0.4619">
        <ele>280.3</ele>
        <time>2012-09-23T09:11:59Z</time>
      </trkpt>
      <trkpt lat="48.63928" lon="-0.4619">
        <ele>231.3</ele>
        <time>2012-09-23T09:12:11Z</time>
      </trkpt>
      <trkpt lat="48.63928" lon="-0.4619">
        <ele>231.3</ele>
        <time>2012-09-23T09:12:12Z</time>
      </trkpt>
      <trkpt lat="48.63955" lon="-0.46159">
        <ele>280.9</ele>
        <time>2012-09-23T09:12:15Z</time>
      </trkpt>
      <trkpt lat="48.63961" lon="-0.46159">
        <ele>280.9</ele>
        <time>2012-09-23T09:12:18Z</time>
      </trkpt>
      <trkpt lat="48.63967" lon="-0.46152">
        <ele>281.5</ele>
        <time>2012-09-23T09:12:22Z</time>
      </trkpt>
      <trkpt lat="48.63967" lon="-0.46152">
        <ele>234.9</ele>
        <time>2012-09-23T09:12:33Z</time>
      </trkpt>
      <trkpt lat="48.63967" lon="-0.46152">
        <ele>234.9</ele>
        <time>2012-09-23T09:12:36Z</time>
      </trkpt>
      <trkpt lat="48.63997" lon="-0.46112">
        <ele>287.1</ele>
        <time>2012-09-23T09:12:46Z</time>
      </trkpt>
      <trkpt lat="48.64003" lon="-0.46107">
        <ele>289.2</ele>
        <time>2012-09-23T09:12:48Z</time>
      </trkpt>
      <trkpt lat="48.64009" lon="-0.46101">
        <ele>289.8</ele>
        <time>2012-09-23T09:12:52Z</time>
      </trkpt>
      <trkpt lat="48.64017" lon="-0.46096">
        <ele>291.9</ele>
        <time>2012-09-23T09:12:59Z</time>
      </trkpt>
      <trkpt lat="48.6402" lon="-0.46085">
        <ele>293.8</ele>
        <time>2012-09-23T09:13:04Z</time>
      </trkpt>
      <trkpt lat="48.64035" lon="-0.46057">
        <ele>297.9</ele>
        <time>2012-09-23T09:13:15Z</time>
      </trkpt>
      <trkpt lat="48.64038" lon="-0.46048">
        <ele>297.7</ele>
        <time>2012-09-23T09:13:26Z</time>
      </trkpt>
      <trkpt lat="48.64041" lon="-0.46039">
        <ele>297.5</ele>
        <time>2012-09-23T09:13:31Z</time>
      </trkpt>
      <trkpt lat="48.64045" lon="-0.4603">
        <ele>299.9</ele>
        <time>2012-09-23T09:13:36Z</time>
      </trkpt>
      <trkpt lat="48.6405" lon="-0.46024">
        <ele>304.6</ele>
        <time>2012-09-23T09:13:42Z</time>
      </trkpt>
      <trkpt lat="48.6405" lon="-0.46024">
        <ele>251.2</ele>
        <time>2012-09-23T09:13:53Z</time>
      </trkpt>
      <trkpt lat="48.6405" lon="-0.46024">
        <ele>251.2</ele>
        <time>2012-09-23T09:14:28Z</time>
      </trkpt>
      <trkpt lat="48.6405" lon="-0.46024">
        <ele>251.2</ele>
        <time>2012-09-23T09:14:40Z</time>
      </trkpt>
      <trkpt lat="48.6405" lon="-0.46024">
        <ele>251.2</ele>
        <time>2012-09-23T09:15:02Z</time>
      </trkpt>
      <trkpt lat="48.64086" lon="-0.45968">
        <ele>306.3</ele>
        <time>2012-09-23T09:15:07Z</time>
      </trkpt>
      <trkpt lat="48.64092" lon="-0.45946">
        <ele>302.7</ele>
        <time>2012-09-23T09:15:14Z</time>
      </trkpt>
      <trkpt lat="48.64099" lon="-0.4594">
        <ele>303.4</ele>
        <time>2012-09-23T09:15:17Z</time>
      </trkpt>
      <trkpt lat="48.64103" lon="-0.45932">
        <ele>303</ele>
        <time>2012-09-23T09:15:20Z</time>
      </trkpt>
      <trkpt lat="48.64106" lon="-0.45909">
        <ele>306.5</ele>
        <time>2012-09-23T09:15:26Z</time>
      </trkpt>
      <trkpt lat="48.64105" lon="-0.45899">
        <ele>307.1</ele>
        <time>2012-09-23T09:15:31Z</time>
      </trkpt>
      <trkpt lat="48.64105" lon="-0.45899">
        <ele>265.1</ele>
        <time>2012-09-23T09:15:42Z</time>
      </trkpt>
      <trkpt lat="48.64105" lon="-0.45899">
        <ele>265.1</ele>
        <time>2012-09-23T09:15:43Z</time>
      </trkpt>
      <trkpt lat="48.64104" lon="-0.45858">
        <ele>311.6</ele>
        <time>2012-09-23T09:15:52Z</time>
      </trkpt>
      <trkpt lat="48.64108" lon="-0.45839">
        <ele>316.6</ele>
        <time>2012-09-23T09:15:59Z</time>
      </trkpt>
      <trkpt lat="48.64111" lon="-0.4583">
        <ele>315.3</ele>
        <time>2012-09-23T09:16:02Z</time>
      </trkpt>
      <trkpt lat="48.64112" lon="-0.45818">
        <ele>317.3</ele>
        <time>2012-09-23T09:16:06Z</time>
      </trkpt>
      <trkpt lat="48.6411" lon="-0.45809">
        <ele>316.2</ele>
        <time>2012-09-23T09:16:10Z</time>
      </trkpt>
      <trkpt lat="48.64112" lon="-0.45796">
        <ele>316.6</ele>
        <time>2012-09-23T09:16:16Z</time>
      </trkpt>
      <trkpt lat="48.64114" lon="-0.45787">
        <ele>319.7</ele>
        <time>2012-09-23T09:16:19Z</time>
      </trkpt>
      <trkpt lat="48.64114" lon="-0.45774">
        <ele>324.1</ele>
        <time>2012-09-23T09:16:24Z</time>
      </trkpt>
      <trkpt lat="48.64115" lon="-0.45752">
        <ele>327.4</ele>
        <time>2012-09-23T09:16:33Z</time>
      </trkpt>
      <trkpt lat="48.64115" lon="-0.45742">
        <ele>328.3</ele>
        <time>2012-09-23T09:16:38Z</time>
      </trkpt>
      <trkpt lat="48.6412" lon="-0.45722">
        <ele>327.4</ele>
        <time>2012-09-23T09:16:44Z</time>
      </trkpt>
      <trkpt lat="48.64122" lon="-0.4571">
        <ele>325.9</ele>
        <time>2012-09-23T09:16:47Z</time>
      </trkpt>
      <trkpt lat="48.64124" lon="-0.457">
        <ele>326.2</ele>
        <time>2012-09-23T09:16:51Z</time>
      </trkpt>
      <trkpt lat="48.64129" lon="-0.45683">
        <ele>328.1</ele>
        <time>2012-09-23T09:16:58Z</time>
      </trkpt>
      <trkpt lat="48.64129" lon="-0.45683">
        <ele>276.9</ele>
        <time>2012-09-23T09:17:09Z</time>
      </trkpt>
      <trkpt lat="48.64129" lon="-0.45683">
        <ele>276.9</ele>
        <time>2012-09-23T09:17:10Z</time>
      </trkpt>
      <trkpt lat="48.64131" lon="-0.45646">
        <ele>330.5</ele>
        <time>2012-09-23T09:17:13Z</time>
      </trkpt>
      <trkpt lat="48.64133" lon="-0.45636">
        <ele>330.9</ele>
        <time>2012-09-23T09:17:16Z</time>
      </trkpt>
      <trkpt lat="48.64125" lon="-0.45623">
        <ele>329.9</ele>
        <time>2012-09-23T09:17:24Z</time>
      </trkpt>
      <trkpt lat="48.6411" lon="-0.45619">
        <ele>331.6</ele>
        <time>2012-09-23T09:17:33Z</time>
      </trkpt>
      <trkpt lat="48.64094" lon="-0.4562">
        <ele>331.6</ele>
        <time>2012-09-23T09:17:40Z</time>
      </trkpt>
      <trkpt lat="48.64085" lon="-0.45619">
        <ele>333.3</ele>
        <time>2012-09-23T09:17:44Z</time>
      </trkpt>
      <trkpt lat="48.64079" lon="-0.45619">
        <ele>333.7</ele>
        <time>2012-09-23T09:17:48Z</time>
      </trkpt>
      <trkpt lat="48.64072" lon="-0.45619">
        <ele>334.3</ele>
        <time>2012-09-23T09:17:52Z</time>
      </trkpt>
      <trkpt lat="48.64065" lon="-0.4562">
        <ele>334.6</ele>
        <time>2012-09-23T09:17:56Z</time>
      </trkpt>
      <trkpt lat="48.64057" lon="-0.45619">
        <ele>335.9</ele>
        <time>2012-09-23T09:18:00Z</time>
      </trkpt>
      <trkpt lat="48.64049" lon="-0.45618">
        <ele>336</ele>
        <time>2012-09-23T09:18:05Z</time>
      </trkpt>
      <trkpt lat="48.64042" lon="-0.45616">
        <ele>336.6</ele>
        <time>2012-09-23T09:18:09Z</time>
      </trkpt>
      <trkpt lat="48.64033" lon="-0.45616">
        <ele>336.4</ele>
        <time>2012-09-23T09:18:13Z</time>
      </trkpt>
      <trkpt lat="48.64026" lon="-0.45615">
        <ele>336.8</ele>
        <time>2012-09-23T09:18:16Z</time>
      </trkpt>
      <trkpt lat="48.6402" lon="-0.45616">
        <ele>337.4</ele>
        <time>2012-09-23T09:18:19Z</time>
      </trkpt>
      <trkpt lat="48.64013" lon="-0.45616">
        <ele>336.4</ele>
        <time>2012-09-23T09:18:23Z</time>
      </trkpt>
      <trkpt lat="48.64006" lon="-0.45619">
        <ele>337.3</ele>
        <time>2012-09-23T09:18:26Z</time>
      </trkpt>
      <trkpt lat="48.6399" lon="-0.45615">
        <ele>340.3</ele>
        <time>2012-09-23T09:18:33Z</time>
      </trkpt>
      <trkpt lat="48.63983" lon="-0.45613">
        <ele>339.8</ele>
        <time>2012-09-23T09:18:36Z</time>
      </trkpt>
      <trkpt lat="48.63968" lon="-0.45608">
        <ele>338.4</ele>
        <time>2012-09-23T09:18:41Z</time>
      </trkpt>
      <trkpt lat="48.63959" lon="-0.45603">
        <ele>338.4</ele>
        <time>2012-09-23T09:18:44Z</time>
      </trkpt>
      <trkpt lat="48.63946" lon="-0.45599">
        <ele>337.1</ele>
        <time>2012-09-23T09:18:48Z</time>
      </trkpt>
      <trkpt lat="48.63931" lon="-0.45588">
        <ele>337.3</ele>
        <time>2012-09-23T09:18:52Z</time>
      </trkpt>
      <trkpt lat="48.63924" lon="-0.45583">
        <ele>336.5</ele>
        <time>2012-09-23T09:18:55Z</time>
      </trkpt>
      <trkpt lat="48.6391" lon="-0.45572">
        <ele>336.6</ele>
        <time>2012-09-23T09:19:00Z</time>
      </trkpt>
      <trkpt lat="48.63896" lon="-0.45558">
        <ele>336.3</ele>
        <time>2012-09-23T09:19:04Z</time>
      </trkpt>
      <trkpt lat="48.63879" lon="-0.45548">
        <ele>336.4</ele>
        <time>2012-09-23T09:19:08Z</time>
      </trkpt>
      <trkpt lat="48.63861" lon="-0.45535">
        <ele>335.5</ele>
        <time>2012-09-23T09:19:12Z</time>
      </trkpt>
      <trkpt lat="48.63844" lon="-0.45521">
        <ele>334.1</ele>
        <time>2012-09-23T09:19:16Z</time>
      </trkpt>
      <trkpt lat="48.63827" lon="-0.45504">
        <ele>334</ele>
        <time>2012-09-23T09:19:20Z</time>
      </trkpt>
      <trkpt lat="48.63818" lon="-0.45496">
        <ele>334.2</ele>
        <time>2012-09-23T09:19:22Z</time>
      </trkpt>
      <trkpt lat="48.6378" lon="-0.45462">
        <ele>332.8</ele>
        <time>2012-09-23T09:19:29Z</time>
      </trkpt>
      <trkpt lat="48.63769" lon="-0.45449">
        <ele>334.3</ele>
        <time>2012-09-23T09:19:31Z</time>
      </trkpt>
      <trkpt lat="48.63726" lon="-0.45407">
        <ele>334.3</ele>
        <time>2012-09-23T09:19:37Z</time>
      </trkpt>
      <trkpt lat="48.63691" lon="-0.4538">
        <ele>329</ele>
        <time>2012-09-23T09:19:41Z</time>
      </trkpt>
      <trkpt lat="48.6367" lon="-0.45364">
        <ele>323.8</ele>
        <time>2012-09-23T09:19:44Z</time>
      </trkpt>
      <trkpt lat="48.63656" lon="-0.45352">
        <ele>321.3</ele>
        <time>2012-09-23T09:19:46Z</time>
      </trkpt>
      <trkpt lat="48.63617" lon="-0.45314">
        <ele>317.3</ele>
        <time>2012-09-23T09:19:52Z</time>
      </trkpt>
      <trkpt lat="48.63593" lon="-0.45299">
        <ele>315.5</ele>
        <time>2012-09-23T09:19:56Z</time>
      </trkpt>
      <trkpt lat="48.63569" lon="-0.45277">
        <ele>308.4</ele>
        <time>2012-09-23T09:20:01Z</time>
      </trkpt>
      <trkpt lat="48.63554" lon="-0.45266">
        <ele>304.2</ele>
        <time>2012-09-23T09:20:05Z</time>
      </trkpt>
      <trkpt lat="48.63551" lon="-0.45255">
        <ele>303</ele>
        <time>2012-09-23T09:20:07Z</time>
      </trkpt>
      <trkpt lat="48.63562" lon="-0.45235">
        <ele>300.7</ele>
        <time>2012-09-23T09:20:13Z</time>
      </trkpt>
      <trkpt lat="48.63567" lon="-0.45227">
        <ele>300.9</ele>
        <time>2012-09-23T09:20:16Z</time>
      </trkpt>
      <trkpt lat="48.63573" lon="-0.45218">
        <ele>299.4</ele>
        <time>2012-09-23T09:20:19Z</time>
      </trkpt>
      <trkpt lat="48.63583" lon="-0.452">
        <ele>297.4</ele>
        <time>2012-09-23T09:20:25Z</time>
      </trkpt>
      <trkpt lat="48.63588" lon="-0.4519">
        <ele>297.2</ele>
        <time>2012-09-23T09:20:27Z</time>
      </trkpt>
      <trkpt lat="48.63618" lon="-0.45141">
        <ele>297.7</ele>
        <time>2012-09-23T09:20:35Z</time>
      </trkpt>
      <trkpt lat="48.63657" lon="-0.45122">
        <ele>295.2</ele>
        <time>2012-09-23T09:20:41Z</time>
      </trkpt>
      <trkpt lat="48.63666" lon="-0.45115">
        <ele>294.5</ele>
        <time>2012-09-23T09:20:43Z</time>
      </trkpt>
      <trkpt lat="48.63682" lon="-0.45103">
        <ele>294.7</ele>
        <time>2012-09-23T09:20:46Z</time>
      </trkpt>
      <trkpt lat="48.63698" lon="-0.45075">
        <ele>294.3</ele>
        <time>2012-09-23T09:20:52Z</time>
      </trkpt>
      <trkpt lat="48.63705" lon="-0.45069">
        <ele>294.1</ele>
        <time>2012-09-23T09:20:55Z</time>
      </trkpt>
      <trkpt lat="48.63711" lon="-0.45064">
        <ele>294.3</ele>
        <time>2012-09-23T09:20:58Z</time>
      </trkpt>
      <trkpt lat="48.63724" lon="-0.45041">
        <ele>294.1</ele>
        <time>2012-09-23T09:21:05Z</time>
      </trkpt>
      <trkpt lat="48.63731" lon="-0.45032">
        <ele>295.7</ele>
        <time>2012-09-23T09:21:08Z</time>
      </trkpt>
      <trkpt lat="48.63736" lon="-0.45011">
        <ele>293.5</ele>
        <time>2012-09-23T09:21:12Z</time>
      </trkpt>
      <trkpt lat="48.6374" lon="-0.45002">
        <ele>287.7</ele>
        <time>2012-09-23T09:21:15Z</time>
      </trkpt>
      <trkpt lat="48.63749" lon="-0.44987">
        <ele>290.8</ele>
        <time>2012-09-23T09:21:20Z</time>
      </trkpt>
      <trkpt lat="48.63756" lon="-0.44981">
        <ele>293</ele>
        <time>2012-09-23T09:21:23Z</time>
      </trkpt>
      <trkpt lat="48.6377" lon="-0.44971">
        <ele>292.9</ele>
        <time>2012-09-23T09:21:29Z</time>
      </trkpt>
      <trkpt lat="48.63779" lon="-0.44968">
        <ele>293.2</ele>
        <time>2012-09-23T09:21:32Z</time>
      </trkpt>
      <trkpt lat="48.63787" lon="-0.44966">
        <ele>291.8</ele>
        <time>2012-09-23T09:21:35Z</time>
      </trkpt>
      <trkpt lat="48.63795" lon="-0.44962">
        <ele>290.9</ele>
        <time>2012-09-23T09:21:38Z</time>
      </trkpt>
      <trkpt lat="48.63811" lon="-0.44957">
        <ele>298.7</ele>
        <time>2012-09-23T09:21:45Z</time>
      </trkpt>
      <trkpt lat="48.63817" lon="-0.44952">
        <ele>301.6</ele>
        <time>2012-09-23T09:21:48Z</time>
      </trkpt>
      <trkpt lat="48.63823" lon="-0.44947">
        <ele>304</ele>
        <time>2012-09-23T09:21:51Z</time>
      </trkpt>
      <trkpt lat="48.63828" lon="-0.44941">
        <ele>306.3</ele>
        <time>2012-09-23T09:21:54Z</time>
      </trkpt>
      <trkpt lat="48.63835" lon="-0.44936">
        <ele>308.5</ele>
        <time>2012-09-23T09:21:58Z</time>
      </trkpt>
      <trkpt lat="48.63843" lon="-0.4492">
        <ele>309.8</ele>
        <time>2012-09-23T09:22:05Z</time>
      </trkpt>
      <trkpt lat="48.6384" lon="-0.4491">
        <ele>306.4</ele>
        <time>2012-09-23T09:22:08Z</time>
      </trkpt>
      <trkpt lat="48.63829" lon="-0.44891">
        <ele>303.2</ele>
        <time>2012-09-23T09:22:12Z</time>
      </trkpt>
      <trkpt lat="48.63821" lon="-0.4488">
        <ele>302.5</ele>
        <time>2012-09-23T09:22:14Z</time>
      </trkpt>
      <trkpt lat="48.63792" lon="-0.44842">
        <ele>299.7</ele>
        <time>2012-09-23T09:22:21Z</time>
      </trkpt>
      <trkpt lat="48.63779" lon="-0.44822">
        <ele>300</ele>
        <time>2012-09-23T09:22:25Z</time>
      </trkpt>
      <trkpt lat="48.63753" lon="-0.44803">
        <ele>295.2</ele>
        <time>2012-09-23T09:22:29Z</time>
      </trkpt>
      <trkpt lat="48.63742" lon="-0.44791">
        <ele>295.7</ele>
        <time>2012-09-23T09:22:32Z</time>
      </trkpt>
      <trkpt lat="48.63737" lon="-0.44783">
        <ele>296.5</ele>
        <time>2012-09-23T09:22:35Z</time>
      </trkpt>
      <trkpt lat="48.63718" lon="-0.44758">
        <ele>293.5</ele>
        <time>2012-09-23T09:22:41Z</time>
      </trkpt>
      <trkpt lat="48.63712" lon="-0.4474">
        <ele>292.5</ele>
        <time>2012-09-23T09:22:45Z</time>
      </trkpt>
      <trkpt lat="48.63703" lon="-0.44725">
        <ele>292.3</ele>
        <time>2012-09-23T09:22:49Z</time>
      </trkpt>
      <trkpt lat="48.63694" lon="-0.44709">
        <ele>291.9</ele>
        <time>2012-09-23T09:22:53Z</time>
      </trkpt>
      <trkpt lat="48.63686" lon="-0.44702">
        <ele>301.6</ele>
        <time>2012-09-23T09:22:56Z</time>
      </trkpt>
      <trkpt lat="48.63664" lon="-0.44707">
        <ele>304.7</ele>
        <time>2012-09-23T09:23:01Z</time>
      </trkpt>
      <trkpt lat="48.63648" lon="-0.44715">
        <ele>305.9</ele>
        <time>2012-09-23T09:23:05Z</time>
      </trkpt>
      <trkpt lat="48.6364" lon="-0.44686">
        <ele>298.9</ele>
        <time>2012-09-23T09:23:17Z</time>
      </trkpt>
      <trkpt lat="48.63639" lon="-0.44676">
        <ele>297.1</ele>
        <time>2012-09-23T09:23:20Z</time>
      </trkpt>
      <trkpt lat="48.63638" lon="-0.44629">
        <ele>293.2</ele>
        <time>2012-09-23T09:23:25Z</time>
      </trkpt>
      <trkpt lat="48.63622" lon="-0.44603">
        <ele>281.5</ele>
        <time>2012-09-23T09:23:29Z</time>
      </trkpt>
      <trkpt lat="48.63616" lon="-0.44595">
        <ele>280.8</ele>
        <time>2012-09-23T09:23:31Z</time>
      </trkpt>
      <trkpt lat="48.6361" lon="-0.44588">
        <ele>280.1</ele>
        <time>2012-09-23T09:23:34Z</time>
      </trkpt>
      <trkpt lat="48.63599" lon="-0.44581">
        <ele>280.4</ele>
        <time>2012-09-23T09:23:43Z</time>
      </trkpt>
      <trkpt lat="48.63583" lon="-0.44569">
        <ele>281.2</ele>
        <time>2012-09-23T09:23:50Z</time>
      </trkpt>
      <trkpt lat="48.63572" lon="-0.44553">
        <ele>284.7</ele>
        <time>2012-09-23T09:23:57Z</time>
      </trkpt>
      <trkpt lat="48.63564" lon="-0.44548">
        <ele>285.5</ele>
        <time>2012-09-23T09:24:00Z</time>
      </trkpt>
      <trkpt lat="48.63557" lon="-0.44549">
        <ele>282.4</ele>
        <time>2012-09-23T09:24:02Z</time>
      </trkpt>
      <trkpt lat="48.63553" lon="-0.44542">
        <ele>281</ele>
        <time>2012-09-23T09:24:06Z</time>
      </trkpt>
      <trkpt lat="48.63542" lon="-0.44524">
        <ele>282.4</ele>
        <time>2012-09-23T09:24:13Z</time>
      </trkpt>
      <trkpt lat="48.63534" lon="-0.44518">
        <ele>281.9</ele>
        <time>2012-09-23T09:24:17Z</time>
      </trkpt>
      <trkpt lat="48.63527" lon="-0.44511">
        <ele>281.8</ele>
        <time>2012-09-23T09:24:20Z</time>
      </trkpt>
      <trkpt lat="48.63514" lon="-0.445">
        <ele>284.6</ele>
        <time>2012-09-23T09:24:25Z</time>
      </trkpt>
      <trkpt lat="48.63501" lon="-0.44487">
        <ele>284.7</ele>
        <time>2012-09-23T09:24:30Z</time>
      </trkpt>
      <trkpt lat="48.63488" lon="-0.4448">
        <ele>285</ele>
        <time>2012-09-23T09:24:35Z</time>
      </trkpt>
      <trkpt lat="48.63473" lon="-0.44471">
        <ele>286.6</ele>
        <time>2012-09-23T09:24:40Z</time>
      </trkpt>
      <trkpt lat="48.6346" lon="-0.44465">
        <ele>285.9</ele>
        <time>2012-09-23T09:24:44Z</time>
      </trkpt>
      <trkpt lat="48.63455" lon="-0.4446">
        <ele>285.4</ele>
        <time>2012-09-23T09:24:46Z</time>
      </trkpt>
      <trkpt lat="48.63435" lon="-0.44442">
        <ele>286.3</ele>
        <time>2012-09-23T09:24:52Z</time>
      </trkpt>
      <trkpt lat="48.63407" lon="-0.44428">
        <ele>291.8</ele>
        <time>2012-09-23T09:25:01Z</time>
      </trkpt>
      <trkpt lat="48.634" lon="-0.44428">
        <ele>292.7</ele>
        <time>2012-09-23T09:25:03Z</time>
      </trkpt>
      <trkpt lat="48.63373" lon="-0.44418">
        <ele>289.8</ele>
        <time>2012-09-23T09:25:09Z</time>
      </trkpt>
      <trkpt lat="48.63347" lon="-0.44382">
        <ele>289</ele>
        <time>2012-09-23T09:25:16Z</time>
      </trkpt>
      <trkpt lat="48.63337" lon="-0.44367">
        <ele>289.7</ele>
        <time>2012-09-23T09:25:20Z</time>
      </trkpt>
      <trkpt lat="48.63334" lon="-0.44356">
        <ele>286.8</ele>
        <time>2012-09-23T09:25:23Z</time>
      </trkpt>
      <trkpt lat="48.63342" lon="-0.44351">
        <ele>286.2</ele>
        <time>2012-09-23T09:25:27Z</time>
      </trkpt>
      <trkpt lat="48.63349" lon="-0.44348">
        <ele>285.5</ele>
        <time>2012-09-23T09:25:31Z</time>
      </trkpt>
      <trkpt lat="48.63364" lon="-0.44338">
        <ele>284.6</ele>
        <time>2012-09-23T09:25:37Z</time>
      </trkpt>
      <trkpt lat="48.63385" lon="-0.44322">
        <ele>284.1</ele>
        <time>2012-09-23T09:25:47Z</time>
      </trkpt>
      <trkpt lat="48.63391" lon="-0.44314">
        <ele>286.3</ele>
        <time>2012-09-23T09:25:50Z</time>
      </trkpt>
      <trkpt lat="48.63402" lon="-0.443">
        <ele>287.8</ele>
        <time>2012-09-23T09:25:56Z</time>
      </trkpt>
      <trkpt lat="48.63413" lon="-0.44291">
        <ele>289.5</ele>
        <time>2012-09-23T09:26:00Z</time>
      </trkpt>
      <trkpt lat="48.63425" lon="-0.44276">
        <ele>291.7</ele>
        <time>2012-09-23T09:26:05Z</time>
      </trkpt>
      <trkpt lat="48.63432" lon="-0.44268">
        <ele>290.8</ele>
        <time>2012-09-23T09:26:08Z</time>
      </trkpt>
      <trkpt lat="48.6344" lon="-0.44262">
        <ele>290.1</ele>
        <time>2012-09-23T09:26:11Z</time>
      </trkpt>
      <trkpt lat="48.63452" lon="-0.44247">
        <ele>290.2</ele>
        <time>2012-09-23T09:26:16Z</time>
      </trkpt>
      <trkpt lat="48.63464" lon="-0.44234">
        <ele>291.8</ele>
        <time>2012-09-23T09:26:21Z</time>
      </trkpt>
      <trkpt lat="48.63471" lon="-0.44224">
        <ele>291</ele>
        <time>2012-09-23T09:26:24Z</time>
      </trkpt>
      <trkpt lat="48.63477" lon="-0.44213">
        <ele>292.1</ele>
        <time>2012-09-23T09:26:27Z</time>
      </trkpt>
      <trkpt lat="48.63487" lon="-0.44194">
        <ele>290.7</ele>
        <time>2012-09-23T09:26:33Z</time>
      </trkpt>
      <trkpt lat="48.63494" lon="-0.44185">
        <ele>290.5</ele>
        <time>2012-09-23T09:26:36Z</time>
      </trkpt>
      <trkpt lat="48.635" lon="-0.44176">
        <ele>290.5</ele>
        <time>2012-09-23T09:26:39Z</time>
      </trkpt>
      <trkpt lat="48.63509" lon="-0.44158">
        <ele>289</ele>
        <time>2012-09-23T09:26:44Z</time>
      </trkpt>
      <trkpt lat="48.63519" lon="-0.44139">
        <ele>288.6</ele>
        <time>2012-09-23T09:26:49Z</time>
      </trkpt>
      <trkpt lat="48.63523" lon="-0.44127">
        <ele>288.9</ele>
        <time>2012-09-23T09:26:52Z</time>
      </trkpt>
      <trkpt lat="48.63525" lon="-0.44105">
        <ele>290.4</ele>
        <time>2012-09-23T09:26:57Z</time>
      </trkpt>
      <trkpt lat="48.63524" lon="-0.44092">
        <ele>291.6</ele>
        <time>2012-09-23T09:27:00Z</time>
      </trkpt>
      <trkpt lat="48.63523" lon="-0.44081">
        <ele>292.4</ele>
        <time>2012-09-23T09:27:03Z</time>
      </trkpt>
      <trkpt lat="48.6352" lon="-0.44058">
        <ele>292.4</ele>
        <time>2012-09-23T09:27:08Z</time>
      </trkpt>
      <trkpt lat="48.63517" lon="-0.44038">
        <ele>292.8</ele>
        <time>2012-09-23T09:27:12Z</time>
      </trkpt>
      <trkpt lat="48.63513" lon="-0.44016">
        <ele>295.1</ele>
        <time>2012-09-23T09:27:17Z</time>
      </trkpt>
      <trkpt lat="48.63513" lon="-0.44001">
        <ele>293.6</ele>
        <time>2012-09-23T09:27:20Z</time>
      </trkpt>
      <trkpt lat="48.63511" lon="-0.4398">
        <ele>293.5</ele>
        <time>2012-09-23T09:27:24Z</time>
      </trkpt>
      <trkpt lat="48.63509" lon="-0.43955">
        <ele>292.2</ele>
        <time>2012-09-23T09:27:28Z</time>
      </trkpt>
      <trkpt lat="48.63515" lon="-0.43929">
        <ele>292.6</ele>
        <time>2012-09-23T09:27:32Z</time>
      </trkpt>
      <trkpt lat="48.63529" lon="-0.43914">
        <ele>291.5</ele>
        <time>2012-09-23T09:27:36Z</time>
      </trkpt>
      <trkpt lat="48.63542" lon="-0.43904">
        <ele>292.3</ele>
        <time>2012-09-23T09:27:40Z</time>
      </trkpt>
      <trkpt lat="48.63548" lon="-0.43886">
        <ele>293.1</ele>
        <time>2012-09-23T09:27:44Z</time>
      </trkpt>
      <trkpt lat="48.6353" lon="-0.43844">
        <ele>290.8</ele>
        <time>2012-09-23T09:27:49Z</time>
      </trkpt>
      <trkpt lat="48.63528" lon="-0.43816">
        <ele>291.2</ele>
        <time>2012-09-23T09:27:53Z</time>
      </trkpt>
      <trkpt lat="48.63528" lon="-0.43816">
        <ele>240.7</ele>
        <time>2012-09-23T09:28:04Z</time>
      </trkpt>
      <trkpt lat="48.63528" lon="-0.43816">
        <ele>240.7</ele>
        <time>2012-09-23T09:28:09Z</time>
      </trkpt>
      <trkpt lat="48.63522" lon="-0.43816">
        <ele>286.4</ele>
        <time>2012-09-23T09:28:13Z</time>
      </trkpt>
      <trkpt lat="48.63527" lon="-0.43795">
        <ele>283.8</ele>
        <time>2012-09-23T09:28:18Z</time>
      </trkpt>
      <trkpt lat="48.63529" lon="-0.4378">
        <ele>282.6</ele>
        <time>2012-09-23T09:28:20Z</time>
      </trkpt>
      <trkpt lat="48.63528" lon="-0.43736">
        <ele>282.3</ele>
        <time>2012-09-23T09:28:26Z</time>
      </trkpt>
      <trkpt lat="48.63529" lon="-0.43723">
        <ele>282.7</ele>
        <time>2012-09-23T09:28:28Z</time>
      </trkpt>
      <trkpt lat="48.63528" lon="-0.43711">
        <ele>286.5</ele>
        <time>2012-09-23T09:28:32Z</time>
      </trkpt>
      <trkpt lat="48.63524" lon="-0.43701">
        <ele>289.5</ele>
        <time>2012-09-23T09:28:35Z</time>
      </trkpt>
      <trkpt lat="48.63521" lon="-0.4369">
        <ele>290.6</ele>
        <time>2012-09-23T09:28:39Z</time>
      </trkpt>
      <trkpt lat="48.63518" lon="-0.43681">
        <ele>291.6</ele>
        <time>2012-09-23T09:28:43Z</time>
      </trkpt>
      <trkpt lat="48.63507" lon="-0.43667">
        <ele>289.5</ele>
        <time>2012-09-23T09:28:50Z</time>
      </trkpt>
      <trkpt lat="48.63499" lon="-0.43668">
        <ele>289.7</ele>
        <time>2012-09-23T09:28:53Z</time>
      </trkpt>
      <trkpt lat="48.63491" lon="-0.43673">
        <ele>288.3</ele>
        <time>2012-09-23T09:28:56Z</time>
      </trkpt>
      <trkpt lat="48.63482" lon="-0.43672">
        <ele>288</ele>
        <time>2012-09-23T09:28:59Z</time>
      </trkpt>
      <trkpt lat="48.63458" lon="-0.43662">
        <ele>288.9</ele>
        <time>2012-09-23T09:29:05Z</time>
      </trkpt>
      <trkpt lat="48.63443" lon="-0.43655">
        <ele>289.1</ele>
        <time>2012-09-23T09:29:09Z</time>
      </trkpt>
      <trkpt lat="48.63435" lon="-0.4365">
        <ele>290.1</ele>
        <time>2012-09-23T09:29:11Z</time>
      </trkpt>
      <trkpt lat="48.6341" lon="-0.43633">
        <ele>292.1</ele>
        <time>2012-09-23T09:29:17Z</time>
      </trkpt>
      <trkpt lat="48.63395" lon="-0.43625">
        <ele>292.1</ele>
        <time>2012-09-23T09:29:21Z</time>
      </trkpt>
      <trkpt lat="48.63374" lon="-0.43614">
        <ele>290.1</ele>
        <time>2012-09-23T09:29:25Z</time>
      </trkpt>
      <trkpt lat="48.63353" lon="-0.43602">
        <ele>289</ele>
        <time>2012-09-23T09:29:29Z</time>
      </trkpt>
      <trkpt lat="48.63311" lon="-0.43585">
        <ele>289.3</ele>
        <time>2012-09-23T09:29:37Z</time>
      </trkpt>
      <trkpt lat="48.6329" lon="-0.43574">
        <ele>290.4</ele>
        <time>2012-09-23T09:29:41Z</time>
      </trkpt>
      <trkpt lat="48.63265" lon="-0.4356">
        <ele>289.5</ele>
        <time>2012-09-23T09:29:46Z</time>
      </trkpt>
      <trkpt lat="48.63245" lon="-0.43548">
        <ele>290.7</ele>
        <time>2012-09-23T09:29:50Z</time>
      </trkpt>
      <trkpt lat="48.63205" lon="-0.43525">
        <ele>293.7</ele>
        <time>2012-09-23T09:29:58Z</time>
      </trkpt>
      <trkpt lat="48.63194" lon="-0.43521">
        <ele>294.9</ele>
        <time>2012-09-23T09:30:00Z</time>
      </trkpt>
      <trkpt lat="48.63178" lon="-0.43522">
        <ele>295.9</ele>
        <time>2012-09-23T09:30:05Z</time>
      </trkpt>
      <trkpt lat="48.63164" lon="-0.43519">
        <ele>298</ele>
        <time>2012-09-23T09:30:10Z</time>
      </trkpt>
      <trkpt lat="48.63157" lon="-0.43516">
        <ele>301.1</ele>
        <time>2012-09-23T09:30:13Z</time>
      </trkpt>
      <trkpt lat="48.63149" lon="-0.43515">
        <ele>302.1</ele>
        <time>2012-09-23T09:30:17Z</time>
      </trkpt>
      <trkpt lat="48.63142" lon="-0.43516">
        <ele>302.5</ele>
        <time>2012-09-23T09:30:20Z</time>
      </trkpt>
      <trkpt lat="48.63135" lon="-0.43517">
        <ele>303.3</ele>
        <time>2012-09-23T09:30:23Z</time>
      </trkpt>
      <trkpt lat="48.63118" lon="-0.43519">
        <ele>305.4</ele>
        <time>2012-09-23T09:30:30Z</time>
      </trkpt>
      <trkpt lat="48.63095" lon="-0.4352">
        <ele>307.7</ele>
        <time>2012-09-23T09:30:38Z</time>
      </trkpt>
      <trkpt lat="48.63061" lon="-0.43518">
        <ele>306.7</ele>
        <time>2012-09-23T09:30:50Z</time>
      </trkpt>
      <trkpt lat="48.63054" lon="-0.4352">
        <ele>309.6</ele>
        <time>2012-09-23T09:30:53Z</time>
      </trkpt>
      <trkpt lat="48.63046" lon="-0.43521">
        <ele>309.1</ele>
        <time>2012-09-23T09:30:57Z</time>
      </trkpt>
      <trkpt lat="48.63038" lon="-0.43522">
        <ele>308.6</ele>
        <time>2012-09-23T09:31:00Z</time>
      </trkpt>
      <trkpt lat="48.63035" lon="-0.43486">
        <ele>307.2</ele>
        <time>2012-09-23T09:31:11Z</time>
      </trkpt>
      <trkpt lat="48.63034" lon="-0.43462">
        <ele>306.6</ele>
        <time>2012-09-23T09:31:16Z</time>
      </trkpt>
      <trkpt lat="48.63032" lon="-0.43451">
        <ele>307.1</ele>
        <time>2012-09-23T09:31:20Z</time>
      </trkpt>
      <trkpt lat="48.63029" lon="-0.43427">
        <ele>308.8</ele>
        <time>2012-09-23T09:31:25Z</time>
      </trkpt>
      <trkpt lat="48.63026" lon="-0.43418">
        <ele>311.1</ele>
        <time>2012-09-23T09:31:27Z</time>
      </trkpt>
      <trkpt lat="48.63023" lon="-0.43398">
        <ele>314.1</ele>
        <time>2012-09-23T09:31:32Z</time>
      </trkpt>
      <trkpt lat="48.63018" lon="-0.43363">
        <ele>312.7</ele>
        <time>2012-09-23T09:31:40Z</time>
      </trkpt>
      <trkpt lat="48.63003" lon="-0.43332">
        <ele>311.5</ele>
        <time>2012-09-23T09:31:46Z</time>
      </trkpt>
      <trkpt lat="48.62999" lon="-0.43322">
        <ele>307.4</ele>
        <time>2012-09-23T09:31:49Z</time>
      </trkpt>
      <trkpt lat="48.62993" lon="-0.43304">
        <ele>310.2</ele>
        <time>2012-09-23T09:31:54Z</time>
      </trkpt>
      <trkpt lat="48.6299" lon="-0.43292">
        <ele>307.2</ele>
        <time>2012-09-23T09:31:57Z</time>
      </trkpt>
      <trkpt lat="48.62984" lon="-0.43268">
        <ele>301.4</ele>
        <time>2012-09-23T09:32:03Z</time>
      </trkpt>
      <trkpt lat="48.62979" lon="-0.43248">
        <ele>299.8</ele>
        <time>2012-09-23T09:32:09Z</time>
      </trkpt>
      <trkpt lat="48.62977" lon="-0.43236">
        <ele>302.8</ele>
        <time>2012-09-23T09:32:12Z</time>
      </trkpt>
      <trkpt lat="48.62976" lon="-0.43225">
        <ele>299.4</ele>
        <time>2012-09-23T09:32:17Z</time>
      </trkpt>
      <trkpt lat="48.62972" lon="-0.43214">
        <ele>303.1</ele>
        <time>2012-09-23T09:32:21Z</time>
      </trkpt>
      <trkpt lat="48.62962" lon="-0.43197">
        <ele>303.8</ele>
        <time>2012-09-23T09:32:26Z</time>
      </trkpt>
      <trkpt lat="48.62959" lon="-0.43189">
        <ele>305.1</ele>
        <time>2012-09-23T09:32:29Z</time>
      </trkpt>
      <trkpt lat="48.6296" lon="-0.43179">
        <ele>306.8</ele>
        <time>2012-09-23T09:32:33Z</time>
      </trkpt>
      <trkpt lat="48.62976" lon="-0.43178">
        <ele>307.4</ele>
        <time>2012-09-23T09:32:38Z</time>
      </trkpt>
      <trkpt lat="48.62984" lon="-0.43178">
        <ele>308.6</ele>
        <time>2012-09-23T09:32:41Z</time>
      </trkpt>
      <trkpt lat="48.63" lon="-0.43176">
        <ele>309.3</ele>
        <time>2012-09-23T09:32:46Z</time>
      </trkpt>
      <trkpt lat="48.6301" lon="-0.43174">
        <ele>309.4</ele>
        <time>2012-09-23T09:32:49Z</time>
      </trkpt>
      <trkpt lat="48.63017" lon="-0.43172">
        <ele>309.6</ele>
        <time>2012-09-23T09:32:51Z</time>
      </trkpt>
      <trkpt lat="48.63032" lon="-0.43162">
        <ele>309.1</ele>
        <time>2012-09-23T09:32:55Z</time>
      </trkpt>
      <trkpt lat="48.63052" lon="-0.43137">
        <ele>310.2</ele>
        <time>2012-09-23T09:33:01Z</time>
      </trkpt>
      <trkpt lat="48.63057" lon="-0.43129">
        <ele>310.3</ele>
        <time>2012-09-23T09:33:03Z</time>
      </trkpt>
      <trkpt lat="48.63067" lon="-0.43109">
        <ele>311.5</ele>
        <time>2012-09-23T09:33:07Z</time>
      </trkpt>
      <trkpt lat="48.63078" lon="-0.43074">
        <ele>311.8</ele>
        <time>2012-09-23T09:33:13Z</time>
      </trkpt>
      <trkpt lat="48.63083" lon="-0.43052">
        <ele>312.1</ele>
        <time>2012-09-23T09:33:17Z</time>
      </trkpt>
      <trkpt lat="48.63089" lon="-0.43027">
        <ele>312.4</ele>
        <time>2012-09-23T09:33:21Z</time>
      </trkpt>
      <trkpt lat="48.63101" lon="-0.42981">
        <ele>315</ele>
        <time>2012-09-23T09:33:30Z</time>
      </trkpt>
      <trkpt lat="48.63106" lon="-0.42962">
        <ele>316.8</ele>
        <time>2012-09-23T09:33:34Z</time>
      </trkpt>
      <trkpt lat="48.6311" lon="-0.4294">
        <ele>317.8</ele>
        <time>2012-09-23T09:33:38Z</time>
      </trkpt>
      <trkpt lat="48.63112" lon="-0.4293">
        <ele>317.7</ele>
        <time>2012-09-23T09:33:40Z</time>
      </trkpt>
      <trkpt lat="48.63117" lon="-0.42909">
        <ele>319.5</ele>
        <time>2012-09-23T09:33:45Z</time>
      </trkpt>
      <trkpt lat="48.63122" lon="-0.42887">
        <ele>322</ele>
        <time>2012-09-23T09:33:50Z</time>
      </trkpt>
      <trkpt lat="48.63125" lon="-0.42875">
        <ele>322.3</ele>
        <time>2012-09-23T09:33:53Z</time>
      </trkpt>
      <trkpt lat="48.63128" lon="-0.42865">
        <ele>323.5</ele>
        <time>2012-09-23T09:33:56Z</time>
      </trkpt>
      <trkpt lat="48.63132" lon="-0.42857">
        <ele>326.3</ele>
        <time>2012-09-23T09:33:59Z</time>
      </trkpt>
      <trkpt lat="48.63142" lon="-0.42841">
        <ele>327.6</ele>
        <time>2012-09-23T09:34:05Z</time>
      </trkpt>
      <trkpt lat="48.63147" lon="-0.42829">
        <ele>326.7</ele>
        <time>2012-09-23T09:34:08Z</time>
      </trkpt>
      <trkpt lat="48.63149" lon="-0.42817">
        <ele>326.2</ele>
        <time>2012-09-23T09:34:11Z</time>
      </trkpt>
      <trkpt lat="48.63142" lon="-0.42808">
        <ele>323.4</ele>
        <time>2012-09-23T09:34:16Z</time>
      </trkpt>
      <trkpt lat="48.63135" lon="-0.42806">
        <ele>324.3</ele>
        <time>2012-09-23T09:34:19Z</time>
      </trkpt>
      <trkpt lat="48.63135" lon="-0.42806">
        <ele>271.4</ele>
        <time>2012-09-23T09:34:30Z</time>
      </trkpt>
      <trkpt lat="48.63135" lon="-0.42806">
        <ele>271.4</ele>
        <time>2012-09-23T09:34:34Z</time>
      </trkpt>
      <trkpt lat="48.63109" lon="-0.42792">
        <ele>325.2</ele>
        <time>2012-09-23T09:34:36Z</time>
      </trkpt>
      <trkpt lat="48.63109" lon="-0.42792">
        <ele>275</ele>
        <time>2012-09-23T09:34:47Z</time>
      </trkpt>
      <trkpt lat="48.63109" lon="-0.42792">
        <ele>275</ele>
        <time>2012-09-23T09:34:48Z</time>
      </trkpt>
      <trkpt lat="48.63095" lon="-0.42765">
        <ele>325.2</ele>
        <time>2012-09-23T09:34:51Z</time>
      </trkpt>
      <trkpt lat="48.6309" lon="-0.42758">
        <ele>326.3</ele>
        <time>2012-09-23T09:34:54Z</time>
      </trkpt>
      <trkpt lat="48.63082" lon="-0.42755">
        <ele>326.4</ele>
        <time>2012-09-23T09:34:58Z</time>
      </trkpt>
      <trkpt lat="48.63065" lon="-0.42759">
        <ele>327</ele>
        <time>2012-09-23T09:35:03Z</time>
      </trkpt>
      <trkpt lat="48.63041" lon="-0.42768">
        <ele>328.3</ele>
        <time>2012-09-23T09:35:10Z</time>
      </trkpt>
      <trkpt lat="48.63024" lon="-0.42781">
        <ele>327.6</ele>
        <time>2012-09-23T09:35:13Z</time>
      </trkpt>
      <trkpt lat="48.62997" lon="-0.42798">
        <ele>325.7</ele>
        <time>2012-09-23T09:35:18Z</time>
      </trkpt>
      <trkpt lat="48.6297" lon="-0.42818">
        <ele>322.4</ele>
        <time>2012-09-23T09:35:22Z</time>
      </trkpt>
      <trkpt lat="48.62935" lon="-0.4284">
        <ele>320.2</ele>
        <time>2012-09-23T09:35:27Z</time>
      </trkpt>
      <trkpt lat="48.6292" lon="-0.42851">
        <ele>319.3</ele>
        <time>2012-09-23T09:35:30Z</time>
      </trkpt>
      <trkpt lat="48.62895" lon="-0.42873">
        <ele>318.7</ele>
        <time>2012-09-23T09:35:35Z</time>
      </trkpt>
      <trkpt lat="48.62876" lon="-0.42878">
        <ele>317.9</ele>
        <time>2012-09-23T09:35:38Z</time>
      </trkpt>
      <trkpt lat="48.62858" lon="-0.4289">
        <ele>321.4</ele>
        <time>2012-09-23T09:35:42Z</time>
      </trkpt>
      <trkpt lat="48.62838" lon="-0.42888">
        <ele>318.6</ele>
        <time>2012-09-23T09:35:46Z</time>
      </trkpt>
      <trkpt lat="48.62822" lon="-0.42878">
        <ele>314.6</ele>
        <time>2012-09-23T09:35:51Z</time>
      </trkpt>
      <trkpt lat="48.62811" lon="-0.42864">
        <ele>316.5</ele>
        <time>2012-09-23T09:35:55Z</time>
      </trkpt>
      <trkpt lat="48.62796" lon="-0.42851">
        <ele>313.7</ele>
        <time>2012-09-23T09:35:59Z</time>
      </trkpt>
      <trkpt lat="48.62792" lon="-0.42843">
        <ele>318.1</ele>
        <time>2012-09-23T09:36:03Z</time>
      </trkpt>
      <trkpt lat="48.6277" lon="-0.42829">
        <ele>314.8</ele>
        <time>2012-09-23T09:36:11Z</time>
      </trkpt>
      <trkpt lat="48.62765" lon="-0.42822">
        <ele>315.1</ele>
        <time>2012-09-23T09:36:13Z</time>
      </trkpt>
      <trkpt lat="48.62757" lon="-0.42787">
        <ele>313.2</ele>
        <time>2012-09-23T09:36:23Z</time>
      </trkpt>
      <trkpt lat="48.62757" lon="-0.42767">
        <ele>313.2</ele>
        <time>2012-09-23T09:36:33Z</time>
      </trkpt>
      <trkpt lat="48.62757" lon="-0.42767">
        <ele>258.2</ele>
        <time>2012-09-23T09:36:44Z</time>
      </trkpt>
      <trkpt lat="48.62757" lon="-0.42767">
        <ele>258.2</ele>
        <time>2012-09-23T09:37:41Z</time>
      </trkpt>
      <trkpt lat="48.62765" lon="-0.42761">
        <ele>312.1</ele>
        <time>2012-09-23T09:37:46Z</time>
      </trkpt>
      <trkpt lat="48.62772" lon="-0.42756">
        <ele>313.4</ele>
        <time>2012-09-23T09:37:49Z</time>
      </trkpt>
      <trkpt lat="48.62786" lon="-0.42749">
        <ele>321.8</ele>
        <time>2012-09-23T09:37:56Z</time>
      </trkpt>
      <trkpt lat="48.62794" lon="-0.42745">
        <ele>327.5</ele>
        <time>2012-09-23T09:38:01Z</time>
      </trkpt>
      <trkpt lat="48.62813" lon="-0.42724">
        <ele>325.6</ele>
        <time>2012-09-23T09:38:11Z</time>
      </trkpt>
      <trkpt lat="48.62817" lon="-0.42716">
        <ele>325.9</ele>
        <time>2012-09-23T09:38:14Z</time>
      </trkpt>
      <trkpt lat="48.62832" lon="-0.42712">
        <ele>326.2</ele>
        <time>2012-09-23T09:38:20Z</time>
      </trkpt>
      <trkpt lat="48.62845" lon="-0.42701">
        <ele>327.7</ele>
        <time>2012-09-23T09:38:28Z</time>
      </trkpt>
      <trkpt lat="48.62852" lon="-0.42695">
        <ele>327.6</ele>
        <time>2012-09-23T09:38:31Z</time>
      </trkpt>
      <trkpt lat="48.62859" lon="-0.42692">
        <ele>327.1</ele>
        <time>2012-09-23T09:38:36Z</time>
      </trkpt>
      <trkpt lat="48.62874" lon="-0.42682">
        <ele>326.9</ele>
        <time>2012-09-23T09:38:43Z</time>
      </trkpt>
      <trkpt lat="48.62874" lon="-0.42682">
        <ele>266.1</ele>
        <time>2012-09-23T09:38:54Z</time>
      </trkpt>
      <trkpt lat="48.62874" lon="-0.42682">
        <ele>266.1</ele>
        <time>2012-09-23T09:38:55Z</time>
      </trkpt>
      <trkpt lat="48.62902" lon="-0.42663">
        <ele>327.2</ele>
        <time>2012-09-23T09:38:59Z</time>
      </trkpt>
      <trkpt lat="48.62906" lon="-0.42654">
        <ele>327.7</ele>
        <time>2012-09-23T09:39:02Z</time>
      </trkpt>
      <trkpt lat="48.62912" lon="-0.42648">
        <ele>327</ele>
        <time>2012-09-23T09:39:07Z</time>
      </trkpt>
      <trkpt lat="48.62926" lon="-0.42641">
        <ele>327.8</ele>
        <time>2012-09-23T09:39:14Z</time>
      </trkpt>
      <trkpt lat="48.62938" lon="-0.4263">
        <ele>331.1</ele>
        <time>2012-09-23T09:39:21Z</time>
      </trkpt>
      <trkpt lat="48.62938" lon="-0.4263">
        <ele>270.4</ele>
        <time>2012-09-23T09:39:32Z</time>
      </trkpt>
      <trkpt lat="48.62938" lon="-0.4263">
        <ele>270.4</ele>
        <time>2012-09-23T09:39:34Z</time>
      </trkpt>
      <trkpt lat="48.62978" lon="-0.42621">
        <ele>333.7</ele>
        <time>2012-09-23T09:39:38Z</time>
      </trkpt>
      <trkpt lat="48.62987" lon="-0.42615">
        <ele>334.3</ele>
        <time>2012-09-23T09:39:40Z</time>
      </trkpt>
      <trkpt lat="48.62987" lon="-0.42615">
        <ele>272.2</ele>
        <time>2012-09-23T09:39:51Z</time>
      </trkpt>
      <trkpt lat="48.62987" lon="-0.42615">
        <ele>272.2</ele>
        <time>2012-09-23T09:39:52Z</time>
      </trkpt>
      <trkpt lat="48.63016" lon="-0.42554">
        <ele>337</ele>
        <time>2012-09-23T09:39:59Z</time>
      </trkpt>
      <trkpt lat="48.63022" lon="-0.42543">
        <ele>338.7</ele>
        <time>2012-09-23T09:40:02Z</time>
      </trkpt>
      <trkpt lat="48.63025" lon="-0.42531">
        <ele>338.9</ele>
        <time>2012-09-23T09:40:07Z</time>
      </trkpt>
      <trkpt lat="48.63038" lon="-0.42501">
        <ele>341</ele>
        <time>2012-09-23T09:40:16Z</time>
      </trkpt>
      <trkpt lat="48.63049" lon="-0.42491">
        <ele>342.1</ele>
        <time>2012-09-23T09:40:18Z</time>
      </trkpt>
      <trkpt lat="48.63064" lon="-0.42476">
        <ele>341.9</ele>
        <time>2012-09-23T09:40:23Z</time>
      </trkpt>
      <trkpt lat="48.63069" lon="-0.42468">
        <ele>340.3</ele>
        <time>2012-09-23T09:40:25Z</time>
      </trkpt>
      <trkpt lat="48.63096" lon="-0.42463">
        <ele>337.4</ele>
        <time>2012-09-23T09:40:31Z</time>
      </trkpt>
      <trkpt lat="48.6311" lon="-0.42468">
        <ele>336.2</ele>
        <time>2012-09-23T09:40:35Z</time>
      </trkpt>
      <trkpt lat="48.63117" lon="-0.42472">
        <ele>335.3</ele>
        <time>2012-09-23T09:40:39Z</time>
      </trkpt>
      <trkpt lat="48.63124" lon="-0.42473">
        <ele>334.2</ele>
        <time>2012-09-23T09:40:42Z</time>
      </trkpt>
      <trkpt lat="48.63143" lon="-0.42469">
        <ele>335.6</ele>
        <time>2012-09-23T09:40:51Z</time>
      </trkpt>
      <trkpt lat="48.63149" lon="-0.42464">
        <ele>339.3</ele>
        <time>2012-09-23T09:40:54Z</time>
      </trkpt>
      <trkpt lat="48.63173" lon="-0.42456">
        <ele>348.4</ele>
        <time>2012-09-23T09:41:03Z</time>
      </trkpt>
      <trkpt lat="48.63192" lon="-0.42452">
        <ele>348.3</ele>
        <time>2012-09-23T09:41:11Z</time>
      </trkpt>
      <trkpt lat="48.63206" lon="-0.42456">
        <ele>349.6</ele>
        <time>2012-09-23T09:41:16Z</time>
      </trkpt>
      <trkpt lat="48.63214" lon="-0.42459">
        <ele>350.4</ele>
        <time>2012-09-23T09:41:19Z</time>
      </trkpt>
      <trkpt lat="48.63231" lon="-0.4246">
        <ele>355.5</ele>
        <time>2012-09-23T09:41:24Z</time>
      </trkpt>
      <trkpt lat="48.63238" lon="-0.42462">
        <ele>355.9</ele>
        <time>2012-09-23T09:41:26Z</time>
      </trkpt>
      <trkpt lat="48.63253" lon="-0.42464">
        <ele>362.7</ele>
        <time>2012-09-23T09:41:31Z</time>
      </trkpt>
      <trkpt lat="48.63261" lon="-0.42459">
        <ele>367.1</ele>
        <time>2012-09-23T09:41:34Z</time>
      </trkpt>
      <trkpt lat="48.63269" lon="-0.42455">
        <ele>374.2</ele>
        <time>2012-09-23T09:41:37Z</time>
      </trkpt>
      <trkpt lat="48.63269" lon="-0.42455">
        <ele>294.5</ele>
        <time>2012-09-23T09:41:48Z</time>
      </trkpt>
      <trkpt lat="48.63269" lon="-0.42455">
        <ele>294.5</ele>
        <time>2012-09-23T09:41:52Z</time>
      </trkpt>
      <trkpt lat="48.63308" lon="-0.42404">
        <ele>374</ele>
        <time>2012-09-23T09:41:56Z</time>
      </trkpt>
      <trkpt lat="48.63348" lon="-0.42361">
        <ele>363.8</ele>
        <time>2012-09-23T09:42:04Z</time>
      </trkpt>
      <trkpt lat="48.63358" lon="-0.42357">
        <ele>361.9</ele>
        <time>2012-09-23T09:42:06Z</time>
      </trkpt>
      <trkpt lat="48.63374" lon="-0.42356">
        <ele>360.1</ele>
        <time>2012-09-23T09:42:11Z</time>
      </trkpt>
      <trkpt lat="48.6339" lon="-0.42356">
        <ele>360.4</ele>
        <time>2012-09-23T09:42:16Z</time>
      </trkpt>
      <trkpt lat="48.63402" lon="-0.42342">
        <ele>357.3</ele>
        <time>2012-09-23T09:42:22Z</time>
      </trkpt>
      <trkpt lat="48.63418" lon="-0.42338">
        <ele>361.9</ele>
        <time>2012-09-23T09:42:27Z</time>
      </trkpt>
      <trkpt lat="48.63434" lon="-0.42341">
        <ele>368.2</ele>
        <time>2012-09-23T09:42:31Z</time>
      </trkpt>
      <trkpt lat="48.63454" lon="-0.42318">
        <ele>363.6</ele>
        <time>2012-09-23T09:42:36Z</time>
      </trkpt>
      <trkpt lat="48.63461" lon="-0.4231">
        <ele>361.7</ele>
        <time>2012-09-23T09:42:38Z</time>
      </trkpt>
      <trkpt lat="48.63482" lon="-0.42291">
        <ele>358.6</ele>
        <time>2012-09-23T09:42:43Z</time>
      </trkpt>
      <trkpt lat="48.63498" lon="-0.42279">
        <ele>356.5</ele>
        <time>2012-09-23T09:42:47Z</time>
      </trkpt>
      <trkpt lat="48.63517" lon="-0.42264">
        <ele>355.2</ele>
        <time>2012-09-23T09:42:51Z</time>
      </trkpt>
      <trkpt lat="48.6352" lon="-0.42238">
        <ele>350.9</ele>
        <time>2012-09-23T09:42:56Z</time>
      </trkpt>
      <trkpt lat="48.63514" lon="-0.42231">
        <ele>346.2</ele>
        <time>2012-09-23T09:42:58Z</time>
      </trkpt>
      <trkpt lat="48.63504" lon="-0.4221">
        <ele>345.5</ele>
        <time>2012-09-23T09:43:04Z</time>
      </trkpt>
      <trkpt lat="48.63488" lon="-0.42198">
        <ele>342.5</ele>
        <time>2012-09-23T09:43:08Z</time>
      </trkpt>
      <trkpt lat="48.63476" lon="-0.42184">
        <ele>338</ele>
        <time>2012-09-23T09:43:12Z</time>
      </trkpt>
      <trkpt lat="48.63459" lon="-0.42163">
        <ele>336.6</ele>
        <time>2012-09-23T09:43:19Z</time>
      </trkpt>
      <trkpt lat="48.63449" lon="-0.42149">
        <ele>338.7</ele>
        <time>2012-09-23T09:43:24Z</time>
      </trkpt>
      <trkpt lat="48.63443" lon="-0.42143">
        <ele>339</ele>
        <time>2012-09-23T09:43:27Z</time>
      </trkpt>
      <trkpt lat="48.6342" lon="-0.42118">
        <ele>338.1</ele>
        <time>2012-09-23T09:43:35Z</time>
      </trkpt>
      <trkpt lat="48.63408" lon="-0.42106">
        <ele>341.6</ele>
        <time>2012-09-23T09:43:39Z</time>
      </trkpt>
      <trkpt lat="48.63395" lon="-0.42095">
        <ele>344.2</ele>
        <time>2012-09-23T09:43:43Z</time>
      </trkpt>
      <trkpt lat="48.63382" lon="-0.42081">
        <ele>343.4</ele>
        <time>2012-09-23T09:43:47Z</time>
      </trkpt>
      <trkpt lat="48.63373" lon="-0.42065">
        <ele>346.3</ele>
        <time>2012-09-23T09:43:52Z</time>
      </trkpt>
      <trkpt lat="48.63361" lon="-0.42049">
        <ele>346.6</ele>
        <time>2012-09-23T09:43:56Z</time>
      </trkpt>
      <trkpt lat="48.63355" lon="-0.42043">
        <ele>346.3</ele>
        <time>2012-09-23T09:43:58Z</time>
      </trkpt>
      <trkpt lat="48.63342" lon="-0.42029">
        <ele>347.7</ele>
        <time>2012-09-23T09:44:04Z</time>
      </trkpt>
      <trkpt lat="48.63337" lon="-0.42023">
        <ele>347.3</ele>
        <time>2012-09-23T09:44:06Z</time>
      </trkpt>
      <trkpt lat="48.63323" lon="-0.4201">
        <ele>341.1</ele>
        <time>2012-09-23T09:44:11Z</time>
      </trkpt>
      <trkpt lat="48.63316" lon="-0.42005">
        <ele>338.7</ele>
        <time>2012-09-23T09:44:13Z</time>
      </trkpt>
      <trkpt lat="48.63304" lon="-0.41995">
        <ele>337.9</ele>
        <time>2012-09-23T09:44:17Z</time>
      </trkpt>
      <trkpt lat="48.63281" lon="-0.41967">
        <ele>345.6</ele>
        <time>2012-09-23T09:44:27Z</time>
      </trkpt>
      <trkpt lat="48.63283" lon="-0.41956">
        <ele>346.1</ele>
        <time>2012-09-23T09:44:30Z</time>
      </trkpt>
      <trkpt lat="48.63272" lon="-0.41935">
        <ele>348.2</ele>
        <time>2012-09-23T09:44:35Z</time>
      </trkpt>
      <trkpt lat="48.63266" lon="-0.41923">
        <ele>351.5</ele>
        <time>2012-09-23T09:44:39Z</time>
      </trkpt>
      <trkpt lat="48.63263" lon="-0.41915">
        <ele>352.9</ele>
        <time>2012-09-23T09:44:41Z</time>
      </trkpt>
      <trkpt lat="48.63238" lon="-0.41871">
        <ele>350.1</ele>
        <time>2012-09-23T09:44:48Z</time>
      </trkpt>
      <trkpt lat="48.63215" lon="-0.41838">
        <ele>348.6</ele>
        <time>2012-09-23T09:44:52Z</time>
      </trkpt>
      <trkpt lat="48.63198" lon="-0.41806">
        <ele>347.3</ele>
        <time>2012-09-23T09:44:56Z</time>
      </trkpt>
      <trkpt lat="48.63191" lon="-0.41787">
        <ele>345.8</ele>
        <time>2012-09-23T09:44:58Z</time>
      </trkpt>
      <trkpt lat="48.63176" lon="-0.41761">
        <ele>343.9</ele>
        <time>2012-09-23T09:45:01Z</time>
      </trkpt>
      <trkpt lat="48.63144" lon="-0.41733">
        <ele>340.6</ele>
        <time>2012-09-23T09:45:07Z</time>
      </trkpt>
      <trkpt lat="48.63127" lon="-0.41715">
        <ele>339.2</ele>
        <time>2012-09-23T09:45:11Z</time>
      </trkpt>
      <trkpt lat="48.63094" lon="-0.41685">
        <ele>336.8</ele>
        <time>2012-09-23T09:45:19Z</time>
      </trkpt>
      <trkpt lat="48.63076" lon="-0.41668">
        <ele>336.3</ele>
        <time>2012-09-23T09:45:27Z</time>
      </trkpt>
      <trkpt lat="48.6307" lon="-0.41665">
        <ele>337.9</ele>
        <time>2012-09-23T09:45:29Z</time>
      </trkpt>
      <trkpt lat="48.63035" lon="-0.41669">
        <ele>338.8</ele>
        <time>2012-09-23T09:45:36Z</time>
      </trkpt>
      <trkpt lat="48.62987" lon="-0.41675">
        <ele>338.3</ele>
        <time>2012-09-23T09:45:43Z</time>
      </trkpt>
      <trkpt lat="48.62948" lon="-0.41682">
        <ele>337.3</ele>
        <time>2012-09-23T09:45:48Z</time>
      </trkpt>
      <trkpt lat="48.62922" lon="-0.41695">
        <ele>334.5</ele>
        <time>2012-09-23T09:45:51Z</time>
      </trkpt>
      <trkpt lat="48.62879" lon="-0.41711">
        <ele>329.8</ele>
        <time>2012-09-23T09:45:56Z</time>
      </trkpt>
      <trkpt lat="48.62844" lon="-0.41722">
        <ele>324.4</ele>
        <time>2012-09-23T09:46:00Z</time>
      </trkpt>
      <trkpt lat="48.62818" lon="-0.41725">
        <ele>322.6</ele>
        <time>2012-09-23T09:46:03Z</time>
      </trkpt>
      <trkpt lat="48.62777" lon="-0.4172">
        <ele>320.7</ele>
        <time>2012-09-23T09:46:08Z</time>
      </trkpt>
      <trkpt lat="48.62747" lon="-0.41715">
        <ele>318.4</ele>
        <time>2012-09-23T09:46:12Z</time>
      </trkpt>
      <trkpt lat="48.62734" lon="-0.41713">
        <ele>318.6</ele>
        <time>2012-09-23T09:46:14Z</time>
      </trkpt>
      <trkpt lat="48.62696" lon="-0.41703">
        <ele>318.9</ele>
        <time>2012-09-23T09:46:20Z</time>
      </trkpt>
      <trkpt lat="48.62675" lon="-0.41698">
        <ele>320.8</ele>
        <time>2012-09-23T09:46:24Z</time>
      </trkpt>
      <trkpt lat="48.62659" lon="-0.41693">
        <ele>319.2</ele>
        <time>2012-09-23T09:46:28Z</time>
      </trkpt>
      <trkpt lat="48.62643" lon="-0.41688">
        <ele>319.5</ele>
        <time>2012-09-23T09:46:32Z</time>
      </trkpt>
      <trkpt lat="48.62634" lon="-0.41687">
        <ele>319.9</ele>
        <time>2012-09-23T09:46:34Z</time>
      </trkpt>
      <trkpt lat="48.62617" lon="-0.4168">
        <ele>321.3</ele>
        <time>2012-09-23T09:46:39Z</time>
      </trkpt>
      <trkpt lat="48.62601" lon="-0.41671">
        <ele>322.6</ele>
        <time>2012-09-23T09:46:43Z</time>
      </trkpt>
      <trkpt lat="48.62585" lon="-0.41667">
        <ele>322.5</ele>
        <time>2012-09-23T09:46:47Z</time>
      </trkpt>
      <trkpt lat="48.62566" lon="-0.4166">
        <ele>324.3</ele>
        <time>2012-09-23T09:46:51Z</time>
      </trkpt>
      <trkpt lat="48.62547" lon="-0.41654">
        <ele>324.6</ele>
        <time>2012-09-23T09:46:55Z</time>
      </trkpt>
      <trkpt lat="48.6253" lon="-0.4165">
        <ele>323.5</ele>
        <time>2012-09-23T09:46:59Z</time>
      </trkpt>
      <trkpt lat="48.62521" lon="-0.4165">
        <ele>322.9</ele>
        <time>2012-09-23T09:47:01Z</time>
      </trkpt>
      <trkpt lat="48.6249" lon="-0.41639">
        <ele>318.8</ele>
        <time>2012-09-23T09:47:07Z</time>
      </trkpt>
      <trkpt lat="48.6248" lon="-0.41636">
        <ele>318.8</ele>
        <time>2012-09-23T09:47:09Z</time>
      </trkpt>
      <trkpt lat="48.62455" lon="-0.4163">
        <ele>318.1</ele>
        <time>2012-09-23T09:47:14Z</time>
      </trkpt>
      <trkpt lat="48.62425" lon="-0.4162">
        <ele>315.5</ele>
        <time>2012-09-23T09:47:20Z</time>
      </trkpt>
      <trkpt lat="48.62413" lon="-0.4162">
        <ele>315.5</ele>
        <time>2012-09-23T09:47:22Z</time>
      </trkpt>
      <trkpt lat="48.62382" lon="-0.41615">
        <ele>315.2</ele>
        <time>2012-09-23T09:47:28Z</time>
      </trkpt>
      <trkpt lat="48.62366" lon="-0.41609">
        <ele>316.9</ele>
        <time>2012-09-23T09:47:32Z</time>
      </trkpt>
      <trkpt lat="48.6236" lon="-0.41605">
        <ele>317.2</ele>
        <time>2012-09-23T09:47:34Z</time>
      </trkpt>
      <trkpt lat="48.62349" lon="-0.41592">
        <ele>315.3</ele>
        <time>2012-09-23T09:47:39Z</time>
      </trkpt>
      <trkpt lat="48.62341" lon="-0.41571">
        <ele>315.1</ele>
        <time>2012-09-23T09:47:44Z</time>
      </trkpt>
      <trkpt lat="48.62334" lon="-0.41572">
        <ele>315.5</ele>
        <time>2012-09-23T09:47:47Z</time>
      </trkpt>
      <trkpt lat="48.62327" lon="-0.41577">
        <ele>314.8</ele>
        <time>2012-09-23T09:47:51Z</time>
      </trkpt>
      <trkpt lat="48.62318" lon="-0.41556">
        <ele>315.2</ele>
        <time>2012-09-23T09:47:56Z</time>
      </trkpt>
      <trkpt lat="48.62308" lon="-0.41544">
        <ele>320</ele>
        <time>2012-09-23T09:48:03Z</time>
      </trkpt>
      <trkpt lat="48.62263" lon="-0.41539">
        <ele>320.7</ele>
        <time>2012-09-23T09:48:12Z</time>
      </trkpt>
      <trkpt lat="48.62249" lon="-0.41545">
        <ele>319.2</ele>
        <time>2012-09-23T09:48:14Z</time>
      </trkpt>
      <trkpt lat="48.62215" lon="-0.41563">
        <ele>315.2</ele>
        <time>2012-09-23T09:48:19Z</time>
      </trkpt>
      <trkpt lat="48.62197" lon="-0.41574">
        <ele>312.7</ele>
        <time>2012-09-23T09:48:24Z</time>
      </trkpt>
      <trkpt lat="48.62184" lon="-0.41585">
        <ele>311.4</ele>
        <time>2012-09-23T09:48:30Z</time>
      </trkpt>
      <trkpt lat="48.62184" lon="-0.41585">
        <ele>255.2</ele>
        <time>2012-09-23T09:48:41Z</time>
      </trkpt>
      <trkpt lat="48.62184" lon="-0.41585">
        <ele>255.2</ele>
        <time>2012-09-23T09:50:44Z</time>
      </trkpt>
      <trkpt lat="48.62184" lon="-0.41585">
        <ele>255.2</ele>
        <time>2012-09-23T09:50:55Z</time>
      </trkpt>
      <trkpt lat="48.62184" lon="-0.41585">
        <ele>255.2</ele>
        <time>2012-09-23T09:53:19Z</time>
      </trkpt>
      <trkpt lat="48.62184" lon="-0.41585">
        <ele>255.2</ele>
        <time>2012-09-23T09:53:30Z</time>
      </trkpt>
      <trkpt lat="48.62184" lon="-0.41585">
        <ele>255.2</ele>
        <time>2012-09-23T09:55:24Z</time>
      </trkpt>
      <trkpt lat="48.62184" lon="-0.41585">
        <ele>255.2</ele>
        <time>2012-09-23T09:55:35Z</time>
      </trkpt>
      <trkpt lat="48.62184" lon="-0.41585">
        <ele>255.2</ele>
        <time>2012-09-23T09:55:38Z</time>
      </trkpt>
      <trkpt lat="48.62184" lon="-0.41585">
        <ele>255.2</ele>
        <time>2012-09-23T09:55:49Z</time>
      </trkpt>
      <trkpt lat="48.62184" lon="-0.41585">
        <ele>255.2</ele>
        <time>2012-09-23T09:55:53Z</time>
      </trkpt>
      <trkpt lat="48.62169" lon="-0.41578">
        <ele>305.8</ele>
        <time>2012-09-23T09:55:55Z</time>
      </trkpt>
      <trkpt lat="48.62154" lon="-0.41571">
        <ele>307.4</ele>
        <time>2012-09-23T09:56:00Z</time>
      </trkpt>
      <trkpt lat="48.62116" lon="-0.41564">
        <ele>306.1</ele>
        <time>2012-09-23T09:56:04Z</time>
      </trkpt>
      <trkpt lat="48.62089" lon="-0.41571">
        <ele>305.9</ele>
        <time>2012-09-23T09:56:07Z</time>
      </trkpt>
      <trkpt lat="48.62048" lon="-0.41596">
        <ele>300.4</ele>
        <time>2012-09-23T09:56:12Z</time>
      </trkpt>
      <trkpt lat="48.62016" lon="-0.41614">
        <ele>296.8</ele>
        <time>2012-09-23T09:56:16Z</time>
      </trkpt>
      <trkpt lat="48.61991" lon="-0.4163">
        <ele>296.9</ele>
        <time>2012-09-23T09:56:20Z</time>
      </trkpt>
      <trkpt lat="48.61971" lon="-0.41642">
        <ele>296.5</ele>
        <time>2012-09-23T09:56:24Z</time>
      </trkpt>
      <trkpt lat="48.61962" lon="-0.41646">
        <ele>296.8</ele>
        <time>2012-09-23T09:56:26Z</time>
      </trkpt>
      <trkpt lat="48.61942" lon="-0.41653">
        <ele>295.3</ele>
        <time>2012-09-23T09:56:31Z</time>
      </trkpt>
      <trkpt lat="48.61925" lon="-0.41654">
        <ele>294.2</ele>
        <time>2012-09-23T09:56:35Z</time>
      </trkpt>
      <trkpt lat="48.61902" lon="-0.41659">
        <ele>295</ele>
        <time>2012-09-23T09:56:39Z</time>
      </trkpt>
      <trkpt lat="48.61868" lon="-0.41658">
        <ele>292</ele>
        <time>2012-09-23T09:56:44Z</time>
      </trkpt>
      <trkpt lat="48.61837" lon="-0.41655">
        <ele>289.2</ele>
        <time>2012-09-23T09:56:48Z</time>
      </trkpt>
      <trkpt lat="48.61808" lon="-0.41644">
        <ele>287.3</ele>
        <time>2012-09-23T09:56:52Z</time>
      </trkpt>
      <trkpt lat="48.61788" lon="-0.4163">
        <ele>286.6</ele>
        <time>2012-09-23T09:56:56Z</time>
      </trkpt>
      <trkpt lat="48.61765" lon="-0.41632">
        <ele>285.7</ele>
        <time>2012-09-23T09:56:59Z</time>
      </trkpt>
      <trkpt lat="48.61732" lon="-0.41647">
        <ele>285.8</ele>
        <time>2012-09-23T09:57:04Z</time>
      </trkpt>
      <trkpt lat="48.61705" lon="-0.41654">
        <ele>285.6</ele>
        <time>2012-09-23T09:57:08Z</time>
      </trkpt>
      <trkpt lat="48.61689" lon="-0.41662">
        <ele>284.9</ele>
        <time>2012-09-23T09:57:11Z</time>
      </trkpt>
      <trkpt lat="48.61671" lon="-0.41667">
        <ele>284.7</ele>
        <time>2012-09-23T09:57:15Z</time>
      </trkpt>
      <trkpt lat="48.61644" lon="-0.41671">
        <ele>282.6</ele>
        <time>2012-09-23T09:57:20Z</time>
      </trkpt>
      <trkpt lat="48.61628" lon="-0.41669">
        <ele>282.1</ele>
        <time>2012-09-23T09:57:23Z</time>
      </trkpt>
      <trkpt lat="48.61603" lon="-0.41665">
        <ele>281.1</ele>
        <time>2012-09-23T09:57:27Z</time>
      </trkpt>
      <trkpt lat="48.61575" lon="-0.41678">
        <ele>278.6</ele>
        <time>2012-09-23T09:57:32Z</time>
      </trkpt>
      <trkpt lat="48.61564" lon="-0.41683">
        <ele>278.7</ele>
        <time>2012-09-23T09:57:34Z</time>
      </trkpt>
      <trkpt lat="48.61542" lon="-0.41698">
        <ele>278</ele>
        <time>2012-09-23T09:57:38Z</time>
      </trkpt>
      <trkpt lat="48.61513" lon="-0.4171">
        <ele>277</ele>
        <time>2012-09-23T09:57:44Z</time>
      </trkpt>
      <trkpt lat="48.61497" lon="-0.41727">
        <ele>277.5</ele>
        <time>2012-09-23T09:57:47Z</time>
      </trkpt>
      <trkpt lat="48.61483" lon="-0.41744">
        <ele>273.4</ele>
        <time>2012-09-23T09:57:51Z</time>
      </trkpt>
      <trkpt lat="48.61473" lon="-0.41725">
        <ele>272.1</ele>
        <time>2012-09-23T09:57:56Z</time>
      </trkpt>
      <trkpt lat="48.6147" lon="-0.41695">
        <ele>271</ele>
        <time>2012-09-23T09:58:00Z</time>
      </trkpt>
      <trkpt lat="48.61465" lon="-0.41659">
        <ele>269.8</ele>
        <time>2012-09-23T09:58:04Z</time>
      </trkpt>
      <trkpt lat="48.61461" lon="-0.4164">
        <ele>269.9</ele>
        <time>2012-09-23T09:58:06Z</time>
      </trkpt>
      <trkpt lat="48.61452" lon="-0.41583">
        <ele>269.1</ele>
        <time>2012-09-23T09:58:12Z</time>
      </trkpt>
      <trkpt lat="48.61452" lon="-0.41547">
        <ele>270.2</ele>
        <time>2012-09-23T09:58:16Z</time>
      </trkpt>
      <trkpt lat="48.61446" lon="-0.41524">
        <ele>269.5</ele>
        <time>2012-09-23T09:58:19Z</time>
      </trkpt>
      <trkpt lat="48.61429" lon="-0.41504">
        <ele>268.7</ele>
        <time>2012-09-23T09:58:23Z</time>
      </trkpt>
      <trkpt lat="48.61413" lon="-0.41488">
        <ele>268.4</ele>
        <time>2012-09-23T09:58:27Z</time>
      </trkpt>
      <trkpt lat="48.61401" lon="-0.41471">
        <ele>269.7</ele>
        <time>2012-09-23T09:58:31Z</time>
      </trkpt>
      <trkpt lat="48.61387" lon="-0.41458">
        <ele>269</ele>
        <time>2012-09-23T09:58:35Z</time>
      </trkpt>
      <trkpt lat="48.61369" lon="-0.41456">
        <ele>268.4</ele>
        <time>2012-09-23T09:58:39Z</time>
      </trkpt>
      <trkpt lat="48.61354" lon="-0.41453">
        <ele>272.4</ele>
        <time>2012-09-23T09:58:44Z</time>
      </trkpt>
      <trkpt lat="48.61339" lon="-0.41448">
        <ele>276.7</ele>
        <time>2012-09-23T09:58:49Z</time>
      </trkpt>
      <trkpt lat="48.61317" lon="-0.41445">
        <ele>282.5</ele>
        <time>2012-09-23T09:58:57Z</time>
      </trkpt>
      <trkpt lat="48.61287" lon="-0.4145">
        <ele>282.8</ele>
        <time>2012-09-23T09:59:08Z</time>
      </trkpt>
      <trkpt lat="48.61267" lon="-0.41458">
        <ele>281.9</ele>
        <time>2012-09-23T09:59:15Z</time>
      </trkpt>
      <trkpt lat="48.61252" lon="-0.41466">
        <ele>283.1</ele>
        <time>2012-09-23T09:59:20Z</time>
      </trkpt>
      <trkpt lat="48.61239" lon="-0.41468">
        <ele>285.3</ele>
        <time>2012-09-23T09:59:25Z</time>
      </trkpt>
      <trkpt lat="48.61233" lon="-0.41473">
        <ele>287.2</ele>
        <time>2012-09-23T09:59:29Z</time>
      </trkpt>
      <trkpt lat="48.61213" lon="-0.41476">
        <ele>286.8</ele>
        <time>2012-09-23T09:59:38Z</time>
      </trkpt>
      <trkpt lat="48.61198" lon="-0.41485">
        <ele>287.4</ele>
        <time>2012-09-23T09:59:43Z</time>
      </trkpt>
      <trkpt lat="48.6118" lon="-0.41502">
        <ele>284.5</ele>
        <time>2012-09-23T09:59:51Z</time>
      </trkpt>
      <trkpt lat="48.61173" lon="-0.41507">
        <ele>283.4</ele>
        <time>2012-09-23T09:59:53Z</time>
      </trkpt>
      <trkpt lat="48.61168" lon="-0.41515">
        <ele>289</ele>
        <time>2012-09-23T09:59:59Z</time>
      </trkpt>
      <trkpt lat="48.61168" lon="-0.41515">
        <ele>233.8</ele>
        <time>2012-09-23T10:00:10Z</time>
      </trkpt>
      <trkpt lat="48.61168" lon="-0.41515">
        <ele>233.8</ele>
        <time>2012-09-23T10:00:11Z</time>
      </trkpt>
      <trkpt lat="48.61161" lon="-0.4157">
        <ele>298.9</ele>
        <time>2012-09-23T10:00:17Z</time>
      </trkpt>
      <trkpt lat="48.61155" lon="-0.41591">
        <ele>298.2</ele>
        <time>2012-09-23T10:00:22Z</time>
      </trkpt>
      <trkpt lat="48.61149" lon="-0.416">
        <ele>299.9</ele>
        <time>2012-09-23T10:00:28Z</time>
      </trkpt>
      <trkpt lat="48.61143" lon="-0.41619">
        <ele>298</ele>
        <time>2012-09-23T10:00:38Z</time>
      </trkpt>
      <trkpt lat="48.61139" lon="-0.41629">
        <ele>295.8</ele>
        <time>2012-09-23T10:00:43Z</time>
      </trkpt>
      <trkpt lat="48.61132" lon="-0.41635">
        <ele>292.8</ele>
        <time>2012-09-23T10:00:46Z</time>
      </trkpt>
      <trkpt lat="48.61116" lon="-0.41641">
        <ele>289.3</ele>
        <time>2012-09-23T10:00:53Z</time>
      </trkpt>
      <trkpt lat="48.61108" lon="-0.41645">
        <ele>289.9</ele>
        <time>2012-09-23T10:00:57Z</time>
      </trkpt>
      <trkpt lat="48.61102" lon="-0.41647">
        <ele>290.8</ele>
        <time>2012-09-23T10:00:59Z</time>
      </trkpt>
      <trkpt lat="48.61087" lon="-0.41656">
        <ele>290.5</ele>
        <time>2012-09-23T10:01:05Z</time>
      </trkpt>
      <trkpt lat="48.61081" lon="-0.41661">
        <ele>291.4</ele>
        <time>2012-09-23T10:01:09Z</time>
      </trkpt>
      <trkpt lat="48.61074" lon="-0.41668">
        <ele>291.8</ele>
        <time>2012-09-23T10:01:13Z</time>
      </trkpt>
      <trkpt lat="48.61062" lon="-0.41675">
        <ele>292.5</ele>
        <time>2012-09-23T10:01:17Z</time>
      </trkpt>
      <trkpt lat="48.61044" lon="-0.41679">
        <ele>294.3</ele>
        <time>2012-09-23T10:01:21Z</time>
      </trkpt>
      <trkpt lat="48.61014" lon="-0.41691">
        <ele>293.4</ele>
        <time>2012-09-23T10:01:25Z</time>
      </trkpt>
      <trkpt lat="48.61005" lon="-0.41695">
        <ele>292.9</ele>
        <time>2012-09-23T10:01:27Z</time>
      </trkpt>
      <trkpt lat="48.60969" lon="-0.41708">
        <ele>291.7</ele>
        <time>2012-09-23T10:01:32Z</time>
      </trkpt>
      <trkpt lat="48.60935" lon="-0.4172">
        <ele>291.5</ele>
        <time>2012-09-23T10:01:37Z</time>
      </trkpt>
      <trkpt lat="48.60908" lon="-0.41728">
        <ele>291.1</ele>
        <time>2012-09-23T10:01:41Z</time>
      </trkpt>
      <trkpt lat="48.60873" lon="-0.41745">
        <ele>288.2</ele>
        <time>2012-09-23T10:01:45Z</time>
      </trkpt>
      <trkpt lat="48.60838" lon="-0.4176">
        <ele>287.4</ele>
        <time>2012-09-23T10:01:49Z</time>
      </trkpt>
      <trkpt lat="48.60805" lon="-0.41773">
        <ele>288.1</ele>
        <time>2012-09-23T10:01:53Z</time>
      </trkpt>
      <trkpt lat="48.60791" lon="-0.41776">
        <ele>288.3</ele>
        <time>2012-09-23T10:01:55Z</time>
      </trkpt>
      <trkpt lat="48.60743" lon="-0.41797">
        <ele>284.6</ele>
        <time>2012-09-23T10:02:01Z</time>
      </trkpt>
      <trkpt lat="48.6071" lon="-0.41814">
        <ele>283.1</ele>
        <time>2012-09-23T10:02:05Z</time>
      </trkpt>
      <trkpt lat="48.60678" lon="-0.41823">
        <ele>282.5</ele>
        <time>2012-09-23T10:02:09Z</time>
      </trkpt>
      <trkpt lat="48.60656" lon="-0.41836">
        <ele>281.6</ele>
        <time>2012-09-23T10:02:12Z</time>
      </trkpt>
      <trkpt lat="48.60621" lon="-0.41854">
        <ele>280.7</ele>
        <time>2012-09-23T10:02:17Z</time>
      </trkpt>
      <trkpt lat="48.60596" lon="-0.41864">
        <ele>279.4</ele>
        <time>2012-09-23T10:02:21Z</time>
      </trkpt>
      <trkpt lat="48.60569" lon="-0.4187">
        <ele>278.6</ele>
        <time>2012-09-23T10:02:25Z</time>
      </trkpt>
      <trkpt lat="48.60545" lon="-0.41879">
        <ele>280.7</ele>
        <time>2012-09-23T10:02:29Z</time>
      </trkpt>
      <trkpt lat="48.60518" lon="-0.4189">
        <ele>280.4</ele>
        <time>2012-09-23T10:02:33Z</time>
      </trkpt>
      <trkpt lat="48.60493" lon="-0.41903">
        <ele>280.7</ele>
        <time>2012-09-23T10:02:37Z</time>
      </trkpt>
      <trkpt lat="48.60476" lon="-0.4191">
        <ele>280.3</ele>
        <time>2012-09-23T10:02:40Z</time>
      </trkpt>
      <trkpt lat="48.60448" lon="-0.4192">
        <ele>281.2</ele>
        <time>2012-09-23T10:02:45Z</time>
      </trkpt>
      <trkpt lat="48.60427" lon="-0.4193">
        <ele>281.5</ele>
        <time>2012-09-23T10:02:49Z</time>
      </trkpt>
      <trkpt lat="48.60403" lon="-0.41939">
        <ele>281</ele>
        <time>2012-09-23T10:02:53Z</time>
      </trkpt>
      <trkpt lat="48.60379" lon="-0.41943">
        <ele>280.7</ele>
        <time>2012-09-23T10:02:57Z</time>
      </trkpt>
      <trkpt lat="48.60351" lon="-0.41956">
        <ele>279.5</ele>
        <time>2012-09-23T10:03:01Z</time>
      </trkpt>
      <trkpt lat="48.60325" lon="-0.41966">
        <ele>278</ele>
        <time>2012-09-23T10:03:05Z</time>
      </trkpt>
      <trkpt lat="48.60297" lon="-0.41977">
        <ele>276.1</ele>
        <time>2012-09-23T10:03:09Z</time>
      </trkpt>
      <trkpt lat="48.60283" lon="-0.41985">
        <ele>275.5</ele>
        <time>2012-09-23T10:03:11Z</time>
      </trkpt>
      <trkpt lat="48.60245" lon="-0.42">
        <ele>274.3</ele>
        <time>2012-09-23T10:03:17Z</time>
      </trkpt>
      <trkpt lat="48.60231" lon="-0.42029">
        <ele>273.1</ele>
        <time>2012-09-23T10:03:20Z</time>
      </trkpt>
      <trkpt lat="48.60211" lon="-0.42076">
        <ele>270.9</ele>
        <time>2012-09-23T10:03:25Z</time>
      </trkpt>
      <trkpt lat="48.60203" lon="-0.42101">
        <ele>267.7</ele>
        <time>2012-09-23T10:03:28Z</time>
      </trkpt>
      <trkpt lat="48.60194" lon="-0.42124">
        <ele>265.3</ele>
        <time>2012-09-23T10:03:32Z</time>
      </trkpt>
      <trkpt lat="48.6019" lon="-0.42134">
        <ele>264.6</ele>
        <time>2012-09-23T10:03:35Z</time>
      </trkpt>
      <trkpt lat="48.60182" lon="-0.42149">
        <ele>263.3</ele>
        <time>2012-09-23T10:03:41Z</time>
      </trkpt>
      <trkpt lat="48.60176" lon="-0.42155">
        <ele>262.2</ele>
        <time>2012-09-23T10:03:43Z</time>
      </trkpt>
      <trkpt lat="48.60157" lon="-0.42146">
        <ele>263.8</ele>
        <time>2012-09-23T10:03:52Z</time>
      </trkpt>
      <trkpt lat="48.60143" lon="-0.42133">
        <ele>263.5</ele>
        <time>2012-09-23T10:03:57Z</time>
      </trkpt>
      <trkpt lat="48.6013" lon="-0.42122">
        <ele>264.3</ele>
        <time>2012-09-23T10:04:01Z</time>
      </trkpt>
      <trkpt lat="48.60124" lon="-0.42117">
        <ele>266.4</ele>
        <time>2012-09-23T10:04:04Z</time>
      </trkpt>
      <trkpt lat="48.60107" lon="-0.42101">
        <ele>274.9</ele>
        <time>2012-09-23T10:04:09Z</time>
      </trkpt>
      <trkpt lat="48.601" lon="-0.42099">
        <ele>275.9</ele>
        <time>2012-09-23T10:04:11Z</time>
      </trkpt>
      <trkpt lat="48.60083" lon="-0.4208">
        <ele>276.7</ele>
        <time>2012-09-23T10:04:17Z</time>
      </trkpt>
      <trkpt lat="48.60078" lon="-0.42074">
        <ele>277</ele>
        <time>2012-09-23T10:04:19Z</time>
      </trkpt>
      <trkpt lat="48.60057" lon="-0.42052">
        <ele>279.8</ele>
        <time>2012-09-23T10:04:25Z</time>
      </trkpt>
      <trkpt lat="48.60044" lon="-0.42037">
        <ele>282.2</ele>
        <time>2012-09-23T10:04:29Z</time>
      </trkpt>
      <trkpt lat="48.60039" lon="-0.42032">
        <ele>282.9</ele>
        <time>2012-09-23T10:04:31Z</time>
      </trkpt>
      <trkpt lat="48.60026" lon="-0.42013">
        <ele>284</ele>
        <time>2012-09-23T10:04:35Z</time>
      </trkpt>
      <trkpt lat="48.60004" lon="-0.41985">
        <ele>283.1</ele>
        <time>2012-09-23T10:04:41Z</time>
      </trkpt>
      <trkpt lat="48.59982" lon="-0.41962">
        <ele>281.8</ele>
        <time>2012-09-23T10:04:45Z</time>
      </trkpt>
      <trkpt lat="48.59966" lon="-0.41947">
        <ele>282</ele>
        <time>2012-09-23T10:04:49Z</time>
      </trkpt>
      <trkpt lat="48.5995" lon="-0.41931">
        <ele>284.4</ele>
        <time>2012-09-23T10:04:53Z</time>
      </trkpt>
      <trkpt lat="48.59925" lon="-0.41912">
        <ele>280.7</ele>
        <time>2012-09-23T10:04:57Z</time>
      </trkpt>
      <trkpt lat="48.59883" lon="-0.41898">
        <ele>279.4</ele>
        <time>2012-09-23T10:05:01Z</time>
      </trkpt>
      <trkpt lat="48.59845" lon="-0.41893">
        <ele>279.7</ele>
        <time>2012-09-23T10:05:05Z</time>
      </trkpt>
      <trkpt lat="48.59827" lon="-0.4189">
        <ele>279.5</ele>
        <time>2012-09-23T10:05:08Z</time>
      </trkpt>
      <trkpt lat="48.59796" lon="-0.41886">
        <ele>279.3</ele>
        <time>2012-09-23T10:05:13Z</time>
      </trkpt>
      <trkpt lat="48.59775" lon="-0.41884">
        <ele>279</ele>
        <time>2012-09-23T10:05:17Z</time>
      </trkpt>
      <trkpt lat="48.59749" lon="-0.41886">
        <ele>278.3</ele>
        <time>2012-09-23T10:05:21Z</time>
      </trkpt>
      <trkpt lat="48.59727" lon="-0.41901">
        <ele>274.6</ele>
        <time>2012-09-23T10:05:25Z</time>
      </trkpt>
      <trkpt lat="48.59708" lon="-0.41919">
        <ele>273</ele>
        <time>2012-09-23T10:05:29Z</time>
      </trkpt>
      <trkpt lat="48.59672" lon="-0.4194">
        <ele>268</ele>
        <time>2012-09-23T10:05:33Z</time>
      </trkpt>
      <trkpt lat="48.59657" lon="-0.41955">
        <ele>265.8</ele>
        <time>2012-09-23T10:05:36Z</time>
      </trkpt>
      <trkpt lat="48.59642" lon="-0.4197">
        <ele>265.9</ele>
        <time>2012-09-23T10:05:40Z</time>
      </trkpt>
      <trkpt lat="48.59599" lon="-0.41992">
        <ele>267.1</ele>
        <time>2012-09-23T10:05:49Z</time>
      </trkpt>
      <trkpt lat="48.59558" lon="-0.41989">
        <ele>263.2</ele>
        <time>2012-09-23T10:05:53Z</time>
      </trkpt>
      <trkpt lat="48.59533" lon="-0.41986">
        <ele>262.3</ele>
        <time>2012-09-23T10:05:57Z</time>
      </trkpt>
      <trkpt lat="48.59511" lon="-0.41979">
        <ele>261.1</ele>
        <time>2012-09-23T10:06:01Z</time>
      </trkpt>
      <trkpt lat="48.59493" lon="-0.41976">
        <ele>258.4</ele>
        <time>2012-09-23T10:06:04Z</time>
      </trkpt>
      <trkpt lat="48.59465" lon="-0.41968">
        <ele>257.8</ele>
        <time>2012-09-23T10:06:09Z</time>
      </trkpt>
      <trkpt lat="48.59444" lon="-0.41962">
        <ele>257.9</ele>
        <time>2012-09-23T10:06:12Z</time>
      </trkpt>
      <trkpt lat="48.59423" lon="-0.41952">
        <ele>258.6</ele>
        <time>2012-09-23T10:06:16Z</time>
      </trkpt>
      <trkpt lat="48.59403" lon="-0.41945">
        <ele>258.3</ele>
        <time>2012-09-23T10:06:20Z</time>
      </trkpt>
      <trkpt lat="48.59372" lon="-0.41936">
        <ele>256.6</ele>
        <time>2012-09-23T10:06:25Z</time>
      </trkpt>
      <trkpt lat="48.59346" lon="-0.41929">
        <ele>256</ele>
        <time>2012-09-23T10:06:29Z</time>
      </trkpt>
      <trkpt lat="48.59326" lon="-0.41926">
        <ele>255.5</ele>
        <time>2012-09-23T10:06:32Z</time>
      </trkpt>
      <trkpt lat="48.59293" lon="-0.41921">
        <ele>254.9</ele>
        <time>2012-09-23T10:06:37Z</time>
      </trkpt>
      <trkpt lat="48.59272" lon="-0.41921">
        <ele>255.5</ele>
        <time>2012-09-23T10:06:41Z</time>
      </trkpt>
      <trkpt lat="48.59253" lon="-0.41916">
        <ele>255.7</ele>
        <time>2012-09-23T10:06:44Z</time>
      </trkpt>
      <trkpt lat="48.59235" lon="-0.41912">
        <ele>255.8</ele>
        <time>2012-09-23T10:06:47Z</time>
      </trkpt>
      <trkpt lat="48.59206" lon="-0.41906">
        <ele>253.7</ele>
        <time>2012-09-23T10:06:53Z</time>
      </trkpt>
      <trkpt lat="48.59189" lon="-0.41903">
        <ele>253.6</ele>
        <time>2012-09-23T10:06:56Z</time>
      </trkpt>
      <trkpt lat="48.59148" lon="-0.41878">
        <ele>249.6</ele>
        <time>2012-09-23T10:07:04Z</time>
      </trkpt>
      <trkpt lat="48.59135" lon="-0.41857">
        <ele>249</ele>
        <time>2012-09-23T10:07:08Z</time>
      </trkpt>
      <trkpt lat="48.59117" lon="-0.41814">
        <ele>249.3</ele>
        <time>2012-09-23T10:07:16Z</time>
      </trkpt>
      <trkpt lat="48.59107" lon="-0.41789">
        <ele>250.1</ele>
        <time>2012-09-23T10:07:20Z</time>
      </trkpt>
      <trkpt lat="48.59101" lon="-0.41767">
        <ele>251.6</ele>
        <time>2012-09-23T10:07:24Z</time>
      </trkpt>
      <trkpt lat="48.59093" lon="-0.41744">
        <ele>251.9</ele>
        <time>2012-09-23T10:07:28Z</time>
      </trkpt>
      <trkpt lat="48.59087" lon="-0.41735">
        <ele>250.9</ele>
        <time>2012-09-23T10:07:31Z</time>
      </trkpt>
      <trkpt lat="48.59089" lon="-0.41715">
        <ele>251.6</ele>
        <time>2012-09-23T10:07:36Z</time>
      </trkpt>
      <trkpt lat="48.59096" lon="-0.41696">
        <ele>252.4</ele>
        <time>2012-09-23T10:07:40Z</time>
      </trkpt>
      <trkpt lat="48.59103" lon="-0.41675">
        <ele>254.7</ele>
        <time>2012-09-23T10:07:45Z</time>
      </trkpt>
      <trkpt lat="48.59105" lon="-0.41665">
        <ele>254.9</ele>
        <time>2012-09-23T10:07:47Z</time>
      </trkpt>
      <trkpt lat="48.59105" lon="-0.41665">
        <ele>203.3</ele>
        <time>2012-09-23T10:07:58Z</time>
      </trkpt>
      <trkpt lat="48.59105" lon="-0.41665">
        <ele>203.3</ele>
        <time>2012-09-23T10:07:59Z</time>
      </trkpt>
      <trkpt lat="48.5911" lon="-0.41607">
        <ele>258.5</ele>
        <time>2012-09-23T10:08:01Z</time>
      </trkpt>
      <trkpt lat="48.59104" lon="-0.41587">
        <ele>258.4</ele>
        <time>2012-09-23T10:08:06Z</time>
      </trkpt>
      <trkpt lat="48.59101" lon="-0.41578">
        <ele>258.1</ele>
        <time>2012-09-23T10:08:08Z</time>
      </trkpt>
      <trkpt lat="48.59091" lon="-0.41551">
        <ele>257.5</ele>
        <time>2012-09-23T10:08:14Z</time>
      </trkpt>
      <trkpt lat="48.59085" lon="-0.41533">
        <ele>257.4</ele>
        <time>2012-09-23T10:08:18Z</time>
      </trkpt>
      <trkpt lat="48.59078" lon="-0.41515">
        <ele>257.2</ele>
        <time>2012-09-23T10:08:22Z</time>
      </trkpt>
      <trkpt lat="48.5906" lon="-0.4147">
        <ele>259.7</ele>
        <time>2012-09-23T10:08:33Z</time>
      </trkpt>
      <trkpt lat="48.59054" lon="-0.41452">
        <ele>261</ele>
        <time>2012-09-23T10:08:37Z</time>
      </trkpt>
      <trkpt lat="48.59046" lon="-0.41441">
        <ele>261.2</ele>
        <time>2012-09-23T10:08:40Z</time>
      </trkpt>
      <trkpt lat="48.5902" lon="-0.41407">
        <ele>261</ele>
        <time>2012-09-23T10:08:50Z</time>
      </trkpt>
      <trkpt lat="48.59006" lon="-0.41396">
        <ele>260.1</ele>
        <time>2012-09-23T10:08:54Z</time>
      </trkpt>
      <trkpt lat="48.58993" lon="-0.41386">
        <ele>257.9</ele>
        <time>2012-09-23T10:08:58Z</time>
      </trkpt>
      <trkpt lat="48.58987" lon="-0.4138">
        <ele>257.2</ele>
        <time>2012-09-23T10:09:00Z</time>
      </trkpt>
      <trkpt lat="48.58972" lon="-0.41365">
        <ele>255</ele>
        <time>2012-09-23T10:09:06Z</time>
      </trkpt>
      <trkpt lat="48.58958" lon="-0.41355">
        <ele>255.9</ele>
        <time>2012-09-23T10:09:10Z</time>
      </trkpt>
      <trkpt lat="48.58946" lon="-0.41345">
        <ele>256.8</ele>
        <time>2012-09-23T10:09:14Z</time>
      </trkpt>
      <trkpt lat="48.58939" lon="-0.41336">
        <ele>256.7</ele>
        <time>2012-09-23T10:09:17Z</time>
      </trkpt>
      <trkpt lat="48.58931" lon="-0.41328">
        <ele>256.9</ele>
        <time>2012-09-23T10:09:20Z</time>
      </trkpt>
      <trkpt lat="48.5892" lon="-0.41319">
        <ele>258.1</ele>
        <time>2012-09-23T10:09:25Z</time>
      </trkpt>
      <trkpt lat="48.58907" lon="-0.41305">
        <ele>258.4</ele>
        <time>2012-09-23T10:09:30Z</time>
      </trkpt>
      <trkpt lat="48.58899" lon="-0.41298">
        <ele>260.2</ele>
        <time>2012-09-23T10:09:33Z</time>
      </trkpt>
      <trkpt lat="48.58892" lon="-0.41292">
        <ele>259.8</ele>
        <time>2012-09-23T10:09:36Z</time>
      </trkpt>
      <trkpt lat="48.58885" lon="-0.41288">
        <ele>258.9</ele>
        <time>2012-09-23T10:09:40Z</time>
      </trkpt>
      <trkpt lat="48.58885" lon="-0.41288">
        <ele>207.1</ele>
        <time>2012-09-23T10:09:51Z</time>
      </trkpt>
      <trkpt lat="48.58885" lon="-0.41288">
        <ele>207.1</ele>
        <time>2012-09-23T10:10:28Z</time>
      </trkpt>
      <trkpt lat="48.58885" lon="-0.41288">
        <ele>207.1</ele>
        <time>2012-09-23T10:10:40Z</time>
      </trkpt>
      <trkpt lat="48.58885" lon="-0.41288">
        <ele>207.1</ele>
        <time>2012-09-23T10:11:02Z</time>
      </trkpt>
      <trkpt lat="48.58861" lon="-0.41271">
        <ele>255.5</ele>
        <time>2012-09-23T10:11:05Z</time>
      </trkpt>
      <trkpt lat="48.58855" lon="-0.41264">
        <ele>255.2</ele>
        <time>2012-09-23T10:11:09Z</time>
      </trkpt>
      <trkpt lat="48.5885" lon="-0.41257">
        <ele>254.6</ele>
        <time>2012-09-23T10:11:12Z</time>
      </trkpt>
      <trkpt lat="48.58839" lon="-0.41244">
        <ele>253.3</ele>
        <time>2012-09-23T10:11:16Z</time>
      </trkpt>
      <trkpt lat="48.5883" lon="-0.41228">
        <ele>253.5</ele>
        <time>2012-09-23T10:11:20Z</time>
      </trkpt>
      <trkpt lat="48.5882" lon="-0.41211">
        <ele>254</ele>
        <time>2012-09-23T10:11:25Z</time>
      </trkpt>
      <trkpt lat="48.58808" lon="-0.41196">
        <ele>254.2</ele>
        <time>2012-09-23T10:11:29Z</time>
      </trkpt>
      <trkpt lat="48.58796" lon="-0.41181">
        <ele>254.7</ele>
        <time>2012-09-23T10:11:33Z</time>
      </trkpt>
      <trkpt lat="48.58785" lon="-0.41164">
        <ele>255</ele>
        <time>2012-09-23T10:11:37Z</time>
      </trkpt>
      <trkpt lat="48.58773" lon="-0.41148">
        <ele>256.4</ele>
        <time>2012-09-23T10:11:41Z</time>
      </trkpt>
      <trkpt lat="48.58762" lon="-0.41136">
        <ele>256.5</ele>
        <time>2012-09-23T10:11:45Z</time>
      </trkpt>
      <trkpt lat="48.58753" lon="-0.4112">
        <ele>255</ele>
        <time>2012-09-23T10:11:49Z</time>
      </trkpt>
      <trkpt lat="48.58744" lon="-0.41103">
        <ele>254.7</ele>
        <time>2012-09-23T10:11:53Z</time>
      </trkpt>
      <trkpt lat="48.58738" lon="-0.41083">
        <ele>253.1</ele>
        <time>2012-09-23T10:11:57Z</time>
      </trkpt>
      <trkpt lat="48.58732" lon="-0.41065">
        <ele>252.9</ele>
        <time>2012-09-23T10:12:00Z</time>
      </trkpt>
      <trkpt lat="48.58721" lon="-0.41037">
        <ele>253.2</ele>
        <time>2012-09-23T10:12:04Z</time>
      </trkpt>
      <trkpt lat="48.58712" lon="-0.40999">
        <ele>249.5</ele>
        <time>2012-09-23T10:12:08Z</time>
      </trkpt>
      <trkpt lat="48.58712" lon="-0.40969">
        <ele>248.2</ele>
        <time>2012-09-23T10:12:12Z</time>
      </trkpt>
      <trkpt lat="48.58721" lon="-0.40939">
        <ele>248.5</ele>
        <time>2012-09-23T10:12:16Z</time>
      </trkpt>
      <trkpt lat="48.58716" lon="-0.40913">
        <ele>246.9</ele>
        <time>2012-09-23T10:12:20Z</time>
      </trkpt>
      <trkpt lat="48.5872" lon="-0.40904">
        <ele>246.5</ele>
        <time>2012-09-23T10:12:23Z</time>
      </trkpt>
      <trkpt lat="48.58734" lon="-0.40895">
        <ele>253.7</ele>
        <time>2012-09-23T10:12:29Z</time>
      </trkpt>
      <trkpt lat="48.58739" lon="-0.40888">
        <ele>256.7</ele>
        <time>2012-09-23T10:12:32Z</time>
      </trkpt>
      <trkpt lat="48.58746" lon="-0.40882">
        <ele>257.7</ele>
        <time>2012-09-23T10:12:35Z</time>
      </trkpt>
      <trkpt lat="48.58752" lon="-0.40873">
        <ele>257.6</ele>
        <time>2012-09-23T10:12:38Z</time>
      </trkpt>
      <trkpt lat="48.58765" lon="-0.40845">
        <ele>258.9</ele>
        <time>2012-09-23T10:12:46Z</time>
      </trkpt>
      <trkpt lat="48.58766" lon="-0.40832">
        <ele>261</ele>
        <time>2012-09-23T10:12:51Z</time>
      </trkpt>
      <trkpt lat="48.58766" lon="-0.40832">
        <ele>201.5</ele>
        <time>2012-09-23T10:13:02Z</time>
      </trkpt>
      <trkpt lat="48.58766" lon="-0.40832">
        <ele>201.5</ele>
        <time>2012-09-23T10:13:24Z</time>
      </trkpt>
      <trkpt lat="48.58792" lon="-0.40752">
        <ele>261.1</ele>
        <time>2012-09-23T10:13:26Z</time>
      </trkpt>
      <trkpt lat="48.58824" lon="-0.40711">
        <ele>259.4</ele>
        <time>2012-09-23T10:13:30Z</time>
      </trkpt>
      <trkpt lat="48.58835" lon="-0.40696">
        <ele>260.1</ele>
        <time>2012-09-23T10:13:35Z</time>
      </trkpt>
      <trkpt lat="48.58839" lon="-0.40688">
        <ele>262.7</ele>
        <time>2012-09-23T10:13:38Z</time>
      </trkpt>
      <trkpt lat="48.58843" lon="-0.4068">
        <ele>262.9</ele>
        <time>2012-09-23T10:13:40Z</time>
      </trkpt>
      <trkpt lat="48.5887" lon="-0.40636">
        <ele>260.8</ele>
        <time>2012-09-23T10:13:47Z</time>
      </trkpt>
      <trkpt lat="48.58887" lon="-0.4061">
        <ele>259.6</ele>
        <time>2012-09-23T10:13:50Z</time>
      </trkpt>
      <trkpt lat="48.58898" lon="-0.40586">
        <ele>257.8</ele>
        <time>2012-09-23T10:13:54Z</time>
      </trkpt>
      <trkpt lat="48.5891" lon="-0.40567">
        <ele>263.3</ele>
        <time>2012-09-23T10:13:58Z</time>
      </trkpt>
      <trkpt lat="48.58907" lon="-0.40533">
        <ele>267.3</ele>
        <time>2012-09-23T10:14:08Z</time>
      </trkpt>
      <trkpt lat="48.58901" lon="-0.40512">
        <ele>266.1</ele>
        <time>2012-09-23T10:14:15Z</time>
      </trkpt>
      <trkpt lat="48.58898" lon="-0.40503">
        <ele>266.2</ele>
        <time>2012-09-23T10:14:18Z</time>
      </trkpt>
      <trkpt lat="48.5889" lon="-0.40484">
        <ele>262.7</ele>
        <time>2012-09-23T10:14:22Z</time>
      </trkpt>
      <trkpt lat="48.5889" lon="-0.40461">
        <ele>263.5</ele>
        <time>2012-09-23T10:14:26Z</time>
      </trkpt>
      <trkpt lat="48.58888" lon="-0.40437">
        <ele>262</ele>
        <time>2012-09-23T10:14:30Z</time>
      </trkpt>
      <trkpt lat="48.5889" lon="-0.40411">
        <ele>261.4</ele>
        <time>2012-09-23T10:14:35Z</time>
      </trkpt>
      <trkpt lat="48.58888" lon="-0.40391">
        <ele>260.2</ele>
        <time>2012-09-23T10:14:39Z</time>
      </trkpt>
      <trkpt lat="48.58891" lon="-0.40378">
        <ele>260.8</ele>
        <time>2012-09-23T10:14:42Z</time>
      </trkpt>
      <trkpt lat="48.58891" lon="-0.40354">
        <ele>262.1</ele>
        <time>2012-09-23T10:14:46Z</time>
      </trkpt>
      <trkpt lat="48.58892" lon="-0.40332">
        <ele>262.8</ele>
        <time>2012-09-23T10:14:50Z</time>
      </trkpt>
      <trkpt lat="48.58899" lon="-0.40303">
        <ele>260.5</ele>
        <time>2012-09-23T10:14:55Z</time>
      </trkpt>
      <trkpt lat="48.58904" lon="-0.4027">
        <ele>260.7</ele>
        <time>2012-09-23T10:14:59Z</time>
      </trkpt>
      <trkpt lat="48.58913" lon="-0.4024">
        <ele>261.6</ele>
        <time>2012-09-23T10:15:02Z</time>
      </trkpt>
      <trkpt lat="48.58915" lon="-0.40211">
        <ele>264.1</ele>
        <time>2012-09-23T10:15:05Z</time>
      </trkpt>
      <trkpt lat="48.58917" lon="-0.4017">
        <ele>264.2</ele>
        <time>2012-09-23T10:15:11Z</time>
      </trkpt>
      <trkpt lat="48.58922" lon="-0.4015">
        <ele>263.1</ele>
        <time>2012-09-23T10:15:14Z</time>
      </trkpt>
      <trkpt lat="48.58927" lon="-0.40139">
        <ele>263.3</ele>
        <time>2012-09-23T10:15:16Z</time>
      </trkpt>
      <trkpt lat="48.58936" lon="-0.401">
        <ele>263.4</ele>
        <time>2012-09-23T10:15:22Z</time>
      </trkpt>
      <trkpt lat="48.58939" lon="-0.40077">
        <ele>262.3</ele>
        <time>2012-09-23T10:15:26Z</time>
      </trkpt>
      <trkpt lat="48.58947" lon="-0.40055">
        <ele>265.1</ele>
        <time>2012-09-23T10:15:30Z</time>
      </trkpt>
      <trkpt lat="48.58952" lon="-0.40028">
        <ele>263.9</ele>
        <time>2012-09-23T10:15:34Z</time>
      </trkpt>
      <trkpt lat="48.58942" lon="-0.4002">
        <ele>261.7</ele>
        <time>2012-09-23T10:15:38Z</time>
      </trkpt>
      <trkpt lat="48.58923" lon="-0.40029">
        <ele>259.3</ele>
        <time>2012-09-23T10:15:42Z</time>
      </trkpt>
      <trkpt lat="48.58906" lon="-0.40038">
        <ele>258.7</ele>
        <time>2012-09-23T10:15:46Z</time>
      </trkpt>
      <trkpt lat="48.58885" lon="-0.40048">
        <ele>257.5</ele>
        <time>2012-09-23T10:15:50Z</time>
      </trkpt>
      <trkpt lat="48.58865" lon="-0.40056">
        <ele>258</ele>
        <time>2012-09-23T10:15:54Z</time>
      </trkpt>
      <trkpt lat="48.58848" lon="-0.40064">
        <ele>258.4</ele>
        <time>2012-09-23T10:15:58Z</time>
      </trkpt>
      <trkpt lat="48.58833" lon="-0.40072">
        <ele>258.3</ele>
        <time>2012-09-23T10:16:02Z</time>
      </trkpt>
      <trkpt lat="48.58816" lon="-0.4008">
        <ele>258</ele>
        <time>2012-09-23T10:16:06Z</time>
      </trkpt>
      <trkpt lat="48.58801" lon="-0.40089">
        <ele>257.9</ele>
        <time>2012-09-23T10:16:10Z</time>
      </trkpt>
      <trkpt lat="48.58785" lon="-0.40101">
        <ele>258.8</ele>
        <time>2012-09-23T10:16:14Z</time>
      </trkpt>
      <trkpt lat="48.5877" lon="-0.4011">
        <ele>260.1</ele>
        <time>2012-09-23T10:16:18Z</time>
      </trkpt>
      <trkpt lat="48.58754" lon="-0.40118">
        <ele>260.6</ele>
        <time>2012-09-23T10:16:22Z</time>
      </trkpt>
      <trkpt lat="48.58738" lon="-0.40125">
        <ele>260.9</ele>
        <time>2012-09-23T10:16:26Z</time>
      </trkpt>
      <trkpt lat="48.5873" lon="-0.40129">
        <ele>261</ele>
        <time>2012-09-23T10:16:28Z</time>
      </trkpt>
      <trkpt lat="48.5873" lon="-0.40129">
        <ele>212.9</ele>
        <time>2012-09-23T10:16:39Z</time>
      </trkpt>
      <trkpt lat="48.5873" lon="-0.40129">
        <ele>212.9</ele>
        <time>2012-09-23T10:16:42Z</time>
      </trkpt>
      <trkpt lat="48.58668" lon="-0.40151">
        <ele>263.1</ele>
        <time>2012-09-23T10:16:44Z</time>
      </trkpt>
      <trkpt lat="48.58651" lon="-0.4016">
        <ele>263.4</ele>
        <time>2012-09-23T10:16:50Z</time>
      </trkpt>
      <trkpt lat="48.58641" lon="-0.40173">
        <ele>263.5</ele>
        <time>2012-09-23T10:16:54Z</time>
      </trkpt>
      <trkpt lat="48.58627" lon="-0.4019">
        <ele>263.4</ele>
        <time>2012-09-23T10:16:58Z</time>
      </trkpt>
      <trkpt lat="48.5862" lon="-0.40191">
        <ele>263.5</ele>
        <time>2012-09-23T10:17:00Z</time>
      </trkpt>
      <trkpt lat="48.58604" lon="-0.4019">
        <ele>262.6</ele>
        <time>2012-09-23T10:17:05Z</time>
      </trkpt>
      <trkpt lat="48.58562" lon="-0.40184">
        <ele>261.8</ele>
        <time>2012-09-23T10:17:17Z</time>
      </trkpt>
      <trkpt lat="48.5855" lon="-0.40167">
        <ele>265.4</ele>
        <time>2012-09-23T10:17:21Z</time>
      </trkpt>
      <trkpt lat="48.58543" lon="-0.40163">
        <ele>266.5</ele>
        <time>2012-09-23T10:17:23Z</time>
      </trkpt>
      <trkpt lat="48.58519" lon="-0.40154">
        <ele>267.8</ele>
        <time>2012-09-23T10:17:29Z</time>
      </trkpt>
      <trkpt lat="48.58505" lon="-0.40145">
        <ele>270.2</ele>
        <time>2012-09-23T10:17:33Z</time>
      </trkpt>
      <trkpt lat="48.58488" lon="-0.40137">
        <ele>269.5</ele>
        <time>2012-09-23T10:17:38Z</time>
      </trkpt>
      <trkpt lat="48.58475" lon="-0.40126">
        <ele>270.2</ele>
        <time>2012-09-23T10:17:42Z</time>
      </trkpt>
      <trkpt lat="48.58466" lon="-0.40118">
        <ele>271.5</ele>
        <time>2012-09-23T10:17:45Z</time>
      </trkpt>
      <trkpt lat="48.58453" lon="-0.40106">
        <ele>273.2</ele>
        <time>2012-09-23T10:17:49Z</time>
      </trkpt>
      <trkpt lat="48.58438" lon="-0.40108">
        <ele>278.9</ele>
        <time>2012-09-23T10:17:53Z</time>
      </trkpt>
      <trkpt lat="48.58423" lon="-0.40111">
        <ele>278.3</ele>
        <time>2012-09-23T10:17:58Z</time>
      </trkpt>
      <trkpt lat="48.58413" lon="-0.40112">
        <ele>278.4</ele>
        <time>2012-09-23T10:18:01Z</time>
      </trkpt>
      <trkpt lat="48.58405" lon="-0.40113">
        <ele>278.1</ele>
        <time>2012-09-23T10:18:03Z</time>
      </trkpt>
      <trkpt lat="48.5836" lon="-0.40127">
        <ele>276.3</ele>
        <time>2012-09-23T10:18:10Z</time>
      </trkpt>
      <trkpt lat="48.5834" lon="-0.40134">
        <ele>277.1</ele>
        <time>2012-09-23T10:18:14Z</time>
      </trkpt>
      <trkpt lat="48.5832" lon="-0.40147">
        <ele>275</ele>
        <time>2012-09-23T10:18:18Z</time>
      </trkpt>
      <trkpt lat="48.58298" lon="-0.4016">
        <ele>271.8</ele>
        <time>2012-09-23T10:18:22Z</time>
      </trkpt>
      <trkpt lat="48.58282" lon="-0.40166">
        <ele>273.3</ele>
        <time>2012-09-23T10:18:26Z</time>
      </trkpt>
      <trkpt lat="48.58266" lon="-0.40168">
        <ele>274</ele>
        <time>2012-09-23T10:18:30Z</time>
      </trkpt>
      <trkpt lat="48.58254" lon="-0.40179">
        <ele>272.2</ele>
        <time>2012-09-23T10:18:34Z</time>
      </trkpt>
      <trkpt lat="48.58247" lon="-0.40178">
        <ele>272.7</ele>
        <time>2012-09-23T10:18:37Z</time>
      </trkpt>
      <trkpt lat="48.58239" lon="-0.40184">
        <ele>274.1</ele>
        <time>2012-09-23T10:18:41Z</time>
      </trkpt>
      <trkpt lat="48.58221" lon="-0.40191">
        <ele>272.7</ele>
        <time>2012-09-23T10:18:45Z</time>
      </trkpt>
      <trkpt lat="48.58215" lon="-0.40194">
        <ele>275.5</ele>
        <time>2012-09-23T10:18:48Z</time>
      </trkpt>
      <trkpt lat="48.58205" lon="-0.40198">
        <ele>277</ele>
        <time>2012-09-23T10:18:51Z</time>
      </trkpt>
      <trkpt lat="48.58188" lon="-0.40197">
        <ele>274.1</ele>
        <time>2012-09-23T10:18:57Z</time>
      </trkpt>
      <trkpt lat="48.58172" lon="-0.40205">
        <ele>273</ele>
        <time>2012-09-23T10:19:01Z</time>
      </trkpt>
      <trkpt lat="48.58159" lon="-0.40209">
        <ele>274.7</ele>
        <time>2012-09-23T10:19:06Z</time>
      </trkpt>
      <trkpt lat="48.58152" lon="-0.40212">
        <ele>274.1</ele>
        <time>2012-09-23T10:19:09Z</time>
      </trkpt>
      <trkpt lat="48.58137" lon="-0.40221">
        <ele>276.3</ele>
        <time>2012-09-23T10:19:14Z</time>
      </trkpt>
      <trkpt lat="48.58131" lon="-0.40223">
        <ele>276.5</ele>
        <time>2012-09-23T10:19:16Z</time>
      </trkpt>
      <trkpt lat="48.58113" lon="-0.40234">
        <ele>275</ele>
        <time>2012-09-23T10:19:21Z</time>
      </trkpt>
      <trkpt lat="48.58096" lon="-0.40239">
        <ele>273.2</ele>
        <time>2012-09-23T10:19:25Z</time>
      </trkpt>
      <trkpt lat="48.58081" lon="-0.4024">
        <ele>273.3</ele>
        <time>2012-09-23T10:19:29Z</time>
      </trkpt>
      <trkpt lat="48.58061" lon="-0.4024">
        <ele>270.3</ele>
        <time>2012-09-23T10:19:33Z</time>
      </trkpt>
      <trkpt lat="48.58042" lon="-0.40242">
        <ele>270.7</ele>
        <time>2012-09-23T10:19:37Z</time>
      </trkpt>
      <trkpt lat="48.58026" lon="-0.40245">
        <ele>270.5</ele>
        <time>2012-09-23T10:19:41Z</time>
      </trkpt>
      <trkpt lat="48.58008" lon="-0.40248">
        <ele>270.9</ele>
        <time>2012-09-23T10:19:45Z</time>
      </trkpt>
      <trkpt lat="48.58003" lon="-0.40242">
        <ele>275.4</ele>
        <time>2012-09-23T10:19:48Z</time>
      </trkpt>
      <trkpt lat="48.58006" lon="-0.40219">
        <ele>275.1</ele>
        <time>2012-09-23T10:19:57Z</time>
      </trkpt>
      <trkpt lat="48.58007" lon="-0.40209">
        <ele>276.2</ele>
        <time>2012-09-23T10:19:59Z</time>
      </trkpt>
      <trkpt lat="48.58005" lon="-0.40187">
        <ele>277.1</ele>
        <time>2012-09-23T10:20:06Z</time>
      </trkpt>
      <trkpt lat="48.58004" lon="-0.40175">
        <ele>279.3</ele>
        <time>2012-09-23T10:20:09Z</time>
      </trkpt>
      <trkpt lat="48.58006" lon="-0.40151">
        <ele>282.7</ele>
        <time>2012-09-23T10:20:13Z</time>
      </trkpt>
      <trkpt lat="48.58006" lon="-0.4014">
        <ele>283.5</ele>
        <time>2012-09-23T10:20:16Z</time>
      </trkpt>
      <trkpt lat="48.58003" lon="-0.40127">
        <ele>283.4</ele>
        <time>2012-09-23T10:20:21Z</time>
      </trkpt>
      <trkpt lat="48.57999" lon="-0.4011">
        <ele>281.9</ele>
        <time>2012-09-23T10:20:25Z</time>
      </trkpt>
      <trkpt lat="48.58" lon="-0.40086">
        <ele>283.5</ele>
        <time>2012-09-23T10:20:30Z</time>
      </trkpt>
      <trkpt lat="48.57995" lon="-0.40055">
        <ele>285.3</ele>
        <time>2012-09-23T10:20:38Z</time>
      </trkpt>
      <trkpt lat="48.57996" lon="-0.40044">
        <ele>284.9</ele>
        <time>2012-09-23T10:20:43Z</time>
      </trkpt>
      <trkpt lat="48.57994" lon="-0.40021">
        <ele>289.1</ele>
        <time>2012-09-23T10:20:50Z</time>
      </trkpt>
      <trkpt lat="48.57997" lon="-0.4001">
        <ele>291.7</ele>
        <time>2012-09-23T10:20:52Z</time>
      </trkpt>
      <trkpt lat="48.57997" lon="-0.39987">
        <ele>292.1</ele>
        <time>2012-09-23T10:20:57Z</time>
      </trkpt>
      <trkpt lat="48.57988" lon="-0.39961">
        <ele>291.8</ele>
        <time>2012-09-23T10:21:02Z</time>
      </trkpt>
      <trkpt lat="48.57976" lon="-0.39939">
        <ele>294</ele>
        <time>2012-09-23T10:21:06Z</time>
      </trkpt>
      <trkpt lat="48.57969" lon="-0.3992">
        <ele>293.2</ele>
        <time>2012-09-23T10:21:10Z</time>
      </trkpt>
      <trkpt lat="48.57963" lon="-0.39909">
        <ele>293.9</ele>
        <time>2012-09-23T10:21:13Z</time>
      </trkpt>
      <trkpt lat="48.57966" lon="-0.39892">
        <ele>299.7</ele>
        <time>2012-09-23T10:21:17Z</time>
      </trkpt>
      <trkpt lat="48.57962" lon="-0.3987">
        <ele>305.1</ele>
        <time>2012-09-23T10:21:23Z</time>
      </trkpt>
      <trkpt lat="48.57942" lon="-0.39851">
        <ele>293.5</ele>
        <time>2012-09-23T10:21:29Z</time>
      </trkpt>
      <trkpt lat="48.57936" lon="-0.39847">
        <ele>292.9</ele>
        <time>2012-09-23T10:21:32Z</time>
      </trkpt>
      <trkpt lat="48.5793" lon="-0.39837">
        <ele>293.4</ele>
        <time>2012-09-23T10:21:37Z</time>
      </trkpt>
      <trkpt lat="48.57928" lon="-0.39826">
        <ele>295.6</ele>
        <time>2012-09-23T10:21:41Z</time>
      </trkpt>
      <trkpt lat="48.57914" lon="-0.39822">
        <ele>294</ele>
        <time>2012-09-23T10:21:49Z</time>
      </trkpt>
      <trkpt lat="48.579" lon="-0.39831">
        <ele>286.6</ele>
        <time>2012-09-23T10:21:53Z</time>
      </trkpt>
      <trkpt lat="48.57894" lon="-0.39838">
        <ele>283.5</ele>
        <time>2012-09-23T10:21:56Z</time>
      </trkpt>
      <trkpt lat="48.57872" lon="-0.39862">
        <ele>274.5</ele>
        <time>2012-09-23T10:22:02Z</time>
      </trkpt>
      <trkpt lat="48.57856" lon="-0.39881">
        <ele>271.7</ele>
        <time>2012-09-23T10:22:06Z</time>
      </trkpt>
      <trkpt lat="48.57842" lon="-0.39897">
        <ele>271.7</ele>
        <time>2012-09-23T10:22:09Z</time>
      </trkpt>
      <trkpt lat="48.57817" lon="-0.39933">
        <ele>271.4</ele>
        <time>2012-09-23T10:22:14Z</time>
      </trkpt>
      <trkpt lat="48.57789" lon="-0.39966">
        <ele>271.4</ele>
        <time>2012-09-23T10:22:18Z</time>
      </trkpt>
      <trkpt lat="48.57769" lon="-0.39988">
        <ele>272.1</ele>
        <time>2012-09-23T10:22:21Z</time>
      </trkpt>
      <trkpt lat="48.57732" lon="-0.40027">
        <ele>270.9</ele>
        <time>2012-09-23T10:22:26Z</time>
      </trkpt>
      <trkpt lat="48.57713" lon="-0.40053">
        <ele>269.1</ele>
        <time>2012-09-23T10:22:29Z</time>
      </trkpt>
      <trkpt lat="48.57677" lon="-0.40095">
        <ele>262.2</ele>
        <time>2012-09-23T10:22:34Z</time>
      </trkpt>
      <trkpt lat="48.57651" lon="-0.40125">
        <ele>259.3</ele>
        <time>2012-09-23T10:22:38Z</time>
      </trkpt>
      <trkpt lat="48.57623" lon="-0.40155">
        <ele>258</ele>
        <time>2012-09-23T10:22:42Z</time>
      </trkpt>
      <trkpt lat="48.57598" lon="-0.40182">
        <ele>255.3</ele>
        <time>2012-09-23T10:22:46Z</time>
      </trkpt>
      <trkpt lat="48.57574" lon="-0.40211">
        <ele>253.4</ele>
        <time>2012-09-23T10:22:50Z</time>
      </trkpt>
      <trkpt lat="48.5756" lon="-0.40231">
        <ele>252.4</ele>
        <time>2012-09-23T10:22:54Z</time>
      </trkpt>
      <trkpt lat="48.57552" lon="-0.40225">
        <ele>251.7</ele>
        <time>2012-09-23T10:22:57Z</time>
      </trkpt>
      <trkpt lat="48.57541" lon="-0.40203">
        <ele>250.7</ele>
        <time>2012-09-23T10:23:02Z</time>
      </trkpt>
      <trkpt lat="48.57533" lon="-0.40186">
        <ele>251.2</ele>
        <time>2012-09-23T10:23:06Z</time>
      </trkpt>
      <trkpt lat="48.57523" lon="-0.40168">
        <ele>252.1</ele>
        <time>2012-09-23T10:23:10Z</time>
      </trkpt>
      <trkpt lat="48.57513" lon="-0.40151">
        <ele>256.3</ele>
        <time>2012-09-23T10:23:15Z</time>
      </trkpt>
      <trkpt lat="48.57492" lon="-0.4016">
        <ele>255.2</ele>
        <time>2012-09-23T10:23:21Z</time>
      </trkpt>
      <trkpt lat="48.57481" lon="-0.40171">
        <ele>254.5</ele>
        <time>2012-09-23T10:23:25Z</time>
      </trkpt>
      <trkpt lat="48.57474" lon="-0.40172">
        <ele>259.3</ele>
        <time>2012-09-23T10:23:28Z</time>
      </trkpt>
      <trkpt lat="48.57461" lon="-0.40187">
        <ele>261.3</ele>
        <time>2012-09-23T10:23:33Z</time>
      </trkpt>
      <trkpt lat="48.57455" lon="-0.40198">
        <ele>265.3</ele>
        <time>2012-09-23T10:23:37Z</time>
      </trkpt>
      <trkpt lat="48.57449" lon="-0.40202">
        <ele>268.2</ele>
        <time>2012-09-23T10:23:40Z</time>
      </trkpt>
      <trkpt lat="48.57442" lon="-0.40224">
        <ele>263.8</ele>
        <time>2012-09-23T10:23:46Z</time>
      </trkpt>
      <trkpt lat="48.57436" lon="-0.40232">
        <ele>264.1</ele>
        <time>2012-09-23T10:23:49Z</time>
      </trkpt>
      <trkpt lat="48.57414" lon="-0.40248">
        <ele>261.9</ele>
        <time>2012-09-23T10:23:54Z</time>
      </trkpt>
      <trkpt lat="48.57404" lon="-0.40268">
        <ele>260.1</ele>
        <time>2012-09-23T10:23:58Z</time>
      </trkpt>
      <trkpt lat="48.57391" lon="-0.4028">
        <ele>260.8</ele>
        <time>2012-09-23T10:24:02Z</time>
      </trkpt>
      <trkpt lat="48.57378" lon="-0.40294">
        <ele>258.4</ele>
        <time>2012-09-23T10:24:06Z</time>
      </trkpt>
      <trkpt lat="48.57371" lon="-0.40297">
        <ele>258.8</ele>
        <time>2012-09-23T10:24:08Z</time>
      </trkpt>
      <trkpt lat="48.57364" lon="-0.40303">
        <ele>256.5</ele>
        <time>2012-09-23T10:24:14Z</time>
      </trkpt>
      <trkpt lat="48.57351" lon="-0.40314">
        <ele>256</ele>
        <time>2012-09-23T10:24:18Z</time>
      </trkpt>
      <trkpt lat="48.57341" lon="-0.40333">
        <ele>254.6</ele>
        <time>2012-09-23T10:24:22Z</time>
      </trkpt>
      <trkpt lat="48.57333" lon="-0.40354">
        <ele>252.6</ele>
        <time>2012-09-23T10:24:27Z</time>
      </trkpt>
      <trkpt lat="48.57319" lon="-0.40371">
        <ele>253.6</ele>
        <time>2012-09-23T10:24:32Z</time>
      </trkpt>
      <trkpt lat="48.57306" lon="-0.40386">
        <ele>253.5</ele>
        <time>2012-09-23T10:24:37Z</time>
      </trkpt>
      <trkpt lat="48.57298" lon="-0.40393">
        <ele>253.3</ele>
        <time>2012-09-23T10:24:39Z</time>
      </trkpt>
      <trkpt lat="48.57273" lon="-0.40405">
        <ele>256.1</ele>
        <time>2012-09-23T10:24:45Z</time>
      </trkpt>
      <trkpt lat="48.57258" lon="-0.40432">
        <ele>254.7</ele>
        <time>2012-09-23T10:24:50Z</time>
      </trkpt>
      <trkpt lat="48.57249" lon="-0.40454">
        <ele>251.6</ele>
        <time>2012-09-23T10:24:54Z</time>
      </trkpt>
      <trkpt lat="48.57243" lon="-0.4046">
        <ele>252.2</ele>
        <time>2012-09-23T10:24:56Z</time>
      </trkpt>
      <trkpt lat="48.57236" lon="-0.4045">
        <ele>252.1</ele>
        <time>2012-09-23T10:25:05Z</time>
      </trkpt>
      <trkpt lat="48.57229" lon="-0.40438">
        <ele>249.3</ele>
        <time>2012-09-23T10:25:07Z</time>
      </trkpt>
      <trkpt lat="48.57218" lon="-0.40432">
        <ele>250.4</ele>
        <time>2012-09-23T10:25:12Z</time>
      </trkpt>
      <trkpt lat="48.57204" lon="-0.40441">
        <ele>250.2</ele>
        <time>2012-09-23T10:25:18Z</time>
      </trkpt>
      <trkpt lat="48.57185" lon="-0.40453">
        <ele>248.6</ele>
        <time>2012-09-23T10:25:22Z</time>
      </trkpt>
      <trkpt lat="48.57169" lon="-0.40467">
        <ele>249.5</ele>
        <time>2012-09-23T10:25:25Z</time>
      </trkpt>
      <trkpt lat="48.5715" lon="-0.40494">
        <ele>251.7</ele>
        <time>2012-09-23T10:25:30Z</time>
      </trkpt>
      <trkpt lat="48.57128" lon="-0.40518">
        <ele>247.1</ele>
        <time>2012-09-23T10:25:34Z</time>
      </trkpt>
      <trkpt lat="48.57116" lon="-0.40534">
        <ele>249.7</ele>
        <time>2012-09-23T10:25:38Z</time>
      </trkpt>
      <trkpt lat="48.57101" lon="-0.40542">
        <ele>250.6</ele>
        <time>2012-09-23T10:25:42Z</time>
      </trkpt>
      <trkpt lat="48.57066" lon="-0.4058">
        <ele>246.1</ele>
        <time>2012-09-23T10:25:50Z</time>
      </trkpt>
      <trkpt lat="48.5705" lon="-0.40596">
        <ele>246.6</ele>
        <time>2012-09-23T10:25:54Z</time>
      </trkpt>
      <trkpt lat="48.57036" lon="-0.40616">
        <ele>246.7</ele>
        <time>2012-09-23T10:25:58Z</time>
      </trkpt>
      <trkpt lat="48.57021" lon="-0.40641">
        <ele>247.6</ele>
        <time>2012-09-23T10:26:02Z</time>
      </trkpt>
      <trkpt lat="48.57007" lon="-0.40654">
        <ele>245.6</ele>
        <time>2012-09-23T10:26:06Z</time>
      </trkpt>
      <trkpt lat="48.57001" lon="-0.40663">
        <ele>247.7</ele>
        <time>2012-09-23T10:26:09Z</time>
      </trkpt>
      <trkpt lat="48.56989" lon="-0.40681">
        <ele>248.7</ele>
        <time>2012-09-23T10:26:13Z</time>
      </trkpt>
      <trkpt lat="48.56979" lon="-0.40694">
        <ele>251.5</ele>
        <time>2012-09-23T10:26:17Z</time>
      </trkpt>
      <trkpt lat="48.56969" lon="-0.40697">
        <ele>252.8</ele>
        <time>2012-09-23T10:26:20Z</time>
      </trkpt>
      <trkpt lat="48.56962" lon="-0.40705">
        <ele>254.6</ele>
        <time>2012-09-23T10:26:23Z</time>
      </trkpt>
      <trkpt lat="48.56943" lon="-0.40736">
        <ele>257.1</ele>
        <time>2012-09-23T10:26:30Z</time>
      </trkpt>
      <trkpt lat="48.56937" lon="-0.40746">
        <ele>259.4</ele>
        <time>2012-09-23T10:26:34Z</time>
      </trkpt>
      <trkpt lat="48.56931" lon="-0.4075">
        <ele>262.3</ele>
        <time>2012-09-23T10:26:37Z</time>
      </trkpt>
      <trkpt lat="48.5692" lon="-0.40762">
        <ele>262.7</ele>
        <time>2012-09-23T10:26:42Z</time>
      </trkpt>
      <trkpt lat="48.56895" lon="-0.40774">
        <ele>265</ele>
        <time>2012-09-23T10:26:49Z</time>
      </trkpt>
      <trkpt lat="48.5689" lon="-0.40781">
        <ele>265.7</ele>
        <time>2012-09-23T10:26:52Z</time>
      </trkpt>
      <trkpt lat="48.56875" lon="-0.40799">
        <ele>263.2</ele>
        <time>2012-09-23T10:26:57Z</time>
      </trkpt>
      <trkpt lat="48.56864" lon="-0.40815">
        <ele>263.2</ele>
        <time>2012-09-23T10:27:01Z</time>
      </trkpt>
      <trkpt lat="48.56852" lon="-0.40828">
        <ele>254.9</ele>
        <time>2012-09-23T10:27:10Z</time>
      </trkpt>
      <trkpt lat="48.56846" lon="-0.40821">
        <ele>256.1</ele>
        <time>2012-09-23T10:27:13Z</time>
      </trkpt>
      <trkpt lat="48.56842" lon="-0.4081">
        <ele>260.6</ele>
        <time>2012-09-23T10:27:17Z</time>
      </trkpt>
      <trkpt lat="48.56837" lon="-0.40802">
        <ele>264.2</ele>
        <time>2012-09-23T10:27:20Z</time>
      </trkpt>
      <trkpt lat="48.56835" lon="-0.40781">
        <ele>272.6</ele>
        <time>2012-09-23T10:27:29Z</time>
      </trkpt>
      <trkpt lat="48.56826" lon="-0.4076">
        <ele>273.2</ele>
        <time>2012-09-23T10:27:34Z</time>
      </trkpt>
      <trkpt lat="48.56819" lon="-0.40753">
        <ele>274.9</ele>
        <time>2012-09-23T10:27:38Z</time>
      </trkpt>
      <trkpt lat="48.56796" lon="-0.40745">
        <ele>264.2</ele>
        <time>2012-09-23T10:27:42Z</time>
      </trkpt>
      <trkpt lat="48.56788" lon="-0.40744">
        <ele>262.9</ele>
        <time>2012-09-23T10:27:44Z</time>
      </trkpt>
      <trkpt lat="48.5677" lon="-0.40741">
        <ele>258</ele>
        <time>2012-09-23T10:27:49Z</time>
      </trkpt>
      <trkpt lat="48.56759" lon="-0.40751">
        <ele>258.5</ele>
        <time>2012-09-23T10:27:53Z</time>
      </trkpt>
      <trkpt lat="48.56744" lon="-0.40764">
        <ele>258.2</ele>
        <time>2012-09-23T10:27:57Z</time>
      </trkpt>
      <trkpt lat="48.5672" lon="-0.40776">
        <ele>257.6</ele>
        <time>2012-09-23T10:28:02Z</time>
      </trkpt>
      <trkpt lat="48.56715" lon="-0.40782">
        <ele>257.3</ele>
        <time>2012-09-23T10:28:04Z</time>
      </trkpt>
      <trkpt lat="48.567" lon="-0.40795">
        <ele>256.3</ele>
        <time>2012-09-23T10:28:08Z</time>
      </trkpt>
      <trkpt lat="48.5669" lon="-0.40819">
        <ele>254.6</ele>
        <time>2012-09-23T10:28:12Z</time>
      </trkpt>
      <trkpt lat="48.56669" lon="-0.40868">
        <ele>256.5</ele>
        <time>2012-09-23T10:28:18Z</time>
      </trkpt>
      <trkpt lat="48.5665" lon="-0.4091">
        <ele>256.4</ele>
        <time>2012-09-23T10:28:22Z</time>
      </trkpt>
      <trkpt lat="48.56636" lon="-0.40956">
        <ele>253.1</ele>
        <time>2012-09-23T10:28:26Z</time>
      </trkpt>
      <trkpt lat="48.56617" lon="-0.40989">
        <ele>254.4</ele>
        <time>2012-09-23T10:28:30Z</time>
      </trkpt>
      <trkpt lat="48.56612" lon="-0.4101">
        <ele>253.6</ele>
        <time>2012-09-23T10:28:33Z</time>
      </trkpt>
      <trkpt lat="48.56606" lon="-0.41039">
        <ele>249.6</ele>
        <time>2012-09-23T10:28:41Z</time>
      </trkpt>
      <trkpt lat="48.56599" lon="-0.41058">
        <ele>247.7</ele>
        <time>2012-09-23T10:28:46Z</time>
      </trkpt>
      <trkpt lat="48.56595" lon="-0.41066">
        <ele>246.1</ele>
        <time>2012-09-23T10:28:48Z</time>
      </trkpt>
      <trkpt lat="48.56594" lon="-0.41077">
        <ele>246.2</ele>
        <time>2012-09-23T10:28:52Z</time>
      </trkpt>
      <trkpt lat="48.56586" lon="-0.41086">
        <ele>245.8</ele>
        <time>2012-09-23T10:28:56Z</time>
      </trkpt>
      <trkpt lat="48.56574" lon="-0.41104">
        <ele>248.1</ele>
        <time>2012-09-23T10:29:02Z</time>
      </trkpt>
      <trkpt lat="48.56567" lon="-0.41116">
        <ele>247.5</ele>
        <time>2012-09-23T10:29:05Z</time>
      </trkpt>
      <trkpt lat="48.56559" lon="-0.41137">
        <ele>249.1</ele>
        <time>2012-09-23T10:29:09Z</time>
      </trkpt>
      <trkpt lat="48.56548" lon="-0.41157">
        <ele>246.6</ele>
        <time>2012-09-23T10:29:13Z</time>
      </trkpt>
      <trkpt lat="48.56539" lon="-0.41177">
        <ele>249.6</ele>
        <time>2012-09-23T10:29:18Z</time>
      </trkpt>
      <trkpt lat="48.56532" lon="-0.41202">
        <ele>248.4</ele>
        <time>2012-09-23T10:29:22Z</time>
      </trkpt>
      <trkpt lat="48.56528" lon="-0.41225">
        <ele>246.9</ele>
        <time>2012-09-23T10:29:25Z</time>
      </trkpt>
      <trkpt lat="48.56525" lon="-0.41237">
        <ele>246.1</ele>
        <time>2012-09-23T10:29:28Z</time>
      </trkpt>
      <trkpt lat="48.56519" lon="-0.41258">
        <ele>247.1</ele>
        <time>2012-09-23T10:29:34Z</time>
      </trkpt>
      <trkpt lat="48.56515" lon="-0.41268">
        <ele>247.1</ele>
        <time>2012-09-23T10:29:37Z</time>
      </trkpt>
      <trkpt lat="48.56508" lon="-0.41284">
        <ele>248.3</ele>
        <time>2012-09-23T10:29:41Z</time>
      </trkpt>
      <trkpt lat="48.56497" lon="-0.41309">
        <ele>249.7</ele>
        <time>2012-09-23T10:29:46Z</time>
      </trkpt>
      <trkpt lat="48.56493" lon="-0.4132">
        <ele>249.2</ele>
        <time>2012-09-23T10:29:48Z</time>
      </trkpt>
      <trkpt lat="48.56482" lon="-0.41347">
        <ele>249.2</ele>
        <time>2012-09-23T10:29:54Z</time>
      </trkpt>
      <trkpt lat="48.56466" lon="-0.41373">
        <ele>248.7</ele>
        <time>2012-09-23T10:30:01Z</time>
      </trkpt>
      <trkpt lat="48.56457" lon="-0.414">
        <ele>249.6</ele>
        <time>2012-09-23T10:30:05Z</time>
      </trkpt>
      <trkpt lat="48.56443" lon="-0.41425">
        <ele>247.4</ele>
        <time>2012-09-23T10:30:10Z</time>
      </trkpt>
      <trkpt lat="48.56432" lon="-0.41441">
        <ele>245.7</ele>
        <time>2012-09-23T10:30:14Z</time>
      </trkpt>
      <trkpt lat="48.5642" lon="-0.41458">
        <ele>244.5</ele>
        <time>2012-09-23T10:30:18Z</time>
      </trkpt>
      <trkpt lat="48.56405" lon="-0.41475">
        <ele>243.1</ele>
        <time>2012-09-23T10:30:22Z</time>
      </trkpt>
      <trkpt lat="48.56392" lon="-0.4149">
        <ele>243</ele>
        <time>2012-09-23T10:30:26Z</time>
      </trkpt>
      <trkpt lat="48.56379" lon="-0.41504">
        <ele>243.1</ele>
        <time>2012-09-23T10:30:30Z</time>
      </trkpt>
      <trkpt lat="48.56365" lon="-0.4152">
        <ele>243.7</ele>
        <time>2012-09-23T10:30:34Z</time>
      </trkpt>
      <trkpt lat="48.56351" lon="-0.41534">
        <ele>244.9</ele>
        <time>2012-09-23T10:30:38Z</time>
      </trkpt>
      <trkpt lat="48.56337" lon="-0.41545">
        <ele>245.5</ele>
        <time>2012-09-23T10:30:42Z</time>
      </trkpt>
      <trkpt lat="48.56322" lon="-0.41555">
        <ele>244.8</ele>
        <time>2012-09-23T10:30:46Z</time>
      </trkpt>
      <trkpt lat="48.56308" lon="-0.41564">
        <ele>245.3</ele>
        <time>2012-09-23T10:30:50Z</time>
      </trkpt>
      <trkpt lat="48.56292" lon="-0.41573">
        <ele>244.6</ele>
        <time>2012-09-23T10:30:54Z</time>
      </trkpt>
      <trkpt lat="48.56276" lon="-0.4158">
        <ele>244.7</ele>
        <time>2012-09-23T10:30:58Z</time>
      </trkpt>
      <trkpt lat="48.56259" lon="-0.41587">
        <ele>243</ele>
        <time>2012-09-23T10:31:02Z</time>
      </trkpt>
      <trkpt lat="48.56243" lon="-0.41589">
        <ele>241.3</ele>
        <time>2012-09-23T10:31:06Z</time>
      </trkpt>
      <trkpt lat="48.56226" lon="-0.41594">
        <ele>240.7</ele>
        <time>2012-09-23T10:31:10Z</time>
      </trkpt>
      <trkpt lat="48.56211" lon="-0.41597">
        <ele>239.2</ele>
        <time>2012-09-23T10:31:14Z</time>
      </trkpt>
      <trkpt lat="48.56195" lon="-0.416">
        <ele>240.3</ele>
        <time>2012-09-23T10:31:18Z</time>
      </trkpt>
      <trkpt lat="48.56178" lon="-0.41602">
        <ele>240</ele>
        <time>2012-09-23T10:31:22Z</time>
      </trkpt>
      <trkpt lat="48.56164" lon="-0.41602">
        <ele>239.3</ele>
        <time>2012-09-23T10:31:26Z</time>
      </trkpt>
      <trkpt lat="48.5615" lon="-0.41602">
        <ele>239.9</ele>
        <time>2012-09-23T10:31:30Z</time>
      </trkpt>
      <trkpt lat="48.56129" lon="-0.41609">
        <ele>245.6</ele>
        <time>2012-09-23T10:31:38Z</time>
      </trkpt>
      <trkpt lat="48.56125" lon="-0.41618">
        <ele>241.4</ele>
        <time>2012-09-23T10:31:42Z</time>
      </trkpt>
      <trkpt lat="48.56117" lon="-0.41617">
        <ele>242.1</ele>
        <time>2012-09-23T10:31:49Z</time>
      </trkpt>
      <trkpt lat="48.56112" lon="-0.41624">
        <ele>240.4</ele>
        <time>2012-09-23T10:31:51Z</time>
      </trkpt>
      <trkpt lat="48.56098" lon="-0.4162">
        <ele>238.9</ele>
        <time>2012-09-23T10:31:57Z</time>
      </trkpt>
      <trkpt lat="48.56092" lon="-0.41616">
        <ele>238.3</ele>
        <time>2012-09-23T10:32:03Z</time>
      </trkpt>
      <trkpt lat="48.56092" lon="-0.41616">
        <ele>192.7</ele>
        <time>2012-09-23T10:32:15Z</time>
      </trkpt>
      <trkpt lat="48.56092" lon="-0.41616">
        <ele>192.7</ele>
        <time>2012-09-23T10:33:33Z</time>
      </trkpt>
    </trkseg>
  </trk>
</gpx>